CV797 / LX-VCJ 7700 Squawk Report (11th of January, 2018)

Aircraft B748 Reg No. LX-VCJ Age 4 years old
Model 747 Jet engines 4 First flight 20-02-14
Registered 09-14 Rollout N/A Delivered 30-09-14
Construction No. 38077 Line No. 1490 Series 8R7F
ADSHEX 4D0113 Airline name Cargolux Owner N/A
Airfield based Luxembourg-Findel~ ~LX First tracked 2014-09-30 19:18:01

Flight history for LX-VCJ

Route Flight No Date Playback
Luxembourg (LUX) - Hong Kong Intl (HKG) CV732 2018-07-20 08:35:00
Komatsu (KMQ) - Luxembourg (LUX) CV797 2018-07-19 17:07:00
???? CV810 2018-07-18 20:00:00
???? CV433 2018-07-18 04:39:00
???? CV433 2018-07-17 13:49:00
Luxembourg (LUX) - Hong Kong Intl (HKG) CV758 2018-07-16 16:48:00
Luxembourg (LUX) - Hong Kong Intl (HKG) CV758 2018-07-16 15:06:00
Los Angeles Intl (LAX) - Luxembourg (LUX) CV661 2018-07-15 15:20:00
John F Kennedy Intl (JFK) - Licenciado Benito Juarez Intl (MEX) CV660 2018-07-14 23:05:00
Los Angeles Intl (LAX) - Luxembourg (LUX) CV661 2018-07-14 09:52:00
Los Angeles Intl (LAX) - Luxembourg (LUX) CV661 2018-07-13 21:26:00
John F Kennedy Intl (JFK) - Licenciado Benito Juarez Intl (MEX) CV660 2018-07-13 01:23:00
???? C82 2018-07-12 12:02:00
???? C8872 2018-07-12 08:06:00
Malpensa (MXP) - Dubai Intl (DXB) - Hong Kong Intl (HKG) C8673 2018-07-11 15:52:00
Malpensa (MXP) - Dubai Intl (DXB) - Hong Kong Intl (HKG) C8673 2018-07-10 15:50:00
???? C81 2018-07-09 18:29:00
John F Kennedy Intl (JFK) - Parma (PMF) CV659 2018-07-09 17:28:00
Ted Stevens Anchorage Intl (ANC) - Rickenbacker Intl (LCK) CV658 2018-07-09 01:15:00
???? CV856 2018-07-08 05:23:00
Time Lat Lon Altitude Heading Speed Vertical Rate
2018-01-12 03:51:31 GMT 49.63743 6.22797 0 59 0 0
2018-01-12 03:51:26 GMT 49.63744 6.22795 0 59 0 0
2018-01-12 03:50:45 GMT 49.63744 6.22795 0 59 0 0
2018-01-12 03:50:40 GMT 49.63743 6.22795 0 59 0 0
2018-01-12 03:50:05 GMT 49.63743 6.22795 0 59 0 0
2018-01-12 03:49:10 GMT 49.63744 6.22795 0 59 0 0
2018-01-12 03:48:59 GMT 49.63743 6.22795 0 59 0 0
2018-01-12 03:48:26 GMT 49.63744 6.22795 0 59 0 0
2018-01-12 03:48:10 GMT 49.63743 6.22795 0 59 0 0
2018-01-12 03:48:06 GMT 49.63742 6.22791 0 59 3 0
2018-01-12 03:47:58 GMT 49.63739 6.22782 0 59 4 0
2018-01-12 03:47:55 GMT 49.63736 6.22776 0 59 4 0
2018-01-12 03:47:45 GMT 49.63725 6.22748 0 56 6 0
2018-01-12 03:47:36 GMT 49.63714 6.22724 0 42 7 0
2018-01-12 03:47:32 GMT 49.63703 6.22713 0 25 8 0
2018-01-12 03:47:28 GMT 49.63689 6.22708 0 354 7 0
2018-01-12 03:47:24 GMT 49.63681 6.22710 0 337 8 0
2018-01-12 03:47:19 GMT 49.63664 6.22724 0 329 12 0
2018-01-12 03:47:15 GMT 49.63641 6.22745 0 329 12 0
2018-01-12 03:47:09 GMT 49.63617 6.22764 0 329 12 0
2018-01-12 03:47:03 GMT 49.63592 6.22788 0 329 11 0
2018-01-12 03:46:58 GMT 49.63571 6.22806 0 329 11 0
2018-01-12 03:46:54 GMT 49.63553 6.22821 0 331 12 0
2018-01-12 03:46:48 GMT 49.63527 6.22842 0 340 12 0
2018-01-12 03:46:44 GMT 49.63503 6.22849 0 5 11 0
2018-01-12 03:46:38 GMT 49.63481 6.22842 0 33 11 0
2018-01-12 03:46:33 GMT 49.63462 6.22815 0 53 11 0
2018-01-12 03:46:28 GMT 49.63451 6.22786 0 59 13 0
2018-01-12 03:46:22 GMT 49.63435 6.22744 0 61 13 0
2018-01-12 03:46:18 GMT 49.63421 6.22706 0 59 15 0
2018-01-12 03:46:13 GMT 49.63403 6.22658 0 59 16 0
2018-01-12 03:46:08 GMT 49.63386 6.22614 0 59 15 0
2018-01-12 03:46:03 GMT 49.63370 6.22570 0 61 14 0
2018-01-12 03:45:57 GMT 49.63355 6.22531 0 59 16 0
2018-01-12 03:45:52 GMT 49.63336 6.22476 0 61 18 0
2018-01-12 03:45:48 GMT 49.63322 6.22429 0 64 17 0
2018-01-12 03:45:42 GMT 49.63303 6.22372 0 64 16 0
2018-01-12 03:45:37 GMT 49.63287 6.22320 0 64 14 0
2018-01-12 03:45:32 GMT 49.63276 6.22285 0 64 14 0
2018-01-12 03:45:27 GMT 49.63265 6.22249 0 64 13 0
2018-01-12 03:45:21 GMT 49.63249 6.22203 0 64 12 0
2018-01-12 03:45:17 GMT 49.63240 6.22171 0 64 12 0
2018-01-12 03:45:11 GMT 49.63227 6.22131 0 61 11 0
2018-01-12 03:45:05 GMT 49.63216 6.22097 0 56 10 0
2018-01-12 03:45:00 GMT 49.63203 6.22071 0 45 10 0
2018-01-12 03:44:57 GMT 49.63188 6.22054 0 28 9 0
2018-01-12 03:44:51 GMT 49.63166 6.22045 0 354 10 0
2018-01-12 03:44:45 GMT 49.63147 6.22052 0 337 10 0
2018-01-12 03:44:40 GMT 49.63125 6.22070 0 329 12 0
2018-01-12 03:44:36 GMT 49.63108 6.22084 0 331 11 0
2018-01-12 03:44:30 GMT 49.63081 6.22106 0 334 13 0
2018-01-12 03:44:26 GMT 49.63061 6.22119 0 345 13 0
2018-01-12 03:44:20 GMT 49.63026 6.22119 0 19 13 0
2018-01-12 03:44:15 GMT 49.63006 6.22103 0 45 12 0
2018-01-12 03:44:09 GMT 49.62986 6.22063 0 56 13 0
2018-01-12 03:44:05 GMT 49.62973 6.22030 0 59 24 0
2018-01-12 03:43:59 GMT 49.62926 6.21908 0 59 44 0
2018-01-12 03:43:54 GMT 49.62870 6.21759 0 59 57 0
2018-01-12 03:43:49 GMT 49.62797 6.21559 0 61 74 0
2018-01-12 03:43:46 GMT 49.62743 6.21412 0 59 84 0
2018-01-12 03:43:44 GMT 49.62725 6.21364 0 59 88 0
2018-01-12 03:43:38 GMT 49.62599 6.21024 950 60 102 -64
2018-01-12 03:43:35 GMT 49.62506 6.20785 950 60 113 0
2018-01-12 03:43:27 GMT 49.62286 6.20186 925 59 131 192
2018-01-12 03:43:25 GMT 49.62208 6.19985 925 60 143 256
2018-01-12 03:43:14 GMT 49.61840 6.18983 900 60 163 -448
2018-01-12 03:43:09 GMT 49.61609 6.18364 1,000 59 163 -832
2018-01-12 03:43:04 GMT 49.61463 6.17973 1,050 59 161 -832
2018-01-12 03:42:57 GMT 49.61212 6.17305 1,150 60 159 -768
2018-01-12 03:42:55 GMT 49.61114 6.17038 1,200 60 159 -768
2018-01-12 03:42:53 GMT 49.61081 6.16949 1,200 60 159 -768
2018-01-12 03:42:51 GMT 49.60988 6.16697 1,250 60 159 -768
2018-01-12 03:42:49 GMT 49.60923 6.16519 1,275 60 158 -768
2018-01-12 03:42:47 GMT 49.60849 6.16326 1,300 60 156 -832
2018-01-12 03:42:43 GMT 49.60716 6.15972 1,350 60 156 -832
2018-01-12 03:42:39 GMT 49.60551 6.15524 1,400 60 156 -832
2018-01-12 03:42:34 GMT 49.60350 6.14989 1,500 59 157 -832
2018-01-12 03:42:28 GMT 49.60167 6.14512 1,575 59 158 -832
2018-01-12 03:42:23 GMT 49.59978 6.14002 1,625 60 159 -832
2018-01-12 03:42:18 GMT 49.59797 6.13520 1,700 59 160 -832
2018-01-12 03:42:16 GMT 49.59663 6.13160 1,750 60 161 -896
2018-01-12 03:42:13 GMT 49.59601 6.12993 1,775 60 161 -896
2018-01-12 03:42:11 GMT 49.59508 6.12748 1,825 60 159 -896
2018-01-12 03:42:09 GMT 49.59425 6.12517 1,850 60 161 -832
2018-01-12 03:42:02 GMT 49.59210 6.11939 1,950 60 159 -896
2018-01-12 03:41:58 GMT 49.59047 6.11493 2,025 60 159 -896
2018-01-12 03:41:53 GMT 49.58839 6.10934 2,100 60 159 -832
2018-01-12 03:41:48 GMT 49.58689 6.10536 2,150 59 159 -768
2018-01-12 03:41:44 GMT 49.58554 6.10179 2,200 59 159 -832
2018-01-12 03:41:42 GMT 49.58455 6.09915 2,250 60 159 -896
2018-01-12 03:41:40 GMT 49.58400 6.09771 2,275 60 159 -768
2018-01-12 03:41:38 GMT 49.58308 6.09524 2,300 60 159 -768
2018-01-12 03:41:35 GMT 49.58214 6.09266 2,325 60 161 -832
2018-01-12 03:41:31 GMT 49.58041 6.08806 2,400 60 162 -896
2018-01-12 03:41:27 GMT 49.57925 6.08487 2,450 60 164 -960
2018-01-12 03:41:25 GMT 49.57832 6.08242 2,475 60 165 -896
2018-01-12 03:41:21 GMT 49.57669 6.07811 2,550 60 168 -832
2018-01-12 03:41:18 GMT 49.57526 6.07421 2,600 59 171 -960
2018-01-12 03:41:15 GMT 49.57448 6.07212 2,625 59 172 -896
2018-01-12 03:41:12 GMT 49.57301 6.06828 2,700 59 174 -768
2018-01-12 03:41:10 GMT 49.57259 6.06720 2,700 59 174 -768
2018-01-12 03:41:07 GMT 49.57114 6.06330 2,750 60 176 -448
2018-01-12 03:41:05 GMT 49.57017 6.06067 2,775 60 176 -64
2018-01-12 03:41:01 GMT 49.56848 6.05621 2,775 60 177 0
2018-01-12 03:40:57 GMT 49.56705 6.05228 2,775 60 180 64
2018-01-12 03:40:54 GMT 49.56598 6.04946 2,775 60 182 0
2018-01-12 03:40:52 GMT 49.56519 6.04723 2,775 60 182 -64
2018-01-12 03:40:49 GMT 49.56390 6.04385 2,750 60 183 -64
2018-01-12 03:40:47 GMT 49.56285 6.04089 2,775 60 183 -64
2018-01-12 03:40:44 GMT 49.56165 6.03773 2,775 59 182 0
2018-01-12 03:40:42 GMT 49.56082 6.03550 2,775 59 183 64
2018-01-12 03:40:40 GMT 49.55992 6.03316 2,750 59 184 0
2018-01-12 03:40:37 GMT 49.55853 6.02949 2,750 59 184 0
2018-01-12 03:40:34 GMT 49.55737 6.02645 2,750 59 184 0
2018-01-12 03:40:29 GMT 49.55518 6.02073 2,750 60 185 0
2018-01-12 03:40:26 GMT 49.55415 6.01798 2,775 60 184 0
2018-01-12 03:40:24 GMT 49.55313 6.01509 2,775 60 185 0
2018-01-12 03:40:19 GMT 49.55123 6.00989 2,750 60 184 0
2018-01-12 03:40:16 GMT 49.54983 6.00618 2,750 60 184 0
2018-01-12 03:40:12 GMT 49.54802 6.00128 2,750 59 184 64
2018-01-12 03:40:09 GMT 49.54683 5.99817 2,750 59 184 64
2018-01-12 03:40:06 GMT 49.54545 5.99460 2,750 59 184 0
2018-01-12 03:40:04 GMT 49.54445 5.99189 2,750 59 184 0
2018-01-12 03:39:58 GMT 49.54229 5.98621 2,750 60 184 -64
2018-01-12 03:39:56 GMT 49.54112 5.98302 2,750 60 184 -64
2018-01-12 03:39:54 GMT 49.53983 5.97953 2,775 60 184 0
2018-01-12 03:39:49 GMT 49.53799 5.97447 2,775 60 184 0
2018-01-12 03:39:45 GMT 49.53648 5.97049 2,750 59 184 64
2018-01-12 03:39:42 GMT 49.53561 5.96811 2,750 58 184 64
2018-01-12 03:39:40 GMT 49.53410 5.96431 2,750 57 184 64
2018-01-12 03:39:36 GMT 49.53228 5.95993 2,750 57 183 0
2018-01-12 03:39:33 GMT 49.53113 5.95719 2,750 57 183 0
2018-01-12 03:39:31 GMT 49.53040 5.95538 2,750 59 183 -256
2018-01-12 03:39:29 GMT 49.52944 5.95310 2,750 58 183 -192
2018-01-12 03:39:24 GMT 49.52744 5.94806 2,775 60 183 -320
2018-01-12 03:39:22 GMT 49.52646 5.94519 2,800 61 182 -320
2018-01-12 03:39:20 GMT 49.52585 5.94346 2,800 63 182 -192
2018-01-12 03:39:18 GMT 49.52516 5.94115 2,800 65 181 0
2018-01-12 03:39:14 GMT 49.52371 5.93572 2,800 69 182 320
2018-01-12 03:39:12 GMT 49.52335 5.93406 2,775 69 182 320
2018-01-12 03:39:08 GMT 49.52208 5.92905 2,750 66 183 256
2018-01-12 03:39:05 GMT 49.52060 5.92467 2,750 57 184 0
2018-01-12 03:39:02 GMT 49.51943 5.92208 2,750 47 186 -320
2018-01-12 03:39:02 GMT 49.51943 5.92208 2,750 47 186 -320
2018-01-12 03:38:59 GMT 49.51685 5.91831 2,775 33 192 -768
2018-01-12 03:38:55 GMT 49.51426 5.91592 2,825 21 196 -1088
2018-01-12 03:38:52 GMT 49.51172 5.91440 2,875 15 198 -1152
2018-01-12 03:38:50 GMT 49.51035 5.91384 2,900 10 199 -1152
2018-01-12 03:38:48 GMT 49.50798 5.91332 2,950 5 200 -1152
2018-01-12 03:38:44 GMT 49.50471 5.91317 3,025 356 204 -1152
2018-01-12 03:38:42 GMT 49.50229 5.91354 3,075 351 206 -1088
2018-01-12 03:38:40 GMT 49.50078 5.91397 3,100 311 224 -896
2018-01-12 03:38:38 GMT 49.49853 5.91498 3,150 341 210 -1024
2018-01-12 03:38:35 GMT 49.49529 5.91715 3,200 329 215 -1024
2018-01-12 03:38:31 GMT 49.49322 5.91896 3,250 327 216 -1024
2018-01-12 03:38:27 GMT 49.48984 5.92315 3,325 315 222 -960
2018-01-12 03:38:25 GMT 49.48759 5.92683 3,375 308 225 -896
2018-01-12 03:38:21 GMT 49.48587 5.93032 3,425 302 229 -960
2018-01-12 03:38:17 GMT 49.48375 5.93616 3,475 293 233 -1024
2018-01-12 03:38:14 GMT 49.48242 5.94145 3,550 287 235 -1088
2018-01-12 03:38:11 GMT 49.48163 5.94613 3,600 281 238 -1024
2018-01-12 03:38:07 GMT 49.48100 5.95271 3,650 275 241 -832
2018-01-12 03:38:04 GMT 49.48077 5.95835 3,700 271 245 -384
2018-01-12 03:38:01 GMT 49.48075 5.96290 3,725 271 247 -128
2018-01-12 03:37:56 GMT 49.48073 5.97100 3,725 270 250 -128
2018-01-12 03:37:52 GMT 49.48075 5.98057 3,775 270 253 -704
2018-01-12 03:37:50 GMT 49.48075 5.98220 3,775 270 253 -704
2018-01-12 03:37:47 GMT 49.48073 5.98871 3,825 270 256 -640
2018-01-12 03:37:43 GMT 49.48073 5.99521 3,875 270 257 -704
2018-01-12 03:37:41 GMT 49.48075 5.99868 3,900 270 258 -704
2018-01-12 03:37:39 GMT 49.48075 6.00202 3,925 270 258 -704
2018-01-12 03:37:36 GMT 49.48073 6.00858 3,950 270 259 -576
2018-01-12 03:37:33 GMT 49.48075 6.01412 3,975 271 260 -320
2018-01-12 03:37:31 GMT 49.48073 6.01928 4,000 271 260 -64
2018-01-12 03:37:26 GMT 49.48068 6.02665 4,000 271 260 0
2018-01-12 03:37:24 GMT 49.48068 6.03128 4,000 271 260 0
2018-01-12 03:37:22 GMT 49.48070 6.03313 4,000 271 260 0
2018-01-12 03:37:20 GMT 49.48068 6.03735 4,000 271 260 0
2018-01-12 03:37:16 GMT 49.48064 6.04588 4,000 271 260 -64
2018-01-12 03:37:13 GMT 49.48061 6.05198 4,000 271 261 0
2018-01-12 03:37:10 GMT 49.48056 6.05599 4,000 271 261 0
2018-01-12 03:37:06 GMT 49.48056 6.06512 4,000 271 263 64
2018-01-12 03:37:02 GMT 49.48051 6.07054 4,000 271 263 128
2018-01-12 03:37:00 GMT 49.48047 6.07499 4,000 271 262 0
2018-01-12 03:36:55 GMT 49.48042 6.08413 4,000 271 261 -512
2018-01-12 03:36:52 GMT 49.48037 6.09021 4,025 271 261 -896
2018-01-12 03:36:49 GMT 49.48037 6.09481 4,075 271 261 -1024
2018-01-12 03:36:45 GMT 49.48036 6.10319 4,150 270 261 -1024
2018-01-12 03:36:42 GMT 49.48037 6.10892 4,225 270 261 -1088
2018-01-12 03:36:40 GMT 49.48041 6.11353 4,250 270 261 -1152
2018-01-12 03:36:35 GMT 49.48050 6.12170 4,350 269 260 -1152
2018-01-12 03:36:32 GMT 49.48056 6.12577 4,400 269 260 -1152
2018-01-12 03:36:29 GMT 49.48077 6.13203 4,450 267 260 -1152
2018-01-12 03:36:23 GMT 49.48158 6.14485 4,600 261 260 -1344
2018-01-12 03:36:21 GMT 49.48187 6.14743 4,625 260 260 -1408
2018-01-12 03:36:19 GMT 49.48224 6.15032 4,675 257 260 -1408
2018-01-12 03:36:14 GMT 49.48384 6.15907 4,775 251 260 -1408
2018-01-12 03:36:12 GMT 49.48471 6.16290 4,850 251 260 -1408
2018-01-12 03:36:09 GMT 49.48608 6.16861 4,925 250 260 -1408
2018-01-12 03:36:04 GMT 49.48814 6.17706 5,050 250 260 -1408
2018-01-12 03:36:01 GMT 49.48954 6.18278 5,125 250 260 -1344
2018-01-12 03:35:58 GMT 49.49038 6.18627 5,175 250 260 -1344
2018-01-12 03:35:54 GMT 49.49236 6.19434 5,275 250 260 -1344
2018-01-12 03:35:52 GMT 49.49318 6.19781 5,325 250 260 -1344
2018-01-12 03:35:50 GMT 49.49406 6.20148 5,350 250 260 -1344
2018-01-12 03:35:48 GMT 49.49469 6.20402 5,400 250 260 -1344
2018-01-12 03:35:45 GMT 49.49611 6.20995 5,475 250 260 -1344
2018-01-12 03:35:42 GMT 49.49741 6.21529 5,550 250 259 -1408
2018-01-12 03:35:40 GMT 49.49817 6.21826 5,600 250 259 -1472
2018-01-12 03:35:38 GMT 49.49895 6.22153 5,650 250 259 -1472
2018-01-12 03:35:32 GMT 49.50165 6.23272 5,800 250 259 -1408
2018-01-12 03:35:30 GMT 49.50244 6.23600 5,850 250 259 -1344
2018-01-12 03:35:27 GMT 49.50362 6.24081 5,900 250 259 -1408
2018-01-12 03:35:22 GMT 49.50586 6.25014 6,025 250 259 -1280
2018-01-12 03:35:20 GMT 49.50672 6.25382 6,075 250 259 -1280
2018-01-12 03:35:17 GMT 49.50764 6.25780 6,125 250 259 -1344
2018-01-12 03:35:13 GMT 49.50938 6.26510 6,225 250 261 -1088
2018-01-12 03:35:11 GMT 49.51017 6.26837 6,250 250 261 -1088
2018-01-12 03:35:08 GMT 49.51147 6.27379 6,300 250 263 -768
2018-01-12 03:35:06 GMT 49.51221 6.27698 6,325 250 264 -768
2018-01-12 03:35:03 GMT 49.51361 6.28277 6,375 250 266 -704
2018-01-12 03:35:01 GMT 49.51426 6.28559 6,400 251 266 -704
2018-01-12 03:34:58 GMT 49.51579 6.29206 6,425 251 268 -640
2018-01-12 03:34:56 GMT 49.51659 6.29546 6,450 251 269 -640
2018-01-12 03:34:53 GMT 49.51803 6.30162 6,500 251 272 -704
2018-01-12 03:34:51 GMT 49.51859 6.30392 6,500 251 273 -768
2018-01-12 03:34:48 GMT 49.52023 6.31107 6,575 251 275 -960
2018-01-12 03:34:46 GMT 49.52050 6.31217 6,575 251 275 -960
2018-01-12 03:34:41 GMT 49.52297 6.32278 6,650 251 279 -768
2018-01-12 03:34:39 GMT 49.52422 6.32798 6,700 251 281 -768
2018-01-12 03:34:36 GMT 49.52499 6.33138 6,725 250 283 -768
2018-01-12 03:34:32 GMT 49.52693 6.33956 6,800 250 286 -768
2018-01-12 03:34:30 GMT 49.52767 6.34260 6,800 251 287 -896
2018-01-12 03:34:28 GMT 49.52855 6.34646 6,825 250 289 -960
2018-01-12 03:34:26 GMT 49.52953 6.35053 6,875 250 291 -832
2018-01-12 03:34:22 GMT 49.53154 6.35906 6,950 250 294 -896
2018-01-12 03:34:20 GMT 49.53247 6.36279 6,975 250 294 -896
2018-01-12 03:34:18 GMT 49.53337 6.36651 7,000 250 296 -896
2018-01-12 03:34:16 GMT 49.53419 6.37005 7,025 250 297 -896
2018-01-12 03:34:10 GMT 49.53712 6.38224 7,125 250 301 -832
2018-01-12 03:34:06 GMT 49.53919 6.39093 7,175 250 304 -832
2018-01-12 03:34:02 GMT 49.54136 6.39991 7,250 250 308 -832
2018-01-12 03:33:59 GMT 49.54230 6.40380 7,275 251 310 -768
2018-01-12 03:33:57 GMT 49.54381 6.41023 7,300 251 312 -768
2018-01-12 03:33:55 GMT 49.54427 6.41211 7,325 251 312 -768
2018-01-12 03:33:51 GMT 49.54642 6.42136 7,375 251 316 -832
2018-01-12 03:33:49 GMT 49.54718 6.42448 7,400 251 316 -832
2018-01-12 03:33:46 GMT 49.54932 6.43391 7,475 251 320 -704
2018-01-12 03:33:40 GMT 49.55197 6.44534 7,550 251 324 -704
2018-01-12 03:33:35 GMT 49.55453 6.45647 7,600 251 327 -768
2018-01-12 03:33:31 GMT 49.55662 6.46545 7,650 251 330 -896
2018-01-12 03:33:29 GMT 49.55756 6.46969 7,700 251 331 -960
2018-01-12 03:33:25 GMT 49.55956 6.47839 7,750 251 333 -1152
2018-01-12 03:33:21 GMT 49.56184 6.48824 7,850 251 336 -1344
2018-01-12 03:33:19 GMT 49.56263 6.49166 7,900 251 336 -1344
2018-01-12 03:33:16 GMT 49.56449 6.49975 7,975 251 338 -1472
2018-01-12 03:33:14 GMT 49.56501 6.50183 8,000 251 338 -1472
2018-01-12 03:33:10 GMT 49.56798 6.51453 8,150 250 339 -1536
2018-01-12 03:33:06 GMT 49.56995 6.52270 8,225 250 340 -1472
2018-01-12 03:33:04 GMT 49.57045 6.52499 8,250 250 340 -1536
2018-01-12 03:33:00 GMT 49.57278 6.53477 8,375 250 342 -1536
2018-01-12 03:32:58 GMT 49.57388 6.53932 8,425 250 342 -1536
2018-01-12 03:32:55 GMT 49.57576 6.54711 8,500 250 342 -1408
2018-01-12 03:32:49 GMT 49.57939 6.56248 8,650 250 345 -1088
2018-01-12 03:32:47 GMT 49.57967 6.56366 8,675 250 346 -896
2018-01-12 03:32:44 GMT 49.58157 6.57149 8,725 251 347 -832
2018-01-12 03:32:40 GMT 49.58400 6.58178 8,775 251 350 -1152
2018-01-12 03:32:38 GMT 49.58493 6.58578 8,825 251 352 -1408
2018-01-12 03:32:34 GMT 49.58684 6.59425 8,900 252 351 -1472
2018-01-12 03:32:31 GMT 49.58865 6.60256 8,975 253 353 -1408
2018-01-12 03:32:28 GMT 49.59024 6.61021 9,050 254 354 -1408
2018-01-12 03:32:24 GMT 49.59182 6.61874 9,150 256 354 -1536
2018-01-12 03:32:22 GMT 49.59238 6.62238 9,200 258 355 -1664
2018-01-12 03:32:19 GMT 49.59370 6.63206 9,300 261 356 -1664
2018-01-12 03:32:17 GMT 49.59407 6.63502 9,350 262 356 -1664
2018-01-12 03:32:15 GMT 49.59475 6.64361 9,425 265 356 -1600
2018-01-12 03:32:13 GMT 49.59485 6.64487 9,450 265 356 -1600
2018-01-12 03:32:11 GMT 49.59536 6.65475 9,550 267 358 -1536
2018-01-12 03:32:08 GMT 49.59553 6.65808 9,575 267 358 -1600
2018-01-12 03:32:03 GMT 49.59609 6.67051 9,725 267 359 -1600
2018-01-12 03:32:00 GMT 49.59645 6.67998 9,825 267 359 -1408
2018-01-12 03:31:57 GMT 49.59677 6.68735 9,875 267 360 -1280
2018-01-12 03:31:54 GMT 49.59714 6.69581 9,950 267 360 -1088
2018-01-12 03:31:51 GMT 49.59737 6.70094 10,000 267 360 -896
2018-01-12 03:31:49 GMT 49.59759 6.70708 10,025 267 360 -704
2018-01-12 03:31:47 GMT 49.59782 6.71192 10,050 267 360 -704
2018-01-12 03:31:44 GMT 49.59828 6.72269 10,100 267 360 -704
2018-01-12 03:31:42 GMT 49.59838 6.72527 10,125 267 360 -704
2018-01-12 03:31:39 GMT 49.59869 6.73245 10,150 267 360 -704
2018-01-12 03:31:37 GMT 49.59894 6.73781 10,175 267 360 -704
2018-01-12 03:31:32 GMT 49.59947 6.75110 10,225 267 361 -704
2018-01-12 03:31:30 GMT 49.59975 6.75674 10,250 267 361 -704
2018-01-12 03:31:27 GMT 49.60002 6.76418 10,300 267 361 -704
2018-01-12 03:31:23 GMT 49.60048 6.77419 10,350 267 361 -704
2018-01-12 03:31:21 GMT 49.60062 6.77806 10,375 267 361 -704
2018-01-12 03:31:18 GMT 49.60112 6.78941 10,425 267 362 -704
2018-01-12 03:31:16 GMT 49.60118 6.79066 10,425 267 362 -704
2018-01-12 03:31:13 GMT 49.60158 6.80068 10,475 267 362 -704
2018-01-12 03:31:11 GMT 49.60176 6.80480 10,500 267 362 -704
2018-01-12 03:31:09 GMT 49.60202 6.81078 10,525 267 362 -704
2018-01-12 03:31:07 GMT 49.60225 6.81590 10,550 267 362 -704
2018-01-12 03:31:03 GMT 49.60268 6.82648 10,600 267 362 -704
2018-01-12 03:31:01 GMT 49.60285 6.83030 10,600 267 363 -704
2018-01-12 03:30:59 GMT 49.60313 6.83728 10,650 267 362 -704
2018-01-12 03:30:56 GMT 49.60332 6.84217 10,675 267 363 -704
2018-01-12 03:30:53 GMT 49.60378 6.85376 10,725 267 363 -704
2018-01-12 03:30:51 GMT 49.60392 6.85666 10,725 267 363 -704
2018-01-12 03:30:48 GMT 49.60430 6.86594 10,775 267 363 -704
2018-01-12 03:30:46 GMT 49.60442 6.86848 10,800 267 363 -704
2018-01-12 03:30:42 GMT 49.60487 6.87903 10,850 267 363 -704
2018-01-12 03:30:40 GMT 49.60504 6.88397 10,850 267 363 -704
2018-01-12 03:30:38 GMT 49.60532 6.89065 10,900 267 363 -704
2018-01-12 03:30:36 GMT 49.60555 6.89585 10,925 267 363 -704
2018-01-12 03:30:32 GMT 49.60597 6.90617 10,975 267 363 -704
2018-01-12 03:30:30 GMT 49.60620 6.91129 11,000 267 363 -704
2018-01-12 03:30:28 GMT 49.60634 6.91517 11,000 267 363 -704
2018-01-12 03:30:26 GMT 49.60662 6.92168 11,050 267 363 -704
2018-01-12 03:30:22 GMT 49.60698 6.93122 11,075 267 363 -704
2018-01-12 03:30:20 GMT 49.60713 6.93512 11,100 267 363 -704
2018-01-12 03:30:18 GMT 49.60748 6.94336 11,150 267 363 -704
2018-01-12 03:30:16 GMT 49.60767 6.94777 11,150 267 363 -704
2018-01-12 03:30:11 GMT 49.60811 6.95858 11,200 267 363 -704
2018-01-12 03:30:08 GMT 49.60849 6.96844 11,250 267 363 -704
2018-01-12 03:30:06 GMT 49.60872 6.97357 11,275 267 363 -704
2018-01-12 03:30:04 GMT 49.60886 6.97719 11,300 267 363 -704
2018-01-12 03:30:00 GMT 49.60928 6.98834 11,350 267 364 -704
2018-01-12 03:29:58 GMT 49.60954 6.99424 11,375 267 364 -704
2018-01-12 03:29:55 GMT 49.60982 7.00125 11,400 267 364 -704
2018-01-12 03:29:52 GMT 49.61021 7.01136 11,450 267 364 -704
2018-01-12 03:29:48 GMT 49.61060 7.02041 11,500 267 364 -704
2018-01-12 03:29:46 GMT 49.61082 7.02662 11,525 267 365 -704
2018-01-12 03:29:44 GMT 49.61091 7.02873 11,525 267 365 -704
2018-01-12 03:29:41 GMT 49.61128 7.03808 11,575 267 365 -640
2018-01-12 03:29:39 GMT 49.61151 7.04402 11,600 267 366 -704
2018-01-12 03:29:37 GMT 49.61179 7.05105 11,625 267 366 -640
2018-01-12 03:29:35 GMT 49.61188 7.05367 11,650 267 367 -768
2018-01-12 03:29:31 GMT 49.61226 7.06384 11,700 267 367 -896
2018-01-12 03:29:28 GMT 49.61252 7.07035 11,725 267 368 -1088
2018-01-12 03:29:26 GMT 49.61286 7.07898 11,800 267 368 -1344
2018-01-12 03:29:24 GMT 49.61298 7.08185 11,825 267 369 -1408
2018-01-12 03:29:20 GMT 49.61333 7.09130 11,900 267 369 -1600
2018-01-12 03:29:18 GMT 49.61361 7.09813 11,975 267 369 -1664
2018-01-12 03:29:16 GMT 49.61389 7.10548 12,050 267 370 -1664
2018-01-12 03:29:14 GMT 49.61398 7.10808 12,100 267 370 -1664
2018-01-12 03:29:11 GMT 49.61430 7.11654 12,175 267 370 -1664
2018-01-12 03:29:09 GMT 49.61462 7.12442 12,275 267 370 -1664
2018-01-12 03:29:06 GMT 49.61494 7.13208 12,350 267 371 -1664
2018-01-12 03:29:04 GMT 49.61510 7.13525 12,375 267 371 -1664
2018-01-12 03:29:00 GMT 49.61545 7.14473 12,475 267 371 -1664
2018-01-12 03:28:57 GMT 49.61600 7.15846 12,625 267 371 -1664
2018-01-12 03:28:54 GMT 49.61617 7.16242 12,675 267 372 -1664
2018-01-12 03:28:50 GMT 49.61654 7.17170 12,775 267 372 -1664
2018-01-12 03:28:47 GMT 49.61678 7.17805 12,850 267 372 -1664
2018-01-12 03:28:45 GMT 49.61714 7.18672 12,925 267 372 -1600
2018-01-12 03:28:43 GMT 49.61724 7.18944 12,975 267 373 -1600
2018-01-12 03:28:40 GMT 49.61756 7.19812 13,050 267 373 -1472
2018-01-12 03:28:38 GMT 49.61775 7.20317 13,100 267 373 -1280
2018-01-12 03:28:36 GMT 49.61806 7.21007 13,150 267 373 -1024
2018-01-12 03:28:33 GMT 49.61840 7.21965 13,225 267 373 -832
2018-01-12 03:28:30 GMT 49.61861 7.22517 13,250 267 373 -896
2018-01-12 03:28:27 GMT 49.61888 7.23182 13,275 267 373 -832
2018-01-12 03:28:24 GMT 49.61924 7.24140 13,325 267 373 -832
2018-01-12 03:28:22 GMT 49.61948 7.24693 13,350 267 373 -832
2018-01-12 03:28:20 GMT 49.61966 7.25202 13,400 267 373 -768
2018-01-12 03:28:18 GMT 49.61984 7.25654 13,425 267 373 -768
2018-01-12 03:28:16 GMT 49.61998 7.26048 13,425 267 374 -768
2018-01-12 03:28:14 GMT 49.62022 7.26686 13,475 267 374 -768
2018-01-12 03:28:12 GMT 49.62045 7.27273 13,500 267 374 -832
2018-01-12 03:28:09 GMT 49.62068 7.27911 13,525 267 374 -832
2018-01-12 03:28:07 GMT 49.62089 7.28444 13,550 267 374 -832
2018-01-12 03:28:05 GMT 49.62115 7.29084 13,600 267 374 -832
2018-01-12 03:28:03 GMT 49.62138 7.29693 13,625 267 374 -832
2018-01-12 03:28:01 GMT 49.62152 7.30071 13,650 267 374 -832
2018-01-12 03:27:59 GMT 49.62172 7.30576 13,675 267 375 -768
2018-01-12 03:27:57 GMT 49.62203 7.31370 13,700 267 375 -768
2018-01-12 03:27:53 GMT 49.62236 7.32306 13,750 267 375 -768
2018-01-12 03:27:51 GMT 49.62254 7.32788 13,775 267 375 -768
2018-01-12 03:27:49 GMT 49.62278 7.33375 13,825 267 376 -768
2018-01-12 03:27:46 GMT 49.62305 7.34154 13,850 267 376 -768
2018-01-12 03:27:43 GMT 49.62333 7.34956 13,900 267 376 -768
2018-01-12 03:27:41 GMT 49.62347 7.35327 13,925 267 376 -768
2018-01-12 03:27:39 GMT 49.62375 7.36047 13,950 267 377 -704
2018-01-12 03:27:38 GMT 49.62385 7.36374 13,950 267 377 -704
2018-01-12 03:27:36 GMT 49.62408 7.36938 14,000 267 377 -704
2018-01-12 03:27:33 GMT 49.62437 7.37739 14,025 267 378 -768
2018-01-12 03:27:31 GMT 49.62447 7.38035 14,050 267 377 -768
2018-01-12 03:27:28 GMT 49.62483 7.39113 14,100 267 378 -768
2018-01-12 03:27:26 GMT 49.62501 7.39597 14,125 267 378 -768
2018-01-12 03:27:24 GMT 49.62524 7.40211 14,150 267 378 -704
2018-01-12 03:27:24 GMT 49.62524 7.40211 14,150 267 378 -704
2018-01-12 03:27:22 GMT 49.62538 7.40724 14,175 267 379 -704
2018-01-12 03:27:19 GMT 49.62566 7.41425 14,200 267 379 -640
2018-01-12 03:27:17 GMT 49.62584 7.41960 14,225 267 379 -576
2018-01-12 03:27:15 GMT 49.62599 7.42505 14,250 267 380 -576
2018-01-12 03:27:13 GMT 49.62625 7.43203 14,250 267 381 -512
2018-01-12 03:27:11 GMT 49.62639 7.43586 14,275 267 381 -512
2018-01-12 03:27:09 GMT 49.62662 7.44316 14,300 267 381 -640
2018-01-12 03:27:07 GMT 49.62678 7.44725 14,325 267 381 -640
2018-01-12 03:27:05 GMT 49.62692 7.45133 14,325 267 382 -704
2018-01-12 03:27:03 GMT 49.62715 7.45779 14,350 267 382 -704
2018-01-12 03:27:01 GMT 49.62734 7.46298 14,375 267 382 -704
2018-01-12 03:26:58 GMT 49.62762 7.47115 14,425 267 383 -704
2018-01-12 03:26:55 GMT 49.62794 7.47959 14,450 267 383 -640
2018-01-12 03:26:53 GMT 49.62813 7.48451 14,475 267 384 -384
2018-01-12 03:26:51 GMT 49.62836 7.49156 14,500 267 385 -256
2018-01-12 03:26:48 GMT 49.62864 7.49869 14,500 267 385 -192
2018-01-12 03:26:46 GMT 49.62886 7.50417 14,525 267 386 -320
2018-01-12 03:26:44 GMT 49.62906 7.50938 14,525 267 386 -448
2018-01-12 03:26:42 GMT 49.62923 7.51494 14,550 267 387 -640
2018-01-12 03:26:40 GMT 49.62939 7.51873 14,550 267 387 -768
2018-01-12 03:26:38 GMT 49.62967 7.52645 14,600 267 387 -960
2018-01-12 03:26:35 GMT 49.63005 7.53633 14,650 267 387 -960
2018-01-12 03:26:33 GMT 49.63028 7.54161 14,675 267 387 -960
2018-01-12 03:26:31 GMT 49.63041 7.54575 14,700 267 387 -960
2018-01-12 03:26:29 GMT 49.63060 7.55124 14,750 267 387 -960
2018-01-12 03:26:27 GMT 49.63088 7.55755 14,775 267 387 -960
2018-01-12 03:26:27 GMT 49.63078 7.55505 14,775 267 387 -960
2018-01-12 03:26:25 GMT 49.63097 7.56030 14,800 267 388 -896
2018-01-12 03:26:22 GMT 49.63133 7.56973 14,850 267 388 -896
2018-01-12 03:26:20 GMT 49.63152 7.57580 14,875 267 388 -832
2018-01-12 03:26:18 GMT 49.63179 7.58216 14,925 267 389 -768
2018-01-12 03:26:16 GMT 49.63195 7.58658 14,925 267 389 -768
2018-01-12 03:26:14 GMT 49.63213 7.59207 14,950 267 390 -704
2018-01-12 03:26:12 GMT 49.63234 7.59871 15,000 267 390 -704
2018-01-12 03:26:10 GMT 49.63257 7.60427 15,025 267 390 -768
2018-01-12 03:26:07 GMT 49.63283 7.61182 15,050 267 391 -832
2018-01-12 03:26:05 GMT 49.63298 7.61598 15,075 267 391 -896
2018-01-12 03:26:03 GMT 49.63325 7.62377 15,125 267 392 -896
2018-01-12 03:26:01 GMT 49.63339 7.62791 15,125 267 392 -896
2018-01-12 03:25:59 GMT 49.63367 7.63490 15,175 267 392 -960
2018-01-12 03:25:57 GMT 49.63386 7.64018 15,200 267 392 -1024
2018-01-12 03:25:54 GMT 49.63423 7.65027 15,275 267 392 -1024
2018-01-12 03:25:52 GMT 49.63446 7.65665 15,300 267 392 -1024
2018-01-12 03:25:50 GMT 49.63458 7.65920 15,325 267 393 -1024
2018-01-12 03:25:48 GMT 49.63481 7.66614 15,375 267 393 -960
2018-01-12 03:25:47 GMT 49.63481 7.66614 15,375 267 393 -960
2018-01-12 03:25:45 GMT 49.63504 7.67258 15,400 267 393 -960
2018-01-12 03:25:42 GMT 49.63539 7.68264 15,475 267 393 -960
2018-01-12 03:25:40 GMT 49.63558 7.68798 15,500 268 393 -960
2018-01-12 03:25:38 GMT 49.63572 7.69243 15,525 268 394 -896
2018-01-12 03:25:36 GMT 49.63591 7.69778 15,550 268 394 -896
2018-01-12 03:25:33 GMT 49.63628 7.70958 15,625 268 394 -896
2018-01-12 03:25:31 GMT 49.63637 7.71292 15,625 268 395 -896
2018-01-12 03:25:29 GMT 49.63655 7.71855 15,675 267 395 -1024
2018-01-12 03:25:27 GMT 49.63674 7.72413 15,700 267 395 -1024
2018-01-12 03:25:25 GMT 49.63692 7.72924 15,725 267 395 -1024
2018-01-12 03:25:23 GMT 49.63715 7.73568 15,775 267 395 -1088
2018-01-12 03:25:21 GMT 49.63735 7.74106 15,800 267 395 -1088
2018-01-12 03:25:19 GMT 49.63751 7.74608 15,850 268 395 -1088
2018-01-12 03:25:17 GMT 49.63767 7.75033 15,875 268 396 -1024
2018-01-12 03:25:15 GMT 49.63781 7.75568 15,900 268 396 -1024
2018-01-12 03:25:13 GMT 49.63800 7.76496 15,950 269 396 -896
2018-01-12 03:25:11 GMT 49.63811 7.77203 16,000 270 397 -832
2018-01-12 03:25:11 GMT 49.63806 7.76892 15,975 270 396 -832
2018-01-12 03:25:09 GMT 49.63811 7.77651 16,025 271 397 -832
2018-01-12 03:25:06 GMT 49.63809 7.78077 16,050 271 397 -896
2018-01-12 03:25:04 GMT 49.63805 7.78782 16,075 272 397 -960
2018-01-12 03:25:02 GMT 49.63797 7.79372 16,125 273 397 -1088
2018-01-12 03:25:00 GMT 49.63783 7.79914 16,150 273 397 -1088
2018-01-12 03:24:58 GMT 49.63767 7.80475 16,200 274 397 -1088
2018-01-12 03:24:56 GMT 49.63749 7.81017 16,225 274 397 -1088
2018-01-12 03:24:54 GMT 49.63721 7.81633 16,275 275 398 -1024
2018-01-12 03:24:52 GMT 49.63692 7.82198 16,300 275 398 -960
2018-01-12 03:24:50 GMT 49.63660 7.82791 16,325 276 400 -704
2018-01-12 03:24:48 GMT 49.63623 7.83362 16,350 277 400 -704
2018-01-12 03:24:46 GMT 49.63577 7.83983 16,375 277 401 -768
2018-01-12 03:24:43 GMT 49.63530 7.84580 16,400 278 402 -832
2018-01-12 03:24:41 GMT 49.63454 7.85400 16,450 279 403 -832
2018-01-12 03:24:39 GMT 49.63395 7.85998 16,475 280 404 -960
2018-01-12 03:24:37 GMT 49.63367 7.86280 16,500 280 404 -1088
2018-01-12 03:24:35 GMT 49.63252 7.87250 16,575 282 406 -1536
2018-01-12 03:24:33 GMT 49.63229 7.87416 16,600 282 406 -1536
2018-01-12 03:24:30 GMT 49.63101 7.88385 16,675 282 407 -1728
2018-01-12 03:24:28 GMT 49.63005 7.89122 16,750 282 407 -1792
2018-01-12 03:24:25 GMT 49.62927 7.89693 16,825 282 408 -1792
2018-01-12 03:24:23 GMT 49.62850 7.90288 16,875 282 408 -1728
2018-01-12 03:24:19 GMT 49.62673 7.91602 17,025 282 409 -1792
2018-01-12 03:24:17 GMT 49.62599 7.92166 17,075 282 410 -1728
2018-01-12 03:24:15 GMT 49.62538 7.92627 17,125 282 410 -1728
2018-01-12 03:24:13 GMT 49.62413 7.93569 17,225 282 410 -1728
2018-01-12 03:24:11 GMT 49.62328 7.94203 17,300 282 410 -1728
2018-01-12 03:24:09 GMT 49.62309 7.94340 17,325 282 411 -1728
2018-01-12 03:24:07 GMT 49.62236 7.94913 17,375 282 411 -1728
2018-01-12 03:24:05 GMT 49.62158 7.95490 17,425 282 411 -1792
2018-01-12 03:24:05 GMT 49.62158 7.95490 17,425 282 411 -1792
2018-01-12 03:24:05 GMT 49.62158 7.95490 17,425 282 411 -1792
2018-01-12 03:24:03 GMT 49.62064 7.96175 17,500 282 411 -1792
2018-01-12 03:24:01 GMT 49.61984 7.96776 17,575 282 411 -1856
2018-01-12 03:23:59 GMT 49.61916 7.97297 17,625 282 411 -1792
2018-01-12 03:23:57 GMT 49.61815 7.98012 17,700 282 412 -1792
2018-01-12 03:23:55 GMT 49.61770 7.98357 17,750 282 412 -1728
2018-01-12 03:23:53 GMT 49.61677 7.99048 17,825 282 412 -1728
2018-01-12 03:23:51 GMT 49.61581 7.99768 17,900 282 413 -1728
2018-01-12 03:23:49 GMT 49.61514 8.00258 17,950 282 413 -1728
2018-01-12 03:23:47 GMT 49.61440 8.00829 18,000 282 413 -1728
2018-01-12 03:23:45 GMT 49.61361 8.01408 18,050 282 413 -1728
2018-01-12 03:23:41 GMT 49.61215 8.02501 18,175 282 414 -1728
2018-01-12 03:23:38 GMT 49.61073 8.03542 18,275 282 414 -1792
2018-01-12 03:23:36 GMT 49.61016 8.03976 18,325 282 415 -1792
2018-01-12 03:23:35 GMT 49.60979 8.04266 18,350 282 415 -1792
2018-01-12 03:23:34 GMT 49.60942 8.04526 18,400 282 415 -1792
2018-01-12 03:23:32 GMT 49.60867 8.05103 18,450 282 415 -1728
2018-01-12 03:23:30 GMT 49.60799 8.05594 18,500 282 415 -1728
2018-01-12 03:23:28 GMT 49.60712 8.06259 18,575 282 415 -1792
2018-01-12 03:23:26 GMT 49.60611 8.07013 18,650 282 416 -1792
2018-01-12 03:23:24 GMT 49.60560 8.07391 18,675 282 416 -1792
2018-01-12 03:23:24 GMT 49.60579 8.07249 18,675 282 416 -1792
2018-01-12 03:23:22 GMT 49.60439 8.08289 18,775 282 416 -1792
2018-01-12 03:23:20 GMT 49.60392 8.08638 18,825 282 416 -1792
2018-01-12 03:23:18 GMT 49.60272 8.09505 18,900 282 416 -1792
2018-01-12 03:23:15 GMT 49.60190 8.10119 18,975 282 417 -1792
2018-01-12 03:23:15 GMT 49.60190 8.10119 18,975 282 417 -1792
2018-01-12 03:23:12 GMT 49.60094 8.10813 19,050 282 418 -1792
2018-01-12 03:23:10 GMT 49.59970 8.11745 19,150 282 418 -1792
2018-01-12 03:23:08 GMT 49.59929 8.12041 19,175 282 419 -1792
2018-01-12 03:23:06 GMT 49.59842 8.12685 19,250 282 419 -1792
2018-01-12 03:23:04 GMT 49.59782 8.13118 19,275 282 420 -1792
2018-01-12 03:23:04 GMT 49.59764 8.13270 19,300 282 420 -1792
2018-01-12 03:23:00 GMT 49.59636 8.14203 19,400 282 422 -1792
2018-01-12 03:22:58 GMT 49.59531 8.14969 19,475 282 422 -1792
2018-01-12 03:22:56 GMT 49.59416 8.15793 19,575 282 423 -1856
2018-01-12 03:22:54 GMT 49.59359 8.16232 19,625 282 423 -1856
2018-01-12 03:22:50 GMT 49.59215 8.17260 19,725 282 424 -1792
2018-01-12 03:22:48 GMT 49.59107 8.18058 19,800 282 425 -1856
2018-01-12 03:22:46 GMT 49.59033 8.18593 19,875 283 426 -1856
2018-01-12 03:22:44 GMT 49.58958 8.19127 19,925 283 426 -1856
2018-01-12 03:22:40 GMT 49.58798 8.20281 20,050 283 427 -1792
2018-01-12 03:22:38 GMT 49.58693 8.21057 20,125 282 428 -1792
2018-01-12 03:22:36 GMT 49.58586 8.21829 20,200 282 429 -1792
2018-01-12 03:22:34 GMT 49.58539 8.22156 20,250 282 429 -1792
2018-01-12 03:22:34 GMT 49.58539 8.22156 20,250 282 430 -1792
2018-01-12 03:22:34 GMT 49.58539 8.22156 20,250 282 430 -1792
2018-01-12 03:22:31 GMT 49.58368 8.23418 20,375 282 431 -1792
2018-01-12 03:22:29 GMT 49.58335 8.23655 20,400 282 431 -1792
2018-01-12 03:22:26 GMT 49.58226 8.24466 20,475 282 432 -1792
2018-01-12 03:22:24 GMT 49.58107 8.25341 20,575 282 433 -1792
2018-01-12 03:22:24 GMT 49.58093 8.25459 20,575 282 433 -1792
2018-01-12 03:22:21 GMT 49.58028 8.25942 20,625 282 433 -1792
2018-01-12 03:22:19 GMT 49.57919 8.26721 20,700 282 434 -1856
2018-01-12 03:22:17 GMT 49.57851 8.27205 20,750 282 435 -1856
2018-01-12 03:22:15 GMT 49.57750 8.27964 20,850 282 436 -1856
2018-01-12 03:22:13 GMT 49.57688 8.28421 20,875 282 436 -1856
2018-01-12 03:22:10 GMT 49.57562 8.29327 20,975 282 437 -1856
2018-01-12 03:22:08 GMT 49.57489 8.29844 21,025 282 438 -1792
2018-01-12 03:22:06 GMT 49.57420 8.30364 21,075 282 438 -1792
2018-01-12 03:22:04 GMT 49.57315 8.31123 21,175 282 440 -1856
2018-01-12 03:22:02 GMT 49.57246 8.31614 21,225 282 439 -1792
2018-01-12 03:22:02 GMT 49.57246 8.31614 21,225 282 440 -1856
2018-01-12 03:22:02 GMT 49.57246 8.31614 21,225 282 439 -1792
2018-01-12 03:22:00 GMT 49.57141 8.32381 21,300 282 440 -1856
2018-01-12 03:21:57 GMT 49.57022 8.33268 21,375 282 441 -1856
2018-01-12 03:21:55 GMT 49.56878 8.34308 21,500 282 442 -1856
2018-01-12 03:21:53 GMT 49.56839 8.34592 21,525 282 442 -1856
2018-01-12 03:21:52 GMT 49.56798 8.34896 21,550 282 444 -1856
2018-01-12 03:21:50 GMT 49.56720 8.35452 21,600 282 443 -1856
2018-01-12 03:21:48 GMT 49.56638 8.36067 21,675 282 444 -1856
2018-01-12 03:21:46 GMT 49.56533 8.36839 21,750 282 445 -1856
2018-01-12 03:21:44 GMT 49.56455 8.37397 21,825 282 446 -1792
2018-01-12 03:21:42 GMT 49.56404 8.37773 21,850 282 446 -1792
2018-01-12 03:21:40 GMT 49.56271 8.38734 21,950 282 447 -1792
2018-01-12 03:21:38 GMT 49.56180 8.39420 22,025 282 448 -1792
2018-01-12 03:21:37 GMT 49.56139 8.39731 22,050 282 448 -1792
2018-01-12 03:21:36 GMT 49.56139 8.39731 22,050 282 448 -1792
2018-01-12 03:21:36 GMT 49.56139 8.39731 22,050 282 448 -1792
2018-01-12 03:21:34 GMT 49.56024 8.40541 22,125 283 449 -1856
2018-01-12 03:21:32 GMT 49.55942 8.41133 22,200 283 449 -1856
2018-01-12 03:21:29 GMT 49.55832 8.41943 22,275 283 450 -1920
2018-01-12 03:21:27 GMT 49.55723 8.42726 22,350 283 450 -1920
2018-01-12 03:21:25 GMT 49.55640 8.43324 22,425 283 452 -1920
2018-01-12 03:21:23 GMT 49.55546 8.43980 22,475 283 453 -1856
2018-01-12 03:21:21 GMT 49.55500 8.44299 22,525 283 453 -1856
2018-01-12 03:21:19 GMT 49.55388 8.45116 22,600 283 454 -1792
2018-01-12 03:21:17 GMT 49.55309 8.45680 22,650 283 455 -1792
2018-01-12 03:21:15 GMT 49.55202 8.46437 22,725 283 455 -1792
2018-01-12 03:21:13 GMT 49.55137 8.46912 22,775 283 456 -1856
2018-01-12 03:21:11 GMT 49.55035 8.47639 22,850 283 457 -1856
2018-01-12 03:21:09 GMT 49.54941 8.48308 22,925 283 458 -1856
2018-01-12 03:21:07 GMT 49.54876 8.48783 22,975 283 458 -1856
2018-01-12 03:21:05 GMT 49.54755 8.49644 23,050 283 459 -1856
2018-01-12 03:21:03 GMT 49.54678 8.50183 23,100 283 460 -1856
2018-01-12 03:21:01 GMT 49.54587 8.50854 23,175 283 460 -1856
2018-01-12 03:20:59 GMT 49.54518 8.51332 23,225 283 461 -1856
2018-01-12 03:20:57 GMT 49.54404 8.52170 23,300 283 462 -1856
2018-01-12 03:20:55 GMT 49.54312 8.52806 23,375 283 463 -1856
2018-01-12 03:20:53 GMT 49.54229 8.53422 23,425 283 463 -1856
2018-01-12 03:20:51 GMT 49.54161 8.53905 23,475 283 464 -1920
2018-01-12 03:20:49 GMT 49.54066 8.54580 23,550 283 465 -1920
2018-01-12 03:20:47 GMT 49.53955 8.55387 23,625 283 466 -1920
2018-01-12 03:20:45 GMT 49.53852 8.56132 23,700 283 466 -1920
2018-01-12 03:20:43 GMT 49.53735 8.56941 23,800 283 467 -1920
2018-01-12 03:20:41 GMT 49.53670 8.57423 23,850 283 468 -1920
2018-01-12 03:20:39 GMT 49.53575 8.58076 23,925 283 468 -1920
2018-01-12 03:20:37 GMT 49.53493 8.58663 23,975 283 469 -1920
2018-01-12 03:20:34 GMT 49.53378 8.59507 24,050 283 470 -1920
2018-01-12 03:20:32 GMT 49.53287 8.60164 24,125 283 471 -1920
2018-01-12 03:20:30 GMT 49.53195 8.60815 24,200 283 472 -1920
2018-01-12 03:20:27 GMT 49.53018 8.62063 24,325 283 474 -1920
2018-01-12 03:20:25 GMT 49.52948 8.62557 24,375 283 473 -1920
2018-01-12 03:20:23 GMT 49.52856 8.63215 24,425 283 474 -1920
2018-01-12 03:20:21 GMT 49.52765 8.63872 24,500 283 475 -1920
2018-01-12 03:20:19 GMT 49.52692 8.64400 24,550 283 475 -1920
2018-01-12 03:20:17 GMT 49.52541 8.65455 24,675 283 477 -1920
2018-01-12 03:20:15 GMT 49.52495 8.65788 24,700 283 477 -1920
2018-01-12 03:20:13 GMT 49.52371 8.66648 24,800 283 478 -1920
2018-01-12 03:20:11 GMT 49.52302 8.67148 24,850 283 479 -1920
2018-01-12 03:20:11 GMT 49.52302 8.67148 24,850 283 479 -1920
2018-01-12 03:20:08 GMT 49.52206 8.67848 24,900 283 479 -1920
2018-01-12 03:20:06 GMT 49.52083 8.68744 25,000 283 480 -1984
2018-01-12 03:20:04 GMT 49.51941 8.69712 25,100 283 480 -1984
2018-01-12 03:20:04 GMT 49.51941 8.69712 25,100 283 480 -1984
2018-01-12 03:20:02 GMT 49.51841 8.70414 25,175 283 482 -1984
2018-01-12 03:19:59 GMT 49.51696 8.71453 25,275 283 482 -1984
2018-01-12 03:19:56 GMT 49.51603 8.72084 25,350 283 483 -1984
2018-01-12 03:19:54 GMT 49.51534 8.72589 25,400 283 483 -1984
2018-01-12 03:19:52 GMT 49.51394 8.73561 25,500 283 484 -1984
2018-01-12 03:19:50 GMT 49.51324 8.74029 25,550 283 484 -1984
2018-01-12 03:19:50 GMT 49.51324 8.74029 25,550 283 484 -1984
2018-01-12 03:19:48 GMT 49.51184 8.75039 25,650 283 485 -1984
2018-01-12 03:19:44 GMT 49.51035 8.76080 25,750 283 486 -1920
2018-01-12 03:19:42 GMT 49.50919 8.76887 25,825 283 487 -1856
2018-01-12 03:19:40 GMT 49.50854 8.77362 25,875 283 487 -1792
2018-01-12 03:19:40 GMT 49.50835 8.77496 25,875 283 487 -1792
2018-01-12 03:19:40 GMT 49.50835 8.77496 25,875 283 487 -1792
2018-01-12 03:19:38 GMT 49.50751 8.78075 25,950 283 489 -1792
2018-01-12 03:19:36 GMT 49.50613 8.79058 26,025 283 489 -1792
2018-01-12 03:19:34 GMT 49.50542 8.79567 26,075 283 489 -1792
2018-01-12 03:19:32 GMT 49.50449 8.80242 26,150 283 490 -1664
2018-01-12 03:19:30 GMT 49.50351 8.80925 26,200 283 490 -1664
2018-01-12 03:19:28 GMT 49.50253 8.81601 26,250 283 491 -1920
2018-01-12 03:19:25 GMT 49.50100 8.82692 26,375 283 491 -2240
2018-01-12 03:19:23 GMT 49.49986 8.83474 26,450 283 491 -2368
2018-01-12 03:19:21 GMT 49.49946 8.83783 26,500 283 490 -2496
2018-01-12 03:19:19 GMT 49.49820 8.84667 26,600 283 490 -2688
2018-01-12 03:19:19 GMT 49.49848 8.84459 26,575 283 490 -2688
2018-01-12 03:19:19 GMT 49.49848 8.84459 26,575 283 490 -2688
2018-01-12 03:19:17 GMT 49.49707 8.85448 26,725 283 489 -3072
2018-01-12 03:19:15 GMT 49.49611 8.86122 26,825 283 488 -3456
2018-01-12 03:19:13 GMT 49.49550 8.86530 26,900 283 488 -3456
2018-01-12 03:19:11 GMT 49.49439 8.87339 27,050 283 487 -3840
2018-01-12 03:19:09 GMT 49.49355 8.87919 27,150 283 487 -3904
2018-01-12 03:19:07 GMT 49.49262 8.88556 27,275 283 486 -4160
2018-01-12 03:19:05 GMT 49.49144 8.89401 27,450 283 483 -4608
2018-01-12 03:19:03 GMT 49.49020 8.90271 27,675 283 482 -4736
2018-01-12 03:19:01 GMT 49.48940 8.90806 27,800 283 481 -4736
2018-01-12 03:18:59 GMT 49.48869 8.91302 27,925 283 480 -4608
2018-01-12 03:18:59 GMT 49.48869 8.91302 27,925 283 480 -4608
2018-01-12 03:18:57 GMT 49.48722 8.92327 28,150 283 478 -3776
2018-01-12 03:18:55 GMT 49.48640 8.92928 28,275 283 478 -3584
2018-01-12 03:18:52 GMT 49.48494 8.93953 28,450 283 477 -2944
2018-01-12 03:18:50 GMT 49.48421 8.94446 28,525 283 477 -2624
2018-01-12 03:18:48 GMT 49.48303 8.95274 28,650 283 477 -2240
2018-01-12 03:18:44 GMT 49.48149 8.96329 28,775 283 479 -1728
2018-01-12 03:18:42 GMT 49.48041 8.97091 28,825 283 479 -1600
2018-01-12 03:18:40 GMT 49.47935 8.97821 28,900 283 480 -1600
2018-01-12 03:18:37 GMT 49.47809 8.98689 28,975 283 481 -1600
2018-01-12 03:18:34 GMT 49.47665 8.99694 29,050 283 483 -1792
2018-01-12 03:18:32 GMT 49.47577 9.00322 29,100 283 484 -1856
2018-01-12 03:18:30 GMT 49.47459 9.01132 29,175 283 484 -1984
2018-01-12 03:18:28 GMT 49.47363 9.01797 29,250 283 485 -2112
2018-01-12 03:18:26 GMT 49.47272 9.02440 29,325 283 485 -2240
2018-01-12 03:18:23 GMT 49.47148 9.03315 29,425 283 486 -2240
2018-01-12 03:18:21 GMT 49.47052 9.03987 29,500 283 486 -2240
2018-01-12 03:18:19 GMT 49.46920 9.04895 29,625 283 487 -2176
2018-01-12 03:18:17 GMT 49.46841 9.05437 29,675 283 487 -2112
2018-01-12 03:18:15 GMT 49.46715 9.06313 29,775 283 488 -1984
2018-01-12 03:18:13 GMT 49.46631 9.06885 29,825 283 489 -1856
2018-01-12 03:18:11 GMT 49.46507 9.07767 29,900 283 489 -1728
2018-01-12 03:18:08 GMT 49.46429 9.08309 29,950 283 490 -1536
2018-01-12 03:18:08 GMT 49.46403 9.08480 29,975 283 491 -1536
2018-01-12 03:18:06 GMT 49.46217 9.09735 30,050 283 495 -1856
2018-01-12 03:18:04 GMT 49.46217 9.09735 30,050 283 492 -1536
2018-01-12 03:18:02 GMT 49.46110 9.10484 30,125 283 493 -1664
2018-01-12 03:18:00 GMT 49.46013 9.11135 30,175 283 495 -1856
2018-01-12 03:17:58 GMT 49.45915 9.11821 30,250 283 496 -2048
2018-01-12 03:17:58 GMT 49.45915 9.11821 30,250 283 496 -2048
2018-01-12 03:17:56 GMT 49.45808 9.12578 30,325 283 496 -2368
2018-01-12 03:17:54 GMT 49.45705 9.13224 30,400 283 497 -2496
2018-01-12 03:17:52 GMT 49.45607 9.13914 30,475 283 497 -2560
2018-01-12 03:17:50 GMT 49.45524 9.14463 30,550 283 497 -2688
2018-01-12 03:17:48 GMT 49.45393 9.15354 30,675 283 497 -2816
2018-01-12 03:17:48 GMT 49.45393 9.15354 30,675 283 497 -2752
2018-01-12 03:17:46 GMT 49.45299 9.16014 30,775 283 498 -2944
2018-01-12 03:17:44 GMT 49.45216 9.16563 30,850 283 497 -3072
2018-01-12 03:17:42 GMT 49.45106 9.17315 30,975 283 497 -3200
2018-01-12 03:17:40 GMT 49.45011 9.17967 31,075 283 496 -3200
2018-01-12 03:17:38 GMT 49.44890 9.18798 31,200 283 496 -3072
2018-01-12 03:17:36 GMT 49.44811 9.19348 31,300 283 496 -2944
2018-01-12 03:17:34 GMT 49.44648 9.20476 31,475 283 496 -3072
2018-01-12 03:17:32 GMT 49.44575 9.20994 31,550 283 496 -3264
2018-01-12 03:17:30 GMT 49.44499 9.21508 31,625 283 495 -3456
2018-01-12 03:17:28 GMT 49.44378 9.22399 31,775 283 494 -3904
2018-01-12 03:17:28 GMT 49.44378 9.22399 31,775 283 494 -3904
2018-01-12 03:17:28 GMT 49.44350 9.22569 31,825 283 494 -3904
2018-01-12 03:17:25 GMT 49.44278 9.23047 31,925 283 493 -4096
2018-01-12 03:17:23 GMT 49.44186 9.23697 32,050 283 491 -3968
2018-01-12 03:17:21 GMT 49.44063 9.24550 32,225 283 491 -3840
2018-01-12 03:17:19 GMT 49.43980 9.25128 32,350 283 490 -3648
2018-01-12 03:17:17 GMT 49.43866 9.25909 32,475 283 489 -3264
2018-01-12 03:17:17 GMT 49.43890 9.25739 32,450 283 490 -3392
2018-01-12 03:17:17 GMT 49.43890 9.25739 32,450 283 489 -3264
2018-01-12 03:17:15 GMT 49.43715 9.26957 32,650 283 489 -3136
2018-01-12 03:17:13 GMT 49.43638 9.27461 32,725 283 489 -3008
2018-01-12 03:17:11 GMT 49.43564 9.27969 32,800 283 489 -2944
2018-01-12 03:17:09 GMT 49.43440 9.28815 32,925 283 488 -2880
2018-01-12 03:17:07 GMT 49.43372 9.29292 33,000 283 488 -2816
2018-01-12 03:17:07 GMT 49.43372 9.29292 33,000 283 488 -2816
2018-01-12 03:17:05 GMT 49.43270 9.30000 33,100 283 488 -2816
2018-01-12 03:17:03 GMT 49.43173 9.30676 33,200 283 488 -2880
2018-01-12 03:17:01 GMT 49.43070 9.31351 33,300 283 488 -2880
2018-01-12 03:16:59 GMT 49.43001 9.31821 33,375 283 488 -2752
2018-01-12 03:16:57 GMT 49.42884 9.32635 33,475 283 487 -2432
2018-01-12 03:16:55 GMT 49.42749 9.33542 33,600 283 489 -2176
2018-01-12 03:16:53 GMT 49.42670 9.34084 33,650 283 489 -2048
2018-01-12 03:16:51 GMT 49.42591 9.34626 33,700 283 489 -1792
2018-01-12 03:16:49 GMT 49.42484 9.35331 33,775 283 490 -1408
2018-01-12 03:16:47 GMT 49.42387 9.36007 33,825 283 490 -1280
2018-01-12 03:16:45 GMT 49.42282 9.36718 33,875 283 490 -1088
2018-01-12 03:16:43 GMT 49.42186 9.37365 33,900 283 491 -896
2018-01-12 03:16:41 GMT 49.42049 9.38275 33,950 283 491 -640
2018-01-12 03:16:39 GMT 49.41925 9.39127 33,975 283 492 -448
2018-01-12 03:16:37 GMT 49.41832 9.39736 33,975 283 492 -192
2018-01-12 03:16:37 GMT 49.41832 9.39736 33,975 283 492 -256
2018-01-12 03:16:35 GMT 49.41779 9.40113 33,975 283 492 -192
2018-01-12 03:16:33 GMT 49.41636 9.41058 33,975 283 492 0
2018-01-12 03:16:31 GMT 49.41582 9.41437 33,975 283 492 0
2018-01-12 03:16:29 GMT 49.41483 9.42114 34,000 283 492 0
2018-01-12 03:16:27 GMT 49.41385 9.42757 34,000 283 492 0
2018-01-12 03:16:25 GMT 49.41234 9.43810 33,975 283 492 -64
2018-01-12 03:16:22 GMT 49.41138 9.44458 34,000 283 492 0
2018-01-12 03:16:20 GMT 49.41031 9.45171 34,000 283 492 0
2018-01-12 03:16:18 GMT 49.40927 9.45852 34,000 283 492 0
2018-01-12 03:16:16 GMT 49.40854 9.46359 33,975 283 492 0
2018-01-12 03:16:14 GMT 49.40730 9.47176 34,000 283 492 0
2018-01-12 03:16:12 GMT 49.40607 9.48021 34,000 283 492 0
2018-01-12 03:16:10 GMT 49.40524 9.48564 34,000 283 492 0
2018-01-12 03:16:08 GMT 49.40431 9.49212 34,000 283 492 -64
2018-01-12 03:16:06 GMT 49.40328 9.49891 34,000 283 492 -64
2018-01-12 03:16:04 GMT 49.40217 9.50635 34,000 283 492 0
2018-01-12 03:16:01 GMT 49.40062 9.51656 34,000 283 492 0
2018-01-12 03:15:59 GMT 49.39956 9.52370 34,000 283 492 -64
2018-01-12 03:15:59 GMT 49.39956 9.52370 34,000 283 492 -64
2018-01-12 03:15:57 GMT 49.39815 9.53317 34,000 283 492 -64
2018-01-12 03:15:54 GMT 49.39714 9.53996 34,000 283 492 0
2018-01-12 03:15:52 GMT 49.39609 9.54712 34,000 283 492 0
2018-01-12 03:15:50 GMT 49.39494 9.55458 34,000 283 492 0
2018-01-12 03:15:48 GMT 49.39444 9.55796 34,000 283 492 0
2018-01-12 03:15:48 GMT 49.39444 9.55796 34,000 283 492 0
2018-01-12 03:15:46 GMT 49.39285 9.56851 34,000 283 492 0
2018-01-12 03:15:46 GMT 49.39285 9.56851 34,000 283 492 0
2018-01-12 03:15:44 GMT 49.39234 9.57191 34,000 283 492 0
2018-01-12 03:15:42 GMT 49.39076 9.58246 34,000 283 493 0
2018-01-12 03:15:40 GMT 49.39006 9.58723 34,000 283 493 0
2018-01-12 03:15:38 GMT 49.38862 9.59677 33,975 283 493 0
2018-01-12 03:15:36 GMT 49.38776 9.60254 34,000 283 493 0
2018-01-12 03:15:34 GMT 49.38721 9.60628 34,000 283 493 0
2018-01-12 03:15:32 GMT 49.38564 9.61680 34,000 283 493 0
2018-01-12 03:15:30 GMT 49.38487 9.62191 34,000 283 493 0
2018-01-12 03:15:28 GMT 49.38396 9.62804 34,000 283 493 0
2018-01-12 03:15:26 GMT 49.38247 9.63790 34,000 283 493 0
2018-01-12 03:15:24 GMT 49.38167 9.64297 34,000 283 493 64
2018-01-12 03:15:21 GMT 49.38029 9.65219 34,000 283 493 64
2018-01-12 03:15:19 GMT 49.37961 9.65691 34,000 283 493 0
2018-01-12 03:15:17 GMT 49.37810 9.66677 34,000 283 493 0
2018-01-12 03:15:15 GMT 49.37723 9.67262 34,000 283 493 0
2018-01-12 03:15:13 GMT 49.37654 9.67733 34,000 283 493 0
2018-01-12 03:15:10 GMT 49.37480 9.68896 34,000 283 493 0
2018-01-12 03:15:08 GMT 49.37377 9.69572 34,000 283 493 0
2018-01-12 03:15:06 GMT 49.37293 9.70115 34,000 283 493 0
2018-01-12 03:15:04 GMT 49.37144 9.71105 34,000 283 493 0
2018-01-12 03:15:02 GMT 49.36995 9.72093 34,000 283 493 0
2018-01-12 03:15:00 GMT 49.36912 9.72635 34,000 283 493 0
2018-01-12 03:14:58 GMT 49.36844 9.73114 34,000 283 493 0
2018-01-12 03:14:56 GMT 49.36684 9.74170 34,000 283 493 0
2018-01-12 03:14:54 GMT 49.36632 9.74509 34,000 283 493 0
2018-01-12 03:14:52 GMT 49.36576 9.74885 34,000 283 493 0
2018-01-12 03:14:50 GMT 49.36441 9.75769 34,000 283 494 0
2018-01-12 03:14:48 GMT 49.36306 9.76656 34,000 284 494 0
2018-01-12 03:14:46 GMT 49.36230 9.77163 34,000 284 494 0
2018-01-12 03:14:44 GMT 49.36153 9.77678 34,000 284 494 0
2018-01-12 03:14:42 GMT 49.36052 9.78354 34,000 284 494 0
2018-01-12 03:14:40 GMT 49.35896 9.79375 34,000 284 494 0
2018-01-12 03:14:38 GMT 49.35789 9.80060 34,000 284 494 0
2018-01-12 03:14:36 GMT 49.35720 9.80537 34,000 284 494 0
2018-01-12 03:14:34 GMT 49.35594 9.81354 34,000 284 494 0
2018-01-12 03:14:32 GMT 49.35503 9.81967 34,000 284 494 64
2018-01-12 03:14:30 GMT 49.35366 9.82850 33,975 284 494 0
2018-01-12 03:14:28 GMT 49.35301 9.83297 34,000 284 494 64
2018-01-12 03:14:26 GMT 49.35196 9.83974 33,975 284 494 64
2018-01-12 03:14:24 GMT 49.35086 9.84727 33,975 284 494 64
2018-01-12 03:14:22 GMT 49.34985 9.85375 33,975 284 494 0
2018-01-12 03:14:20 GMT 49.34843 9.86326 33,975 284 494 0
2018-01-12 03:14:18 GMT 49.34817 9.86500 33,975 284 494 0
2018-01-12 03:14:16 GMT 49.34710 9.87179 33,975 284 494 0
2018-01-12 03:14:14 GMT 49.34560 9.88164 33,975 284 494 0
2018-01-12 03:14:12 GMT 49.34454 9.88882 33,975 284 495 0
2018-01-12 03:14:10 GMT 49.34376 9.89396 33,975 284 495 0
2018-01-12 03:14:08 GMT 49.34239 9.90277 34,000 284 495 0
2018-01-12 03:14:06 GMT 49.34193 9.90584 34,000 284 495 0
2018-01-12 03:14:04 GMT 49.34030 9.91639 34,000 284 495 0
2018-01-12 03:14:02 GMT 49.33955 9.92150 34,000 284 495 0
2018-01-12 03:14:00 GMT 49.33846 9.92868 34,000 284 495 0
2018-01-12 03:13:58 GMT 49.33717 9.93685 33,975 284 495 0
2018-01-12 03:13:56 GMT 49.33615 9.94364 33,975 284 495 0
2018-01-12 03:13:54 GMT 49.33481 9.95253 33,975 284 495 0
2018-01-12 03:13:54 GMT 49.33507 9.95080 33,975 284 495 0
2018-01-12 03:13:52 GMT 49.33429 9.95594 33,975 284 495 0
2018-01-12 03:13:49 GMT 49.33273 9.96615 33,975 284 495 0
2018-01-12 03:13:47 GMT 49.33169 9.97298 33,975 284 495 0
2018-01-12 03:13:45 GMT 49.33071 9.97942 33,975 284 495 0
2018-01-12 03:13:45 GMT 49.33071 9.97942 33,975 284 495 0
2018-01-12 03:13:43 GMT 49.32985 9.98488 33,975 284 495 0
2018-01-12 03:13:41 GMT 49.32861 9.99305 33,975 284 495 0
2018-01-12 03:13:39 GMT 49.32745 10.00052 33,975 284 495 0
2018-01-12 03:13:37 GMT 49.32619 10.00869 33,975 284 495 0
2018-01-12 03:13:35 GMT 49.32517 10.01556 33,975 284 495 0
2018-01-12 03:13:33 GMT 49.32463 10.01897 33,975 284 495 0
2018-01-12 03:13:31 GMT 49.32363 10.02539 34,000 284 495 0
2018-01-12 03:13:29 GMT 49.32265 10.03189 34,000 284 495 0
2018-01-12 03:13:27 GMT 49.32140 10.04006 33,975 284 495 0
2018-01-12 03:13:25 GMT 49.32010 10.04855 33,975 284 495 0
2018-01-12 03:13:23 GMT 49.31914 10.05467 34,000 284 495 0
2018-01-12 03:13:21 GMT 49.31809 10.06151 34,000 284 495 0
2018-01-12 03:13:19 GMT 49.31684 10.06969 34,000 284 495 0
2018-01-12 03:13:17 GMT 49.31575 10.07650 34,000 284 495 0
2018-01-12 03:13:15 GMT 49.31479 10.08291 34,000 284 495 0
2018-01-12 03:13:13 GMT 49.31374 10.08975 34,000 284 495 0
2018-01-12 03:13:10 GMT 49.31241 10.09827 34,000 284 496 0
2018-01-12 03:13:08 GMT 49.31083 10.10851 33,975 284 496 0
2018-01-12 03:13:06 GMT 49.31030 10.11193 34,000 284 496 0
2018-01-12 03:13:03 GMT 49.30873 10.12217 34,000 284 496 0
2018-01-12 03:13:01 GMT 49.30765 10.12897 34,000 284 496 0
2018-01-12 03:12:58 GMT 49.30618 10.13850 34,000 284 496 0
2018-01-12 03:12:56 GMT 49.30504 10.14602 34,000 284 496 0
2018-01-12 03:12:54 GMT 49.30389 10.15320 34,000 284 496 0
2018-01-12 03:12:52 GMT 49.30278 10.16033 34,000 284 496 0
2018-01-12 03:12:50 GMT 49.30166 10.16748 34,000 284 496 0
2018-01-12 03:12:48 GMT 49.30031 10.17638 34,000 284 497 0
2018-01-12 03:12:46 GMT 49.30003 10.17811 34,000 284 497 0
2018-01-12 03:12:44 GMT 49.29868 10.18700 34,000 284 497 0
2018-01-12 03:12:42 GMT 49.29753 10.19419 34,000 284 497 0
2018-01-12 03:12:40 GMT 49.29680 10.19890 34,000 284 497 0
2018-01-12 03:12:38 GMT 49.29537 10.20818 34,000 284 497 0
2018-01-12 03:12:36 GMT 49.29430 10.21497 34,000 284 497 0
2018-01-12 03:12:36 GMT 49.29410 10.21637 34,000 284 497 0
2018-01-12 03:12:34 GMT 49.29263 10.22596 34,000 284 497 64
2018-01-12 03:12:32 GMT 49.29193 10.23037 34,000 284 497 64
2018-01-12 03:12:30 GMT 49.29142 10.23348 34,000 284 497 64
2018-01-12 03:12:28 GMT 49.28974 10.24439 34,000 284 498 0
2018-01-12 03:12:25 GMT 49.28828 10.25362 34,000 284 498 64
2018-01-12 03:12:22 GMT 49.28709 10.26152 34,000 284 498 0
2018-01-12 03:12:20 GMT 49.28602 10.26839 33,975 284 498 0
2018-01-12 03:12:18 GMT 49.28457 10.27756 33,975 284 498 0
2018-01-12 03:12:16 GMT 49.28380 10.28236 33,975 284 498 0
2018-01-12 03:12:14 GMT 49.28257 10.29029 33,975 284 498 0
2018-01-12 03:12:12 GMT 49.28104 10.30019 33,975 284 498 0
2018-01-12 03:12:10 GMT 49.28050 10.30363 33,975 284 498 0
2018-01-12 03:12:08 GMT 49.27931 10.31110 33,975 284 498 0
2018-01-12 03:12:06 GMT 49.27829 10.31761 34,000 284 498 0
2018-01-12 03:12:04 GMT 49.27634 10.33032 34,000 284 498 0
2018-01-12 03:12:02 GMT 49.27634 10.33032 34,000 284 498 0
2018-01-12 03:12:00 GMT 49.27508 10.33813 34,000 284 498 0
2018-01-12 03:11:58 GMT 49.27354 10.34811 34,000 284 498 0
2018-01-12 03:11:56 GMT 49.27303 10.35115 34,000 284 498 0
2018-01-12 03:11:54 GMT 49.27187 10.35866 34,000 284 498 0
2018-01-12 03:11:52 GMT 49.27052 10.36726 33,975 284 498 0
2018-01-12 03:11:50 GMT 49.26973 10.37239 33,975 284 498 0
2018-01-12 03:11:48 GMT 49.26892 10.37750 33,975 284 498 0
2018-01-12 03:11:48 GMT 49.26892 10.37750 33,975 284 498 0
2018-01-12 03:11:46 GMT 49.26768 10.38541 33,975 284 498 0
2018-01-12 03:11:44 GMT 49.26695 10.38983 33,975 284 498 0
2018-01-12 03:11:42 GMT 49.26489 10.40314 33,975 284 498 0
2018-01-12 03:11:40 GMT 49.26434 10.40659 34,000 284 498 0
2018-01-12 03:11:38 GMT 49.26274 10.41680 34,000 284 498 0
2018-01-12 03:11:36 GMT 49.26172 10.42335 34,000 284 498 0
2018-01-12 03:11:36 GMT 49.26190 10.42198 34,000 284 498 0
2018-01-12 03:11:33 GMT 49.26054 10.43053 34,000 284 497 0
2018-01-12 03:11:31 GMT 49.25944 10.43765 33,975 284 497 0
2018-01-12 03:11:29 GMT 49.25871 10.44208 33,975 284 497 0
2018-01-12 03:11:27 GMT 49.25739 10.45067 33,975 284 497 0
2018-01-12 03:11:25 GMT 49.25613 10.45855 33,975 284 497 0
2018-01-12 03:11:23 GMT 49.25506 10.46534 34,000 284 497 0
2018-01-12 03:11:21 GMT 49.25413 10.47120 33,975 284 497 0
2018-01-12 03:11:19 GMT 49.25313 10.47765 34,000 284 497 0
2018-01-12 03:11:17 GMT 49.25203 10.48448 34,000 284 497 0
2018-01-12 03:11:15 GMT 49.25101 10.49100 34,000 284 497 64
2018-01-12 03:11:13 GMT 49.24966 10.49953 33,975 284 497 64
2018-01-12 03:11:11 GMT 49.24878 10.50497 33,975 284 497 0
2018-01-12 03:11:09 GMT 49.24768 10.51180 33,975 284 497 0
2018-01-12 03:11:07 GMT 49.24645 10.51969 33,975 284 497 0
2018-01-12 03:11:05 GMT 49.24553 10.52547 33,975 284 498 0
2018-01-12 03:11:03 GMT 49.24440 10.53264 33,975 284 498 0
2018-01-12 03:11:01 GMT 49.24324 10.53979 33,975 284 498 0
2018-01-12 03:11:01 GMT 49.24324 10.53979 33,975 284 498 0
2018-01-12 03:10:59 GMT 49.24219 10.54666 33,975 284 498 0
2018-01-12 03:10:57 GMT 49.24104 10.55385 33,975 284 498 0
2018-01-12 03:10:55 GMT 49.24016 10.55931 33,975 284 498 0
2018-01-12 03:10:53 GMT 49.23885 10.56744 33,975 284 498 0
2018-01-12 03:10:51 GMT 49.23775 10.57427 33,975 284 498 0
2018-01-12 03:10:49 GMT 49.23674 10.58075 33,975 284 498 -64
2018-01-12 03:10:47 GMT 49.23596 10.58554 33,975 284 498 -64
2018-01-12 03:10:45 GMT 49.23444 10.59508 34,000 284 498 -64
2018-01-12 03:10:42 GMT 49.23289 10.60462 34,000 284 498 0
2018-01-12 03:10:40 GMT 49.23212 10.60976 34,000 284 498 0
2018-01-12 03:10:38 GMT 49.23015 10.62202 34,000 284 498 0
2018-01-12 03:10:36 GMT 49.22964 10.62508 34,000 284 498 0
2018-01-12 03:10:34 GMT 49.22882 10.63019 34,000 284 498 0
2018-01-12 03:10:32 GMT 49.22699 10.64185 33,975 284 498 0
2018-01-12 03:10:30 GMT 49.22648 10.64489 33,975 284 497 0
2018-01-12 03:10:28 GMT 49.22493 10.65441 34,000 284 497 0
2018-01-12 03:10:26 GMT 49.22406 10.65991 34,000 284 497 0
2018-01-12 03:10:24 GMT 49.22324 10.66498 34,000 284 497 0
2018-01-12 03:10:22 GMT 49.22201 10.67286 34,000 284 497 0
2018-01-12 03:10:20 GMT 49.22067 10.68103 34,000 284 497 0
2018-01-12 03:10:18 GMT 49.21985 10.68611 34,000 284 497 0
2018-01-12 03:10:16 GMT 49.21852 10.69463 34,000 284 497 0
2018-01-12 03:10:14 GMT 49.21745 10.70112 34,000 284 497 64
2018-01-12 03:10:11 GMT 49.21610 10.70963 34,000 284 497 64
2018-01-12 03:10:09 GMT 49.21472 10.71815 33,975 284 497 64
2018-01-12 03:10:07 GMT 49.21358 10.72526 33,975 284 497 64
2018-01-12 03:10:05 GMT 49.21307 10.72871 33,975 284 497 0
2018-01-12 03:10:03 GMT 49.21111 10.74097 33,975 284 497 0
2018-01-12 03:10:01 GMT 49.21014 10.74674 33,975 284 497 0
2018-01-12 03:09:59 GMT 49.20963 10.75012 33,975 284 497 0
2018-01-12 03:09:57 GMT 49.20845 10.75731 33,975 284 497 0
2018-01-12 03:09:55 GMT 49.20762 10.76241 33,975 284 497 0
2018-01-12 03:09:53 GMT 49.20639 10.77019 33,975 284 497 0
2018-01-12 03:09:51 GMT 49.20502 10.77872 33,975 284 497 -64
2018-01-12 03:09:49 GMT 49.20385 10.78590 33,975 284 496 -64
2018-01-12 03:09:47 GMT 49.20296 10.79132 34,000 284 496 -128
2018-01-12 03:09:45 GMT 49.20195 10.79775 34,000 284 496 -64
2018-01-12 03:09:43 GMT 49.20083 10.80455 34,000 284 496 0
2018-01-12 03:09:41 GMT 49.19948 10.81308 34,000 284 496 0
2018-01-12 03:09:39 GMT 49.19861 10.81850 34,000 284 496 0
2018-01-12 03:09:37 GMT 49.19751 10.82534 34,000 284 496 -64
2018-01-12 03:09:35 GMT 49.19614 10.83379 34,000 284 496 0
2018-01-12 03:09:33 GMT 49.19517 10.83956 34,000 284 496 0
2018-01-12 03:09:31 GMT 49.19430 10.84498 34,000 284 496 0
2018-01-12 03:09:29 GMT 49.19293 10.85351 34,000 284 496 0
2018-01-12 03:09:27 GMT 49.19208 10.85890 34,000 284 496 0
2018-01-12 03:09:25 GMT 49.19119 10.86439 34,000 284 496 0
2018-01-12 03:09:23 GMT 49.18982 10.87287 34,000 284 496 0
2018-01-12 03:09:21 GMT 49.18826 10.88239 34,000 284 496 0
2018-01-12 03:09:19 GMT 49.18719 10.88919 34,000 284 496 0
2018-01-12 03:09:17 GMT 49.18607 10.89598 34,000 284 496 0
2018-01-12 03:09:15 GMT 49.18529 10.90076 34,000 284 496 0
2018-01-12 03:09:13 GMT 49.18414 10.90787 34,000 284 496 0
2018-01-12 03:09:11 GMT 49.18328 10.91333 34,000 284 496 0
2018-01-12 03:09:09 GMT 49.18165 10.92316 34,000 284 496 0
2018-01-12 03:09:07 GMT 49.18058 10.92995 34,000 284 496 0
2018-01-12 03:09:05 GMT 49.17979 10.93471 34,000 284 496 0
2018-01-12 03:09:03 GMT 49.17858 10.94217 34,000 284 496 0
2018-01-12 03:09:01 GMT 49.17774 10.94730 34,000 284 496 0
2018-01-12 03:08:59 GMT 49.17609 10.95745 34,000 284 496 0
2018-01-12 03:08:57 GMT 49.17549 10.96119 33,975 284 496 0
2018-01-12 03:08:55 GMT 49.17398 10.97034 34,000 284 497 0
2018-01-12 03:08:53 GMT 49.17329 10.97478 34,000 284 497 0
2018-01-12 03:08:51 GMT 49.17215 10.98161 34,000 284 497 0
2018-01-12 03:08:49 GMT 49.17091 10.98943 34,000 284 497 0
2018-01-12 03:08:47 GMT 49.17001 10.99486 34,000 284 497 64
2018-01-12 03:08:45 GMT 49.16858 11.00365 34,000 284 497 0
2018-01-12 03:08:43 GMT 49.16698 11.01351 33,975 284 497 0
2018-01-12 03:08:41 GMT 49.16642 11.01697 33,975 284 497 0
2018-01-12 03:08:39 GMT 49.16559 11.02203 33,975 284 497 0
2018-01-12 03:08:37 GMT 49.16410 11.03121 33,975 284 497 0
2018-01-12 03:08:37 GMT 49.16410 11.03121 33,975 284 497 0
2018-01-12 03:08:35 GMT 49.16321 11.03663 33,975 285 497 0
2018-01-12 03:08:33 GMT 49.16203 11.04379 34,000 285 497 0
2018-01-12 03:08:31 GMT 49.16098 11.05027 33,975 285 497 0
2018-01-12 03:08:29 GMT 49.15963 11.05839 33,975 285 497 0
2018-01-12 03:08:27 GMT 49.15879 11.06352 34,000 284 497 0
2018-01-12 03:08:25 GMT 49.15763 11.07061 33,975 284 497 0
2018-01-12 03:08:23 GMT 49.15660 11.07711 33,975 284 497 0
2018-01-12 03:08:21 GMT 49.15521 11.08557 33,975 284 497 0
2018-01-12 03:08:18 GMT 49.15379 11.09408 33,975 285 497 0
2018-01-12 03:08:16 GMT 49.15237 11.10291 33,975 285 497 0
2018-01-12 03:08:14 GMT 49.15153 11.10805 33,975 285 497 0
2018-01-12 03:08:11 GMT 49.15037 11.11513 34,000 285 497 0
2018-01-12 03:08:09 GMT 49.14827 11.12771 34,000 285 498 0
2018-01-12 03:08:07 GMT 49.14799 11.12944 34,000 285 498 0
2018-01-12 03:08:05 GMT 49.14578 11.14267 34,000 285 497 0
2018-01-12 03:08:03 GMT 49.14496 11.14774 34,000 285 497 0
2018-01-12 03:08:01 GMT 49.14427 11.15185 34,000 285 497 0
2018-01-12 03:07:59 GMT 49.14253 11.16239 34,000 285 498 0
2018-01-12 03:07:57 GMT 49.14227 11.16406 34,000 285 497 0
2018-01-12 03:07:55 GMT 49.14084 11.17253 34,000 285 497 0
2018-01-12 03:07:53 GMT 49.13919 11.18274 33,975 285 497 0
2018-01-12 03:07:51 GMT 49.13863 11.18611 33,975 285 497 0
2018-01-12 03:07:49 GMT 49.13745 11.19331 33,975 285 497 0
2018-01-12 03:07:47 GMT 49.13654 11.19868 33,975 285 497 0
2018-01-12 03:07:45 GMT 49.13521 11.20683 34,000 285 497 0
2018-01-12 03:07:43 GMT 49.13430 11.21227 33,975 285 498 0
2018-01-12 03:07:43 GMT 49.13430 11.21227 33,975 285 498 0
2018-01-12 03:07:41 GMT 49.13315 11.21944 34,000 285 498 0
2018-01-12 03:07:39 GMT 49.13165 11.22824 33,975 285 497 0
2018-01-12 03:07:37 GMT 49.13086 11.23303 33,975 285 497 0
2018-01-12 03:07:35 GMT 49.12951 11.24118 34,000 285 497 0
2018-01-12 03:07:33 GMT 49.12867 11.24624 34,000 285 497 0
2018-01-12 03:07:33 GMT 49.12867 11.24624 34,000 285 497 0
2018-01-12 03:07:30 GMT 49.12676 11.25781 34,000 285 497 0
2018-01-12 03:07:28 GMT 49.12537 11.26627 34,000 285 497 0
2018-01-12 03:07:26 GMT 49.12463 11.27070 34,000 285 497 0
2018-01-12 03:07:24 GMT 49.12386 11.27542 33,975 285 497 0
2018-01-12 03:07:22 GMT 49.12201 11.28628 34,000 285 497 0
2018-01-12 03:07:19 GMT 49.12083 11.29345 33,975 285 497 0
2018-01-12 03:07:17 GMT 49.11923 11.30324 33,975 285 497 0
2018-01-12 03:07:15 GMT 49.11836 11.30838 33,975 285 497 0
2018-01-12 03:07:12 GMT 49.11708 11.31613 33,975 285 497 0
2018-01-12 03:07:10 GMT 49.11592 11.32329 34,000 285 497 0
2018-01-12 03:07:08 GMT 49.11424 11.33312 34,000 285 497 0
2018-01-12 03:07:06 GMT 49.11319 11.33958 34,000 285 497 0
2018-01-12 03:07:04 GMT 49.11187 11.34736 34,000 285 497 0
2018-01-12 03:07:02 GMT 49.11108 11.35212 34,000 285 497 0
2018-01-12 03:06:59 GMT 49.10957 11.36127 34,000 285 497 0
2018-01-12 03:06:57 GMT 49.10843 11.36810 34,000 285 497 0
2018-01-12 03:06:55 GMT 49.10661 11.37894 34,000 285 498 0
2018-01-12 03:06:53 GMT 49.10633 11.38061 34,000 285 498 0
2018-01-12 03:06:51 GMT 49.10454 11.39148 34,000 285 498 0
2018-01-12 03:06:49 GMT 49.10362 11.39691 34,000 285 498 0
2018-01-12 03:06:47 GMT 49.10260 11.40301 34,000 285 498 0
2018-01-12 03:06:45 GMT 49.10148 11.40981 34,000 285 498 0
2018-01-12 03:06:43 GMT 49.10001 11.41867 34,000 285 498 0
2018-01-12 03:06:40 GMT 49.09869 11.42643 34,000 285 498 0
2018-01-12 03:06:38 GMT 49.09786 11.43156 34,000 285 498 0
2018-01-12 03:06:36 GMT 49.09634 11.44036 34,000 285 498 0
2018-01-12 03:06:34 GMT 49.09529 11.44681 34,000 285 498 0
2018-01-12 03:06:32 GMT 49.09410 11.45395 34,000 285 498 0
2018-01-12 03:06:30 GMT 49.09296 11.46071 34,000 285 498 0
2018-01-12 03:06:28 GMT 49.09185 11.46720 34,000 285 498 0
2018-01-12 03:06:26 GMT 49.09045 11.47565 34,000 285 498 0
2018-01-12 03:06:24 GMT 49.08957 11.48078 34,000 285 498 0
2018-01-12 03:06:22 GMT 49.08845 11.48758 34,000 285 498 64
2018-01-12 03:06:20 GMT 49.08691 11.49669 34,000 285 498 0
2018-01-12 03:06:18 GMT 49.08609 11.50149 34,000 285 498 0
2018-01-12 03:06:16 GMT 49.08501 11.50789 34,000 285 498 0
2018-01-12 03:06:14 GMT 49.08361 11.51635 34,000 285 498 0
2018-01-12 03:06:12 GMT 49.08270 11.52184 34,000 285 498 0
2018-01-12 03:06:08 GMT 49.08041 11.53536 34,000 285 497 0
2018-01-12 03:06:06 GMT 49.07909 11.54318 34,000 285 497 0
2018-01-12 03:06:04 GMT 49.07840 11.54721 34,000 285 497 64
2018-01-12 03:06:02 GMT 49.07704 11.55538 34,000 285 497 64
2018-01-12 03:06:00 GMT 49.07649 11.55841 34,000 285 497 64
2018-01-12 03:05:58 GMT 49.07501 11.56727 33,975 285 497 64
2018-01-12 03:05:56 GMT 49.07323 11.57776 33,975 285 497 0
2018-01-12 03:05:54 GMT 49.07236 11.58283 33,975 285 497 0
2018-01-12 03:05:52 GMT 49.07121 11.58959 33,975 285 497 -64
2018-01-12 03:05:50 GMT 49.06988 11.59741 34,000 285 497 0
2018-01-12 03:05:48 GMT 49.06899 11.60279 34,000 285 497 0
2018-01-12 03:05:46 GMT 49.06778 11.60994 34,000 285 497 0
2018-01-12 03:05:44 GMT 49.06629 11.61876 34,000 285 497 0
2018-01-12 03:05:42 GMT 49.06555 11.62317 34,000 285 497 0
2018-01-12 03:05:40 GMT 49.06438 11.62990 34,000 285 497 0
2018-01-12 03:05:38 GMT 49.06327 11.63669 33,975 285 497 0
2018-01-12 03:05:36 GMT 49.06178 11.64551 33,975 285 497 0
2018-01-12 03:05:33 GMT 49.06059 11.65227 33,975 285 497 0
2018-01-12 03:05:31 GMT 49.05908 11.66142 33,975 285 497 0
2018-01-12 03:05:29 GMT 49.05763 11.66987 33,975 285 497 0
2018-01-12 03:05:27 GMT 49.05684 11.67464 33,975 285 497 0
2018-01-12 03:05:25 GMT 49.05537 11.68312 33,975 285 497 0
2018-01-12 03:05:23 GMT 49.05455 11.68819 33,975 285 497 0
2018-01-12 03:05:21 GMT 49.05368 11.69328 33,975 285 497 0
2018-01-12 03:05:19 GMT 49.05203 11.70276 33,975 285 497 0
2018-01-12 03:05:17 GMT 49.05149 11.70615 33,975 285 497 0
2018-01-12 03:05:15 GMT 49.04974 11.71628 34,000 285 497 -64
2018-01-12 03:05:13 GMT 49.04832 11.72472 34,000 285 497 -64
2018-01-12 03:05:11 GMT 49.04796 11.72678 34,000 285 497 -64
2018-01-12 03:05:08 GMT 49.04594 11.73861 34,000 285 497 0
2018-01-12 03:05:06 GMT 49.04480 11.74537 34,000 285 497 0
2018-01-12 03:05:04 GMT 49.04353 11.75284 34,000 285 496 0
2018-01-12 03:05:02 GMT 49.04210 11.76129 34,000 285 496 64
2018-01-12 03:05:00 GMT 49.04153 11.76462 34,000 285 496 64
2018-01-12 03:04:58 GMT 49.04018 11.77241 34,000 285 496 0
2018-01-12 03:04:56 GMT 49.03903 11.77918 34,000 285 496 0
2018-01-12 03:04:54 GMT 49.03775 11.78660 34,000 285 496 0
2018-01-12 03:04:52 GMT 49.03636 11.79476 34,000 285 496 0
2018-01-12 03:04:50 GMT 49.03533 11.80083 34,000 285 497 0
2018-01-12 03:04:47 GMT 49.03375 11.80994 34,000 285 497 0
2018-01-12 03:04:45 GMT 49.03268 11.81637 34,000 285 497 0
2018-01-12 03:04:43 GMT 49.03124 11.82483 34,000 285 497 -64
2018-01-12 03:04:41 GMT 49.03024 11.83058 34,000 285 497 -64
2018-01-12 03:04:38 GMT 49.02846 11.84108 34,000 285 496 0
2018-01-12 03:04:36 GMT 49.02765 11.84579 34,000 285 497 0
2018-01-12 03:04:34 GMT 49.02616 11.85425 34,000 285 497 0
2018-01-12 03:04:32 GMT 49.02548 11.85833 34,000 285 497 0
2018-01-12 03:04:30 GMT 49.02425 11.86538 34,000 285 497 64
2018-01-12 03:04:28 GMT 49.02292 11.87319 34,000 285 497 64
2018-01-12 03:04:26 GMT 49.02177 11.87995 34,000 285 497 0
2018-01-12 03:04:24 GMT 49.02002 11.89010 34,000 285 497 0
2018-01-12 03:04:22 GMT 49.01944 11.89348 34,000 285 497 0
2018-01-12 03:04:20 GMT 49.01769 11.90361 34,000 285 497 0
2018-01-12 03:04:17 GMT 49.01637 11.91136 34,000 285 497 0
2018-01-12 03:04:14 GMT 49.01485 11.92017 34,000 285 497 0
2018-01-12 03:04:12 GMT 49.01341 11.92862 34,000 285 497 0
2018-01-12 03:04:10 GMT 49.01224 11.93534 34,000 285 497 0
2018-01-12 03:04:07 GMT 49.01070 11.94453 34,000 285 497 0
2018-01-12 03:04:04 GMT 49.00887 11.95496 34,000 285 497 0
2018-01-12 03:04:04 GMT 49.00859 11.95665 34,000 285 497 0
2018-01-12 03:04:02 GMT 49.00740 11.96341 33,975 285 497 0
2018-01-12 03:04:00 GMT 49.00676 11.96714 33,975 285 498 0
2018-01-12 03:03:58 GMT 49.00531 11.97560 33,975 285 498 0
2018-01-12 03:03:56 GMT 49.00354 11.98572 34,000 285 498 0
2018-01-12 03:03:54 GMT 49.00298 11.98912 34,000 285 498 0
2018-01-12 03:03:52 GMT 49.00205 11.99454 34,000 285 498 0
2018-01-12 03:03:50 GMT 49.00075 12.00198 33,975 285 498 0
2018-01-12 03:03:48 GMT 48.99972 12.00806 33,975 285 498 0
2018-01-12 03:03:46 GMT 48.99879 12.01348 33,975 285 497 0
2018-01-12 03:03:43 GMT 48.99642 12.02699 33,975 285 497 0
2018-01-12 03:03:40 GMT 48.99474 12.03675 33,975 285 497 0
2018-01-12 03:03:37 GMT 48.99278 12.04788 34,000 285 497 0
2018-01-12 03:03:34 GMT 48.99147 12.05566 34,000 285 497 0
2018-01-12 03:03:32 GMT 48.99036 12.06212 33,975 285 497 0
2018-01-12 03:03:30 GMT 48.98882 12.07088 33,975 285 497 0
2018-01-12 03:03:26 GMT 48.98673 12.08301 33,975 285 497 0
2018-01-12 03:03:24 GMT 48.98584 12.08806 33,975 285 497 0
2018-01-12 03:03:22 GMT 48.98408 12.09819 34,000 285 497 -64
2018-01-12 03:03:20 GMT 48.98296 12.10461 34,000 285 497 0
2018-01-12 03:03:16 GMT 48.98099 12.11581 34,000 285 497 0
2018-01-12 03:03:14 GMT 48.97893 12.12757 34,000 285 497 0
2018-01-12 03:03:12 GMT 48.97797 12.13299 34,000 285 497 0
2018-01-12 03:03:10 GMT 48.97710 12.13801 34,000 285 497 0
2018-01-12 03:03:10 GMT 48.97650 12.14144 34,000 285 497 0
2018-01-12 03:03:08 GMT 48.97531 12.14813 34,000 285 497 0
2018-01-12 03:03:06 GMT 48.97505 12.14987 34,000 285 497 0
2018-01-12 03:03:04 GMT 48.97384 12.15659 34,000 285 497 0
2018-01-12 03:03:02 GMT 48.97275 12.16299 33,975 285 497 0
2018-01-12 03:03:00 GMT 48.97133 12.17109 34,000 285 497 0
2018-01-12 03:02:58 GMT 48.96986 12.17954 34,000 285 497 0
2018-01-12 03:02:56 GMT 48.96904 12.18427 34,000 285 497 0
2018-01-12 03:02:53 GMT 48.96707 12.19539 34,000 285 497 0
2018-01-12 03:02:51 GMT 48.96592 12.20184 34,000 285 497 0
2018-01-12 03:02:49 GMT 48.96469 12.20891 34,000 285 497 0
2018-01-12 03:02:46 GMT 48.96294 12.21904 34,000 285 497 0
2018-01-12 03:02:43 GMT 48.96117 12.22912 34,000 285 497 0
2018-01-12 03:02:41 GMT 48.96007 12.23560 34,000 285 497 0
2018-01-12 03:02:39 GMT 48.95879 12.24264 34,000 285 497 0
2018-01-12 03:02:36 GMT 48.95722 12.25178 34,000 285 497 0
2018-01-12 03:02:34 GMT 48.95624 12.25713 34,000 285 497 0
2018-01-12 03:02:31 GMT 48.95419 12.26898 34,000 285 497 0
2018-01-12 03:02:29 GMT 48.95284 12.27672 34,000 285 497 0
2018-01-12 03:02:26 GMT 48.95082 12.28821 34,000 285 497 0
2018-01-12 03:02:24 GMT 48.95010 12.29226 34,000 285 497 0
2018-01-12 03:02:21 GMT 48.94780 12.30539 34,000 285 497 0
2018-01-12 03:02:18 GMT 48.94628 12.31416 34,000 285 497 0
2018-01-12 03:02:16 GMT 48.94521 12.32023 34,000 285 497 0
2018-01-12 03:02:14 GMT 48.94414 12.32631 34,000 285 497 0
2018-01-12 03:02:11 GMT 48.94237 12.33642 34,000 286 497 0
2018-01-12 03:02:09 GMT 48.94097 12.34415 34,000 286 497 0
2018-01-12 03:02:07 GMT 48.93974 12.35124 34,000 286 497 0
2018-01-12 03:02:05 GMT 48.93883 12.35631 34,000 286 497 0
2018-01-12 03:02:03 GMT 48.93771 12.36273 34,000 286 497 0
2018-01-12 03:02:01 GMT 48.93632 12.37046 34,000 286 497 0
2018-01-12 03:01:59 GMT 48.93478 12.37921 34,000 286 497 0
2018-01-12 03:01:57 GMT 48.93416 12.38258 34,000 286 497 0
2018-01-12 03:01:55 GMT 48.93292 12.38969 34,000 286 497 0
2018-01-12 03:01:52 GMT 48.93114 12.39976 34,000 286 497 0
2018-01-12 03:01:50 GMT 48.92957 12.40855 34,000 286 497 0
2018-01-12 03:01:48 GMT 48.92868 12.41361 34,000 286 497 0
2018-01-12 03:01:46 GMT 48.92696 12.42337 34,000 286 497 0
2018-01-12 03:01:44 GMT 48.92569 12.43047 34,000 286 497 0
2018-01-12 03:01:42 GMT 48.92510 12.43385 34,000 286 497 0
2018-01-12 03:01:40 GMT 48.92296 12.44592 34,000 286 497 -64
2018-01-12 03:01:38 GMT 48.92212 12.45068 34,000 286 497 0
2018-01-12 03:01:35 GMT 48.92116 12.45603 34,000 286 497 0
2018-01-12 03:01:33 GMT 48.91970 12.46449 34,000 286 497 64
2018-01-12 03:01:31 GMT 48.91841 12.47152 34,000 286 497 64
2018-01-12 03:01:29 GMT 48.91718 12.47864 34,000 286 497 64
2018-01-12 03:01:27 GMT 48.91611 12.48466 33,975 286 497 64
2018-01-12 03:01:25 GMT 48.91439 12.49442 33,975 286 497 0
2018-01-12 03:01:23 GMT 48.91415 12.49575 33,975 286 497 0
2018-01-12 03:01:21 GMT 48.91197 12.50793 33,975 286 497 -64
2018-01-12 03:01:19 GMT 48.91146 12.51090 33,975 286 497 -64
2018-01-12 03:01:17 GMT 48.90999 12.51899 34,000 286 497 0
2018-01-12 03:01:15 GMT 48.90853 12.52745 34,000 286 497 0
2018-01-12 03:01:13 GMT 48.90820 12.52911 34,000 286 497 0
2018-01-12 03:01:11 GMT 48.90642 12.53920 34,000 286 497 64
2018-01-12 03:01:09 GMT 48.90490 12.54762 34,000 286 497 0
2018-01-12 03:01:07 GMT 48.90415 12.55202 33,975 286 497 0
2018-01-12 03:01:04 GMT 48.90230 12.56244 33,975 286 497 0
2018-01-12 03:01:01 GMT 48.90047 12.57248 33,975 286 497 0
2018-01-12 03:00:59 GMT 48.89887 12.58160 34,000 286 497 0
2018-01-12 03:00:57 GMT 48.89800 12.58632 34,000 286 497 0
2018-01-12 03:00:54 GMT 48.89630 12.59568 34,000 286 497 0
2018-01-12 03:00:52 GMT 48.89503 12.60276 34,000 286 497 0
2018-01-12 03:00:50 GMT 48.89392 12.60914 34,000 286 497 0
2018-01-12 03:00:50 GMT 48.89392 12.60914 34,000 286 497 0
2018-01-12 03:00:48 GMT 48.89233 12.61787 34,000 286 497 0
2018-01-12 03:00:46 GMT 48.89172 12.62125 34,000 286 497 0
2018-01-12 03:00:43 GMT 48.88902 12.63637 34,000 286 497 0
2018-01-12 03:00:40 GMT 48.88781 12.64310 34,000 286 497 0
2018-01-12 03:00:38 GMT 48.88655 12.65011 34,000 286 497 0
2018-01-12 03:00:36 GMT 48.88590 12.65379 34,000 286 496 0
2018-01-12 03:00:34 GMT 48.88422 12.66322 34,000 286 496 0
2018-01-12 03:00:31 GMT 48.88283 12.67092 34,000 286 496 64
2018-01-12 03:00:29 GMT 48.88115 12.68033 33,975 286 496 64
2018-01-12 03:00:27 GMT 48.88010 12.68604 33,975 286 496 0
2018-01-12 03:00:25 GMT 48.87864 12.69412 33,975 286 496 0
2018-01-12 03:00:23 GMT 48.87767 12.69949 33,975 286 496 0
2018-01-12 03:00:20 GMT 48.87575 12.71020 33,975 286 496 0
2018-01-12 03:00:18 GMT 48.87405 12.71956 33,975 286 496 0
2018-01-12 03:00:16 GMT 48.87329 12.72397 33,975 286 496 0
2018-01-12 03:00:13 GMT 48.87167 12.73301 33,975 286 496 0
2018-01-12 03:00:11 GMT 48.86984 12.74306 33,975 286 496 0
2018-01-12 03:00:09 GMT 48.86925 12.74639 33,975 286 496 0
2018-01-12 03:00:09 GMT 48.86925 12.74639 33,975 286 496 0
2018-01-12 03:00:07 GMT 48.86783 12.75414 33,975 286 496 0
2018-01-12 03:00:05 GMT 48.86723 12.75744 33,975 286 496 0
2018-01-12 03:00:03 GMT 48.86547 12.76720 33,975 286 495 0
2018-01-12 03:00:01 GMT 48.86388 12.77587 33,975 286 495 0
2018-01-12 02:59:59 GMT 48.86314 12.78028 33,975 286 495 0
2018-01-12 02:59:57 GMT 48.86146 12.78932 33,975 286 495 0
2018-01-12 02:59:54 GMT 48.86005 12.79731 33,975 286 495 0
2018-01-12 02:59:52 GMT 48.85876 12.80435 33,975 286 495 -64
2018-01-12 02:59:49 GMT 48.85670 12.81569 34,000 286 495 -64
2018-01-12 02:59:47 GMT 48.85574 12.82104 34,000 286 495 -64
2018-01-12 02:59:45 GMT 48.85451 12.82774 34,000 286 495 0
2018-01-12 02:59:42 GMT 48.85304 12.83576 34,000 286 495 0
2018-01-12 02:59:40 GMT 48.85162 12.84386 34,000 286 495 0
2018-01-12 02:59:38 GMT 48.85020 12.85154 34,000 286 495 0
2018-01-12 02:59:36 GMT 48.84936 12.85617 34,000 286 495 0
2018-01-12 02:59:34 GMT 48.84755 12.86626 34,000 286 495 0
2018-01-12 02:59:31 GMT 48.84638 12.87258 34,000 286 495 0
2018-01-12 02:59:29 GMT 48.84499 12.88027 34,000 286 495 0
2018-01-12 02:59:27 GMT 48.84334 12.88929 34,000 286 495 0
2018-01-12 02:59:25 GMT 48.84219 12.89571 34,000 286 495 0
2018-01-12 02:59:23 GMT 48.84123 12.90105 34,000 286 495 0
2018-01-12 02:59:21 GMT 48.84022 12.90640 34,000 286 495 0
2018-01-12 02:59:17 GMT 48.83688 12.92477 34,000 286 495 -64
2018-01-12 02:59:15 GMT 48.83629 12.92809 34,000 286 495 0
2018-01-12 02:59:13 GMT 48.83446 12.93814 34,000 288 495 64
2018-01-12 02:59:11 GMT 48.83382 12.94147 34,000 286 495 0
2018-01-12 02:59:07 GMT 48.83162 12.95353 34,000 286 495 0
2018-01-12 02:59:05 GMT 48.82971 12.96387 34,000 286 495 0
2018-01-12 02:59:02 GMT 48.82887 12.96856 34,000 286 495 0
2018-01-12 02:59:00 GMT 48.82753 12.97594 34,000 286 495 0
2018-01-12 02:58:58 GMT 48.82635 12.98225 34,000 286 495 0
2018-01-12 02:58:56 GMT 48.82407 12.99499 33,975 286 495 0
2018-01-12 02:58:53 GMT 48.82306 13.00037 33,975 286 496 0
2018-01-12 02:58:51 GMT 48.82150 13.00901 33,975 286 496 0
2018-01-12 02:58:49 GMT 48.82026 13.01569 34,000 288 495 -64
2018-01-12 02:58:47 GMT 48.81889 13.02309 33,975 286 496 0
2018-01-12 02:58:45 GMT 48.81834 13.02605 33,975 286 496 0
2018-01-12 02:58:43 GMT 48.81649 13.03615 34,000 286 496 0
2018-01-12 02:58:41 GMT 48.81551 13.04149 34,000 286 496 0
2018-01-12 02:58:38 GMT 48.81379 13.05082 34,000 286 496 0
2018-01-12 02:58:36 GMT 48.81235 13.05887 34,000 286 496 0
2018-01-12 02:58:34 GMT 48.81119 13.06520 34,000 286 496 0
2018-01-12 02:58:31 GMT 48.80919 13.07591 34,000 286 496 0
2018-01-12 02:58:28 GMT 48.80802 13.08226 34,000 286 496 0
2018-01-12 02:58:26 GMT 48.80602 13.09332 34,000 286 496 0
2018-01-12 02:58:24 GMT 48.80569 13.09498 34,000 286 496 0
2018-01-12 02:58:22 GMT 48.80415 13.10338 33,975 286 496 0
2018-01-12 02:58:22 GMT 48.80378 13.10539 34,000 286 496 0
2018-01-12 02:58:20 GMT 48.80264 13.11169 34,000 286 496 -64
2018-01-12 02:58:18 GMT 48.80094 13.12071 34,000 286 496 0
2018-01-12 02:58:16 GMT 48.79997 13.12606 34,000 286 496 0
2018-01-12 02:58:14 GMT 48.79898 13.13148 34,000 286 496 0
2018-01-12 02:58:12 GMT 48.79783 13.13777 34,000 286 496 0
2018-01-12 02:58:10 GMT 48.79671 13.14384 34,000 286 496 0
2018-01-12 02:58:08 GMT 48.79486 13.15387 34,000 286 496 0
2018-01-12 02:58:06 GMT 48.79391 13.15888 34,000 286 496 0
2018-01-12 02:58:04 GMT 48.79303 13.16352 34,000 286 496 0
2018-01-12 02:58:01 GMT 48.79115 13.17388 33,975 286 496 64
2018-01-12 02:57:59 GMT 48.78982 13.18092 33,975 286 496 64
2018-01-12 02:57:57 GMT 48.78847 13.18829 33,975 286 496 0
2018-01-12 02:57:55 GMT 48.78693 13.19660 33,975 286 496 0
2018-01-12 02:57:52 GMT 48.78548 13.20430 33,975 286 496 0
2018-01-12 02:57:50 GMT 48.78419 13.21135 34,000 286 496 0
2018-01-12 02:57:48 GMT 48.78283 13.21872 33,975 286 496 0
2018-01-12 02:57:46 GMT 48.78130 13.22703 34,000 286 496 0
2018-01-12 02:57:44 GMT 48.78035 13.23205 33,975 286 496 0
2018-01-12 02:57:42 GMT 48.77855 13.24178 34,000 286 496 0
2018-01-12 02:57:40 GMT 48.77737 13.24810 34,000 286 496 0
2018-01-12 02:57:37 GMT 48.77614 13.25479 33,975 286 496 0
2018-01-12 02:57:35 GMT 48.77490 13.26148 33,975 286 496 0
2018-01-12 02:57:33 GMT 48.77329 13.27018 33,975 286 496 -64
2018-01-12 02:57:31 GMT 48.77236 13.27517 33,975 286 496 0
2018-01-12 02:57:29 GMT 48.77110 13.28182 33,975 286 496 -64
2018-01-12 02:57:27 GMT 48.76999 13.28789 33,975 286 496 -64
2018-01-12 02:57:25 GMT 48.76813 13.29789 34,000 286 496 0
2018-01-12 02:57:23 GMT 48.76761 13.30054 34,000 286 496 0
2018-01-12 02:57:21 GMT 48.76649 13.30654 34,000 286 496 64
2018-01-12 02:57:19 GMT 48.76501 13.31456 34,000 286 496 64
2018-01-12 02:57:16 GMT 48.76310 13.32490 33,975 286 496 64
2018-01-12 02:57:14 GMT 48.76189 13.33162 33,975 286 496 0
2018-01-12 02:57:12 GMT 48.76063 13.33827 33,975 286 496 -64
2018-01-12 02:57:10 GMT 48.75909 13.34658 33,975 286 496 0
2018-01-12 02:57:08 GMT 48.75778 13.35360 34,000 286 496 0
2018-01-12 02:57:05 GMT 48.75595 13.36332 34,000 286 496 -64
2018-01-12 02:57:03 GMT 48.75495 13.36863 34,000 286 495 -64
2018-01-12 02:57:01 GMT 48.75389 13.37430 34,000 286 495 0
2018-01-12 02:56:59 GMT 48.75230 13.38294 34,000 286 495 64
2018-01-12 02:56:57 GMT 48.75137 13.38800 34,000 286 495 64
2018-01-12 02:56:55 GMT 48.75005 13.39494 34,000 286 495 0
2018-01-12 02:56:53 GMT 48.74871 13.40195 34,000 286 495 0
2018-01-12 02:56:50 GMT 48.74652 13.41360 33,975 286 495 0
2018-01-12 02:56:48 GMT 48.74574 13.41797 33,975 286 496 0
2018-01-12 02:56:45 GMT 48.74424 13.42594 33,975 286 496 0
2018-01-12 02:56:43 GMT 48.74271 13.43397 34,000 286 496 -64
2018-01-12 02:56:41 GMT 48.74150 13.44062 34,000 286 496 -64
2018-01-12 02:56:39 GMT 48.73984 13.44931 34,000 286 496 -64
2018-01-12 02:56:36 GMT 48.73764 13.46100 34,000 286 496 0
2018-01-12 02:56:33 GMT 48.73577 13.47097 34,000 286 496 0
2018-01-12 02:56:31 GMT 48.73451 13.47762 34,000 286 496 0
2018-01-12 02:56:29 GMT 48.73284 13.48666 34,000 286 496 0
2018-01-12 02:56:26 GMT 48.73186 13.49165 34,000 286 496 0
2018-01-12 02:56:24 GMT 48.73036 13.49966 34,000 286 496 0
2018-01-12 02:56:22 GMT 48.72939 13.50502 34,000 286 496 0
2018-01-12 02:56:20 GMT 48.72821 13.51135 34,000 286 496 0
2018-01-12 02:56:18 GMT 48.72675 13.51903 34,000 286 496 0
2018-01-12 02:56:16 GMT 48.72556 13.52537 34,000 286 496 0
2018-01-12 02:56:14 GMT 48.72432 13.53199 34,000 286 496 0
2018-01-12 02:56:12 GMT 48.72308 13.53868 34,000 286 496 -64
2018-01-12 02:56:10 GMT 48.72176 13.54571 34,000 286 496 0
2018-01-12 02:56:08 GMT 48.72057 13.55199 34,000 286 496 0
2018-01-12 02:56:06 GMT 48.71928 13.55868 34,000 286 496 0
2018-01-12 02:56:04 GMT 48.71780 13.56667 34,000 286 496 0
2018-01-12 02:56:02 GMT 48.71687 13.57166 34,000 286 496 0
2018-01-12 02:55:59 GMT 48.71445 13.58431 34,000 286 496 0
2018-01-12 02:55:57 GMT 48.71384 13.58769 34,000 286 496 0
2018-01-12 02:55:54 GMT 48.71104 13.60262 34,000 286 496 0
2018-01-12 02:55:52 GMT 48.71045 13.60565 34,000 286 496 0
2018-01-12 02:55:50 GMT 48.70885 13.61431 34,000 286 496 0
2018-01-12 02:55:48 GMT 48.70798 13.61896 34,000 286 496 0
2018-01-12 02:55:46 GMT 48.70663 13.62601 34,000 286 496 64
2018-01-12 02:55:44 GMT 48.70491 13.63533 34,000 286 496 0
2018-01-12 02:55:42 GMT 48.70358 13.64234 34,000 286 496 0
2018-01-12 02:55:42 GMT 48.70358 13.64234 34,000 286 496 0
2018-01-12 02:55:40 GMT 48.70295 13.64567 34,000 286 496 0
2018-01-12 02:55:38 GMT 48.70165 13.65261 34,000 286 496 0
2018-01-12 02:55:36 GMT 48.70011 13.66063 34,000 286 496 0
2018-01-12 02:55:33 GMT 48.69857 13.66894 34,000 286 496 0
2018-01-12 02:55:31 GMT 48.69731 13.67565 34,000 286 496 0
2018-01-12 02:55:29 GMT 48.69611 13.68195 34,000 286 496 0
2018-01-12 02:55:27 GMT 48.69485 13.68860 33,975 287 496 0
2018-01-12 02:55:24 GMT 48.69333 13.69664 34,000 287 496 0
2018-01-12 02:55:22 GMT 48.69182 13.70460 34,000 287 496 0
2018-01-12 02:55:20 GMT 48.69026 13.71291 34,000 287 496 0
2018-01-12 02:55:18 GMT 48.68912 13.71896 34,000 287 496 0
2018-01-12 02:55:15 GMT 48.68694 13.73024 34,000 287 496 0
2018-01-12 02:55:13 GMT 48.68582 13.73624 34,000 287 496 0
2018-01-12 02:55:11 GMT 48.68422 13.74453 33,975 287 496 0
2018-01-12 02:55:08 GMT 48.68266 13.75284 33,975 287 496 0
2018-01-12 02:55:05 GMT 48.68075 13.76283 33,975 286 496 0
2018-01-12 02:55:03 GMT 48.67912 13.77151 33,975 286 496 0
2018-01-12 02:55:01 GMT 48.67837 13.77548 33,975 286 496 0
2018-01-12 02:54:59 GMT 48.67749 13.78017 33,975 287 496 0
2018-01-12 02:54:57 GMT 48.67621 13.78678 34,000 287 496 0
2018-01-12 02:54:55 GMT 48.67447 13.79573 34,000 287 495 0
2018-01-12 02:54:53 GMT 48.67291 13.80369 34,000 287 496 0
2018-01-12 02:54:51 GMT 48.67223 13.80700 34,000 288 495 0
2018-01-12 02:54:49 GMT 48.67060 13.81495 34,000 288 495 0
2018-01-12 02:54:46 GMT 48.66884 13.82355 34,000 288 496 0
2018-01-12 02:54:43 GMT 48.66636 13.83504 34,000 289 496 0
2018-01-12 02:54:41 GMT 48.66440 13.84390 34,000 289 496 64
2018-01-12 02:54:39 GMT 48.66366 13.84718 34,000 289 495 64
2018-01-12 02:54:37 GMT 48.66156 13.85637 33,975 290 496 0
2018-01-12 02:54:35 GMT 48.65998 13.86323 33,975 290 496 0
2018-01-12 02:54:33 GMT 48.65836 13.87003 33,975 290 496 0
2018-01-12 02:54:31 GMT 48.65799 13.87165 33,975 291 496 0
2018-01-12 02:54:29 GMT 48.65561 13.88144 33,975 291 496 0
2018-01-12 02:54:27 GMT 48.65410 13.88756 33,975 291 496 64
2018-01-12 02:54:25 GMT 48.65323 13.89116 33,975 292 496 0
2018-01-12 02:54:23 GMT 48.65122 13.89890 33,975 292 496 0
2018-01-12 02:54:21 GMT 48.64989 13.90404 33,975 292 496 -64
2018-01-12 02:54:19 GMT 48.64737 13.91368 34,000 293 496 -64
2018-01-12 02:54:16 GMT 48.64509 13.92199 34,000 294 496 0
2018-01-12 02:54:14 GMT 48.64299 13.92929 34,000 294 495 0
2018-01-12 02:54:12 GMT 48.64062 13.93753 34,000 294 495 0
2018-01-12 02:54:08 GMT 48.63815 13.94606 34,000 294 496 -64
2018-01-12 02:54:06 GMT 48.63526 13.95589 34,000 294 495 0
2018-01-12 02:54:04 GMT 48.63368 13.96123 34,000 294 495 0
2018-01-12 02:54:02 GMT 48.63231 13.96602 34,000 294 495 0
2018-01-12 02:54:00 GMT 48.63029 13.97292 34,000 294 495 64
2018-01-12 02:53:58 GMT 48.62860 13.97862 34,000 294 495 64
2018-01-12 02:53:56 GMT 48.62544 13.98933 33,975 294 495 64
2018-01-12 02:53:53 GMT 48.62443 13.99285 33,975 294 495 0
2018-01-12 02:53:51 GMT 48.62186 14.00164 33,975 294 495 0
2018-01-12 02:53:49 GMT 48.62009 14.00764 33,975 294 495 0
2018-01-12 02:53:47 GMT 48.61803 14.01454 33,975 294 494 0
2018-01-12 02:53:45 GMT 48.61608 14.02116 34,000 294 494 0
2018-01-12 02:53:43 GMT 48.61469 14.02593 34,000 294 494 0
2018-01-12 02:53:41 GMT 48.61283 14.03222 34,000 294 494 0
2018-01-12 02:53:39 GMT 48.61107 14.03820 34,000 294 494 0
2018-01-12 02:53:37 GMT 48.60971 14.04291 33,975 294 494 0
2018-01-12 02:53:35 GMT 48.60690 14.05236 34,000 294 494 0
2018-01-12 02:53:31 GMT 48.60272 14.06655 34,000 294 494 0
2018-01-12 02:53:28 GMT 48.60013 14.07532 34,000 294 494 0
2018-01-12 02:53:25 GMT 48.59729 14.08511 34,000 294 494 0
2018-01-12 02:53:23 GMT 48.59578 14.09011 34,000 294 494 0
2018-01-12 02:53:21 GMT 48.59365 14.09734 34,000 294 494 0
2018-01-12 02:53:19 GMT 48.59225 14.10211 34,000 294 494 0
2018-01-12 02:53:19 GMT 48.59225 14.10211 34,000 294 494 0
2018-01-12 02:53:17 GMT 48.59052 14.10806 33,975 294 494 0
2018-01-12 02:53:15 GMT 48.58846 14.11497 33,975 295 493 0
2018-01-12 02:53:13 GMT 48.58662 14.12124 33,975 295 493 0
2018-01-12 02:53:11 GMT 48.58447 14.12849 33,975 295 493 0
2018-01-12 02:53:09 GMT 48.58215 14.13637 33,975 295 493 0
2018-01-12 02:53:07 GMT 48.58122 14.13947 33,975 295 493 -64
2018-01-12 02:53:05 GMT 48.57852 14.14856 34,000 295 493 -64
2018-01-12 02:53:02 GMT 48.57706 14.15363 34,000 294 494 0
2018-01-12 02:53:00 GMT 48.57442 14.16239 34,000 294 494 0
2018-01-12 02:52:58 GMT 48.57340 14.16586 34,000 294 494 0
2018-01-12 02:52:58 GMT 48.57237 14.16933 34,000 294 494 0
2018-01-12 02:52:56 GMT 48.57051 14.17562 34,000 294 494 0
2018-01-12 02:52:54 GMT 48.56905 14.18067 34,000 294 494 0
2018-01-12 02:52:52 GMT 48.56730 14.18660 34,000 295 493 0
2018-01-12 02:52:50 GMT 48.56497 14.19448 34,000 295 493 0
2018-01-12 02:52:48 GMT 48.56357 14.19918 34,000 295 493 0
2018-01-12 02:52:48 GMT 48.56300 14.20110 34,000 295 493 64
2018-01-12 02:52:46 GMT 48.56171 14.20547 34,000 295 493 0
2018-01-12 02:52:44 GMT 48.55966 14.21237 33,975 295 493 0
2018-01-12 02:52:42 GMT 48.55765 14.21927 33,975 295 493 0
2018-01-12 02:52:40 GMT 48.55541 14.22680 34,000 295 493 0
2018-01-12 02:52:38 GMT 48.55440 14.23025 33,975 295 493 0
2018-01-12 02:52:36 GMT 48.55217 14.23777 34,000 295 493 0
2018-01-12 02:52:33 GMT 48.54891 14.24876 34,000 295 494 0
2018-01-12 02:52:31 GMT 48.54761 14.25317 34,000 295 494 0
2018-01-12 02:52:29 GMT 48.54472 14.26293 34,000 295 494 0
2018-01-12 02:52:27 GMT 48.54472 14.26293 34,000 295 494 0
2018-01-12 02:52:24 GMT 48.54100 14.27543 34,000 295 494 -64
2018-01-12 02:52:21 GMT 48.53783 14.28617 34,000 295 494 -64
2018-01-12 02:52:18 GMT 48.53558 14.29371 34,000 295 494 0
2018-01-12 02:52:16 GMT 48.53361 14.30025 34,000 295 494 64
2018-01-12 02:52:14 GMT 48.53210 14.30528 34,000 295 494 64
2018-01-12 02:52:12 GMT 48.52978 14.31309 34,000 295 494 64
2018-01-12 02:52:10 GMT 48.52819 14.31844 33,975 295 494 64
2018-01-12 02:52:08 GMT 48.52597 14.32596 33,975 295 494 0
2018-01-12 02:52:06 GMT 48.52428 14.33166 33,975 295 494 0
2018-01-12 02:52:04 GMT 48.52191 14.33947 33,975 295 494 0
2018-01-12 02:52:01 GMT 48.51961 14.34737 33,975 295 495 0
2018-01-12 02:51:59 GMT 48.51810 14.35237 33,975 295 495 0
2018-01-12 02:51:57 GMT 48.51622 14.35864 33,975 295 495 0
2018-01-12 02:51:55 GMT 48.51362 14.36744 33,975 295 495 0
2018-01-12 02:51:53 GMT 48.51228 14.37181 33,975 295 495 0
2018-01-12 02:51:50 GMT 48.50780 14.38689 33,975 295 494 -64
2018-01-12 02:51:48 GMT 48.50780 14.38689 33,975 295 494 -64
2018-01-12 02:51:46 GMT 48.50565 14.39413 33,975 295 494 -64
2018-01-12 02:51:44 GMT 48.50385 14.40004 34,000 295 494 -64
2018-01-12 02:51:42 GMT 48.50125 14.40885 34,000 295 494 0
2018-01-12 02:51:40 GMT 48.49910 14.41609 34,000 295 494 0
2018-01-12 02:51:38 GMT 48.49805 14.41948 34,000 295 494 0
2018-01-12 02:51:36 GMT 48.49654 14.42454 34,000 295 494 0
2018-01-12 02:51:34 GMT 48.49403 14.43300 34,000 295 494 64
2018-01-12 02:51:31 GMT 48.49179 14.44052 34,000 295 494 0
2018-01-12 02:51:29 GMT 48.48953 14.44801 33,975 295 494 0
2018-01-12 02:51:27 GMT 48.48793 14.45336 34,000 295 494 0
2018-01-12 02:51:25 GMT 48.48624 14.45899 34,000 295 494 0
2018-01-12 02:51:23 GMT 48.48322 14.46899 34,000 295 494 -64
2018-01-12 02:51:21 GMT 48.48192 14.47340 34,000 295 494 0
2018-01-12 02:51:19 GMT 48.47955 14.48118 34,000 295 494 0
2018-01-12 02:51:17 GMT 48.47834 14.48526 34,000 295 494 0
2018-01-12 02:51:15 GMT 48.47603 14.49308 34,000 295 494 64
2018-01-12 02:51:12 GMT 48.47368 14.50094 34,000 295 494 0
2018-01-12 02:51:10 GMT 48.47191 14.50688 33,975 295 494 0
2018-01-12 02:51:08 GMT 48.46957 14.51470 34,000 295 494 0
2018-01-12 02:51:06 GMT 48.46816 14.51942 34,000 295 494 0
2018-01-12 02:51:04 GMT 48.46637 14.52537 34,000 295 494 0
2018-01-12 02:51:02 GMT 48.46488 14.53036 34,000 295 494 0
2018-01-12 02:51:00 GMT 48.46260 14.53788 34,000 295 494 0
2018-01-12 02:50:58 GMT 48.46120 14.54259 34,000 295 494 0
2018-01-12 02:50:56 GMT 48.45868 14.55104 34,000 295 494 0
2018-01-12 02:50:54 GMT 48.45726 14.55569 34,000 295 494 0
2018-01-12 02:50:52 GMT 48.45511 14.56288 34,000 295 494 0
2018-01-12 02:50:49 GMT 48.45177 14.57386 34,000 295 494 0
2018-01-12 02:50:46 GMT 48.44934 14.58196 34,000 295 494 0
2018-01-12 02:50:44 GMT 48.44746 14.58822 34,000 295 494 64
2018-01-12 02:50:42 GMT 48.44545 14.59477 33,975 295 494 64
2018-01-12 02:50:40 GMT 48.44272 14.60387 33,975 295 494 0
2018-01-12 02:50:38 GMT 48.44226 14.60546 33,975 295 494 -64
2018-01-12 02:50:36 GMT 48.44021 14.61232 33,975 295 494 -64
2018-01-12 02:50:34 GMT 48.43877 14.61703 34,000 295 494 -64
2018-01-12 02:50:32 GMT 48.43518 14.62887 34,000 295 494 -64
2018-01-12 02:50:30 GMT 48.43465 14.63076 34,000 295 494 -64
2018-01-12 02:50:28 GMT 48.43236 14.63830 34,000 295 494 0
2018-01-12 02:50:26 GMT 48.42988 14.64637 34,000 295 494 64
2018-01-12 02:50:24 GMT 48.42847 14.65104 34,000 295 494 64
2018-01-12 02:50:22 GMT 48.42610 14.65887 34,000 295 494 64
2018-01-12 02:50:22 GMT 48.42610 14.65887 34,000 295 494 64
2018-01-12 02:50:20 GMT 48.42476 14.66323 33,975 295 494 64
2018-01-12 02:50:18 GMT 48.42224 14.67168 33,975 295 495 0
2018-01-12 02:50:15 GMT 48.42005 14.67889 33,975 295 495 0
2018-01-12 02:50:13 GMT 48.41815 14.68511 33,975 295 495 0
2018-01-12 02:50:11 GMT 48.41628 14.69140 33,975 295 495 0
2018-01-12 02:50:08 GMT 48.41295 14.70231 33,975 295 495 0
2018-01-12 02:50:05 GMT 48.41048 14.71048 34,000 295 495 -64
2018-01-12 02:50:03 GMT 48.40860 14.71675 34,000 295 495 0
2018-01-12 02:50:01 GMT 48.40669 14.72298 34,000 295 495 0
2018-01-12 02:49:59 GMT 48.40434 14.73076 34,000 295 495 0
2018-01-12 02:49:57 GMT 48.40283 14.73577 34,000 295 495 0
2018-01-12 02:49:55 GMT 48.40046 14.74358 33,975 295 495 0
2018-01-12 02:49:52 GMT 48.39892 14.74857 33,975 295 495 0
2018-01-12 02:49:50 GMT 48.39592 14.75858 33,975 295 495 0
2018-01-12 02:49:48 GMT 48.39404 14.76485 34,000 295 495 0
2018-01-12 02:49:45 GMT 48.39138 14.77358 33,975 295 495 0
2018-01-12 02:49:43 GMT 48.38901 14.78140 34,000 295 495 0
2018-01-12 02:49:40 GMT 48.38705 14.78796 34,000 295 495 0
2018-01-12 02:49:38 GMT 48.38430 14.79707 34,000 295 495 0
2018-01-12 02:49:36 GMT 48.38379 14.79858 34,000 295 495 0
2018-01-12 02:49:34 GMT 48.38145 14.80640 34,000 295 495 0
2018-01-12 02:49:32 GMT 48.37946 14.81297 34,000 295 494 0
2018-01-12 02:49:29 GMT 48.37583 14.82482 33,975 295 494 0
2018-01-12 02:49:27 GMT 48.37480 14.82829 33,975 295 494 0
2018-01-12 02:49:24 GMT 48.37155 14.83884 33,975 295 494 0
2018-01-12 02:49:22 GMT 48.36968 14.84513 34,000 295 494 0
2018-01-12 02:49:20 GMT 48.36786 14.85105 33,975 295 494 0
2018-01-12 02:49:18 GMT 48.36633 14.85604 34,000 295 495 0
2018-01-12 02:49:16 GMT 48.36405 14.86356 33,975 295 495 0
2018-01-12 02:49:14 GMT 48.36259 14.86823 33,975 295 495 0
2018-01-12 02:49:12 GMT 48.36042 14.87542 33,975 295 495 0
2018-01-12 02:49:10 GMT 48.35728 14.88570 33,975 295 495 -64
2018-01-12 02:49:08 GMT 48.35692 14.88697 33,975 295 495 -64
2018-01-12 02:49:06 GMT 48.35455 14.89479 33,975 295 495 -64
2018-01-12 02:49:04 GMT 48.35225 14.90232 34,000 295 495 -64
2018-01-12 02:49:02 GMT 48.35064 14.90758 34,000 295 495 0
2018-01-12 02:48:59 GMT 48.34818 14.91575 34,000 295 495 0
2018-01-12 02:48:57 GMT 48.34580 14.92355 34,000 295 495 0
2018-01-12 02:48:55 GMT 48.34378 14.93014 34,000 295 495 0
2018-01-12 02:48:53 GMT 48.34180 14.93671 34,000 295 495 0
2018-01-12 02:48:51 GMT 48.34096 14.93946 34,000 295 495 0
2018-01-12 02:48:49 GMT 48.33838 14.94796 34,000 295 495 0
2018-01-12 02:48:49 GMT 48.33838 14.94796 34,000 295 495 0
2018-01-12 02:48:47 GMT 48.33687 14.95289 34,000 295 495 0
2018-01-12 02:48:45 GMT 48.33458 14.96041 34,000 295 495 0
2018-01-12 02:48:43 GMT 48.33302 14.96542 34,000 295 495 64
2018-01-12 02:48:41 GMT 48.33115 14.97169 34,000 295 495 64
2018-01-12 02:48:39 GMT 48.32858 14.98007 33,975 295 495 64
2018-01-12 02:48:39 GMT 48.32858 14.98007 33,975 295 495 64
2018-01-12 02:48:36 GMT 48.32629 14.98761 33,975 295 495 64
2018-01-12 02:48:34 GMT 48.32397 14.99511 33,975 295 495 64
2018-01-12 02:48:32 GMT 48.32169 15.00255 33,975 295 496 0
2018-01-12 02:48:30 GMT 48.32066 15.00602 33,975 295 496 0
2018-01-12 02:48:28 GMT 48.31876 15.01224 33,975 295 496 64
2018-01-12 02:48:28 GMT 48.31876 15.01224 33,975 295 496 64
2018-01-12 02:48:26 GMT 48.31634 15.02004 33,975 295 496 -64
2018-01-12 02:48:24 GMT 48.31405 15.02756 33,975 295 496 -64
2018-01-12 02:48:22 GMT 48.31261 15.03218 33,975 295 496 0
2018-01-12 02:48:20 GMT 48.31119 15.03690 33,975 295 496 -64
2018-01-12 02:48:18 GMT 48.30927 15.04317 33,975 295 496 -64
2018-01-12 02:48:16 GMT 48.30698 15.05064 34,000 295 495 0
2018-01-12 02:48:13 GMT 48.30373 15.06120 34,000 295 495 -64
2018-01-12 02:48:11 GMT 48.30144 15.06874 34,000 295 495 -64
2018-01-12 02:48:09 GMT 48.30000 15.07339 34,000 295 495 0
2018-01-12 02:48:07 GMT 48.29855 15.07808 34,000 295 495 0
2018-01-12 02:48:05 GMT 48.29646 15.08495 34,000 295 495 0
2018-01-12 02:48:03 GMT 48.29462 15.09085 34,000 295 495 0
2018-01-12 02:48:01 GMT 48.29269 15.09705 34,000 295 495 0
2018-01-12 02:47:59 GMT 48.29040 15.10454 34,000 295 495 0
2018-01-12 02:47:57 GMT 48.28896 15.10924 34,000 295 495 0
2018-01-12 02:47:55 GMT 48.28682 15.11610 34,000 295 495 0
2018-01-12 02:47:52 GMT 48.28407 15.12514 34,000 295 495 0
2018-01-12 02:47:50 GMT 48.28221 15.13106 34,000 295 495 0
2018-01-12 02:47:48 GMT 48.27956 15.13974 34,000 295 495 0
2018-01-12 02:47:46 GMT 48.27754 15.14634 34,000 295 495 0
2018-01-12 02:47:44 GMT 48.27704 15.14789 34,000 295 495 0
2018-01-12 02:47:42 GMT 48.27379 15.15846 33,975 295 496 0
2018-01-12 02:47:40 GMT 48.27136 15.16627 34,000 295 495 0
2018-01-12 02:47:37 GMT 48.26898 15.17402 34,000 295 496 0
2018-01-12 02:47:35 GMT 48.26783 15.17783 34,000 295 495 0
2018-01-12 02:47:33 GMT 48.26522 15.18621 34,000 295 495 0
2018-01-12 02:47:31 GMT 48.26378 15.19091 34,000 295 495 0
2018-01-12 02:47:29 GMT 48.26187 15.19713 34,000 295 495 0
2018-01-12 02:47:27 GMT 48.25996 15.20334 34,000 295 495 0
2018-01-12 02:47:25 GMT 48.25754 15.21115 34,000 295 495 0
2018-01-12 02:47:22 GMT 48.25447 15.22106 34,000 295 495 0
2018-01-12 02:47:20 GMT 48.25391 15.22293 34,000 295 495 0
2018-01-12 02:47:18 GMT 48.25149 15.23071 34,000 295 495 0
2018-01-12 02:47:16 GMT 48.24957 15.23698 34,000 295 495 64
2018-01-12 02:47:14 GMT 48.24765 15.24318 34,000 295 495 64
2018-01-12 02:47:12 GMT 48.24545 15.25036 33,975 295 495 0
2018-01-12 02:47:10 GMT 48.24330 15.25719 33,975 295 495 0
2018-01-12 02:47:08 GMT 48.24083 15.26529 33,975 295 495 0
2018-01-12 02:47:06 GMT 48.24045 15.26652 33,975 295 495 0
2018-01-12 02:47:04 GMT 48.23766 15.27555 33,975 295 495 0
2018-01-12 02:47:00 GMT 48.23468 15.28516 34,000 295 495 0
2018-01-12 02:46:58 GMT 48.23140 15.29571 34,000 295 495 0
2018-01-12 02:46:56 GMT 48.22956 15.30164 34,000 295 495 -64
2018-01-12 02:46:54 GMT 48.22803 15.30663 34,000 295 495 -64
2018-01-12 02:46:52 GMT 48.22640 15.31191 34,000 295 495 -64
2018-01-12 02:46:50 GMT 48.22290 15.32311 34,000 295 495 0
2018-01-12 02:46:50 GMT 48.22389 15.32001 34,000 295 495 0
2018-01-12 02:46:47 GMT 48.22137 15.32802 34,000 295 495 64
2018-01-12 02:46:45 GMT 48.21909 15.33554 34,000 295 494 0
2018-01-12 02:46:43 GMT 48.21812 15.33860 34,000 295 494 0
2018-01-12 02:46:41 GMT 48.21485 15.34920 34,000 295 495 0
2018-01-12 02:46:38 GMT 48.21350 15.35354 34,000 295 495 0
2018-01-12 02:46:36 GMT 48.21108 15.36128 34,000 295 495 0
2018-01-12 02:46:34 GMT 48.20952 15.36628 34,000 295 495 0
2018-01-12 02:46:32 GMT 48.20661 15.37558 34,000 295 495 0
2018-01-12 02:46:30 GMT 48.20577 15.37833 34,000 295 495 0
2018-01-12 02:46:28 GMT 48.20279 15.38794 34,000 295 495 64
2018-01-12 02:46:26 GMT 48.20191 15.39076 34,000 295 495 64
2018-01-12 02:46:24 GMT 48.19912 15.39980 33,975 295 495 0
2018-01-12 02:46:21 GMT 48.19670 15.40755 33,975 295 495 0
2018-01-12 02:46:19 GMT 48.19427 15.41530 33,975 295 495 0
2018-01-12 02:46:17 GMT 48.19180 15.42340 33,975 295 495 0
2018-01-12 02:46:15 GMT 48.19032 15.42798 33,975 295 495 0
2018-01-12 02:46:13 GMT 48.18888 15.43268 33,975 295 495 0
2018-01-12 02:46:11 GMT 48.18658 15.44016 34,000 295 495 0
2018-01-12 02:46:09 GMT 48.18473 15.44605 34,000 295 495 0
2018-01-12 02:46:06 GMT 48.18182 15.45530 34,000 295 495 0
2018-01-12 02:46:04 GMT 48.18026 15.46029 34,000 296 495 0
2018-01-12 02:46:02 GMT 48.17784 15.46803 34,000 296 495 0
2018-01-12 02:45:59 GMT 48.17407 15.48017 34,000 296 495 0
2018-01-12 02:45:56 GMT 48.17254 15.48508 34,000 296 495 0
2018-01-12 02:45:53 GMT 48.16960 15.49438 34,000 296 495 0
2018-01-12 02:45:51 GMT 48.16727 15.50185 33,975 296 495 0
2018-01-12 02:45:48 GMT 48.16430 15.51147 34,000 296 495 0
2018-01-12 02:45:46 GMT 48.16255 15.51706 33,975 296 495 0
2018-01-12 02:45:44 GMT 48.16020 15.52446 34,000 296 495 -64
2018-01-12 02:45:42 GMT 48.15884 15.52883 34,000 296 495 -64
2018-01-12 02:45:40 GMT 48.15680 15.53530 34,000 296 495 -64
2018-01-12 02:45:38 GMT 48.15485 15.54150 34,000 296 495 -64
2018-01-12 02:45:36 GMT 48.15166 15.55176 34,000 296 495 0
2018-01-12 02:45:34 GMT 48.15010 15.55671 34,000 296 495 0
2018-01-12 02:45:32 GMT 48.14827 15.56255 34,000 296 495 0
2018-01-12 02:45:30 GMT 48.14722 15.56598 34,000 296 495 0
2018-01-12 02:45:28 GMT 48.14438 15.57497 34,000 296 495 0
2018-01-12 02:45:25 GMT 48.14232 15.58150 34,000 296 495 0
2018-01-12 02:45:23 GMT 48.13980 15.58953 34,000 296 495 0
2018-01-12 02:45:18 GMT 48.13509 15.60471 34,000 296 495 0
2018-01-12 02:45:16 GMT 48.13371 15.60904 34,000 296 495 0
2018-01-12 02:45:16 GMT 48.13325 15.61059 34,000 296 495 0
2018-01-12 02:45:14 GMT 48.13217 15.61397 34,000 296 496 0
2018-01-12 02:45:12 GMT 48.12980 15.62143 34,000 296 496 0
2018-01-12 02:45:12 GMT 48.12980 15.62143 34,000 296 496 0
2018-01-12 02:45:09 GMT 48.12730 15.62949 34,000 296 496 0
2018-01-12 02:45:07 GMT 48.12435 15.63876 34,000 296 496 0
2018-01-12 02:45:05 GMT 48.12254 15.64467 34,000 296 496 0
2018-01-12 02:45:03 GMT 48.12007 15.65242 34,000 296 496 0
2018-01-12 02:45:01 GMT 48.11971 15.65366 34,000 296 496 0
2018-01-12 02:44:57 GMT 48.11383 15.67221 34,000 296 496 0
2018-01-12 02:44:55 GMT 48.11211 15.67777 34,000 296 496 0
2018-01-12 02:44:53 GMT 48.11110 15.68092 34,000 296 496 0
2018-01-12 02:44:51 GMT 48.10918 15.68710 34,000 296 496 0
2018-01-12 02:44:49 GMT 48.10713 15.69362 34,000 296 496 0
2018-01-12 02:44:47 GMT 48.10508 15.70010 34,000 296 497 0
2018-01-12 02:44:45 GMT 48.10275 15.70756 34,000 296 497 0
2018-01-12 02:44:43 GMT 48.10117 15.71251 34,000 296 497 0
2018-01-12 02:44:41 GMT 48.09943 15.71807 34,000 296 497 0
2018-01-12 02:44:39 GMT 48.09647 15.72742 34,000 296 496 0
2018-01-12 02:44:37 GMT 48.09493 15.73235 34,000 296 497 0
2018-01-12 02:44:35 GMT 48.09265 15.73949 34,000 296 497 0
2018-01-12 02:44:33 GMT 48.09160 15.74293 34,000 296 497 0
2018-01-12 02:44:31 GMT 48.08953 15.74939 34,000 296 497 0
2018-01-12 02:44:25 GMT 48.08395 15.76710 34,000 296 497 0
2018-01-12 02:44:23 GMT 48.08075 15.77733 34,000 296 496 0
2018-01-12 02:44:20 GMT 48.07906 15.78256 34,000 296 496 0
2018-01-12 02:44:16 GMT 48.07439 15.79745 34,000 296 497 64
2018-01-12 02:44:14 GMT 48.07292 15.80212 34,000 296 497 0
2018-01-12 02:44:12 GMT 48.07155 15.80644 34,000 296 497 0
2018-01-12 02:44:10 GMT 48.06947 15.81292 34,000 296 497 0
2018-01-12 02:44:10 GMT 48.06947 15.81292 34,000 296 497 0
2018-01-12 02:44:07 GMT 48.06607 15.82376 33,975 296 497 0
2018-01-12 02:44:05 GMT 48.06449 15.82876 34,000 296 497 0
2018-01-12 02:44:03 GMT 48.06109 15.83961 34,000 296 497 0
2018-01-12 02:44:01 GMT 48.06058 15.84109 34,000 296 497 0
2018-01-12 02:44:00 GMT 48.05951 15.84454 34,000 296 496 0
2018-01-12 02:43:59 GMT 48.05904 15.84609 34,000 296 496 0
2018-01-12 02:43:55 GMT 48.05364 15.86313 34,000 296 496 0
2018-01-12 02:43:53 GMT 48.05257 15.86651 34,000 296 496 0
2018-01-12 02:43:51 GMT 48.05049 15.87305 34,000 296 496 0
2018-01-12 02:43:48 GMT 48.04815 15.88046 34,000 296 497 0
2018-01-12 02:43:46 GMT 48.04550 15.88884 34,000 296 496 0
2018-01-12 02:43:44 GMT 48.04405 15.89341 34,000 296 496 0
2018-01-12 02:43:42 GMT 48.04147 15.90147 33,975 296 496 0
2018-01-12 02:43:40 GMT 48.03914 15.90889 33,975 296 496 0
2018-01-12 02:43:40 GMT 48.03914 15.90889 33,975 296 496 0
2018-01-12 02:43:38 GMT 48.03814 15.91201 34,000 296 496 0
2018-01-12 02:43:36 GMT 48.03493 15.92222 34,000 296 496 0
2018-01-12 02:43:34 GMT 48.03386 15.92567 34,000 296 496 64
2018-01-12 02:43:31 GMT 48.03058 15.93581 33,975 296 496 0
2018-01-12 02:43:29 GMT 48.02911 15.94047 33,975 296 496 0
2018-01-12 02:43:28 GMT 48.02861 15.94205 34,000 296 496 0
2018-01-12 02:43:26 GMT 48.02586 15.95071 34,000 296 496 0
2018-01-12 02:43:24 GMT 48.02399 15.95659 34,000 296 496 64
2018-01-12 02:43:22 GMT 48.02106 15.96581 33,975 296 496 64
2018-01-12 02:43:20 GMT 48.01989 15.96954 33,975 296 496 0
2018-01-12 02:43:18 GMT 48.01859 15.97357 33,975 296 496 0
2018-01-12 02:43:18 GMT 48.01859 15.97357 33,975 296 496 0
2018-01-12 02:43:16 GMT 48.01625 15.98099 33,975 296 496 0
2018-01-12 02:43:13 GMT 48.01268 15.99211 33,975 296 496 0
2018-01-12 02:43:11 GMT 48.01144 15.99609 33,975 296 496 0
2018-01-12 02:43:09 GMT 48.00856 16.00509 33,975 296 496 -64
2018-01-12 02:43:06 GMT 48.00623 16.01251 33,975 296 496 -64
2018-01-12 02:43:04 GMT 48.00318 16.02208 33,975 296 496 -64
2018-01-12 02:43:02 GMT 48.00229 16.02486 33,975 296 496 0
2018-01-12 02:43:00 GMT 48.00023 16.03132 34,000 296 496 0
2018-01-12 02:42:58 GMT 47.99843 16.03694 34,000 296 496 0
2018-01-12 02:42:55 GMT 47.99452 16.04926 34,000 296 496 0
2018-01-12 02:42:53 GMT 47.99213 16.05666 34,000 296 496 0
2018-01-12 02:42:51 GMT 47.99126 16.05940 34,000 296 496 -64
2018-01-12 02:42:49 GMT 47.98917 16.06589 34,000 296 496 0
2018-01-12 02:42:46 GMT 47.98650 16.07423 34,000 296 496 64
2018-01-12 02:42:44 GMT 47.98453 16.08041 34,000 296 496 0
2018-01-12 02:42:42 GMT 47.98246 16.08687 34,000 296 496 0
2018-01-12 02:42:40 GMT 47.98096 16.09147 33,975 296 496 0
2018-01-12 02:42:38 GMT 47.97804 16.10075 34,000 296 496 0
2018-01-12 02:42:36 GMT 47.97633 16.10596 34,000 296 496 0
2018-01-12 02:42:32 GMT 47.97093 16.12292 34,000 296 496 -64
2018-01-12 02:42:32 GMT 47.97190 16.11983 34,000 296 496 -64
2018-01-12 02:42:30 GMT 47.97031 16.12476 34,000 296 496 -64
2018-01-12 02:42:25 GMT 47.96617 16.13772 34,000 296 496 0
2018-01-12 02:42:23 GMT 47.96411 16.14420 34,000 296 496 0
2018-01-12 02:42:21 GMT 47.96086 16.15437 34,000 296 496 0
2018-01-12 02:42:19 GMT 47.95988 16.15744 34,000 296 496 0
2018-01-12 02:42:17 GMT 47.95798 16.16329 34,000 296 496 0
2018-01-12 02:42:17 GMT 47.95798 16.16329 34,000 296 496 0
2018-01-12 02:42:15 GMT 47.95601 16.16947 34,000 296 496 0
2018-01-12 02:42:13 GMT 47.95365 16.17687 34,000 296 496 0
2018-01-12 02:42:11 GMT 47.95188 16.18237 34,000 296 496 0
2018-01-12 02:42:09 GMT 47.94927 16.19040 34,000 296 496 0
2018-01-12 02:42:07 GMT 47.94827 16.19350 34,000 296 496 64
2018-01-12 02:42:05 GMT 47.94601 16.20054 34,000 296 496 64
2018-01-12 02:42:02 GMT 47.94247 16.21166 34,000 296 496 64
2018-01-12 02:41:59 GMT 47.94058 16.21747 33,975 296 496 64
2018-01-12 02:41:57 GMT 47.93763 16.22674 33,975 296 496 0
2018-01-12 02:41:55 GMT 47.93605 16.23161 33,975 296 496 0
2018-01-12 02:41:52 GMT 47.93266 16.24212 34,000 296 496 0
2018-01-12 02:41:50 GMT 47.93097 16.24730 33,975 296 496 0
2018-01-12 02:41:48 GMT 47.92873 16.25441 33,975 296 496 0
2018-01-12 02:41:45 GMT 47.92603 16.26272 33,975 296 495 0
2018-01-12 02:41:43 GMT 47.92287 16.27251 34,000 296 495 0
2018-01-12 02:41:41 GMT 47.92287 16.27251 34,000 296 495 0
2018-01-12 02:41:39 GMT 47.92032 16.28054 33,975 296 495 64
2018-01-12 02:41:37 GMT 47.91843 16.28634 33,975 296 496 64
2018-01-12 02:41:35 GMT 47.91692 16.29096 33,975 296 496 0
2018-01-12 02:41:35 GMT 47.91692 16.29096 33,975 296 496 0
2018-01-12 02:41:33 GMT 47.91444 16.29863 33,975 296 495 0
2018-01-12 02:41:31 GMT 47.91277 16.30385 33,975 296 495 0
2018-01-12 02:41:29 GMT 47.91040 16.31125 33,975 296 495 0
2018-01-12 02:41:26 GMT 47.90694 16.32198 33,975 296 496 0
2018-01-12 02:41:24 GMT 47.90543 16.32658 33,975 296 496 0
2018-01-12 02:41:22 GMT 47.90304 16.33399 34,000 296 496 0
2018-01-12 02:41:20 GMT 47.90057 16.34161 34,000 296 496 0
2018-01-12 02:41:18 GMT 47.89997 16.34350 34,000 296 496 0
2018-01-12 02:41:16 GMT 47.89760 16.35083 33,975 296 496 0
2018-01-12 02:41:16 GMT 47.89760 16.35083 33,975 296 496 0
2018-01-12 02:41:14 GMT 47.89564 16.35702 33,975 296 496 0
2018-01-12 02:41:12 GMT 47.89313 16.36463 33,975 296 496 0
2018-01-12 02:41:10 GMT 47.89117 16.37083 33,975 296 496 -64
2018-01-12 02:41:08 GMT 47.89006 16.37414 33,975 296 496 -64
2018-01-12 02:41:05 GMT 47.88647 16.38522 34,000 296 496 -64
2018-01-12 02:41:03 GMT 47.88469 16.39071 34,000 296 496 0
2018-01-12 02:41:01 GMT 47.88222 16.39840 34,000 296 496 0
2018-01-12 02:40:59 GMT 47.88025 16.40451 34,000 296 496 0
2018-01-12 02:40:56 GMT 47.87753 16.41280 34,000 296 496 0
2018-01-12 02:40:54 GMT 47.87567 16.41866 34,000 296 496 64
2018-01-12 02:40:52 GMT 47.87348 16.42541 34,000 296 496 64
2018-01-12 02:40:50 GMT 47.87155 16.43122 34,000 296 496 64
2018-01-12 02:40:48 GMT 47.87018 16.43555 34,000 296 496 64
2018-01-12 02:40:46 GMT 47.86692 16.44562 33,975 296 496 0
2018-01-12 02:40:44 GMT 47.86599 16.44843 33,975 296 496 0
2018-01-12 02:40:44 GMT 47.86599 16.44843 33,975 296 496 0
2018-01-12 02:40:42 GMT 47.86310 16.45731 33,975 296 496 0
2018-01-12 02:40:39 GMT 47.86052 16.46528 33,975 296 496 0
2018-01-12 02:40:37 GMT 47.85796 16.47324 34,000 296 496 0
2018-01-12 02:40:35 GMT 47.85635 16.47819 34,000 296 496 0
2018-01-12 02:40:33 GMT 47.85533 16.48125 34,000 296 496 0
2018-01-12 02:40:31 GMT 47.85324 16.48766 34,000 296 496 0
2018-01-12 02:40:28 GMT 47.84999 16.49776 34,000 296 496 0
2018-01-12 02:40:26 GMT 47.84788 16.50421 33,975 296 496 0
2018-01-12 02:40:24 GMT 47.84499 16.51316 34,000 296 496 -64
2018-01-12 02:40:21 GMT 47.84262 16.52049 34,000 296 496 0
2018-01-12 02:40:19 GMT 47.84001 16.52845 34,000 296 496 0
2018-01-12 02:40:17 GMT 47.83941 16.53034 34,000 296 496 0
2018-01-12 02:40:15 GMT 47.83685 16.53830 34,000 296 496 0
2018-01-12 02:40:13 GMT 47.83534 16.54287 34,000 296 496 64
2018-01-12 02:40:11 GMT 47.83273 16.55083 34,000 296 496 64
2018-01-12 02:40:08 GMT 47.82944 16.56097 33,975 296 496 0
2018-01-12 02:40:06 GMT 47.82814 16.56499 33,975 296 496 0
2018-01-12 02:40:03 GMT 47.82507 16.57450 33,975 296 497 0
2018-01-12 02:40:01 GMT 47.82248 16.58249 33,975 296 497 0
2018-01-12 02:39:58 GMT 47.81948 16.59168 33,975 296 497 0
2018-01-12 02:39:56 GMT 47.81790 16.59656 33,975 296 496 0
2018-01-12 02:39:56 GMT 47.81680 16.60000 33,975 296 496 0
2018-01-12 02:39:54 GMT 47.81641 16.60119 33,975 296 496 0
2018-01-12 02:39:53 GMT 47.81487 16.60577 33,975 296 496 0
2018-01-12 02:39:52 GMT 47.81447 16.60700 33,975 296 496 0
2018-01-12 02:39:50 GMT 47.81087 16.61809 33,975 296 496 0
2018-01-12 02:39:48 GMT 47.80989 16.62112 33,975 296 496 0
2018-01-12 02:39:46 GMT 47.80780 16.62753 33,975 296 496 0
2018-01-12 02:39:43 GMT 47.80445 16.63767 33,975 296 496 0
2018-01-12 02:39:43 GMT 47.80445 16.63767 33,975 296 496 0
2018-01-12 02:39:39 GMT 47.80096 16.64844 34,000 296 496 0
2018-01-12 02:39:37 GMT 47.79813 16.65699 33,975 296 496 0
2018-01-12 02:39:34 GMT 47.79583 16.66408 33,975 296 496 0
2018-01-12 02:39:32 GMT 47.79374 16.67048 33,975 296 496 0
2018-01-12 02:39:32 GMT 47.79374 16.67048 33,975 296 496 0
2018-01-12 02:39:30 GMT 47.79183 16.67633 33,975 296 496 0
2018-01-12 02:39:28 GMT 47.78902 16.68487 33,975 296 496 0
2018-01-12 02:39:26 GMT 47.78792 16.68823 33,975 296 496 0
2018-01-12 02:39:24 GMT 47.78522 16.69654 33,975 296 497 0
2018-01-12 02:39:22 GMT 47.78378 16.70084 33,975 296 496 0
2018-01-12 02:39:20 GMT 47.78160 16.70760 33,975 296 497 0
2018-01-12 02:39:17 GMT 47.77814 16.71802 33,975 296 497 0
2018-01-12 02:39:15 GMT 47.77768 16.71950 34,000 296 497 0
2018-01-12 02:39:13 GMT 47.77533 16.72662 34,000 296 497 0
2018-01-12 02:39:11 GMT 47.77331 16.73273 34,000 296 498 0
2018-01-12 02:39:09 GMT 47.77121 16.73915 34,000 296 498 0
2018-01-12 02:39:07 GMT 47.76851 16.74746 34,000 296 498 0
2018-01-12 02:39:05 GMT 47.76727 16.75113 34,000 296 498 0
2018-01-12 02:39:03 GMT 47.76439 16.75999 34,000 296 498 0
2018-01-12 02:39:01 GMT 47.76288 16.76466 34,000 296 498 0
2018-01-12 02:38:58 GMT 47.75885 16.77688 34,000 296 498 -64
2018-01-12 02:38:56 GMT 47.75835 16.77846 34,000 296 498 -64
2018-01-12 02:38:54 GMT 47.75580 16.78612 34,000 297 498 0
2018-01-12 02:38:51 GMT 47.75268 16.79563 34,000 297 498 0
2018-01-12 02:38:49 GMT 47.75024 16.80297 34,000 297 498 0
2018-01-12 02:38:47 GMT 47.74764 16.81094 34,000 297 498 0
2018-01-12 02:38:45 GMT 47.74672 16.81368 34,000 297 498 0
2018-01-12 02:38:44 GMT 47.74612 16.81556 34,000 297 498 0
2018-01-12 02:38:42 GMT 47.74370 16.82288 34,000 297 498 0
2018-01-12 02:38:40 GMT 47.74219 16.82748 34,000 297 498 0
2018-01-12 02:38:38 GMT 47.73862 16.83826 34,000 297 498 0
2018-01-12 02:38:36 GMT 47.73760 16.84134 34,000 297 498 0
2018-01-12 02:38:36 GMT 47.73760 16.84134 34,000 297 498 0
2018-01-12 02:38:34 GMT 47.73602 16.84627 34,000 297 498 0
2018-01-12 02:38:31 GMT 47.73175 16.85914 34,000 297 498 0
2018-01-12 02:38:28 GMT 47.72819 16.86986 34,000 297 498 0
2018-01-12 02:38:26 GMT 47.72670 16.87451 34,000 297 498 0
2018-01-12 02:38:24 GMT 47.72517 16.87908 34,000 297 498 0
2018-01-12 02:38:22 GMT 47.72333 16.88461 34,000 297 500 0
2018-01-12 02:38:20 GMT 47.72121 16.89106 34,000 297 500 0
2018-01-12 02:38:18 GMT 47.71857 16.89903 34,000 297 499 0
2018-01-12 02:38:16 GMT 47.71674 16.90459 34,000 297 499 0
2018-01-12 02:38:13 GMT 47.71330 16.91500 34,000 297 499 0
2018-01-12 02:38:11 GMT 47.71278 16.91655 34,000 297 499 0
2018-01-12 02:38:08 GMT 47.70948 16.92669 33,975 297 500 0
2018-01-12 02:38:06 GMT 47.70641 16.93592 33,975 297 500 0
2018-01-12 02:38:04 GMT 47.70538 16.93899 33,975 297 500 0
2018-01-12 02:38:02 GMT 47.70337 16.94511 33,975 297 500 0
2018-01-12 02:38:00 GMT 47.70012 16.95493 33,975 297 500 0
2018-01-12 02:37:58 GMT 47.69901 16.95831 33,975 297 499 0
2018-01-12 02:37:56 GMT 47.69687 16.96475 34,000 297 499 0
2018-01-12 02:37:54 GMT 47.69481 16.97092 34,000 297 499 0
2018-01-12 02:37:52 GMT 47.69216 16.97888 34,000 297 499 0
2018-01-12 02:37:49 GMT 47.68849 16.98994 34,000 297 499 0
2018-01-12 02:37:47 GMT 47.68735 16.99331 34,000 297 499 0
2018-01-12 02:37:45 GMT 47.68574 16.99817 33,975 297 499 0
2018-01-12 02:37:43 GMT 47.68411 17.00310 34,000 297 500 0
2018-01-12 02:37:41 GMT 47.68225 17.00860 33,975 297 500 0
2018-01-12 02:37:41 GMT 47.68176 17.01020 33,975 297 500 0
2018-01-12 02:37:38 GMT 47.67833 17.02064 33,975 296 499 0
2018-01-12 02:37:35 GMT 47.67522 17.03018 33,975 296 500 0
2018-01-12 02:37:33 GMT 47.67320 17.03629 33,975 296 500 0
2018-01-12 02:37:31 GMT 47.67169 17.04096 33,975 296 499 0
2018-01-12 02:37:29 GMT 47.66904 17.04927 34,000 296 500 0
2018-01-12 02:37:27 GMT 47.66744 17.05423 34,000 296 499 0
2018-01-12 02:37:25 GMT 47.66460 17.06318 34,000 296 499 0
2018-01-12 02:37:23 GMT 47.66284 17.06874 33,975 296 500 0
2018-01-12 02:37:21 GMT 47.66176 17.07219 34,000 296 500 0
2018-01-12 02:37:18 GMT 47.65892 17.08113 34,000 295 500 0
2018-01-12 02:37:18 GMT 47.65892 17.08113 34,000 295 499 0
2018-01-12 02:37:18 GMT 47.65842 17.08271 34,000 295 500 0
2018-01-12 02:37:16 GMT 47.65677 17.08793 34,000 295 499 0
2018-01-12 02:37:14 GMT 47.65534 17.09261 34,000 295 500 0
2018-01-12 02:37:12 GMT 47.65306 17.10008 34,000 295 499 0
2018-01-12 02:37:10 GMT 47.65178 17.10413 34,000 295 499 0
2018-01-12 02:37:08 GMT 47.64903 17.11313 34,000 294 500 0
2018-01-12 02:37:06 GMT 47.64697 17.11999 34,000 294 499 0
2018-01-12 02:37:04 GMT 47.64570 17.12438 34,000 294 500 0
2018-01-12 02:37:02 GMT 47.64345 17.13187 34,000 294 499 0
2018-01-12 02:37:00 GMT 47.64179 17.13754 33,975 294 499 0
2018-01-12 02:36:58 GMT 47.63924 17.14636 34,000 294 499 0
2018-01-12 02:36:58 GMT 47.63924 17.14636 34,000 294 499 0
2018-01-12 02:36:55 GMT 47.63705 17.15388 34,000 294 500 0
2018-01-12 02:36:52 GMT 47.63397 17.16456 34,000 294 500 0
2018-01-12 02:36:49 GMT 47.63169 17.17241 34,000 294 500 0
2018-01-12 02:36:46 GMT 47.62770 17.18626 34,000 294 499 0
2018-01-12 02:36:43 GMT 47.62669 17.18969 34,000 294 499 0
2018-01-12 02:36:41 GMT 47.62396 17.19910 34,000 294 499 0
2018-01-12 02:36:39 GMT 47.62344 17.20095 34,000 294 499 0
2018-01-12 02:36:37 GMT 47.62088 17.20974 34,000 294 499 0
2018-01-12 02:36:34 GMT 47.61763 17.22107 34,000 294 499 0
2018-01-12 02:36:32 GMT 47.61617 17.22608 34,000 294 499 0
2018-01-12 02:36:29 GMT 47.61406 17.23329 34,000 294 499 0
2018-01-12 02:36:27 GMT 47.61214 17.23987 34,000 294 499 0
2018-01-12 02:36:25 GMT 47.60883 17.25121 34,000 294 499 0
2018-01-12 02:36:23 GMT 47.60793 17.25430 34,000 294 499 0
2018-01-12 02:36:21 GMT 47.60702 17.25748 34,000 294 499 0
2018-01-12 02:36:19 GMT 47.60454 17.26598 34,000 294 499 0
2018-01-12 02:36:16 GMT 47.60147 17.27662 34,000 294 500 0
2018-01-12 02:36:14 GMT 47.60010 17.28129 34,000 294 500 0
2018-01-12 02:36:11 GMT 47.59650 17.29354 34,000 294 500 0
2018-01-12 02:36:09 GMT 47.59561 17.29674 34,000 294 500 0
2018-01-12 02:36:07 GMT 47.59296 17.30580 34,000 294 500 64
2018-01-12 02:36:04 GMT 47.59068 17.31368 34,000 294 500 64
2018-01-12 02:36:02 GMT 47.58919 17.31868 34,000 294 500 64
2018-01-12 02:35:59 GMT 47.58618 17.32908 33,975 294 500 0
2018-01-12 02:35:57 GMT 47.58398 17.33657 33,975 294 500 0
2018-01-12 02:35:55 GMT 47.58141 17.34537 33,975 294 500 0
2018-01-12 02:35:53 GMT 47.57979 17.35107 34,000 294 500 0
2018-01-12 02:35:51 GMT 47.57876 17.35452 34,000 294 500 0
2018-01-12 02:35:49 GMT 47.57758 17.35860 34,000 294 501 0
2018-01-12 02:35:47 GMT 47.57438 17.36953 34,000 294 501 0
2018-01-12 02:35:44 GMT 47.57227 17.37680 34,000 294 501 0
2018-01-12 02:35:42 GMT 47.57080 17.38181 34,000 294 501 0
2018-01-12 02:35:39 GMT 47.56805 17.39122 34,000 294 501 64
2018-01-12 02:35:37 GMT 47.56493 17.40185 34,000 294 501 64
2018-01-12 02:35:34 GMT 47.56279 17.40911 33,975 294 501 0
2018-01-12 02:35:32 GMT 47.56132 17.41408 33,975 294 501 0
2018-01-12 02:35:30 GMT 47.55995 17.41882 33,975 294 501 0
2018-01-12 02:35:28 GMT 47.55777 17.42636 33,975 294 501 0
2018-01-12 02:35:26 GMT 47.55562 17.43354 33,975 294 501 0
2018-01-12 02:35:23 GMT 47.55336 17.44141 33,975 294 501 0
2018-01-12 02:35:20 GMT 47.55043 17.45144 33,975 294 501 0
2018-01-12 02:35:18 GMT 47.54878 17.45707 34,000 294 501 0
2018-01-12 02:35:15 GMT 47.54538 17.46868 34,000 294 500 0
2018-01-12 02:35:13 GMT 47.54399 17.47340 34,000 294 500 0
2018-01-12 02:35:11 GMT 47.54260 17.47808 34,000 294 500 0
2018-01-12 02:35:08 GMT 47.53976 17.48776 34,000 294 500 0
2018-01-12 02:35:06 GMT 47.53638 17.49937 34,000 294 500 0
2018-01-12 02:35:04 GMT 47.53542 17.50249 34,000 294 500 0
2018-01-12 02:35:02 GMT 47.53313 17.51035 34,000 294 500 0
2018-01-12 02:34:59 GMT 47.53029 17.52004 34,000 294 500 0
2018-01-12 02:34:57 GMT 47.52993 17.52129 34,000 294 500 0
2018-01-12 02:34:55 GMT 47.52745 17.52972 34,000 294 500 0
2018-01-12 02:34:53 GMT 47.52544 17.53665 34,000 294 500 0
2018-01-12 02:34:51 GMT 47.52356 17.54290 34,000 294 500 0
2018-01-12 02:34:49 GMT 47.52173 17.54911 34,000 294 500 0
2018-01-12 02:34:47 GMT 47.51999 17.55505 34,000 294 500 0
2018-01-12 02:34:44 GMT 47.51675 17.56601 34,000 294 500 0
2018-01-12 02:34:42 GMT 47.51587 17.56913 34,000 294 500 0
2018-01-12 02:34:40 GMT 47.51391 17.57573 34,000 294 499 0
2018-01-12 02:34:37 GMT 47.51107 17.58538 34,000 294 499 0
2018-01-12 02:34:35 GMT 47.50842 17.59446 34,000 294 499 0
2018-01-12 02:34:33 GMT 47.50684 17.59975 34,000 294 499 0
2018-01-12 02:34:31 GMT 47.50507 17.60573 33,975 294 499 0
2018-01-12 02:34:28 GMT 47.50195 17.61637 33,975 294 499 0
2018-01-12 02:34:25 GMT 47.49948 17.62475 33,975 294 499 0
2018-01-12 02:34:23 GMT 47.49799 17.62975 33,975 294 499 0
2018-01-12 02:34:21 GMT 47.49557 17.63792 33,975 294 499 0
2018-01-12 02:34:19 GMT 47.49366 17.64447 34,000 294 499 0
2018-01-12 02:34:17 GMT 47.49275 17.64755 33,975 294 499 0
2018-01-12 02:34:13 GMT 47.48795 17.66375 33,975 294 499 0
2018-01-12 02:34:10 GMT 47.48570 17.67123 33,975 294 499 0
2018-01-12 02:34:08 GMT 47.48470 17.67467 33,975 294 499 0
2018-01-12 02:34:06 GMT 47.48291 17.68059 33,975 294 499 0
2018-01-12 02:34:03 GMT 47.47897 17.69403 34,000 294 498 0
2018-01-12 02:34:01 GMT 47.47742 17.69932 34,000 294 498 0
2018-01-12 02:33:59 GMT 47.47649 17.70243 34,000 294 498 0
2018-01-12 02:33:57 GMT 47.47360 17.71207 34,000 294 498 0
2018-01-12 02:33:53 GMT 47.46992 17.72454 34,000 294 498 0
2018-01-12 02:33:51 GMT 47.46890 17.72799 34,000 294 498 0
2018-01-12 02:33:49 GMT 47.46652 17.73605 34,000 294 498 0
2018-01-12 02:33:46 GMT 47.46368 17.74574 34,000 294 498 0
2018-01-12 02:33:42 GMT 47.45996 17.75820 34,000 294 498 0
2018-01-12 02:33:40 GMT 47.45792 17.76503 34,000 294 498 0
2018-01-12 02:33:38 GMT 47.45654 17.76970 34,000 294 498 0
2018-01-12 02:33:34 GMT 47.45246 17.78341 34,000 294 498 0
2018-01-12 02:33:32 GMT 47.45009 17.79147 34,000 294 498 0
2018-01-12 02:33:30 GMT 47.44832 17.79736 34,000 294 498 0
2018-01-12 02:33:27 GMT 47.44601 17.80513 33,975 294 498 0
2018-01-12 02:33:25 GMT 47.44464 17.80980 34,000 294 497 0
2018-01-12 02:33:21 GMT 47.44047 17.82381 33,975 294 498 0
2018-01-12 02:33:19 GMT 47.43878 17.82940 33,975 294 498 0
2018-01-12 02:33:15 GMT 47.43507 17.84187 33,975 294 498 0
2018-01-12 02:33:11 GMT 47.43110 17.85518 34,000 294 498 -64
2018-01-12 02:33:08 GMT 47.42896 17.86236 34,000 294 497 -64
2018-01-12 02:33:06 GMT 47.42654 17.87039 34,000 294 497 -64
2018-01-12 02:33:04 GMT 47.42556 17.87384 34,000 294 497 0
2018-01-12 02:33:01 GMT 47.42148 17.88746 34,000 294 497 0
2018-01-12 02:32:59 GMT 47.42001 17.89247 34,000 294 497 0
2018-01-12 02:32:57 GMT 47.41841 17.89776 34,000 294 497 0
2018-01-12 02:32:54 GMT 47.41507 17.90888 34,000 294 497 0
2018-01-12 02:32:50 GMT 47.41215 17.91884 34,000 294 497 0
2018-01-12 02:32:48 GMT 47.40990 17.92625 34,000 294 497 0
2018-01-12 02:32:45 GMT 47.40722 17.93525 34,000 294 497 0
2018-01-12 02:32:43 GMT 47.40559 17.94088 34,000 294 497 0
2018-01-12 02:32:40 GMT 47.40289 17.94990 34,000 294 497 0
2018-01-12 02:32:38 GMT 47.40079 17.95701 34,000 294 497 0
2018-01-12 02:32:35 GMT 47.39827 17.96539 34,000 294 497 0
2018-01-12 02:32:32 GMT 47.39446 17.97814 34,000 294 498 0
2018-01-12 02:32:30 GMT 47.39319 17.98242 34,000 294 498 0
2018-01-12 02:32:27 GMT 47.39030 17.99204 34,000 294 498 0
2018-01-12 02:32:25 GMT 47.38911 17.99609 34,000 294 498 0
2018-01-12 02:32:23 GMT 47.38762 18.00103 34,000 294 498 0
2018-01-12 02:32:19 GMT 47.38344 18.01504 34,000 294 498 0
2018-01-12 02:32:17 GMT 47.38208 18.01969 34,000 294 498 0
2018-01-12 02:32:15 GMT 47.38012 18.02617 34,000 294 498 0
2018-01-12 02:32:12 GMT 47.37649 18.03828 33,975 294 498 0
2018-01-12 02:32:10 GMT 47.37547 18.04168 34,000 294 498 0
2018-01-12 02:32:08 GMT 47.37239 18.05195 34,000 294 498 0
2018-01-12 02:32:05 GMT 47.37100 18.05659 33,975 294 498 64
2018-01-12 02:32:02 GMT 47.36732 18.06864 33,975 294 498 0
2018-01-12 02:31:59 GMT 47.36406 18.07948 34,000 294 498 0
2018-01-12 02:31:57 GMT 47.36311 18.08260 34,000 294 498 0
2018-01-12 02:31:55 GMT 47.36099 18.08969 34,000 294 498 0
2018-01-12 02:31:53 GMT 47.35922 18.09558 34,000 294 498 0
2018-01-12 02:31:51 GMT 47.35624 18.10554 34,000 294 498 0
2018-01-12 02:31:47 GMT 47.35289 18.11667 34,000 294 498 0
2018-01-12 02:31:45 GMT 47.35205 18.11948 34,000 294 498 0
2018-01-12 02:31:42 GMT 47.34861 18.13096 34,000 294 498 0
2018-01-12 02:31:39 GMT 47.34563 18.14083 33,975 294 498 0
2018-01-12 02:31:37 GMT 47.34395 18.14646 33,975 294 498 0
2018-01-12 02:31:35 GMT 47.34228 18.15202 33,975 294 498 0
2018-01-12 02:31:32 GMT 47.33911 18.16258 33,975 294 498 0
2018-01-12 02:31:30 GMT 47.33762 18.16751 33,975 294 498 0
2018-01-12 02:31:28 GMT 47.33632 18.17188 33,975 294 498 0
2018-01-12 02:31:26 GMT 47.33446 18.17805 33,975 294 498 0
2018-01-12 02:31:24 GMT 47.33258 18.18430 33,975 294 499 0
2018-01-12 02:31:20 GMT 47.32846 18.19789 33,975 294 498 0
2018-01-12 02:31:18 GMT 47.32626 18.20538 33,975 294 498 0
2018-01-12 02:31:16 GMT 47.32454 18.21097 33,975 294 498 0
2018-01-12 02:31:14 GMT 47.32306 18.21588 33,975 294 498 0
2018-01-12 02:31:12 GMT 47.32054 18.22426 33,975 294 498 0
2018-01-12 02:31:10 GMT 47.31885 18.22989 33,975 294 499 0
2018-01-12 02:31:08 GMT 47.31690 18.23639 33,975 294 499 0
2018-01-12 02:31:06 GMT 47.31551 18.24104 33,975 294 499 0
2018-01-12 02:31:04 GMT 47.31379 18.24660 33,975 294 499 0
2018-01-12 02:31:02 GMT 47.31148 18.25433 33,975 294 499 0
2018-01-12 02:31:00 GMT 47.30950 18.26083 33,975 294 499 0
2018-01-12 02:30:58 GMT 47.30772 18.26669 33,975 294 499 0
2018-01-12 02:30:56 GMT 47.30562 18.27349 33,975 294 499 0
2018-01-12 02:30:54 GMT 47.30415 18.27850 33,975 294 499 -64
2018-01-12 02:30:52 GMT 47.30186 18.28592 34,000 294 499 -64
2018-01-12 02:30:50 GMT 47.29971 18.29306 34,000 294 499 -64
2018-01-12 02:30:48 GMT 47.29787 18.29921 34,000 294 499 0
2018-01-12 02:30:45 GMT 47.29582 18.30604 34,000 294 499 0
2018-01-12 02:30:43 GMT 47.29440 18.31071 34,000 294 499 0
2018-01-12 02:30:41 GMT 47.29111 18.32156 34,000 295 499 0
2018-01-12 02:30:39 GMT 47.29028 18.32435 34,000 295 499 0
2018-01-12 02:30:36 GMT 47.28613 18.33794 34,000 295 499 0
2018-01-12 02:30:33 GMT 47.28488 18.34196 34,000 295 499 0
2018-01-12 02:30:31 GMT 47.28250 18.34970 34,000 295 499 -64
2018-01-12 02:30:29 GMT 47.28026 18.35712 34,000 295 499 0
2018-01-12 02:30:27 GMT 47.27875 18.36207 34,000 295 499 0
2018-01-12 02:30:25 GMT 47.27687 18.36825 34,000 295 499 0
2018-01-12 02:30:23 GMT 47.27508 18.37415 34,000 295 499 0
2018-01-12 02:30:19 GMT 47.27101 18.38747 33,975 295 500 0
2018-01-12 02:30:15 GMT 47.26705 18.40048 34,000 295 500 0
2018-01-12 02:30:11 GMT 47.26300 18.41384 33,975 295 500 0
2018-01-12 02:30:09 GMT 47.26132 18.41942 34,000 295 500 0
2018-01-12 02:30:05 GMT 47.25838 18.42902 34,000 295 500 0
2018-01-12 02:30:03 GMT 47.25592 18.43710 34,000 295 500 0
2018-01-12 02:30:00 GMT 47.25211 18.44948 34,000 295 500 0
2018-01-12 02:29:58 GMT 47.25145 18.45161 34,000 295 500 0
2018-01-12 02:29:56 GMT 47.24822 18.46218 34,000 295 500 0
2018-01-12 02:29:54 GMT 47.24777 18.46372 34,000 295 500 0
2018-01-12 02:29:51 GMT 47.24470 18.47365 34,000 295 501 0
2018-01-12 02:29:49 GMT 47.24208 18.48237 33,975 295 501 0
2018-01-12 02:29:46 GMT 47.24007 18.48882 34,000 295 501 0
2018-01-12 02:29:44 GMT 47.23805 18.49535 34,000 295 501 0
2018-01-12 02:29:40 GMT 47.23400 18.50865 34,000 295 501 64
2018-01-12 02:29:38 GMT 47.23238 18.51395 34,000 295 500 64
2018-01-12 02:29:34 GMT 47.22876 18.52576 34,000 295 500 0
2018-01-12 02:29:30 GMT 47.22422 18.54063 33,975 295 500 0
2018-01-12 02:29:28 GMT 47.22278 18.54527 33,975 295 500 0
2018-01-12 02:29:25 GMT 47.21947 18.55611 33,975 295 501 0
2018-01-12 02:29:23 GMT 47.21860 18.55893 33,975 295 501 0
2018-01-12 02:29:21 GMT 47.21681 18.56477 34,000 295 501 0
2018-01-12 02:29:18 GMT 47.21347 18.57561 34,000 295 501 0
2018-01-12 02:29:16 GMT 47.21091 18.58399 34,000 295 501 0
2018-01-12 02:29:13 GMT 47.20909 18.58985 34,000 295 501 0
2018-01-12 02:29:11 GMT 47.20732 18.59577 34,000 295 501 0
2018-01-12 02:29:07 GMT 47.20253 18.61119 34,000 295 501 64
2018-01-12 02:29:04 GMT 47.19922 18.62204 33,975 295 501 64
2018-01-12 02:28:59 GMT 47.19438 18.63782 33,975 295 500 0
2018-01-12 02:28:57 GMT 47.19369 18.64002 33,975 295 500 0
2018-01-12 02:28:55 GMT 47.19132 18.64771 33,975 295 500 0
2018-01-12 02:28:53 GMT 47.18990 18.65238 33,975 295 500 0
2018-01-12 02:28:51 GMT 47.18742 18.66042 33,975 295 500 0
2018-01-12 02:28:47 GMT 47.18363 18.67281 33,975 295 500 0
2018-01-12 02:28:45 GMT 47.18190 18.67838 33,975 295 500 0
2018-01-12 02:28:43 GMT 47.18001 18.68452 33,975 295 500 0
2018-01-12 02:28:40 GMT 47.17781 18.69166 33,975 295 500 0
2018-01-12 02:28:37 GMT 47.17436 18.70275 33,975 295 500 0
2018-01-12 02:28:34 GMT 47.17209 18.71020 34,000 295 500 0
2018-01-12 02:28:32 GMT 47.16971 18.71789 33,975 295 500 0
2018-01-12 02:28:30 GMT 47.16812 18.72317 34,000 295 500 0
2018-01-12 02:28:28 GMT 47.16486 18.73366 34,000 295 500 0
2018-01-12 02:28:26 GMT 47.16431 18.73549 34,000 295 500 0
2018-01-12 02:28:23 GMT 47.16021 18.74880 34,000 295 500 0
2018-01-12 02:28:16 GMT 47.15433 18.76788 33,975 295 500 0
2018-01-12 02:28:14 GMT 47.15253 18.77373 34,000 295 499 0
2018-01-12 02:28:12 GMT 47.15062 18.77996 34,000 295 499 0
2018-01-12 02:28:10 GMT 47.14865 18.78642 33,975 295 499 -64
2018-01-12 02:28:06 GMT 47.14467 18.79939 34,000 295 499 0
2018-01-12 02:28:02 GMT 47.14122 18.81042 34,000 295 499 0
2018-01-12 02:28:00 GMT 47.13895 18.81786 34,000 295 499 64
2018-01-12 02:27:56 GMT 47.13483 18.83112 33,975 295 499 0
2018-01-12 02:27:53 GMT 47.13245 18.83881 34,000 295 499 0
2018-01-12 02:27:51 GMT 47.13112 18.84313 34,000 295 499 0
2018-01-12 02:27:49 GMT 47.12883 18.85050 33,975 295 498 0
2018-01-12 02:27:47 GMT 47.12585 18.86002 33,975 295 498 0
2018-01-12 02:27:44 GMT 47.12320 18.86861 33,975 295 498 0
2018-01-12 02:27:42 GMT 47.12137 18.87444 33,975 295 498 0
2018-01-12 02:27:41 GMT 47.12137 18.87444 33,975 295 498 0
2018-01-12 02:27:39 GMT 47.11954 18.88028 34,000 295 498 0
2018-01-12 02:27:35 GMT 47.11561 18.89289 34,000 295 498 0
2018-01-12 02:27:33 GMT 47.11361 18.89937 34,000 295 498 0
2018-01-12 02:27:31 GMT 47.11170 18.90550 34,000 295 498 -64
2018-01-12 02:27:29 GMT 47.10970 18.91193 34,000 295 498 -64
2018-01-12 02:27:26 GMT 47.10695 18.92086 34,000 295 498 0
2018-01-12 02:27:24 GMT 47.10503 18.92704 34,000 295 498 0
2018-01-12 02:27:21 GMT 47.10179 18.93747 33,975 295 498 0
2018-01-12 02:27:19 GMT 47.09985 18.94359 34,000 295 498 0
2018-01-12 02:27:15 GMT 47.09546 18.95773 34,000 295 498 0
2018-01-12 02:27:13 GMT 47.09415 18.96205 34,000 295 498 0
2018-01-12 02:27:09 GMT 47.09024 18.97459 34,000 295 498 0
2018-01-12 02:27:06 GMT 47.08736 18.98383 34,000 295 498 0
2018-01-12 02:27:03 GMT 47.08420 18.99392 34,000 295 498 64
2018-01-12 02:27:00 GMT 47.08210 19.00064 33,975 295 498 64
2018-01-12 02:26:58 GMT 47.08009 19.00712 33,975 295 498 0
2018-01-12 02:26:56 GMT 47.07761 19.01507 33,975 295 498 0
2018-01-12 02:26:54 GMT 47.07586 19.02057 33,975 295 498 0
2018-01-12 02:26:51 GMT 47.07279 19.03043 34,000 295 498 0
2018-01-12 02:26:48 GMT 47.07024 19.03869 34,000 295 498 -64
2018-01-12 02:26:44 GMT 47.06571 19.05311 34,000 295 498 0
2018-01-12 02:26:42 GMT 47.06478 19.05614 34,000 295 498 0
2018-01-12 02:26:40 GMT 47.06273 19.06255 34,000 295 498 0
2018-01-12 02:26:36 GMT 47.05794 19.07790 34,000 295 498 0
2018-01-12 02:26:34 GMT 47.05691 19.08126 34,000 295 497 0
2018-01-12 02:26:32 GMT 47.05508 19.08703 34,000 295 497 0
2018-01-12 02:26:30 GMT 47.05295 19.09374 34,000 295 497 0
2018-01-12 02:26:27 GMT 47.05077 19.10079 34,000 295 497 0
2018-01-12 02:26:24 GMT 47.04732 19.11184 34,000 295 497 0
2018-01-12 02:26:21 GMT 47.04488 19.11944 34,000 295 497 0
2018-01-12 02:26:19 GMT 47.04309 19.12527 34,000 295 497 0
2018-01-12 02:26:15 GMT 47.03848 19.13994 34,000 295 497 64
2018-01-12 02:26:13 GMT 47.03615 19.14727 34,000 295 497 0
2018-01-12 02:26:11 GMT 47.03517 19.15034 33,975 295 497 0
2018-01-12 02:26:09 GMT 47.03261 19.15861 33,975 295 497 0
2018-01-12 02:26:07 GMT 47.03126 19.16283 34,000 295 497 0
2018-01-12 02:26:04 GMT 47.02789 19.17355 34,000 295 497 0
2018-01-12 02:26:01 GMT 47.02537 19.18151 34,000 295 497 0
2018-01-12 02:25:59 GMT 47.02260 19.19037 34,000 295 497 0
2018-01-12 02:25:57 GMT 47.02125 19.19463 34,000 295 497 0
2018-01-12 02:25:54 GMT 47.01828 19.20410 34,000 295 497 0
2018-01-12 02:25:51 GMT 47.01576 19.21206 34,000 295 497 0
2018-01-12 02:25:49 GMT 47.01356 19.21907 34,000 295 497 0
2018-01-12 02:25:46 GMT 47.01105 19.22704 34,000 295 497 64
2018-01-12 02:25:44 GMT 47.00867 19.23466 33,975 295 497 0
2018-01-12 02:25:42 GMT 47.00633 19.24194 34,000 295 497 0
2018-01-12 02:25:40 GMT 47.00547 19.24467 34,000 295 497 0
2018-01-12 02:25:38 GMT 47.00354 19.25079 34,000 295 497 0
2018-01-12 02:25:36 GMT 47.00153 19.25718 33,975 295 497 0
2018-01-12 02:25:31 GMT 46.99565 19.27579 34,000 295 496 0
2018-01-12 02:25:28 GMT 46.99365 19.28220 34,000 295 496 0
2018-01-12 02:25:26 GMT 46.99132 19.28952 34,000 295 496 0
2018-01-12 02:25:20 GMT 46.98587 19.30692 34,000 295 496 0
2018-01-12 02:25:18 GMT 46.98336 19.31481 34,000 295 496 0
2018-01-12 02:25:14 GMT 46.98047 19.32397 34,000 295 496 0
2018-01-12 02:25:10 GMT 46.97594 19.33827 34,000 295 496 0
2018-01-12 02:25:08 GMT 46.97400 19.34439 34,000 295 497 0
2018-01-12 02:25:05 GMT 46.97159 19.35200 34,000 295 496 0
2018-01-12 02:25:01 GMT 46.96651 19.36814 34,000 295 496 0
2018-01-12 02:24:59 GMT 46.96604 19.36967 34,000 295 496 0
2018-01-12 02:24:57 GMT 46.96353 19.37755 34,000 295 496 0
2018-01-12 02:24:55 GMT 46.96148 19.38397 34,000 295 496 0
2018-01-12 02:24:52 GMT 46.95863 19.39307 34,000 295 497 0
2018-01-12 02:24:50 GMT 46.95622 19.40073 34,000 295 497 0
2018-01-12 02:24:48 GMT 46.95477 19.40524 34,000 295 497 0
2018-01-12 02:24:46 GMT 46.95369 19.40858 34,000 295 497 0
2018-01-12 02:24:44 GMT 46.95184 19.41439 33,975 295 497 0
2018-01-12 02:24:41 GMT 46.94742 19.42841 33,975 295 497 0
2018-01-12 02:24:39 GMT 46.94653 19.43115 33,975 295 497 0
2018-01-12 02:24:37 GMT 46.94472 19.43693 33,975 295 497 0
2018-01-12 02:24:35 GMT 46.94270 19.44326 33,975 295 497 0
2018-01-12 02:24:32 GMT 46.93968 19.45274 33,975 295 497 0
2018-01-12 02:24:28 GMT 46.93506 19.46729 34,000 295 497 0
2018-01-12 02:24:24 GMT 46.93178 19.47763 33,975 295 497 0
2018-01-12 02:24:20 GMT 46.92782 19.49010 33,975 295 497 0
2018-01-12 02:24:17 GMT 46.92545 19.49771 34,000 295 496 0
2018-01-12 02:24:14 GMT 46.92252 19.50678 34,000 295 496 0
2018-01-12 02:24:07 GMT 46.91511 19.53017 34,000 295 495 0
2018-01-12 02:24:04 GMT 46.91260 19.53806 33,975 295 496 0
2018-01-12 02:23:56 GMT 46.90471 19.56294 33,975 295 496 0
2018-01-12 02:23:54 GMT 46.90270 19.56933 33,975 295 496 -64
2018-01-12 02:23:48 GMT 46.89693 19.58752 34,000 295 496 -64
2018-01-12 02:23:46 GMT 46.89547 19.59207 34,000 295 495 -64
2018-01-12 02:23:43 GMT 46.89267 19.60084 34,000 295 495 0
2018-01-12 02:23:38 GMT 46.88658 19.62024 34,000 295 496 0
2018-01-12 02:23:36 GMT 46.88560 19.62292 34,000 295 496 0
2018-01-12 02:23:33 GMT 46.88269 19.63202 34,000 295 496 0
2018-01-12 02:23:26 GMT 46.87582 19.65356 33,975 296 496 0
2018-01-12 02:23:23 GMT 46.87303 19.66236 33,975 296 496 0
2018-01-12 02:23:20 GMT 46.86991 19.67201 34,000 296 496 0
2018-01-12 02:23:15 GMT 46.86562 19.68536 34,000 296 496 -64
2018-01-12 02:23:13 GMT 46.86301 19.69353 34,000 296 497 -64
2018-01-12 02:23:07 GMT 46.85715 19.71174 34,000 296 497 0
2018-01-12 02:23:05 GMT 46.85573 19.71624 34,000 296 496 0
2018-01-12 02:23:01 GMT 46.85213 19.72746 34,000 296 496 0
2018-01-12 02:22:57 GMT 46.84733 19.74229 34,000 296 496 0
2018-01-12 02:22:55 GMT 46.84529 19.74873 34,000 296 496 0
2018-01-12 02:22:51 GMT 46.84250 19.75750 34,000 296 496 0
2018-01-12 02:22:45 GMT 46.83569 19.77869 34,000 296 497 0
2018-01-12 02:22:42 GMT 46.83325 19.78631 34,000 296 497 0
2018-01-12 02:22:35 GMT 46.82588 19.80935 34,000 296 497 0
2018-01-12 02:22:32 GMT 46.82331 19.81721 34,000 296 497 0
2018-01-12 02:22:26 GMT 46.81728 19.83602 34,000 296 497 0
2018-01-12 02:22:24 GMT 46.81599 19.83997 34,000 296 497 0
2018-01-12 02:22:21 GMT 46.81270 19.85022 34,000 296 497 0
2018-01-12 02:22:15 GMT 46.80615 19.87052 34,000 296 497 0
2018-01-12 02:22:11 GMT 46.80283 19.88079 34,000 296 497 0
2018-01-12 02:22:06 GMT 46.79715 19.89837 34,000 296 497 0
2018-01-12 02:22:04 GMT 46.79580 19.90263 34,000 296 497 0
2018-01-12 02:22:01 GMT 46.79315 19.91073 34,000 296 496 0
2018-01-12 02:21:54 GMT 46.78588 19.93311 34,000 296 496 0
2018-01-12 02:21:49 GMT 46.78179 19.94582 34,000 296 496 0
2018-01-12 02:21:45 GMT 46.77718 19.96003 34,000 296 496 0
2018-01-12 02:21:43 GMT 46.77603 19.96363 34,000 296 496 0
2018-01-12 02:21:40 GMT 46.77242 19.97482 34,000 296 496 0
2018-01-12 02:21:33 GMT 46.76615 19.99416 33,975 296 496 0
2018-01-12 02:21:30 GMT 46.76299 20.00383 34,000 296 496 0
2018-01-12 02:21:25 GMT 46.75702 20.02217 34,000 296 496 0
2018-01-12 02:21:23 GMT 46.75595 20.02554 34,000 296 496 0
2018-01-12 02:21:14 GMT 46.74742 20.05179 33,975 296 496 0
2018-01-12 02:21:12 GMT 46.74576 20.05692 33,975 296 496 0
2018-01-12 02:21:03 GMT 46.73616 20.08642 34,000 296 495 0
2018-01-12 02:20:53 GMT 46.72625 20.11686 34,000 296 495 0
2018-01-12 02:20:48 GMT 46.72183 20.13039 34,000 296 495 0
2018-01-12 02:20:43 GMT 46.71615 20.14783 34,000 296 496 0
2018-01-12 02:20:33 GMT 46.70721 20.17522 34,000 296 496 0
2018-01-12 02:20:31 GMT 46.70512 20.18155 34,000 296 496 64
2018-01-12 02:20:22 GMT 46.69569 20.21049 33,975 296 496 0
2018-01-12 02:20:11 GMT 46.68576 20.24084 34,000 296 496 0
2018-01-12 02:20:03 GMT 46.67711 20.26730 34,000 296 496 0
2018-01-12 02:20:01 GMT 46.67583 20.27118 34,000 296 496 0
2018-01-12 02:19:53 GMT 46.66695 20.29818 34,000 296 495 0
2018-01-12 02:19:51 GMT 46.66541 20.30301 34,000 296 495 0
2018-01-12 02:19:41 GMT 46.65572 20.33240 33,975 296 495 0
2018-01-12 02:19:32 GMT 46.64679 20.35973 34,000 296 495 0
2018-01-12 02:19:30 GMT 46.64530 20.36419 34,000 296 495 0
2018-01-12 02:19:20 GMT 46.63543 20.39413 34,000 296 495 0
2018-01-12 02:19:11 GMT 46.62514 20.42530 34,000 296 495 0
2018-01-12 02:19:01 GMT 46.61634 20.45201 33,975 296 495 64
2018-01-12 02:18:59 GMT 46.61438 20.45799 33,975 296 495 0
2018-01-12 02:18:51 GMT 46.60638 20.48222 33,975 296 494 0
2018-01-12 02:18:49 GMT 46.60438 20.48820 34,000 296 494 0
2018-01-12 02:18:39 GMT 46.59488 20.51690 34,000 296 494 0
2018-01-12 02:18:30 GMT 46.58427 20.54892 34,000 296 494 0
2018-01-12 02:18:18 GMT 46.57397 20.58000 34,000 296 495 0
2018-01-12 02:18:08 GMT 46.56386 20.61049 34,000 296 495 0
2018-01-12 02:18:05 GMT 46.56097 20.61913 34,000 296 495 0
2018-01-12 02:17:43 GMT 46.53916 20.68485 34,000 296 495 0
2018-01-12 02:17:38 GMT 46.53406 20.70005 34,000 296 495 0
2018-01-12 02:17:09 GMT 46.38521 21.14298 34,000 295.9 493.8 -128
2018-01-12 02:16:32 GMT 46.38521 21.14298 34,000 296.1 493.3 0
2018-01-12 02:15:44 GMT 46.42017 21.03964 34,000 296 493 0
2018-01-12 02:15:42 GMT 46.41817 21.04555 34,000 297 494 0
2018-01-12 02:12:49 GMT 46.05585 22.09721 33,975 296.8 492.8 -128
2018-01-12 02:11:44 GMT 46.17805 21.74709 34,000 297 492 0
2018-01-12 02:11:41 GMT 46.17412 21.75856 34,000 297 492 0
2018-01-12 02:11:31 GMT 46.16441 21.78643 34,000 297 493 0
2018-01-12 02:11:21 GMT 46.15394 21.81658 34,000 297 493 0
2018-01-12 02:11:10 GMT 46.14262 21.84913 33,975 297 493 0
2018-01-12 02:11:00 GMT 46.13280 21.87721 33,975 297 492 0
2018-01-12 02:10:50 GMT 46.12233 21.90736 33,975 297 492 0
2018-01-12 02:10:39 GMT 46.11182 21.93749 34,000 297 492 0
2018-01-12 02:10:29 GMT 46.10138 21.96730 34,000 297 492 -64
2018-01-12 02:10:19 GMT 46.09067 21.99798 34,000 297 492 0
2018-01-12 02:10:08 GMT 46.07959 22.02953 34,000 297 492 0
2018-01-12 02:09:58 GMT 46.06938 22.05874 34,000 297 492 0
2018-01-12 02:09:48 GMT 46.05931 22.08728 34,000 297 491 64
2018-01-12 02:09:37 GMT 46.04814 22.11910 34,000 297 491 0
2018-01-12 02:09:27 GMT 46.03709 22.15050 34,000 297 491 0
2018-01-12 02:09:17 GMT 46.02745 22.17785 34,000 297 491 0
2018-01-12 02:09:06 GMT 46.01661 22.20873 34,000 297 491 0
2018-01-12 02:08:56 GMT 46.00603 22.23861 34,000 297 491 64
2018-01-12 02:08:45 GMT 45.99450 22.27121 33,975 297 491 0
2018-01-12 02:08:39 GMT 45.98649 22.29380 34,000 297 491 0
2018-01-12 02:08:35 GMT 45.98393 22.30108 34,000 297 491 0
2018-01-12 02:08:25 GMT 45.97403 22.32891 34,000 297 491 0
2018-01-12 02:08:15 GMT 45.96363 22.35821 34,000 298 490 0
2018-01-12 02:08:05 GMT 45.95274 22.38893 34,000 298 490 0
2018-01-12 02:07:54 GMT 45.94212 22.41870 34,000 298 490 0
2018-01-12 02:07:44 GMT 45.93165 22.44823 34,000 298 490 0
2018-01-12 02:07:34 GMT 45.92104 22.47803 34,000 298 490 0
2018-01-12 02:07:23 GMT 45.91040 22.50777 34,000 298 490 0
2018-01-12 02:07:12 GMT 45.89906 22.53955 33,975 298 489 0
2018-01-12 02:07:03 GMT 45.88915 22.56729 34,000 298 489 0
2018-01-12 02:06:52 GMT 45.87797 22.59840 34,000 298 490 0
2018-01-12 02:06:41 GMT 45.86736 22.62806 34,000 298 489 0
2018-01-12 02:06:30 GMT 45.85586 22.66006 33,975 298 488 0
2018-01-12 02:06:21 GMT 45.84599 22.68764 33,975 298 488 0
2018-01-12 02:06:11 GMT 45.83569 22.71631 34,000 298 488 -64
2018-01-12 02:06:00 GMT 45.82435 22.74788 34,000 298 487 0
2018-01-12 02:05:50 GMT 45.81401 22.77651 34,000 298 488 0
2018-01-12 02:05:39 GMT 45.80306 22.80688 34,000 298 487 0
2018-01-12 02:05:30 GMT 45.79320 22.83412 34,000 298 488 0
2018-01-12 02:05:19 GMT 45.78213 22.86476 34,000 298 488 0
2018-01-12 02:05:12 GMT 45.77499 22.88452 34,000 298 488 0
2018-01-12 02:05:09 GMT 45.77165 22.89372 34,000 298 488 0
2018-01-12 02:04:59 GMT 45.76122 22.92264 33,975 298 488 0
2018-01-12 02:04:49 GMT 45.75019 22.95298 34,000 298 488 0
2018-01-12 02:04:37 GMT 45.73906 22.98360 34,000 298 488 64
2018-01-12 02:04:27 GMT 45.72835 23.01314 34,000 298 488 0
2018-01-12 02:04:18 GMT 45.71825 23.04087 34,000 298 489 0
2018-01-12 02:04:07 GMT 45.70764 23.07005 34,000 298 489 0
2018-01-12 02:03:57 GMT 45.69690 23.09949 34,000 298 489 0
2018-01-12 02:03:45 GMT 45.68477 23.13265 34,000 298 488 0
2018-01-12 02:03:37 GMT 45.67525 23.15864 34,000 298 488 0
2018-01-12 02:03:30 GMT 45.66700 23.18115 34,000 298 488 0
2018-01-12 02:03:26 GMT 45.66440 23.18832 34,000 298 488 0
2018-01-12 02:03:24 GMT 45.66169 23.19571 34,000 298 488 0
2018-01-12 02:03:16 GMT 45.65373 23.21739 34,000 298 488 0
2018-01-12 02:03:14 GMT 45.65208 23.22195 34,000 298 487 0
2018-01-12 02:03:06 GMT 45.64312 23.24645 33,975 298 487 0
2018-01-12 02:03:04 GMT 45.64091 23.25243 33,975 298 487 0
2018-01-12 02:02:55 GMT 45.63227 23.27605 33,975 298 486 0
2018-01-12 02:02:53 GMT 45.63071 23.28030 33,975 298 486 0
2018-01-12 02:02:45 GMT 45.62054 23.30783 34,000 298 486 -64
2018-01-12 02:02:34 GMT 45.60909 23.33901 34,000 298 486 0
2018-01-12 02:02:23 GMT 45.59825 23.36852 34,000 298 485 0
2018-01-12 02:02:13 GMT 45.58842 23.39511 34,000 298 485 0
2018-01-12 02:02:03 GMT 45.57770 23.42426 33,975 298 485 0
2018-01-12 02:01:54 GMT 45.56744 23.45199 33,975 298 485 0
2018-01-12 02:01:52 GMT 45.56653 23.45454 33,975 298 485 0
2018-01-12 02:01:42 GMT 45.55639 23.48197 34,000 298 484 0
2018-01-12 02:01:33 GMT 45.54624 23.50934 34,000 298 485 -64
2018-01-12 02:01:23 GMT 45.53558 23.53808 34,000 298 484 0
2018-01-12 02:01:12 GMT 45.52487 23.56692 34,000 298 485 0
2018-01-12 02:01:02 GMT 45.51366 23.59706 34,000 298 485 0
2018-01-12 02:00:58 GMT 45.51000 23.60694 34,000 298 485 0
2018-01-12 02:00:51 GMT 45.50286 23.62610 34,000 298 485 0
2018-01-12 02:00:42 GMT 45.49246 23.65402 34,000 298 485 0
2018-01-12 02:00:40 GMT 45.49127 23.65710 34,000 298 485 0
2018-01-12 02:00:32 GMT 45.48216 23.68162 34,000 298 485 0
2018-01-12 02:00:30 GMT 45.48112 23.68445 34,000 298 485 64
2018-01-12 02:00:20 GMT 45.47036 23.71318 33,975 298 485 0
2018-01-12 02:00:11 GMT 45.45947 23.74239 34,000 298 484 0
2018-01-12 02:00:00 GMT 45.44876 23.77113 34,000 298 484 0
2018-01-12 01:59:49 GMT 45.43731 23.80175 34,000 298 484 0
2018-01-12 01:59:40 GMT 45.42732 23.82843 33,975 298 484 0
2018-01-12 01:59:31 GMT 45.41734 23.85505 33,975 299 484 0
2018-01-12 01:59:29 GMT 45.41632 23.85788 34,000 299 484 0
2018-01-12 01:59:19 GMT 45.40547 23.88676 34,000 299 484 0
2018-01-12 01:59:09 GMT 45.39441 23.91619 34,000 299 484 0
2018-01-12 01:58:58 GMT 45.38383 23.94424 34,000 299 484 0
2018-01-12 01:58:48 GMT 45.37288 23.97337 34,000 299 484 0
2018-01-12 01:58:37 GMT 45.36140 24.00388 34,000 299 484 0
2018-01-12 01:58:29 GMT 45.35305 24.02603 33,975 299 484 0
2018-01-12 01:58:27 GMT 45.35106 24.03135 34,000 299 484 0
2018-01-12 01:58:19 GMT 45.34123 24.05738 34,000 299 484 0
2018-01-12 01:58:17 GMT 45.34026 24.05993 34,000 299 484 0
2018-01-12 01:58:11 GMT 45.33383 24.07701 34,000 299 484 0
2018-01-12 01:58:06 GMT 45.32926 24.08900 34,000 299 485 0
2018-01-12 01:58:03 GMT 45.32554 24.09878 34,000 299 485 0
2018-01-12 01:57:56 GMT 45.31810 24.11839 34,000 299 485 0
2018-01-12 01:57:48 GMT 45.30931 24.14161 34,000 299 485 0
2018-01-12 01:57:45 GMT 45.30716 24.14723 34,000 299 485 0
2018-01-12 01:57:36 GMT 45.29579 24.17716 34,000 299 485 0
2018-01-12 01:57:28 GMT 45.28848 24.19645 34,000 299 485 0
2018-01-12 01:57:25 GMT 45.28569 24.20367 33,975 299 485 0
2018-01-12 01:57:22 GMT 45.28178 24.21400 34,000 299 485 0
2018-01-12 01:57:15 GMT 45.27452 24.23303 33,975 299 485 0
2018-01-12 01:57:08 GMT 45.26716 24.25232 34,000 299 485 0
2018-01-12 01:57:04 GMT 45.26335 24.26237 33,975 299 485 0
2018-01-12 01:57:01 GMT 45.25822 24.27580 33,975 299 485 0
2018-01-12 01:56:57 GMT 45.25525 24.28364 34,000 299 485 0
2018-01-12 01:56:55 GMT 45.25259 24.29064 33,975 299 485 0
2018-01-12 01:56:51 GMT 45.24875 24.30071 33,975 299 485 0
2018-01-12 01:56:49 GMT 45.24747 24.30403 33,975 299 485 0
2018-01-12 01:56:47 GMT 45.24435 24.31214 33,975 299 485 0
2018-01-12 01:56:44 GMT 45.24128 24.32025 33,975 299 485 0
2018-01-12 01:56:41 GMT 45.23785 24.32922 33,975 299 486 0
2018-01-12 01:56:39 GMT 45.23676 24.33204 33,975 299 486 0
2018-01-12 01:56:37 GMT 45.23273 24.34263 33,975 299 486 0
2018-01-12 01:56:33 GMT 45.22973 24.35046 34,000 299 486 0
2018-01-12 01:56:29 GMT 45.22504 24.36277 34,000 299 486 -64
2018-01-12 01:56:26 GMT 45.22247 24.36951 34,000 299 486 0
2018-01-12 01:56:24 GMT 45.21941 24.37762 34,000 299 486 0
2018-01-12 01:56:20 GMT 45.21563 24.38744 34,000 299 487 0
2018-01-12 01:56:16 GMT 45.21116 24.39923 34,000 299 487 0
2018-01-12 01:56:13 GMT 45.20828 24.40678 33,975 299 487 0
2018-01-12 01:56:09 GMT 45.20474 24.41604 34,000 299 487 0
2018-01-12 01:56:07 GMT 45.20045 24.42723 34,000 299 487 0
2018-01-12 01:56:02 GMT 45.19743 24.43510 34,000 299 487 0
2018-01-12 01:55:59 GMT 45.19368 24.44491 34,000 299 489 0
2018-01-12 01:55:54 GMT 45.18779 24.46039 34,000 299 489 0
2018-01-12 01:55:52 GMT 45.18649 24.46374 34,000 299 489 0
2018-01-12 01:55:49 GMT 45.18258 24.47386 34,000 299 489 0
2018-01-12 01:55:46 GMT 45.17862 24.48428 34,000 299 489 0
2018-01-12 01:55:42 GMT 45.17505 24.49356 34,000 299 489 0
2018-01-12 01:55:39 GMT 45.17085 24.50454 34,000 299 490 0
2018-01-12 01:55:32 GMT 45.16438 24.52142 34,000 299 490 0
2018-01-12 01:55:28 GMT 45.15981 24.53327 34,000 299 490 0
2018-01-12 01:55:22 GMT 45.15321 24.55045 34,000 299 491 0
2018-01-12 01:55:17 GMT 45.14877 24.56203 34,000 299 491 0
2018-01-12 01:55:12 GMT 45.14194 24.57977 34,000 299 491 0
2018-01-12 01:55:08 GMT 45.13747 24.59139 34,000 299 491 0
2018-01-12 01:55:04 GMT 45.13412 24.60009 34,000 299 491 0
2018-01-12 01:55:01 GMT 45.13086 24.60857 34,000 299 493 0
2018-01-12 01:54:57 GMT 45.12592 24.62130 34,000 299 493 0
2018-01-12 01:54:55 GMT 45.12429 24.62552 34,000 299 493 0
2018-01-12 01:54:51 GMT 45.11950 24.63798 34,000 299 493 0
2018-01-12 01:54:45 GMT 45.11284 24.65520 34,000 299 493 0
2018-01-12 01:54:41 GMT 45.10805 24.66766 34,000 299 493 0
2018-01-12 01:54:36 GMT 45.10313 24.68039 34,000 299 494 0
2018-01-12 01:54:34 GMT 45.10148 24.68461 34,000 299 494 0
2018-01-12 01:54:30 GMT 45.09695 24.69622 34,000 299 494 0
2018-01-12 01:54:25 GMT 45.09027 24.71348 34,000 299 494 0
2018-01-12 01:54:18 GMT 45.08431 24.72875 34,000 299 494 0
2018-01-12 01:54:16 GMT 45.08057 24.73840 34,000 299 494 0
2018-01-12 01:54:14 GMT 45.07849 24.74376 34,000 299 494 0
2018-01-12 01:54:09 GMT 45.07443 24.75429 34,000 299 494 0
2018-01-12 01:54:04 GMT 45.06792 24.77095 34,000 299 496 0
2018-01-12 01:53:59 GMT 45.06294 24.78372 34,000 299 496 0
2018-01-12 01:53:53 GMT 45.05665 24.79989 34,000 299 495 0
2018-01-12 01:53:49 GMT 45.05150 24.81321 34,000 299 495 64
2018-01-12 01:53:45 GMT 45.04610 24.82714 33,975 299 495 64
2018-01-12 01:53:43 GMT 45.04555 24.82858 34,000 299 495 64
2018-01-12 01:53:38 GMT 45.04015 24.84244 33,975 299 496 0
2018-01-12 01:53:34 GMT 45.03398 24.85838 33,975 299 496 0
2018-01-12 01:53:29 GMT 45.02870 24.87200 33,975 299 496 0
2018-01-12 01:53:23 GMT 45.02325 24.88586 34,000 299 496 0
2018-01-12 01:53:17 GMT 45.01699 24.90205 34,000 299 496 0
2018-01-12 01:53:15 GMT 45.01341 24.91111 34,000 299 496 0
2018-01-12 01:53:12 GMT 45.01057 24.91847 34,000 299 496 0
2018-01-12 01:53:08 GMT 45.00624 24.92952 34,000 299 496 0
2018-01-12 01:53:05 GMT 45.00326 24.93716 34,000 299 496 0
2018-01-12 01:53:02 GMT 44.99972 24.94622 34,000 299 496 0
2018-01-12 01:52:57 GMT 44.99497 24.95839 34,000 299 496 0
2018-01-12 01:52:54 GMT 44.99097 24.96857 34,000 299 496 0
2018-01-12 01:52:52 GMT 44.98810 24.97598 34,000 299 496 0
2018-01-12 01:52:47 GMT 44.98320 24.98840 34,000 299 496 0
2018-01-12 01:52:42 GMT 44.97747 25.00314 34,000 299 496 0
2018-01-12 01:52:37 GMT 44.97189 25.01731 34,000 299 496 0
2018-01-12 01:52:33 GMT 44.96791 25.02751 34,000 299 496 0
2018-01-12 01:52:31 GMT 44.96571 25.03320 34,000 299 496 64
2018-01-12 01:52:26 GMT 44.96062 25.04622 34,000 299 496 0
2018-01-12 01:52:24 GMT 44.95706 25.05524 33,975 299 496 0
2018-01-12 01:52:22 GMT 44.95475 25.06122 33,975 299 496 0
2018-01-12 01:52:17 GMT 44.94946 25.07479 33,975 299 496 0
2018-01-12 01:52:13 GMT 44.94544 25.08500 33,975 299 496 0
2018-01-12 01:52:10 GMT 44.94269 25.09204 33,975 299 495 0
2018-01-12 01:52:04 GMT 44.93622 25.10845 33,975 299 495 0
2018-01-12 01:52:02 GMT 44.93445 25.11298 34,000 299 495 0
2018-01-12 01:52:00 GMT 44.93070 25.12253 33,975 299 495 0
2018-01-12 01:51:53 GMT 44.92282 25.14260 34,000 300 496 -64
2018-01-12 01:51:51 GMT 44.92026 25.14911 34,000 300 496 -64
2018-01-12 01:51:46 GMT 44.91416 25.16465 34,000 300 496 0
2018-01-12 01:51:42 GMT 44.91090 25.17283 34,000 300 496 0
2018-01-12 01:51:40 GMT 44.90859 25.17877 34,000 300 496 0
2018-01-12 01:51:32 GMT 44.89989 25.20074 34,000 300 496 0
2018-01-12 01:51:27 GMT 44.89490 25.21343 34,000 300 496 0
2018-01-12 01:51:24 GMT 44.89111 25.22307 34,000 300 496 0
2018-01-12 01:51:22 GMT 44.88799 25.23095 34,000 300 496 0
2018-01-12 01:51:19 GMT 44.88533 25.23769 34,000 300 496 0
2018-01-12 01:51:11 GMT 44.87654 25.25998 34,000 299 495 0
2018-01-12 01:51:08 GMT 44.87366 25.26731 34,000 300 496 0
2018-01-12 01:51:04 GMT 44.86853 25.28026 34,000 300 496 0
2018-01-12 01:51:02 GMT 44.86675 25.28477 33,975 300 495 0
2018-01-12 01:50:59 GMT 44.86230 25.29609 34,000 300 495 0
2018-01-12 01:50:53 GMT 44.85718 25.30902 34,000 300 495 0
2018-01-12 01:50:51 GMT 44.85384 25.31747 34,000 300 495 0
2018-01-12 01:50:48 GMT 44.85118 25.32421 33,975 300 495 0
2018-01-12 01:50:41 GMT 44.84203 25.34729 33,975 300 495 0
2018-01-12 01:50:37 GMT 44.83935 25.35403 34,000 300 495 0
2018-01-12 01:50:34 GMT 44.83493 25.36529 34,000 300 495 0
2018-01-12 01:50:30 GMT 44.83058 25.37619 34,000 300 495 0
2018-01-12 01:50:28 GMT 44.82747 25.38411 33,975 300 494 0
2018-01-12 01:50:23 GMT 44.82321 25.39477 34,000 300 495 0
2018-01-12 01:50:21 GMT 44.82101 25.40039 34,000 300 494 0
2018-01-12 01:50:19 GMT 44.81923 25.40484 34,000 300 494 0
2018-01-12 01:50:16 GMT 44.81612 25.41272 33,975 300 494 0
2018-01-12 01:50:12 GMT 44.81165 25.42397 33,975 300 494 0
2018-01-12 01:50:10 GMT 44.80765 25.43407 33,975 300 494 0
2018-01-12 01:50:06 GMT 44.80444 25.44218 34,000 300 494 0
2018-01-12 01:50:03 GMT 44.80019 25.45284 33,975 300 494 0
2018-01-12 01:49:59 GMT 44.79643 25.46236 34,000 300 493 0
2018-01-12 01:49:56 GMT 44.79261 25.47187 34,000 300 493 0
2018-01-12 01:49:52 GMT 44.78875 25.48165 33,975 300 494 0
2018-01-12 01:49:49 GMT 44.78502 25.49089 34,000 300 494 0
2018-01-12 01:49:46 GMT 44.78091 25.50123 34,000 300 493 0
2018-01-12 01:49:42 GMT 44.77757 25.50958 34,000 300 493 0
2018-01-12 01:49:39 GMT 44.77345 25.51993 33,975 300 493 0
2018-01-12 01:49:34 GMT 44.76910 25.53082 34,000 300 493 0
2018-01-12 01:49:31 GMT 44.76589 25.53893 33,975 300 492 0
2018-01-12 01:49:28 GMT 44.76210 25.54844 33,975 300 493 0
2018-01-12 01:49:24 GMT 44.75751 25.55983 34,000 300 493 -64
2018-01-12 01:49:22 GMT 44.75406 25.56847 34,000 300 492 0
2018-01-12 01:49:18 GMT 44.75057 25.57711 34,000 300 492 0
2018-01-12 01:49:14 GMT 44.74649 25.58742 34,000 300 492 0
2018-01-12 01:49:10 GMT 44.74257 25.59721 34,000 300 492 0
2018-01-12 01:49:07 GMT 44.73880 25.60665 34,000 300 492 0
2018-01-12 01:49:04 GMT 44.73477 25.61665 34,000 300 492 0
2018-01-12 01:48:59 GMT 44.72887 25.63143 34,000 300 492 0
2018-01-12 01:48:57 GMT 44.72711 25.63586 34,000 300 492 0
2018-01-12 01:48:54 GMT 44.72342 25.64503 34,000 300 492 0
2018-01-12 01:48:50 GMT 44.71898 25.65615 34,000 300 492 0
2018-01-12 01:48:47 GMT 44.71573 25.66426 34,000 300 492 0
2018-01-12 01:48:41 GMT 44.70919 25.68061 34,000 300 492 0
2018-01-12 01:48:38 GMT 44.70649 25.68731 34,000 300 491 0
2018-01-12 01:48:36 GMT 44.70360 25.69454 34,000 300 491 0
2018-01-12 01:48:32 GMT 44.69941 25.70506 34,000 300 491 0
2018-01-12 01:48:28 GMT 44.69472 25.71671 34,000 300 491 0
2018-01-12 01:48:25 GMT 44.69238 25.72255 34,000 300 490 64
2018-01-12 01:48:23 GMT 44.68863 25.73201 34,000 300 490 0
2018-01-12 01:48:20 GMT 44.68526 25.74030 33,975 300 491 0
2018-01-12 01:48:16 GMT 44.68048 25.75221 34,000 300 490 0
2018-01-12 01:48:12 GMT 44.67705 25.76078 34,000 300 490 0
2018-01-12 01:48:08 GMT 44.67139 25.77486 34,000 300 489 0
2018-01-12 01:48:05 GMT 44.66904 25.78073 34,000 300 489 0
2018-01-12 01:48:02 GMT 44.66594 25.78846 34,000 300 490 0
2018-01-12 01:47:57 GMT 44.66059 25.80173 34,000 300 489 0
2018-01-12 01:47:54 GMT 44.65727 25.80996 34,000 300 489 0
2018-01-12 01:47:52 GMT 44.65425 25.81741 34,000 300 488 0
2018-01-12 01:47:48 GMT 44.65123 25.82487 34,000 300 488 0
2018-01-12 01:47:46 GMT 44.64816 25.83261 33,975 300 488 0
2018-01-12 01:47:44 GMT 44.64615 25.83755 34,000 300 488 0
2018-01-12 01:47:40 GMT 44.64212 25.84749 34,000 300 488 0
2018-01-12 01:47:38 GMT 44.63947 25.85410 34,000 300 488 0
2018-01-12 01:47:34 GMT 44.63470 25.86594 33,975 300 488 0
2018-01-12 01:47:29 GMT 44.62847 25.88131 34,000 300 488 0
2018-01-12 01:47:27 GMT 44.62796 25.88265 33,975 300 487 0
2018-01-12 01:47:23 GMT 44.62283 25.89531 33,975 300 487 0
2018-01-12 01:47:21 GMT 44.61939 25.90382 34,000 300 487 0
2018-01-12 01:47:18 GMT 44.61762 25.90817 34,000 300 487 0
2018-01-12 01:47:16 GMT 44.61543 25.91367 34,000 300 486 0
2018-01-12 01:47:12 GMT 44.61131 25.92381 34,000 300 486 0
2018-01-12 01:47:10 GMT 44.60843 25.93094 34,000 300 486 0
2018-01-12 01:47:08 GMT 44.60587 25.93722 33,975 300 486 0
2018-01-12 01:47:05 GMT 44.60212 25.94649 34,000 300 485 0
2018-01-12 01:47:03 GMT 44.60012 25.95145 34,000 300 485 0
2018-01-12 01:46:59 GMT 44.59634 25.96069 33,975 300 485 0
2018-01-12 01:46:56 GMT 44.59267 25.96974 33,975 300 484 0
2018-01-12 01:46:53 GMT 44.58893 25.97900 33,975 300 484 0
2018-01-12 01:46:50 GMT 44.58517 25.98829 33,975 300 484 0
2018-01-12 01:46:48 GMT 44.58353 25.99234 33,975 300 484 0
2018-01-12 01:46:46 GMT 44.58098 25.99868 33,975 300 484 0
2018-01-12 01:46:42 GMT 44.57758 26.00712 33,975 300 484 64
2018-01-12 01:46:37 GMT 44.57218 26.02045 33,975 300 484 0
2018-01-12 01:46:35 GMT 44.56906 26.02805 33,975 300 484 -64
2018-01-12 01:46:31 GMT 44.56534 26.03733 34,000 300 483 -64
2018-01-12 01:46:28 GMT 44.56260 26.04410 34,000 300 483 -64
2018-01-12 01:46:26 GMT 44.55971 26.05120 34,000 300 483 0
2018-01-12 01:46:24 GMT 44.55830 26.05473 34,000 300 482 0
2018-01-12 01:46:21 GMT 44.55423 26.06480 34,000 300 482 0
2018-01-12 01:46:18 GMT 44.55114 26.07237 34,000 300 482 0
2018-01-12 01:46:16 GMT 44.54947 26.07644 34,000 300 482 0
2018-01-12 01:46:16 GMT 44.54947 26.07644 34,000 300 482 0
2018-01-12 01:46:14 GMT 44.54681 26.08298 34,000 300 482 0
2018-01-12 01:46:11 GMT 44.54295 26.09246 34,000 300 483 0
2018-01-12 01:46:08 GMT 44.53976 26.10038 34,000 300 483 0
2018-01-12 01:46:06 GMT 44.53679 26.10770 34,000 300 483 0
2018-01-12 01:46:04 GMT 44.53448 26.11336 34,000 300 483 0
2018-01-12 01:46:00 GMT 44.53127 26.12127 34,000 300 483 0
2018-01-12 01:45:57 GMT 44.52787 26.12964 34,000 300 483 0
2018-01-12 01:45:55 GMT 44.52489 26.13694 34,000 300 483 0
2018-01-12 01:45:50 GMT 44.51967 26.14974 34,000 300 482 0
2018-01-12 01:45:47 GMT 44.51692 26.15648 34,000 300 482 0
2018-01-12 01:45:45 GMT 44.51450 26.16244 34,000 300 483 0
2018-01-12 01:45:43 GMT 44.51288 26.16649 34,000 300 483 0
2018-01-12 01:45:40 GMT 44.50854 26.17709 34,000 300 482 0
2018-01-12 01:45:36 GMT 44.50445 26.18712 34,000 300 482 0
2018-01-12 01:45:33 GMT 44.50161 26.19415 34,000 300 482 0
2018-01-12 01:45:27 GMT 44.49374 26.21338 34,000 300 482 0
2018-01-12 01:45:25 GMT 44.49221 26.21713 34,000 300 482 0
2018-01-12 01:45:23 GMT 44.49042 26.22149 34,000 300 482 0
2018-01-12 01:45:18 GMT 44.48555 26.23334 34,000 300 482 0
2018-01-12 01:45:16 GMT 44.48277 26.24012 34,000 300 482 0
2018-01-12 01:45:13 GMT 44.47934 26.24850 34,000 300 482 0
2018-01-12 01:45:11 GMT 44.47768 26.25257 34,000 300 482 0
2018-01-12 01:45:09 GMT 44.47359 26.26262 33,975 300 482 0
2018-01-12 01:45:06 GMT 44.47140 26.26798 33,975 300 482 0
2018-01-12 01:45:04 GMT 44.46808 26.27609 34,000 300 482 0
2018-01-12 01:44:58 GMT 44.46245 26.28989 34,000 300 482 0
2018-01-12 01:44:56 GMT 44.45966 26.29663 34,000 300 482 0
2018-01-12 01:44:53 GMT 44.45645 26.30447 34,000 300 482 0
2018-01-12 01:44:50 GMT 44.45371 26.31125 34,000 300 482 0
2018-01-12 01:44:48 GMT 44.45105 26.31775 34,000 300 482 0
2018-01-12 01:44:45 GMT 44.44826 26.32452 34,000 300 482 0
2018-01-12 01:44:42 GMT 44.44560 26.33096 34,000 300 482 0
2018-01-12 01:44:37 GMT 44.43942 26.34609 34,000 300 482 0
2018-01-12 01:44:33 GMT 44.43467 26.35768 34,000 300 482 0
2018-01-12 01:44:32 GMT 44.43467 26.35768 34,000 300 482 0
2018-01-12 01:44:27 GMT 44.42789 26.37412 34,000 300 482 0
2018-01-12 01:44:24 GMT 44.42513 26.38085 34,000 300 482 0
2018-01-12 01:44:22 GMT 44.42336 26.38521 34,000 300 482 0
2018-01-12 01:44:19 GMT 44.41978 26.39380 34,000 300 482 0
2018-01-12 01:44:16 GMT 44.41568 26.40376 34,000 300 482 0
2018-01-12 01:44:14 GMT 44.41269 26.41107 34,000 300 482 0
2018-01-12 01:44:12 GMT 44.41168 26.41349 34,000 300 482 0
2018-01-12 01:44:04 GMT 44.40241 26.43612 34,000 300 482 0
2018-01-12 01:44:02 GMT 44.40028 26.44121 34,000 300 482 0
2018-01-12 01:43:56 GMT 44.39397 26.45658 33,975 300 482 0
2018-01-12 01:43:51 GMT 44.38886 26.46901 33,975 300 482 0
2018-01-12 01:43:45 GMT 44.38165 26.48647 33,975 300 481 0
2018-01-12 01:43:43 GMT 44.37955 26.49159 33,975 300 481 0
2018-01-12 01:43:41 GMT 44.37744 26.49667 33,975 300 481 0
2018-01-12 01:43:35 GMT 44.37033 26.51390 33,975 300 481 0
2018-01-12 01:43:32 GMT 44.36659 26.52302 33,975 300 481 0
2018-01-12 01:43:30 GMT 44.36600 26.52440 33,975 300 481 0
2018-01-12 01:43:25 GMT 44.35991 26.53911 33,975 300 481 0
2018-01-12 01:43:23 GMT 44.35660 26.54719 33,975 300 481 0
2018-01-12 01:43:21 GMT 44.35437 26.55255 33,975 300 480 0
2018-01-12 01:43:15 GMT 44.34782 26.56834 33,975 300 480 0
2018-01-12 01:43:12 GMT 44.34563 26.57370 33,975 300 480 0
2018-01-12 01:43:10 GMT 44.34338 26.57907 33,975 300 480 0
2018-01-12 01:43:04 GMT 44.33617 26.59649 34,000 300 480 -64
2018-01-12 01:43:00 GMT 44.33174 26.60721 34,000 300 480 0
2018-01-12 01:42:53 GMT 44.32484 26.62380 34,000 301 479 0
2018-01-12 01:42:51 GMT 44.32276 26.62885 34,000 301 479 0
2018-01-12 01:42:49 GMT 44.32052 26.63421 34,000 301 479 0
2018-01-12 01:42:43 GMT 44.31276 26.65290 33,975 301 479 0
2018-01-12 01:42:41 GMT 44.31010 26.65931 33,975 301 479 0
2018-01-12 01:42:39 GMT 44.30910 26.66173 33,975 301 479 0
2018-01-12 01:42:33 GMT 44.30164 26.67964 34,000 301 479 0
2018-01-12 01:42:31 GMT 44.29999 26.68363 34,000 301 479 0
2018-01-12 01:42:29 GMT 44.29743 26.68981 34,000 301 479 0
2018-01-12 01:42:23 GMT 44.29033 26.70685 34,000 301 479 0
2018-01-12 01:42:21 GMT 44.28878 26.71058 34,000 301 479 0
2018-01-12 01:42:18 GMT 44.28575 26.71781 34,000 301 479 0
2018-01-12 01:42:14 GMT 44.28109 26.72900 34,000 301 479 0
2018-01-12 01:42:11 GMT 44.27701 26.73889 34,000 301 479 0
2018-01-12 01:42:09 GMT 44.27431 26.74530 34,000 301 479 0
2018-01-12 01:42:03 GMT 44.26876 26.75861 34,000 301 479 0
2018-01-12 01:42:01 GMT 44.26578 26.76578 34,000 301 479 0
2018-01-12 01:41:58 GMT 44.26308 26.77221 34,000 301 479 0
2018-01-12 01:41:52 GMT 44.25586 26.78949 34,000 301 479 0
2018-01-12 01:41:50 GMT 44.25242 26.79780 34,000 301 479 0
2018-01-12 01:41:48 GMT 44.25188 26.79912 34,000 301 479 0
2018-01-12 01:41:42 GMT 44.24560 26.81403 34,000 301 479 0
2018-01-12 01:41:40 GMT 44.24283 26.82064 34,000 301 479 0
2018-01-12 01:41:38 GMT 44.24039 26.82652 34,000 301 479 0
2018-01-12 01:41:31 GMT 44.23259 26.84516 34,000 301 479 0
2018-01-12 01:41:30 GMT 44.23146 26.84777 34,000 301 479 0
2018-01-12 01:41:29 GMT 44.23091 26.84911 34,000 301 479 0
2018-01-12 01:41:27 GMT 44.22858 26.85471 34,000 301 479 0
2018-01-12 01:41:21 GMT 44.22089 26.87308 34,000 301 479 0
2018-01-12 01:41:19 GMT 44.21988 26.87544 34,000 301 479 0
2018-01-12 01:41:17 GMT 44.21713 26.88207 34,000 301 479 0
2018-01-12 01:41:12 GMT 44.21210 26.89406 34,000 301 479 0
2018-01-12 01:41:09 GMT 44.20819 26.90337 34,000 301 479 0
2018-01-12 01:41:07 GMT 44.20596 26.90866 34,000 301 478 0
2018-01-12 01:41:01 GMT 44.19960 26.92383 34,000 301 478 0
2018-01-12 01:40:59 GMT 44.19772 26.92836 34,000 301 479 0
2018-01-12 01:40:57 GMT 44.19427 26.93658 33,975 301 479 0
2018-01-12 01:40:51 GMT 44.18843 26.95036 33,975 301 479 0
2018-01-12 01:40:49 GMT 44.18557 26.95731 34,000 301 479 0
2018-01-12 01:40:46 GMT 44.18287 26.96365 34,000 301 478 0
2018-01-12 01:40:41 GMT 44.17708 26.97750 34,000 301 478 0
2018-01-12 01:40:39 GMT 44.17406 26.98466 34,000 301 478 0
2018-01-12 01:40:35 GMT 44.17114 26.99151 34,000 301 478 0
2018-01-12 01:40:35 GMT 44.17114 26.99151 34,000 301 478 0
2018-01-12 01:40:30 GMT 44.16546 27.00505 34,000 301 478 -64
2018-01-12 01:40:28 GMT 44.16266 27.01174 34,000 301 479 -64
2018-01-12 01:40:26 GMT 44.15987 27.01838 34,000 301 478 -64
2018-01-12 01:40:19 GMT 44.15163 27.03801 34,000 301 479 0
2018-01-12 01:40:17 GMT 44.15107 27.03931 34,000 301 479 0
2018-01-12 01:40:14 GMT 44.14751 27.04783 34,000 301 479 0
2018-01-12 01:40:10 GMT 44.14261 27.05952 34,000 301 478 0
2018-01-12 01:40:08 GMT 44.13925 27.06750 34,000 301 479 0
2018-01-12 01:40:04 GMT 44.13593 27.07542 34,000 301 479 0
2018-01-12 01:40:00 GMT 44.13157 27.08581 34,000 301 479 0
2018-01-12 01:39:57 GMT 44.12836 27.09346 34,000 301 479 0
2018-01-12 01:39:55 GMT 44.12468 27.10223 34,000 301 478 0
2018-01-12 01:39:52 GMT 44.12347 27.10519 34,000 301 478 0
2018-01-12 01:39:50 GMT 44.12049 27.11236 34,000 301 478 0
2018-01-12 01:39:47 GMT 44.11716 27.12033 34,000 301 478 0
2018-01-12 01:39:44 GMT 44.11351 27.12904 34,000 301 478 0
2018-01-12 01:39:42 GMT 44.11225 27.13198 34,000 301 478 0
2018-01-12 01:39:39 GMT 44.10904 27.13970 34,000 301 478 0
2018-01-12 01:39:37 GMT 44.10530 27.14875 34,000 300 478 0
2018-01-12 01:39:34 GMT 44.10275 27.15480 34,000 300 478 0
2018-01-12 01:39:32 GMT 44.10040 27.16044 34,000 300 478 0
2018-01-12 01:39:29 GMT 44.09766 27.16708 34,000 300 478 0
2018-01-12 01:39:27 GMT 44.09414 27.17553 34,000 300 478 0
2018-01-12 01:39:25 GMT 44.09303 27.17820 34,000 300 478 0
2018-01-12 01:39:23 GMT 44.09093 27.18325 34,000 300 478 0
2018-01-12 01:39:20 GMT 44.08748 27.19149 34,000 301 478 0
2018-01-12 01:39:18 GMT 44.08506 27.19731 34,000 301 478 0
2018-01-12 01:39:16 GMT 44.08162 27.20555 34,000 301 478 0
2018-01-12 01:39:12 GMT 44.07817 27.21379 34,000 301 478 0
2018-01-12 01:39:10 GMT 44.07696 27.21673 34,000 301 478 0
2018-01-12 01:39:08 GMT 44.07473 27.22203 34,000 301 478 0
2018-01-12 01:39:05 GMT 44.07077 27.23158 34,000 301 478 0
2018-01-12 01:39:02 GMT 44.06709 27.24034 34,000 301 478 0
2018-01-12 01:39:00 GMT 44.06532 27.24459 34,000 301 478 0
2018-01-12 01:38:56 GMT 44.05980 27.25785 34,000 301 478 0
2018-01-12 01:38:53 GMT 44.05701 27.26449 33,975 301 478 0
2018-01-12 01:38:50 GMT 44.05471 27.27003 33,975 301 477 64
2018-01-12 01:38:48 GMT 44.05215 27.27612 33,975 301 478 64
2018-01-12 01:38:45 GMT 44.04857 27.28461 33,975 301 478 0
2018-01-12 01:38:42 GMT 44.04480 27.29357 33,975 301 478 0
2018-01-12 01:38:37 GMT 44.03947 27.30601 33,975 301 477 0
2018-01-12 01:38:35 GMT 44.03711 27.31149 34,000 301 478 0
2018-01-12 01:38:33 GMT 44.03416 27.31834 34,000 302 477 0
2018-01-12 01:38:27 GMT 44.02799 27.33213 34,000 302 478 0
2018-01-12 01:38:24 GMT 44.02366 27.34177 34,000 303 478 0
2018-01-12 01:38:21 GMT 44.02039 27.34899 34,000 303 478 0
2018-01-12 01:38:17 GMT 44.01672 27.35704 34,000 303 478 0
2018-01-12 01:38:15 GMT 44.01253 27.36642 34,000 303 478 0
2018-01-12 01:38:12 GMT 44.01007 27.37185 34,000 303 478 0
2018-01-12 01:38:06 GMT 44.00372 27.38585 34,000 303 477 0
2018-01-12 01:38:03 GMT 44.00034 27.39332 34,000 303 477 0
2018-01-12 01:38:01 GMT 43.99795 27.39850 34,000 303 477 0
2018-01-12 01:37:59 GMT 43.99340 27.40860 34,000 303 477 0
2018-01-12 01:37:56 GMT 43.99233 27.41095 34,000 303 477 0
2018-01-12 01:37:54 GMT 43.98930 27.41769 34,000 303 477 0
2018-01-12 01:37:52 GMT 43.98624 27.42443 34,000 303 477 0
2018-01-12 01:37:50 GMT 43.98495 27.42724 34,000 303 477 0
2018-01-12 01:37:46 GMT 43.97990 27.43835 34,000 303 476 0
2018-01-12 01:37:44 GMT 43.97650 27.44588 34,000 303 476 0
2018-01-12 01:37:42 GMT 43.97429 27.45081 33,975 303 476 0
2018-01-12 01:37:40 GMT 43.97357 27.45235 33,975 303 477 0
2018-01-12 01:37:36 GMT 43.96845 27.46373 33,975 303 477 0
2018-01-12 01:37:34 GMT 43.96491 27.47144 34,000 303 477 0
2018-01-12 01:37:31 GMT 43.96198 27.47796 34,000 303 477 0
2018-01-12 01:37:26 GMT 43.95649 27.49008 34,000 303 476 0
2018-01-12 01:37:23 GMT 43.95285 27.49806 34,000 303 476 0
2018-01-12 01:37:21 GMT 43.94992 27.50453 33,975 303 476 0
2018-01-12 01:37:15 GMT 43.94357 27.51845 34,000 303 476 0
2018-01-12 01:37:13 GMT 43.94124 27.52363 34,000 303 476 0
2018-01-12 01:37:10 GMT 43.93772 27.53135 34,000 303 476 0
2018-01-12 01:37:05 GMT 43.93213 27.54375 34,000 303 476 0
2018-01-12 01:37:03 GMT 43.92860 27.55149 34,000 303 476 0
2018-01-12 01:37:00 GMT 43.92544 27.55849 34,000 303 475 0
2018-01-12 01:36:57 GMT 43.92146 27.56725 34,000 303 476 0
2018-01-12 01:36:55 GMT 43.92027 27.56980 34,000 303 476 0
2018-01-12 01:36:53 GMT 43.91698 27.57702 34,000 303 476 0
2018-01-12 01:36:49 GMT 43.91382 27.58399 34,000 303 476 0
2018-01-12 01:36:45 GMT 43.90842 27.59587 34,000 303 476 0
2018-01-12 01:36:42 GMT 43.90490 27.60354 34,000 303 476 0
2018-01-12 01:36:38 GMT 43.89983 27.61459 34,000 303 476 0
2018-01-12 01:36:35 GMT 43.89642 27.62212 34,000 303 476 0
2018-01-12 01:36:31 GMT 43.89257 27.63061 34,000 303 476 0
2018-01-12 01:36:29 GMT 43.88973 27.63676 34,000 303 476 0
2018-01-12 01:36:24 GMT 43.88434 27.64863 34,000 303 476 0
2018-01-12 01:36:21 GMT 43.88037 27.65736 34,000 303 475 0
2018-01-12 01:36:18 GMT 43.87744 27.66377 34,000 303 475 0
2018-01-12 01:36:13 GMT 43.87143 27.67685 34,000 303 476 0
2018-01-12 01:36:11 GMT 43.86859 27.68306 34,000 303 476 0
2018-01-12 01:36:09 GMT 43.86507 27.69079 34,000 303 476 0
2018-01-12 01:36:04 GMT 43.86003 27.70183 34,000 303 475 0
2018-01-12 01:36:01 GMT 43.85637 27.70976 34,000 303 475 0
2018-01-12 01:35:58 GMT 43.85342 27.71622 34,000 303 475 0
2018-01-12 01:35:53 GMT 43.84758 27.72904 33,975 303 476 0
2018-01-12 01:35:49 GMT 43.84287 27.73926 34,000 303 476 0
2018-01-12 01:35:47 GMT 43.84049 27.74444 33,975 303 476 0
2018-01-12 01:35:43 GMT 43.83592 27.75441 34,000 303 476 0
2018-01-12 01:35:41 GMT 43.83224 27.76239 33,975 303 476 0
2018-01-12 01:35:37 GMT 43.82884 27.76984 33,975 303 476 0
2018-01-12 01:35:32 GMT 43.82330 27.78187 34,000 303 475 0
2018-01-12 01:35:30 GMT 43.82023 27.78854 34,000 303 476 0
2018-01-12 01:35:27 GMT 43.81636 27.79701 34,000 303 476 64
2018-01-12 01:35:22 GMT 43.81142 27.80774 33,975 303 475 64
2018-01-12 01:35:19 GMT 43.80822 27.81470 33,975 303 475 0
2018-01-12 01:35:17 GMT 43.80482 27.82209 33,975 303 475 0
2018-01-12 01:35:12 GMT 43.79938 27.83386 33,975 303 475 0
2018-01-12 01:35:10 GMT 43.79644 27.84027 34,000 303 475 0
2018-01-12 01:35:06 GMT 43.79251 27.84875 34,000 303 475 0
2018-01-12 01:35:02 GMT 43.78711 27.86050 34,000 303 476 0
2018-01-12 01:35:00 GMT 43.78359 27.86820 33,975 303 476 0
2018-01-12 01:34:57 GMT 43.78019 27.87565 33,975 303 475 0
2018-01-12 01:34:55 GMT 43.77959 27.87689 33,975 303 475 0
2018-01-12 01:34:52 GMT 43.77535 27.88611 34,000 303 475 -64
2018-01-12 01:34:49 GMT 43.77219 27.89301 34,000 303 475 -64
2018-01-12 01:34:45 GMT 43.76697 27.90432 34,000 303 475 0
2018-01-12 01:34:41 GMT 43.76311 27.91273 34,000 303 475 0
2018-01-12 01:34:38 GMT 43.75943 27.92064 34,000 303 474 0
2018-01-12 01:34:36 GMT 43.75636 27.92731 34,000 303 474 0
2018-01-12 01:34:34 GMT 43.75411 27.93210 34,000 303 474 0
2018-01-12 01:34:31 GMT 43.75114 27.93849 34,000 303 474 0
2018-01-12 01:34:29 GMT 43.74728 27.94693 34,000 303 474 0
2018-01-12 01:34:26 GMT 43.74360 27.95484 34,000 303 474 0
2018-01-12 01:34:23 GMT 43.74184 27.95867 34,000 303 474 0
2018-01-12 01:34:21 GMT 43.73904 27.96480 34,000 303 474 0
2018-01-12 01:34:18 GMT 43.73538 27.97272 34,000 303 474 0
2018-01-12 01:34:15 GMT 43.73172 27.98064 33,975 303 474 0
2018-01-12 01:34:13 GMT 43.72926 27.98597 34,000 303 474 0
2018-01-12 01:34:10 GMT 43.72675 27.99133 34,000 303 474 0
2018-01-12 01:34:05 GMT 43.72005 28.00585 33,975 303 474 0
2018-01-12 01:34:02 GMT 43.71674 28.01298 33,975 303 474 0
2018-01-12 01:34:00 GMT 43.71465 28.01762 33,975 303 474 0
2018-01-12 01:33:57 GMT 43.71089 28.02574 33,975 303 474 0
2018-01-12 01:33:54 GMT 43.70746 28.03315 33,975 303 474 0
2018-01-12 01:33:51 GMT 43.70426 28.04005 33,975 303 474 0
2018-01-12 01:33:47 GMT 43.69919 28.05097 33,975 303 474 0
2018-01-12 01:33:45 GMT 43.69556 28.05889 33,975 303 474 0
2018-01-12 01:33:40 GMT 43.69047 28.06981 34,000 303 474 0
2018-01-12 01:33:37 GMT 43.68718 28.07693 33,975 303 474 0
2018-01-12 01:33:34 GMT 43.68373 28.08432 33,975 303 474 0
2018-01-12 01:33:30 GMT 43.67857 28.09551 33,975 303 474 0
2018-01-12 01:33:26 GMT 43.67441 28.10443 34,000 303 474 0
2018-01-12 01:33:24 GMT 43.67135 28.11107 34,000 303 474 0
2018-01-12 01:33:19 GMT 43.66567 28.12323 34,000 303 474 0
2018-01-12 01:33:16 GMT 43.66214 28.13088 34,000 303 474 0
2018-01-12 01:33:13 GMT 43.65834 28.13905 33,975 303 474 0
2018-01-12 01:33:08 GMT 43.65255 28.15149 34,000 303 474 -64
2018-01-12 01:33:05 GMT 43.64983 28.15732 34,000 303 474 0
2018-01-12 01:33:03 GMT 43.64676 28.16396 34,000 303 474 0
2018-01-12 01:32:59 GMT 43.64200 28.17412 34,000 303 474 0
2018-01-12 01:32:58 GMT 43.64140 28.17540 34,000 303 474 0
2018-01-12 01:32:55 GMT 43.63728 28.18434 33,975 303 474 0
2018-01-12 01:32:52 GMT 43.63362 28.19220 34,000 303 474 0
2018-01-12 01:32:47 GMT 43.62877 28.20267 34,000 303 474 0
2018-01-12 01:32:45 GMT 43.62547 28.20976 33,975 303 474 0
2018-01-12 01:32:42 GMT 43.62196 28.21740 33,975 303 474 0
2018-01-12 01:32:37 GMT 43.61613 28.22988 33,975 303 474 0
2018-01-12 01:32:33 GMT 43.61093 28.24108 33,975 303 474 0
2018-01-12 01:32:26 GMT 43.60373 28.25664 33,975 303 475 0
2018-01-12 01:32:22 GMT 43.59850 28.26782 33,975 303 475 0
2018-01-12 01:32:17 GMT 43.59325 28.27900 34,000 303 475 0
2018-01-12 01:32:15 GMT 43.59086 28.28411 34,000 303 475 0
2018-01-12 01:32:12 GMT 43.58649 28.29352 34,000 303 475 0
2018-01-12 01:32:07 GMT 43.58075 28.30570 34,000 303 475 0
2018-01-12 01:32:04 GMT 43.57648 28.31491 34,000 303 475 0
2018-01-12 01:32:02 GMT 43.57373 28.32073 34,000 303 475 0
2018-01-12 01:31:56 GMT 43.56811 28.33272 34,000 303 475 0
2018-01-12 01:31:53 GMT 43.56410 28.34133 34,000 303 475 0
2018-01-12 01:31:49 GMT 43.55953 28.35100 34,000 303 475 0
2018-01-12 01:31:46 GMT 43.55594 28.35865 34,000 303 475 0
2018-01-12 01:31:43 GMT 43.55176 28.36755 34,000 303 475 0
2018-01-12 01:31:40 GMT 43.54866 28.37417 34,000 303 476 0
2018-01-12 01:31:36 GMT 43.54413 28.38382 34,000 303 475 0
2018-01-12 01:31:33 GMT 43.53937 28.39404 34,000 303 475 0
2018-01-12 01:31:30 GMT 43.53700 28.39907 33,975 303 476 0
2018-01-12 01:31:25 GMT 43.53137 28.41104 34,000 303 476 0
2018-01-12 01:31:21 GMT 43.52445 28.42578 34,000 303 476 0
2018-01-12 01:31:16 GMT 43.51927 28.43677 34,000 303 476 0
2018-01-12 01:31:12 GMT 43.51474 28.44641 34,000 303 475 0
2018-01-12 01:31:10 GMT 43.51227 28.45172 34,000 303 476 0
2018-01-12 01:31:05 GMT 43.50700 28.46296 34,000 303 475 0
2018-01-12 01:31:01 GMT 43.50174 28.47414 34,000 303 475 0
2018-01-12 01:30:57 GMT 43.49721 28.48378 34,000 303 475 0
2018-01-12 01:30:55 GMT 43.49469 28.48908 34,000 303 475 0
2018-01-12 01:30:50 GMT 43.48789 28.50357 34,000 303 476 0
2018-01-12 01:30:44 GMT 43.48193 28.51626 34,000 303 475 0
2018-01-12 01:30:40 GMT 43.47704 28.52666 34,000 303 475 0
2018-01-12 01:30:38 GMT 43.47476 28.53143 34,000 303 475 0
2018-01-12 01:30:34 GMT 43.47011 28.54133 34,000 303 475 -64
2018-01-12 01:30:30 GMT 43.46499 28.55222 34,000 303 475 0
2018-01-12 01:30:28 GMT 43.46294 28.55654 34,000 303 475 0
2018-01-12 01:30:23 GMT 43.45712 28.56896 33,975 303 475 0
2018-01-12 01:30:20 GMT 43.45232 28.57910 34,000 303 475 0
2018-01-12 01:30:18 GMT 43.45006 28.58394 34,000 303 475 0
2018-01-12 01:30:12 GMT 43.44338 28.59811 34,000 303 475 0
2018-01-12 01:30:08 GMT 43.43692 28.61178 33,975 303 475 0
2018-01-12 01:30:02 GMT 43.43133 28.62370 34,000 303 475 0
2018-01-12 01:29:55 GMT 43.42351 28.64012 34,000 303 475 0
2018-01-12 01:29:55 GMT 43.42281 28.64168 34,000 303 475 0
2018-01-12 01:29:55 GMT 43.42232 28.64263 34,000 303 475 0
2018-01-12 01:29:52 GMT 43.41932 28.64901 34,000 303 475 0
2018-01-12 01:29:45 GMT 43.41085 28.66693 34,000 303 475 0
2018-01-12 01:29:45 GMT 43.41023 28.66819 34,000 303 475 0
2018-01-12 01:29:44 GMT 43.41023 28.66819 34,000 303 475 0
2018-01-12 01:29:41 GMT 43.40680 28.67556 33,975 303 475 0
2018-01-12 01:29:34 GMT 43.39774 28.69476 33,975 303 475 0
2018-01-12 01:29:31 GMT 43.39471 28.70108 33,975 303 475 0
2018-01-12 01:29:23 GMT 43.38528 28.72101 34,000 303 475 0
2018-01-12 01:29:21 GMT 43.38245 28.72709 33,975 304 474 0
2018-01-12 01:29:14 GMT 43.37334 28.74624 33,975 304 474 0
2018-01-12 01:29:12 GMT 43.37216 28.74880 33,975 304 474 0
2018-01-12 01:29:10 GMT 43.36940 28.75461 33,975 304 474 0
2018-01-12 01:29:02 GMT 43.35942 28.77556 34,000 304 475 0
2018-01-12 01:29:00 GMT 43.35773 28.77907 34,000 304 475 0
2018-01-12 01:28:53 GMT 43.34875 28.79804 34,000 303 475 0
2018-01-12 01:28:52 GMT 43.34814 28.79929 34,000 304 476 0
2018-01-12 01:28:50 GMT 43.34586 28.80406 34,000 304 476 0
2018-01-12 01:28:42 GMT 43.33603 28.82474 34,000 304 475 0
2018-01-12 01:28:42 GMT 43.33603 28.82474 34,000 304 475 0
2018-01-12 01:28:40 GMT 43.33301 28.83106 34,000 304 475 0
2018-01-12 01:28:32 GMT 43.32353 28.85099 34,000 304 475 0
2018-01-12 01:28:30 GMT 43.32111 28.85597 34,000 304 475 0
2018-01-12 01:28:22 GMT 43.31103 28.87718 33,975 304 475 0
2018-01-12 01:28:19 GMT 43.30852 28.88247 34,000 304 475 0
2018-01-12 01:28:12 GMT 43.29913 28.90209 34,000 304 475 0
2018-01-12 01:28:10 GMT 43.29684 28.90688 34,000 304 475 0
2018-01-12 01:28:08 GMT 43.29502 28.91065 34,000 304 475 0
2018-01-12 01:28:00 GMT 43.28399 28.93387 34,000 304 475 0
2018-01-12 01:27:58 GMT 43.28270 28.93658 34,000 304 475 0
2018-01-12 01:27:49 GMT 43.27189 28.95931 34,000 304 474 0
2018-01-12 01:27:49 GMT 43.27189 28.95931 34,000 304 474 0
2018-01-12 01:27:47 GMT 43.26961 28.96411 33,975 304 475 0
2018-01-12 01:27:40 GMT 43.26132 28.98149 33,975 304 475 0
2018-01-12 01:27:37 GMT 43.25748 28.98954 33,975 304 475 0
2018-01-12 01:27:28 GMT 43.24689 29.01169 34,000 304 475 -64
2018-01-12 01:27:26 GMT 43.24434 29.01694 34,000 304 475 -64
2018-01-12 01:27:20 GMT 43.23688 29.03259 34,000 304 476 64
2018-01-12 01:27:17 GMT 43.23436 29.03789 33,975 304 476 64
2018-01-12 01:27:15 GMT 43.23061 29.04568 33,975 304 475 0
2018-01-12 01:27:08 GMT 43.22145 29.06484 34,000 304 475 0
2018-01-12 01:27:05 GMT 43.21852 29.07091 34,000 304 475 0
2018-01-12 01:26:59 GMT 43.21175 29.08496 34,000 304 476 0
2018-01-12 01:26:57 GMT 43.20946 29.08975 33,975 304 476 0
2018-01-12 01:26:54 GMT 43.20574 29.09755 34,000 304 476 0
2018-01-12 01:26:49 GMT 43.19810 29.11339 34,000 304 476 0
2018-01-12 01:26:47 GMT 43.19675 29.11619 34,000 304 476 0
2018-01-12 01:26:43 GMT 43.19242 29.12521 34,000 304 475 64
2018-01-12 01:26:37 GMT 43.18530 29.14006 34,000 304 475 0
2018-01-12 01:26:35 GMT 43.18286 29.14507 33,975 304 475 0
2018-01-12 01:26:32 GMT 43.17999 29.15111 33,975 304 475 0
2018-01-12 01:26:29 GMT 43.17503 29.16142 33,975 304 475 0
2018-01-12 01:26:27 GMT 43.17283 29.16596 33,975 304 475 0
2018-01-12 01:26:25 GMT 43.17040 29.17093 34,000 304 475 0
2018-01-12 01:26:22 GMT 43.16691 29.17825 34,000 304 475 0
2018-01-12 01:26:19 GMT 43.16221 29.18799 33,975 304 475 0
2018-01-12 01:26:16 GMT 43.15869 29.19527 33,975 304 475 0
2018-01-12 01:26:11 GMT 43.15388 29.20532 33,975 304 475 0
2018-01-12 01:26:07 GMT 43.14941 29.21461 33,975 304 475 0
2018-01-12 01:26:05 GMT 43.14615 29.22140 33,975 304 475 0
2018-01-12 01:26:01 GMT 43.14166 29.23066 33,975 304 475 0
2018-01-12 01:25:58 GMT 43.13777 29.23864 33,975 304 475 0
2018-01-12 01:25:56 GMT 43.13549 29.24345 33,975 304 475 0
2018-01-12 01:25:54 GMT 43.13370 29.24720 33,975 304 475 0
2018-01-12 01:25:50 GMT 43.12823 29.25842 33,975 304 475 0
2018-01-12 01:25:47 GMT 43.12436 29.26647 33,975 304 475 0
2018-01-12 01:25:45 GMT 43.12134 29.27275 33,975 304 475 0
2018-01-12 01:25:40 GMT 43.11603 29.28374 33,975 304 475 -64
2018-01-12 01:25:36 GMT 43.11030 29.29550 33,975 304 475 0
2018-01-12 01:25:34 GMT 43.10863 29.29903 33,975 304 475 -64
2018-01-12 01:25:29 GMT 43.10304 29.31054 34,000 304 476 -64
2018-01-12 01:25:26 GMT 43.09941 29.31804 34,000 304 475 0
2018-01-12 01:25:24 GMT 43.09578 29.32552 34,000 304 475 0
2018-01-12 01:25:18 GMT 43.09016 29.33707 34,000 304 475 0
2018-01-12 01:25:15 GMT 43.08596 29.34579 34,000 304 475 0
2018-01-12 01:25:13 GMT 43.08326 29.35135 34,000 304 475 0
2018-01-12 01:25:07 GMT 43.07465 29.36914 34,000 304 476 0
2018-01-12 01:25:05 GMT 43.07346 29.37163 34,000 304 476 0
2018-01-12 01:25:02 GMT 43.07078 29.37711 34,000 304 476 0
2018-01-12 01:24:56 GMT 43.06273 29.39366 34,000 304 476 0
2018-01-12 01:24:54 GMT 43.06105 29.39718 34,000 304 476 0
2018-01-12 01:24:52 GMT 43.05789 29.40367 34,000 304 477 0
2018-01-12 01:24:46 GMT 43.05144 29.41698 34,000 304 477 0
2018-01-12 01:24:44 GMT 43.04802 29.42400 34,000 304 477 0
2018-01-12 01:24:42 GMT 43.04560 29.42904 34,000 304 477 0
2018-01-12 01:24:36 GMT 43.03708 29.44656 34,000 304 477 0
2018-01-12 01:24:34 GMT 43.03587 29.44911 34,000 304 477 0
2018-01-12 01:24:31 GMT 43.03307 29.45487 34,000 304 477 0
2018-01-12 01:24:25 GMT 43.02544 29.47070 34,000 304 477 64
2018-01-12 01:24:23 GMT 43.02297 29.47566 34,000 304 477 0
2018-01-12 01:24:20 GMT 43.01958 29.48271 33,975 304 477 0
2018-01-12 01:24:13 GMT 43.01047 29.50148 34,000 304 477 0
2018-01-12 01:24:10 GMT 43.00766 29.50725 34,000 304 476 0
2018-01-12 01:24:03 GMT 42.99875 29.52550 34,000 304 476 0
2018-01-12 01:24:01 GMT 42.99472 29.53381 34,000 304 476 0
2018-01-12 01:23:54 GMT 42.98685 29.55002 34,000 304 476 0
2018-01-12 01:23:52 GMT 42.98561 29.55252 34,000 304 476 0
2018-01-12 01:23:50 GMT 42.98257 29.55878 34,000 304 476 0
2018-01-12 01:23:42 GMT 42.97344 29.57748 34,000 304 475 0
2018-01-12 01:23:40 GMT 42.96976 29.58500 34,000 304 475 0
2018-01-12 01:23:34 GMT 42.96260 29.59972 33,975 304 475 0
2018-01-12 01:23:32 GMT 42.96013 29.60469 33,975 304 475 0
2018-01-12 01:23:29 GMT 42.95709 29.61090 33,975 304 475 0
2018-01-12 01:23:23 GMT 42.94844 29.62862 34,000 304 475 0
2018-01-12 01:23:21 GMT 42.94785 29.62987 34,000 304 475 0
2018-01-12 01:23:19 GMT 42.94441 29.63709 34,000 304 475 0
2018-01-12 01:23:13 GMT 42.93759 29.65082 34,000 304 475 0
2018-01-12 01:23:11 GMT 42.93466 29.65674 33,975 304 475 0
2018-01-12 01:23:08 GMT 42.93164 29.66302 33,975 304 475 0
2018-01-12 01:23:03 GMT 42.92493 29.67669 33,975 304 474 0
2018-01-12 01:23:00 GMT 42.92214 29.68238 33,975 304 475 -64
2018-01-12 01:22:58 GMT 42.91911 29.68859 34,000 304 475 -64
2018-01-12 01:22:51 GMT 42.91081 29.70550 34,000 304 475 -64
2018-01-12 01:22:48 GMT 42.90619 29.71495 34,000 304 474 0
2018-01-12 01:22:41 GMT 42.89826 29.73110 34,000 304 474 0
2018-01-12 01:22:39 GMT 42.89584 29.73607 34,000 304 474 64
2018-01-12 01:22:37 GMT 42.89328 29.74130 34,000 304 474 64
2018-01-12 01:22:32 GMT 42.88746 29.75320 34,000 304 474 0
2018-01-12 01:22:30 GMT 42.88564 29.75693 34,000 304 474 0
2018-01-12 01:22:28 GMT 42.88261 29.76318 34,000 304 474 0
2018-01-12 01:22:26 GMT 42.88080 29.76687 34,000 304 474 0
2018-01-12 01:22:20 GMT 42.87337 29.78202 34,000 304 473 0
2018-01-12 01:22:16 GMT 42.86814 29.79263 34,000 304 474 0
2018-01-12 01:22:09 GMT 42.86023 29.80878 34,000 304 473 0
2018-01-12 01:22:05 GMT 42.85497 29.81938 34,000 304 474 0
2018-01-12 01:22:00 GMT 42.84878 29.83200 33,975 304 474 0
2018-01-12 01:21:55 GMT 42.84279 29.84417 34,000 304 474 0
2018-01-12 01:21:50 GMT 42.83606 29.85777 34,000 304 474 0
2018-01-12 01:21:45 GMT 42.83011 29.86985 34,000 304 473 0
2018-01-12 01:21:39 GMT 42.82368 29.88321 33,975 304 473 64
2018-01-12 01:21:35 GMT 42.81721 29.89609 33,975 304 473 0
2018-01-12 01:21:29 GMT 42.81111 29.90845 33,975 304 474 -64
2018-01-12 01:21:24 GMT 42.80478 29.92133 33,975 304 474 0
2018-01-12 01:21:19 GMT 42.79854 29.93391 33,975 304 474 0
2018-01-12 01:21:13 GMT 42.79184 29.94748 33,975 304 474 0
2018-01-12 01:21:08 GMT 42.78602 29.95940 33,975 304 474 0
2018-01-12 01:21:03 GMT 42.77939 29.97270 34,000 304 473 -64
2018-01-12 01:20:58 GMT 42.77364 29.98431 34,000 304 473 0
2018-01-12 01:20:52 GMT 42.76570 30.00035 34,000 304 473 0
2018-01-12 01:20:48 GMT 42.76093 30.00999 34,000 304 473 0
2018-01-12 01:20:41 GMT 42.75223 30.02749 33,975 304 473 0
2018-01-12 01:20:38 GMT 42.74845 30.03515 33,975 304 473 0
2018-01-12 01:20:31 GMT 42.73989 30.05240 33,975 304 473 -64
2018-01-12 01:20:28 GMT 42.73608 30.06003 34,000 304 473 0
2018-01-12 01:20:20 GMT 42.72625 30.07974 34,000 305 474 -64
2018-01-12 01:20:17 GMT 42.72295 30.08643 34,000 305 474 64
2018-01-12 01:20:10 GMT 42.71494 30.10241 33,975 305 474 384
2018-01-12 01:20:07 GMT 42.71077 30.11084 33,950 305 475 576
2018-01-12 01:20:01 GMT 42.70290 30.12663 33,875 305 474 1088
2018-01-12 01:19:59 GMT 42.70042 30.13156 33,825 305 474 1152
2018-01-12 01:19:57 GMT 42.69800 30.13643 33,775 305 474 1152
2018-01-12 01:19:51 GMT 42.68962 30.15323 33,650 305 474 1280
2018-01-12 01:19:48 GMT 42.68706 30.15841 33,600 305 474 1280
2018-01-12 01:19:46 GMT 42.68545 30.16159 33,575 305 474 1280
2018-01-12 01:19:39 GMT 42.67625 30.18007 33,400 304 474 1344
2018-01-12 01:19:36 GMT 42.67241 30.18775 33,325 304 474 1344
2018-01-12 01:19:30 GMT 42.66461 30.20359 33,175 304 475 1472
2018-01-12 01:19:26 GMT 42.66033 30.21221 33,100 304 475 1536
2018-01-12 01:19:19 GMT 42.65140 30.23032 32,900 304 475 1344
2018-01-12 01:19:16 GMT 42.64774 30.23775 32,850 304 476 1152
2018-01-12 01:19:09 GMT 42.63904 30.25535 32,725 305 475 1088
2018-01-12 01:19:05 GMT 42.63492 30.26346 32,650 305 475 1152
2018-01-12 01:18:59 GMT 42.62611 30.28158 32,525 302 474 1088
2018-01-12 01:18:55 GMT 42.62253 30.28937 32,450 301 473 1280
2018-01-12 01:18:48 GMT 42.61462 30.30847 32,275 298 472 1344
2018-01-12 01:18:45 GMT 42.61192 30.31562 32,225 297 472 1280
2018-01-12 01:18:37 GMT 42.60498 30.33562 32,050 294 470 1024
2018-01-12 01:18:35 GMT 42.60279 30.34270 32,025 292 470 576
2018-01-12 01:18:33 GMT 42.60173 30.34624 32,000 291 469 320
2018-01-12 01:18:27 GMT 42.59688 30.36415 32,000 289 467 64
2018-01-12 01:18:23 GMT 42.59451 30.37420 31,975 287 466 -64
2018-01-12 01:18:17 GMT 42.59083 30.39246 32,000 284 465 0
2018-01-12 01:18:14 GMT 42.58946 30.40042 32,000 283 465 0
2018-01-12 01:18:12 GMT 42.58868 30.40523 32,000 283 465 0
2018-01-12 01:18:06 GMT 42.58598 30.42233 32,000 283 465 0
2018-01-12 01:18:02 GMT 42.58388 30.43600 32,000 283 465 0
2018-01-12 01:17:56 GMT 42.58129 30.45257 32,000 283 465 0
2018-01-12 01:17:53 GMT 42.57998 30.46081 32,000 283 465 0
2018-01-12 01:17:51 GMT 42.57924 30.46534 32,000 283 465 0
2018-01-12 01:17:45 GMT 42.57655 30.48244 31,975 283 465 0
2018-01-12 01:17:43 GMT 42.57561 30.48840 32,000 283 465 0
2018-01-12 01:17:41 GMT 42.57468 30.49443 32,000 283 465 0
2018-01-12 01:17:35 GMT 42.57188 30.51203 32,000 283 465 0
2018-01-12 01:17:33 GMT 42.57100 30.51747 32,000 283 465 0
2018-01-12 01:17:29 GMT 42.56937 30.52795 32,000 283 465 0
2018-01-12 01:17:25 GMT 42.56735 30.54049 32,000 283 465 -64
2018-01-12 01:17:23 GMT 42.56648 30.54621 32,000 283 465 -64
2018-01-12 01:17:19 GMT 42.56490 30.55611 32,000 283 465 0
2018-01-12 01:17:15 GMT 42.56255 30.57096 32,000 283 465 0
2018-01-12 01:17:12 GMT 42.56163 30.57664 32,000 283 465 0
2018-01-12 01:17:09 GMT 42.56007 30.58656 32,000 283 465 64
2018-01-12 01:17:04 GMT 42.55783 30.60079 32,000 283 465 0
2018-01-12 01:17:02 GMT 42.55717 30.60504 32,000 283 465 0
2018-01-12 01:16:58 GMT 42.55508 30.61815 31,975 283 465 0
2018-01-12 01:16:52 GMT 42.55257 30.63406 31,975 283 465 0
2018-01-12 01:16:47 GMT 42.55042 30.64770 31,975 283 465 0
2018-01-12 01:16:44 GMT 42.54849 30.65991 31,975 283 464 0
2018-01-12 01:16:41 GMT 42.54785 30.66390 31,975 283 464 0
2018-01-12 01:16:36 GMT 42.54561 30.67807 32,000 283 464 0
2018-01-12 01:16:33 GMT 42.54391 30.68862 32,000 283 464 0
2018-01-12 01:16:31 GMT 42.54325 30.69286 32,000 283 464 0
2018-01-12 01:16:26 GMT 42.54097 30.70704 31,975 283 464 64
2018-01-12 01:16:21 GMT 42.53879 30.72096 31,975 283 464 0
2018-01-12 01:16:15 GMT 42.53609 30.73800 31,975 283 464 0
2018-01-12 01:16:12 GMT 42.53473 30.74652 31,975 283 464 0
2018-01-12 01:16:10 GMT 42.53385 30.75220 31,975 283 464 0
2018-01-12 01:16:04 GMT 42.53082 30.77092 32,000 283 464 -64
2018-01-12 01:16:02 GMT 42.52986 30.77689 32,000 283 464 0
2018-01-12 01:16:00 GMT 42.52913 30.78144 32,000 283 464 0
2018-01-12 01:15:54 GMT 42.52643 30.79817 32,000 283 464 -64
2018-01-12 01:15:50 GMT 42.52482 30.80835 32,000 283 464 0
2018-01-12 01:15:44 GMT 42.52171 30.82764 32,000 283 463 0
2018-01-12 01:15:41 GMT 42.52035 30.83613 32,000 283 463 0
2018-01-12 01:15:39 GMT 42.51951 30.84124 32,000 283 463 0
2018-01-12 01:15:31 GMT 42.51581 30.86422 32,000 283 463 0
2018-01-12 01:15:29 GMT 42.51514 30.86845 32,000 283 463 0
2018-01-12 01:15:19 GMT 42.51057 30.89675 32,000 283 463 0
2018-01-12 01:15:10 GMT 42.50624 30.92339 32,000 283 463 0
2018-01-12 01:15:06 GMT 42.50427 30.93582 31,975 283 463 0
2018-01-12 01:14:58 GMT 42.50070 30.95791 31,975 283 463 0
2018-01-12 01:14:50 GMT 42.49663 30.98307 32,000 283 463 0
2018-01-12 01:14:48 GMT 42.49640 30.98450 32,000 283 463 0
2018-01-12 01:14:38 GMT 42.49186 31.01249 32,000 283 463 0
2018-01-12 01:14:28 GMT 42.48702 31.04245 32,000 283 463 0
2018-01-12 01:14:17 GMT 42.48204 31.07330 31,975 283 463 0
2018-01-12 01:14:07 GMT 42.47743 31.10159 32,000 283 463 0
2018-01-12 01:14:04 GMT 42.47603 31.11010 32,000 283 463 -64
2018-01-12 01:13:57 GMT 42.47291 31.12931 32,000 283 463 0
2018-01-12 01:13:48 GMT 42.46835 31.15704 32,000 283 464 0
2018-01-12 01:13:46 GMT 42.46788 31.15985 32,000 283 464 0
2018-01-12 01:13:36 GMT 42.46285 31.19037 32,000 283 464 0
2018-01-12 01:13:25 GMT 42.45811 31.21925 32,000 283 464 0
2018-01-12 01:13:16 GMT 42.45355 31.24693 32,000 283 464 64
2018-01-12 01:13:15 GMT 42.45332 31.24836 31,975 283 464 64
2018-01-12 01:13:04 GMT 42.44838 31.27833 32,000 283 464 0
2018-01-12 01:12:55 GMT 42.44396 31.30516 31,975 283 464 0
2018-01-12 01:12:45 GMT 42.43945 31.33257 31,975 283 464 0
2018-01-12 01:12:44 GMT 42.43899 31.33513 31,975 283 464 0
2018-01-12 01:12:33 GMT 42.43341 31.36903 32,000 283 464 0
2018-01-12 01:12:23 GMT 42.42892 31.39612 32,000 283 463 0
2018-01-12 01:12:12 GMT 42.42375 31.42720 32,000 283 463 0
2018-01-12 01:12:04 GMT 42.42000 31.44980 31,975 283 463 0
2018-01-12 01:12:02 GMT 42.41917 31.45486 31,975 283 463 0
2018-01-12 01:11:52 GMT 42.41437 31.48363 31,975 283 463 -64
2018-01-12 01:11:42 GMT 42.40918 31.51467 32,000 283 463 0
2018-01-12 01:11:33 GMT 42.40549 31.53688 31,975 283 463 0
2018-01-12 01:11:30 GMT 42.40420 31.54481 31,975 283 463 0
2018-01-12 01:11:19 GMT 42.39908 31.57521 32,000 283 462 64
2018-01-12 01:11:09 GMT 42.39446 31.60273 32,000 283 462 0
2018-01-12 01:11:02 GMT 42.39075 31.62496 31,975 283 462 0
2018-01-12 01:10:57 GMT 42.38861 31.63788 31,975 283 461 0
2018-01-12 01:10:50 GMT 42.38497 31.65921 31,975 283 461 0
2018-01-12 01:10:41 GMT 42.38123 31.68139 32,000 283 461 0
2018-01-12 01:10:31 GMT 42.37619 31.71116 31,975 283 461 -64
2018-01-12 01:10:03 GMT 42.36296 31.78913 32,000 283 461 0
2018-01-12 01:09:52 GMT 42.35765 31.82028 31,975 283 461 0
2018-01-12 01:09:46 GMT 42.35486 31.83685 32,000 283 461 0
2018-01-12 01:09:37 GMT 42.35006 31.86489 32,000 284 461 0
2018-01-12 01:09:08 GMT 42.33665 31.94345 32,000 284 461 0
2018-01-12 01:08:52 GMT 42.32909 31.98744 32,000 284 461 0
2018-01-12 01:08:43 GMT 42.32464 32.01327 32,000 284 461 0
2018-01-12 01:08:31 GMT 42.31873 32.04744 32,000 284 462 0
2018-01-12 01:07:43 GMT 42.29564 32.18087 32,000 284 462 0
2018-01-12 01:07:39 GMT 42.29366 32.19238 32,000 284 462 0
We lost coverage of the aircraft here for a total of 422 minutes
2018-01-11 18:05:51 GMT 28.53488 74.54731 32,000 272 432 0
2018-01-11 18:05:40 GMT 28.53424 74.57229 32,000 272 432 0
2018-01-11 18:05:32 GMT 28.53373 74.59087 32,000 272 432 0
2018-01-11 18:05:21 GMT 28.53308 74.61559 32,000 272 432 0
2018-01-11 18:05:11 GMT 28.53245 74.63805 32,000 272 432 0
2018-01-11 18:04:59 GMT 28.53173 74.66454 32,000 272 432 0
2018-01-11 18:04:49 GMT 28.53113 74.68743 32,000 272 432 0
2018-01-11 18:04:39 GMT 28.53047 74.71032 32,000 272 431 0
2018-01-11 18:04:28 GMT 28.52980 74.73429 32,000 272 431 0
2018-01-11 18:04:16 GMT 28.52903 74.76164 32,000 272 431 0
2018-01-11 18:04:07 GMT 28.52847 74.78336 32,000 272 431 0
2018-01-11 18:03:56 GMT 28.52779 74.80749 32,000 272 430 0
2018-01-11 18:03:45 GMT 28.52707 74.83230 32,000 272 430 0
2018-01-11 18:03:34 GMT 28.52637 74.85619 32,000 272 429 0
2018-01-11 18:03:24 GMT 28.52568 74.88007 32,000 272 429 -64
2018-01-11 18:03:13 GMT 28.52499 74.90368 32,000 272 429 0
2018-01-11 18:03:03 GMT 28.52433 74.92730 32,000 272 428 0
2018-01-11 18:02:51 GMT 28.52358 74.95293 32,000 272 428 0
2018-01-11 18:02:40 GMT 28.52284 74.97762 32,000 272 428 0
2018-01-11 18:02:31 GMT 28.52223 74.99919 32,000 272 428 0
2018-01-11 18:02:19 GMT 28.52147 75.02590 32,000 272 428 0
2018-01-11 18:02:09 GMT 28.52079 75.04852 32,000 273 428 0
2018-01-11 18:01:58 GMT 28.52005 75.07233 32,000 273 428 0
2018-01-11 18:01:48 GMT 28.51932 75.09610 32,000 273 428 0
2018-01-11 18:01:38 GMT 28.51863 75.11854 32,000 273 428 0
2018-01-11 18:01:24 GMT 28.51767 75.15020 32,000 273 428 0
2018-01-11 18:00:14 GMT 28.51273 75.30695 32,000 273 427 0
2018-01-11 18:00:06 GMT 28.51222 75.32306 32,000 273 428 0
2018-01-11 17:59:56 GMT 28.51143 75.34709 32,000 273 428 0
2018-01-11 17:59:45 GMT 28.51068 75.37063 32,000 273 428 0
2018-01-11 17:59:34 GMT 28.50989 75.39489 32,000 273 428 0
2018-01-11 17:59:24 GMT 28.50910 75.41888 32,000 273 428 0
2018-01-11 17:59:12 GMT 28.50824 75.44518 32,000 273 428 0
2018-01-11 17:59:03 GMT 28.50757 75.46633 32,000 273 429 0
2018-01-11 17:58:52 GMT 28.50673 75.49083 32,000 273 429 0
2018-01-11 17:58:41 GMT 28.50594 75.51485 32,000 273 429 0
2018-01-11 17:58:30 GMT 28.50503 75.54051 32,000 273 429 0
2018-01-11 17:57:02 GMT 28.49826 75.73883 32,000 273 429 0
2018-01-11 17:56:54 GMT 28.49770 75.75553 32,000 273 429 0
2018-01-11 17:56:43 GMT 28.49681 75.78003 32,000 273 429 0
2018-01-11 17:56:32 GMT 28.49588 75.80545 32,000 273 429 0
2018-01-11 17:56:22 GMT 28.49514 75.82699 32,000 273 429 0
2018-01-11 17:55:45 GMT 28.49206 75.91176 32,000 273 429 0
2018-01-11 17:55:40 GMT 28.49164 75.92280 32,000 273 429 0
2018-01-11 17:55:29 GMT 28.49081 75.94639 32,000 273 428 0
2018-01-11 17:55:18 GMT 28.48988 75.97040 32,000 273 428 0
2018-01-11 17:55:08 GMT 28.48901 75.99444 32,000 273 428 0
2018-01-11 17:54:57 GMT 28.48815 76.01780 32,000 273 428 0
2018-01-11 17:54:46 GMT 28.48718 76.04408 32,000 273 428 0
2018-01-11 17:54:36 GMT 28.48634 76.06605 32,000 273 428 0
2018-01-11 17:54:25 GMT 28.48544 76.09031 32,000 273 428 0
2018-01-11 17:54:15 GMT 28.48453 76.11407 32,000 273 428 0
2018-01-11 17:54:04 GMT 28.48361 76.13853 32,000 273 428 0
2018-01-11 17:53:53 GMT 28.48274 76.16209 32,000 273 427 0
2018-01-11 17:53:42 GMT 28.48178 76.18625 32,000 273 427 0
2018-01-11 17:53:31 GMT 28.48084 76.21113 32,000 273 427 0
2018-01-11 17:53:21 GMT 28.48000 76.23376 32,000 273 427 0
2018-01-11 17:53:10 GMT 28.47903 76.25799 32,000 273 427 0
2018-01-11 17:53:00 GMT 28.47810 76.28125 32,000 273 427 0
2018-01-11 17:52:44 GMT 28.47675 76.31664 32,000 273 427 0
2018-01-11 17:52:33 GMT 28.47578 76.34035 32,000 273 427 0
2018-01-11 17:52:22 GMT 28.47484 76.36500 32,000 273 427 0
2018-01-11 17:52:12 GMT 28.47391 76.38869 32,000 273 427 0
2018-01-11 17:52:01 GMT 28.47293 76.41309 32,000 273 427 0
2018-01-11 17:51:50 GMT 28.47195 76.43749 32,000 273 427 0
2018-01-11 17:51:39 GMT 28.47098 76.46120 32,000 273 427 0
2018-01-11 17:51:29 GMT 28.47002 76.48449 32,000 273 427 0
2018-01-11 17:51:18 GMT 28.46901 76.50932 32,000 273 427 0
2018-01-11 17:51:08 GMT 28.46809 76.53171 32,000 273 427 0
2018-01-11 17:50:57 GMT 28.46709 76.55569 32,000 273 427 0
2018-01-11 17:50:47 GMT 28.46613 76.57946 32,000 273 427 0
2018-01-11 17:50:36 GMT 28.46506 76.60406 32,000 273 427 0
2018-01-11 17:50:25 GMT 28.46409 76.62808 32,000 273 427 0
2018-01-11 17:50:14 GMT 28.46306 76.65182 32,000 273 428 0
2018-01-11 17:50:04 GMT 28.46205 76.67601 32,000 273 428 0
2018-01-11 17:49:52 GMT 28.46095 76.70116 32,000 273 428 0
2018-01-11 17:49:42 GMT 28.45999 76.72360 32,000 273 428 0
2018-01-11 17:49:32 GMT 28.45898 76.74743 32,000 273 429 0
2018-01-11 17:49:21 GMT 28.45798 76.77193 32,000 273 429 0
2018-01-11 17:49:10 GMT 28.45696 76.79535 32,000 273 429 0
2018-01-11 17:48:59 GMT 28.45594 76.82028 32,000 273 429 0
2018-01-11 17:48:49 GMT 28.45496 76.84350 32,000 273 429 0
2018-01-11 17:48:38 GMT 28.45390 76.86849 32,000 273 429 0
2018-01-11 17:48:28 GMT 28.45291 76.89073 32,000 273 429 0
2018-01-11 17:48:17 GMT 28.45184 76.91592 32,000 273 429 0
2018-01-11 17:48:07 GMT 28.45079 76.93842 32,000 274 429 0
2018-01-11 17:47:54 GMT 28.44947 76.96720 32,000 273 429 0
2018-01-11 17:47:42 GMT 28.44807 76.99461 32,000 274 429 0
2018-01-11 17:47:35 GMT 28.44672 77.01078 32,000 277 430 0
2018-01-11 17:47:23 GMT 28.44342 77.03651 32,000 281 432 64
2018-01-11 17:47:13 GMT 28.43951 77.05881 32,000 284 434 -64
2018-01-11 17:47:02 GMT 28.43369 77.08369 32,000 287 436 64
2018-01-11 17:46:52 GMT 28.42768 77.10604 32,000 287 436 0
2018-01-11 17:46:41 GMT 28.42126 77.12995 32,000 287 436 0
2018-01-11 17:46:30 GMT 28.41490 77.15360 32,000 288 437 64
2018-01-11 17:46:20 GMT 28.40900 77.17547 32,000 287 436 0
2018-01-11 17:46:08 GMT 28.40195 77.20177 32,000 288 437 0
2018-01-11 17:45:59 GMT 28.39649 77.22188 32,000 287 436 0
2018-01-11 17:45:48 GMT 28.38991 77.24640 32,000 287 436 0
2018-01-11 17:45:37 GMT 28.38388 77.26873 32,000 288 436 0
2018-01-11 17:45:26 GMT 28.37714 77.29363 32,000 288 436 64
2018-01-11 17:45:16 GMT 28.37126 77.31526 32,000 288 436 -64
2018-01-11 17:45:05 GMT 28.36493 77.33869 32,000 288 436 64
2018-01-11 17:44:54 GMT 28.35846 77.36271 32,000 288 436 0
2018-01-11 17:44:44 GMT 28.35208 77.38608 32,000 288 436 0
2018-01-11 17:44:33 GMT 28.34575 77.40951 32,000 288 437 -64
2018-01-11 17:44:23 GMT 28.33984 77.43137 32,000 288 437 0
2018-01-11 17:44:12 GMT 28.33342 77.45499 32,000 288 436 0
2018-01-11 17:44:01 GMT 28.32676 77.47946 32,000 288 436 0
2018-01-11 17:43:51 GMT 28.32074 77.50157 32,000 288 436 0
2018-01-11 17:43:40 GMT 28.31419 77.52562 32,000 288 437 0
2018-01-11 17:43:30 GMT 28.30806 77.54811 32,000 288 437 0
2018-01-11 17:43:18 GMT 28.30143 77.57242 32,000 288 437 0
2018-01-11 17:43:08 GMT 28.29510 77.59557 32,000 288 437 0
2018-01-11 17:42:56 GMT 28.28815 77.62121 32,000 288 437 0
2018-01-11 17:42:46 GMT 28.28229 77.64265 32,000 288 437 0
2018-01-11 17:42:35 GMT 28.27555 77.66720 32,000 288 437 0
2018-01-11 17:42:20 GMT 28.26631 77.70091 32,000 288 437 0
2018-01-11 17:42:09 GMT 28.26018 77.72341 32,000 288 437 0
2018-01-11 17:41:59 GMT 28.25368 77.74707 32,000 288 437 64
2018-01-11 17:41:48 GMT 28.24729 77.77022 32,000 288 437 0
2018-01-11 17:41:37 GMT 28.24095 77.79340 32,000 288 437 0
2018-01-11 17:41:27 GMT 28.23445 77.81701 32,000 288 437 0
2018-01-11 17:41:16 GMT 28.22800 77.84041 32,000 288 437 0
2018-01-11 17:41:06 GMT 28.22183 77.86296 32,000 288 437 0
2018-01-11 17:40:54 GMT 28.21491 77.88810 32,000 288 437 0
2018-01-11 17:40:44 GMT 28.20856 77.91105 32,000 288 437 0
2018-01-11 17:40:34 GMT 28.20259 77.93268 32,000 288 437 0
2018-01-11 17:40:23 GMT 28.19605 77.95650 32,000 288 437 0
2018-01-11 17:40:12 GMT 28.18945 77.98032 32,000 288 437 0
2018-01-11 17:40:01 GMT 28.18300 78.00372 32,000 288 438 0
2018-01-11 17:39:51 GMT 28.17663 78.02668 32,000 288 438 0
2018-01-11 17:39:40 GMT 28.17036 78.04941 32,000 288 438 0
2018-01-11 17:39:30 GMT 28.16391 78.07260 32,000 288 438 0
2018-01-11 17:39:19 GMT 28.15749 78.09578 32,000 288 438 0
2018-01-11 17:39:09 GMT 28.15107 78.11893 32,000 288 438 0
2018-01-11 17:38:57 GMT 28.14432 78.14316 32,000 288 438 0
2018-01-11 17:38:47 GMT 28.13808 78.16573 32,000 288 438 0
2018-01-11 17:38:36 GMT 28.13156 78.18910 32,000 288 438 0
2018-01-11 17:38:26 GMT 28.12509 78.21251 32,000 288 438 0
2018-01-11 17:38:15 GMT 28.11855 78.23586 32,000 288 438 -64
2018-01-11 17:38:05 GMT 28.11215 78.25879 32,000 288 438 0
2018-01-11 17:37:54 GMT 28.10545 78.28287 32,000 288 438 0
2018-01-11 17:37:43 GMT 28.09888 78.30645 32,000 288 438 0
2018-01-11 17:37:32 GMT 28.09255 78.32914 32,000 288 438 0
2018-01-11 17:37:22 GMT 28.08604 78.35233 32,000 288 439 0
2018-01-11 17:37:11 GMT 28.07941 78.37620 32,000 288 439 0
2018-01-11 17:37:00 GMT 28.07295 78.39918 32,000 288 439 0
2018-01-11 17:36:50 GMT 28.06645 78.42242 32,000 288 440 0
2018-01-11 17:36:39 GMT 28.05986 78.44592 32,000 288 440 0
2018-01-11 17:36:28 GMT 28.05284 78.47093 32,000 288 440 0
2018-01-11 17:36:18 GMT 28.04663 78.49309 32,000 288 440 0
2018-01-11 17:36:07 GMT 28.04013 78.51612 32,000 288 440 0
2018-01-11 17:35:56 GMT 28.03325 78.54067 32,000 288 440 0
2018-01-11 17:35:45 GMT 28.02663 78.56420 32,000 288 440 -64
2018-01-11 17:35:35 GMT 28.02058 78.58569 32,000 288 440 0
2018-01-11 17:35:25 GMT 28.01393 78.60939 32,000 288 440 0
2018-01-11 17:35:14 GMT 28.00718 78.63330 32,000 288 440 0
2018-01-11 17:35:03 GMT 28.00080 78.65592 32,000 288 440 0
2018-01-11 17:34:52 GMT 27.99385 78.68049 32,000 288 440 0
2018-01-11 17:34:42 GMT 27.98744 78.70309 32,000 288 440 0
2018-01-11 17:34:30 GMT 27.98004 78.72943 32,000 288 440 0
2018-01-11 17:34:20 GMT 27.97417 78.75000 32,000 288 440 0
2018-01-11 17:34:09 GMT 27.96719 78.77477 32,000 288 440 0
2018-01-11 17:33:59 GMT 27.96066 78.79780 32,000 288 440 0
2018-01-11 17:33:48 GMT 27.95407 78.82104 32,000 288 440 0
2018-01-11 17:33:37 GMT 27.94731 78.84489 32,000 288 440 0
2018-01-11 17:33:26 GMT 27.94047 78.86897 32,000 288 440 0
2018-01-11 17:33:16 GMT 27.93388 78.89220 32,000 288 440 0
2018-01-11 17:33:05 GMT 27.92752 78.91454 32,000 288 439 0
2018-01-11 17:32:54 GMT 27.92024 78.94014 32,000 288 440 0
2018-01-11 17:32:44 GMT 27.91393 78.96223 32,000 288 440 0
2018-01-11 17:32:33 GMT 27.90727 78.98562 32,000 288 440 0
2018-01-11 17:32:22 GMT 27.90048 79.00945 32,000 288 439 0
2018-01-11 17:32:12 GMT 27.89429 79.03103 32,000 288 439 0
2018-01-11 17:31:57 GMT 27.88467 79.06461 32,000 288 439 0
2018-01-11 17:31:48 GMT 27.87955 79.08254 32,000 288 439 0
2018-01-11 17:31:39 GMT 27.87362 79.10325 32,000 288 439 0
2018-01-11 17:31:28 GMT 27.86650 79.12813 32,000 288 440 0
2018-01-11 17:31:17 GMT 27.85956 79.15237 32,000 288 440 0
2018-01-11 17:31:07 GMT 27.85364 79.17308 32,000 288 440 0
2018-01-11 17:30:56 GMT 27.84663 79.19733 32,000 288 440 0
2018-01-11 17:30:46 GMT 27.84032 79.21941 32,000 288 440 0
2018-01-11 17:30:35 GMT 27.83340 79.24345 32,000 288 440 0
2018-01-11 17:30:24 GMT 27.82677 79.26656 32,000 288 440 0
2018-01-11 17:30:13 GMT 27.81966 79.29129 32,000 288 441 0
2018-01-11 17:30:03 GMT 27.81333 79.31315 32,000 288 441 0
2018-01-11 17:29:52 GMT 27.80672 79.33616 32,000 288 441 0
2018-01-11 17:29:42 GMT 27.79990 79.35979 32,000 289 442 0
2018-01-11 17:29:31 GMT 27.79248 79.38399 32,000 290 443 0
2018-01-11 17:29:21 GMT 27.78545 79.40569 32,000 291 444 0
2018-01-11 17:29:09 GMT 27.77670 79.43121 32,000 292 444 0
2018-01-11 17:28:58 GMT 27.76845 79.45395 32,000 293 445 0
2018-01-11 17:28:49 GMT 27.76117 79.47391 32,000 293 445 0
2018-01-11 17:28:37 GMT 27.75221 79.49839 32,000 293 445 0
We lost coverage of the aircraft here for a total of 42 minutes
2018-01-11 16:46:46 GMT 24.89800 84.60426 32,000 300 474 0
2018-01-11 16:46:13 GMT 24.86141 84.67438 32,000 300 474 0
2018-01-11 16:46:04 GMT 24.85130 84.69365 32,000 300 474 0
2018-01-11 16:45:49 GMT 24.83501 84.72478 32,000 300 474 0
2018-01-11 16:45:27 GMT 24.81134 84.76995 32,000 300 474 0
2018-01-11 16:45:19 GMT 24.80224 84.78730 32,000 300 474 64
2018-01-11 16:45:08 GMT 24.78995 84.81077 32,000 300 475 0
2018-01-11 16:44:56 GMT 24.77765 84.83419 32,000 300 474 -64
2018-01-11 16:44:45 GMT 24.76524 84.85779 32,000 300 474 0
2018-01-11 16:44:18 GMT 24.73604 84.91328 32,000 300 474 0
2018-01-11 16:44:12 GMT 24.72920 84.92623 32,000 300 474 0
2018-01-11 16:44:01 GMT 24.71690 84.94965 32,000 301 474 0
2018-01-11 16:43:49 GMT 24.70267 84.97655 32,000 301 474 0
2018-01-11 16:43:39 GMT 24.69218 84.99634 32,000 301 474 0
2018-01-11 16:43:27 GMT 24.67964 85.02014 32,000 301 474 0
2018-01-11 16:43:16 GMT 24.66618 85.04557 32,000 301 474 0
2018-01-11 16:42:39 GMT 24.62674 85.12005 32,000 301 475 0
2018-01-11 16:42:31 GMT 24.61789 85.13679 32,000 301 475 0
2018-01-11 16:42:20 GMT 24.60576 85.15976 32,000 300 476 0
2018-01-11 16:42:09 GMT 24.59349 85.18300 32,000 300 476 0
2018-01-11 16:41:58 GMT 24.58093 85.20695 32,000 300 477 0
2018-01-11 16:41:47 GMT 24.56915 85.22939 32,000 300 477 0
2018-01-11 16:41:42 GMT 24.56259 85.24199 32,000 300 477 0
2018-01-11 16:41:36 GMT 24.55687 85.25294 32,000 300 477 0
2018-01-11 16:41:33 GMT 24.55248 85.26133 32,000 300 477 0
2018-01-11 16:41:25 GMT 24.54437 85.27690 32,000 300 477 0
2018-01-11 16:41:23 GMT 24.54164 85.28215 32,000 300 477 0
2018-01-11 16:41:13 GMT 24.53233 85.30008 32,000 300 477 0
2018-01-11 16:41:11 GMT 24.52963 85.30533 32,000 300 477 0
2018-01-11 16:41:03 GMT 24.52043 85.32303 32,000 300 478 0
2018-01-11 16:41:01 GMT 24.51746 85.32873 32,000 300 478 0
2018-01-11 16:40:50 GMT 24.50542 85.35185 32,000 300 477 0
2018-01-11 16:40:39 GMT 24.49341 85.37481 32,000 301 478 0
2018-01-11 16:40:28 GMT 24.48215 85.39569 32,000 302 478 0
2018-01-11 16:40:26 GMT 24.47823 85.40273 32,000 302 479 0
2018-01-11 16:40:18 GMT 24.47054 85.41611 32,000 303 479 0
2018-01-11 16:40:15 GMT 24.46651 85.42311 32,000 303 479 0
2018-01-11 16:40:06 GMT 24.45594 85.44140 32,000 303 479 0
2018-01-11 16:39:55 GMT 24.44370 85.46254 32,000 303 479 0
2018-01-11 16:39:43 GMT 24.42906 85.48787 32,000 303 480 0
2018-01-11 16:39:38 GMT 24.42169 85.50059 32,000 303 481 0
2018-01-11 16:39:33 GMT 24.41730 85.50825 32,000 303 481 0
2018-01-11 16:39:30 GMT 24.41171 85.51788 32,000 303 481 0
2018-01-11 16:39:22 GMT 24.40347 85.53212 32,000 303 481 0
2018-01-11 16:39:18 GMT 24.39845 85.54080 32,000 303 481 0
2018-01-11 16:39:11 GMT 24.39070 85.55415 32,000 303 481 0
2018-01-11 16:39:08 GMT 24.38544 85.56325 32,000 303 481 0
2018-01-11 16:39:00 GMT 24.37736 85.57723 32,000 303 481 0
2018-01-11 16:38:56 GMT 24.37102 85.58818 32,000 303 481 0
2018-01-11 16:38:49 GMT 24.36409 85.60013 32,000 303 481 0
2018-01-11 16:38:46 GMT 24.35953 85.60796 32,000 303 481 0
2018-01-11 16:38:38 GMT 24.35082 85.62298 32,000 303 481 0
2018-01-11 16:38:35 GMT 24.34579 85.63166 32,000 303 481 0
2018-01-11 16:38:27 GMT 24.33765 85.64565 32,000 303 481 0
2018-01-11 16:38:22 GMT 24.33085 85.65745 32,000 303 482 0
2018-01-11 16:38:15 GMT 24.32400 85.66920 32,000 303 482 0
2018-01-11 16:38:11 GMT 24.31924 85.67744 32,000 303 482 0
2018-01-11 16:38:04 GMT 24.31096 85.69168 32,000 303 483 0
2018-01-11 16:38:01 GMT 24.30592 85.70033 32,000 303 483 0
2018-01-11 16:37:53 GMT 24.29752 85.71476 32,000 303 483 0
2018-01-11 16:37:50 GMT 24.29249 85.72342 32,000 303 483 0
2018-01-11 16:37:42 GMT 24.28386 85.73827 32,000 303 483 0
2018-01-11 16:37:35 GMT 24.27438 85.75461 32,000 303 483 0
2018-01-11 16:37:31 GMT 24.27040 85.76141 32,000 303 483 0
2018-01-11 16:37:27 GMT 24.26491 85.77093 32,000 303 484 0
2018-01-11 16:37:20 GMT 24.25745 85.78374 32,000 303 484 0
2018-01-11 16:37:14 GMT 24.25095 85.79488 32,000 303 484 0
2018-01-11 16:37:07 GMT 24.24278 85.80898 32,000 303 484 -64
2018-01-11 16:37:05 GMT 24.23807 85.81701 32,000 303 484 -64
2018-01-11 16:36:56 GMT 24.22929 85.83211 32,000 303 484 0
2018-01-11 16:36:54 GMT 24.22495 85.83955 32,000 303 484 64
2018-01-11 16:36:45 GMT 24.21578 85.85530 32,000 303 485 0
2018-01-11 16:36:43 GMT 24.21130 85.86299 32,000 303 485 0
2018-01-11 16:36:32 GMT 24.19804 85.88578 32,000 303 485 0
2018-01-11 16:36:23 GMT 24.18887 85.90149 32,000 303 486 0
2018-01-11 16:36:19 GMT 24.18440 85.90915 32,000 303 486 0
2018-01-11 16:36:09 GMT 24.17216 85.93007 32,000 303 486 0
2018-01-11 16:36:07 GMT 24.16746 85.93817 32,000 303 486 0
2018-01-11 16:35:58 GMT 24.15875 85.95306 32,000 303 485 0
2018-01-11 16:35:47 GMT 24.14534 85.97600 32,000 303 485 0
2018-01-11 16:35:36 GMT 24.13063 86.00124 32,000 303 484 0
2018-01-11 16:35:25 GMT 24.11769 86.02331 32,000 303 484 0
2018-01-11 16:35:14 GMT 24.10263 86.04909 32,000 303 483 0
2018-01-11 16:35:02 GMT 24.08830 86.07366 32,000 303 483 0
2018-01-11 16:34:51 GMT 24.07828 86.09075 32,000 303 483 0
2018-01-11 16:34:42 GMT 24.06504 86.11338 32,000 303 482 0
2018-01-11 16:34:40 GMT 24.06504 86.11338 32,000 303 482 0
2018-01-11 16:34:38 GMT 24.05876 86.12405 32,000 303 482 0
2018-01-11 16:34:32 GMT 24.05331 86.13333 32,000 303 482 0
2018-01-11 16:34:29 GMT 24.05117 86.13701 32,000 303 482 0
2018-01-11 16:34:24 GMT 24.04321 86.15059 32,000 303 482 0
2018-01-11 16:34:18 GMT 24.03790 86.15962 32,000 303 482 0
2018-01-11 16:34:12 GMT 24.02888 86.17503 32,000 303 482 0
2018-01-11 16:34:09 GMT 24.02719 86.17790 32,000 303 482 0
2018-01-11 16:34:07 GMT 24.02307 86.18490 32,000 303 482 0
2018-01-11 16:34:00 GMT 24.01419 86.20010 32,000 303 482 0
2018-01-11 16:33:56 GMT 24.00997 86.20728 32,000 303 482 0
2018-01-11 16:33:48 GMT 24.00042 86.22355 32,000 303 482 0
2018-01-11 16:33:45 GMT 23.99707 86.22931 32,000 303 482 0
2018-01-11 16:33:36 GMT 23.98669 86.24698 32,000 303 482 0
2018-01-11 16:33:33 GMT 23.98329 86.25273 32,000 303 482 0
2018-01-11 16:33:26 GMT 23.97398 86.26853 32,000 303 482 0
2018-01-11 16:33:22 GMT 23.97086 86.27387 32,000 303 482 0
2018-01-11 16:33:16 GMT 23.96216 86.28864 32,000 303 482 0
2018-01-11 16:33:11 GMT 23.95792 86.29584 32,000 303 482 0
2018-01-11 16:33:05 GMT 23.94900 86.31104 32,000 303 482 0
2018-01-11 16:33:02 GMT 23.94479 86.31823 32,000 303 482 0
2018-01-11 16:32:59 GMT 23.94177 86.32336 32,000 303 482 0
2018-01-11 16:32:54 GMT 23.93670 86.33197 32,000 303 483 0
2018-01-11 16:32:48 GMT 23.92776 86.34715 32,000 303 483 0
2018-01-11 16:32:43 GMT 23.92342 86.35452 32,000 303 483 0
2018-01-11 16:32:38 GMT 23.91751 86.36459 32,000 303 483 0
2018-01-11 16:32:36 GMT 23.91339 86.37156 32,000 303 482 0
2018-01-11 16:32:34 GMT 23.91097 86.37568 32,000 303 482 0
2018-01-11 16:32:27 GMT 23.90387 86.38779 32,000 303 482 0
2018-01-11 16:32:24 GMT 23.89975 86.39476 32,000 303 483 0
2018-01-11 16:32:17 GMT 23.89093 86.40970 32,000 303 482 0
2018-01-11 16:32:15 GMT 23.88959 86.41195 32,000 303 483 0
2018-01-11 16:32:12 GMT 23.88549 86.41892 32,000 303 482 0
2018-01-11 16:32:08 GMT 23.87995 86.42835 32,000 303 482 0
2018-01-11 16:32:08 GMT 23.87995 86.42835 32,000 303 482 0
2018-01-11 16:32:04 GMT 23.87618 86.43473 32,000 303 482 0
2018-01-11 16:32:02 GMT 23.87245 86.44105 32,000 303 482 0
2018-01-11 16:31:57 GMT 23.86775 86.44908 32,000 303 482 0
2018-01-11 16:31:56 GMT 23.86652 86.45111 32,000 303 482 0
2018-01-11 16:31:55 GMT 23.86542 86.45297 32,000 303 482 0
2018-01-11 16:31:53 GMT 23.86304 86.45706 32,000 303 482 0
2018-01-11 16:31:50 GMT 23.85770 86.46603 32,000 303 482 0
2018-01-11 16:31:45 GMT 23.85310 86.47385 32,000 303 482 0
2018-01-11 16:31:42 GMT 23.84936 86.48018 32,000 303 482 -64
2018-01-11 16:31:40 GMT 23.84559 86.48655 32,000 303 482 0
2018-01-11 16:31:36 GMT 23.84125 86.49394 32,000 303 482 0
2018-01-11 16:31:31 GMT 23.83617 86.50253 32,000 303 482 0
2018-01-11 16:31:28 GMT 23.83196 86.50970 32,000 303 482 0
2018-01-11 16:31:23 GMT 23.82567 86.52034 32,000 303 482 0
2018-01-11 16:31:20 GMT 23.82275 86.52527 32,000 303 482 0
2018-01-11 16:31:17 GMT 23.81886 86.53183 32,000 303 482 0
2018-01-11 16:31:14 GMT 23.81454 86.53920 32,000 303 482 0
2018-01-11 16:31:09 GMT 23.80942 86.54780 32,000 303 482 0
2018-01-11 16:31:06 GMT 23.80618 86.55329 32,000 303 482 0
2018-01-11 16:31:02 GMT 23.79977 86.56418 32,000 303 482 0
2018-01-11 16:30:57 GMT 23.79299 86.57563 32,000 303 482 0
2018-01-11 16:30:51 GMT 23.78728 86.58529 32,000 303 482 0
2018-01-11 16:30:45 GMT 23.77968 86.59816 32,000 303 483 0
2018-01-11 16:30:40 GMT 23.77493 86.60616 32,000 303 482 0
2018-01-11 16:30:35 GMT 23.76755 86.61865 32,000 303 482 0
2018-01-11 16:30:31 GMT 23.76270 86.62684 32,000 303 482 0
2018-01-11 16:30:29 GMT 23.76161 86.62870 32,000 303 482 0
2018-01-11 16:30:23 GMT 23.75313 86.64302 32,000 303 482 0
2018-01-11 16:30:20 GMT 23.74878 86.65039 32,000 303 482 0
2018-01-11 16:30:13 GMT 23.74173 86.66224 32,000 303 482 0
2018-01-11 16:30:10 GMT 23.73871 86.66736 32,000 303 482 0
2018-01-11 16:30:08 GMT 23.73559 86.67270 32,000 303 482 0
2018-01-11 16:30:01 GMT 23.72818 86.68513 32,000 303 483 0
2018-01-11 16:29:58 GMT 23.72270 86.69436 32,000 303 483 0
2018-01-11 16:29:51 GMT 23.71497 86.70747 32,000 303 483 0
2018-01-11 16:29:47 GMT 23.70900 86.71748 32,000 303 483 0
2018-01-11 16:29:42 GMT 23.70282 86.72789 32,000 303 483 0
2018-01-11 16:29:38 GMT 23.69811 86.73589 32,000 303 483 0
2018-01-11 16:29:35 GMT 23.69151 86.74693 32,000 303 483 0
2018-01-11 16:29:31 GMT 23.68982 86.74978 32,000 303 483 0
2018-01-11 16:29:28 GMT 23.68727 86.75406 32,000 303 483 0
2018-01-11 16:29:26 GMT 23.68424 86.75919 32,000 303 483 0
2018-01-11 16:29:20 GMT 23.67659 86.77205 32,000 303 483 0
2018-01-11 16:29:17 GMT 23.67416 86.77617 32,000 303 483 0
2018-01-11 16:29:14 GMT 23.67102 86.78147 32,000 303 483 0
2018-01-11 16:29:10 GMT 23.66469 86.79210 32,000 303 483 0
2018-01-11 16:29:08 GMT 23.66290 86.79520 32,000 303 483 0
2018-01-11 16:29:05 GMT 23.65805 86.80339 32,000 303 483 0
2018-01-11 16:28:58 GMT 23.64965 86.81749 32,000 303 483 0
2018-01-11 16:28:55 GMT 23.64747 86.82117 32,000 303 483 0
2018-01-11 16:28:53 GMT 23.64052 86.83284 32,000 303 483 0
2018-01-11 16:28:47 GMT 23.63629 86.83998 32,000 303 483 0
2018-01-11 16:28:44 GMT 23.63374 86.84428 32,000 303 483 0
2018-01-11 16:28:37 GMT 23.62450 86.85979 32,000 303 483 0
2018-01-11 16:28:33 GMT 23.62010 86.86717 32,000 303 483 0
2018-01-11 16:28:30 GMT 23.61660 86.87309 32,000 303 483 0
2018-01-11 16:28:26 GMT 23.61148 86.88170 32,000 303 483 0
2018-01-11 16:28:24 GMT 23.60566 86.89149 32,000 303 483 0
2018-01-11 16:28:21 GMT 23.60504 86.89250 32,000 303 483 0
2018-01-11 16:28:15 GMT 23.59789 86.90455 32,000 303 483 0
2018-01-11 16:28:10 GMT 23.59337 86.91212 32,000 303 483 0
2018-01-11 16:28:07 GMT 23.58709 86.92274 32,000 303 483 0
2018-01-11 16:28:04 GMT 23.58476 86.92657 32,000 303 483 0
2018-01-11 16:28:00 GMT 23.57881 86.93659 32,000 303 483 0
2018-01-11 16:27:54 GMT 23.57224 86.94761 32,000 303 483 0
2018-01-11 16:27:48 GMT 23.56484 86.96005 32,000 303 482 0
2018-01-11 16:27:45 GMT 23.56192 86.96492 32,000 303 482 0
2018-01-11 16:27:42 GMT 23.55830 86.97108 32,000 303 482 0
2018-01-11 16:27:37 GMT 23.55061 86.98390 32,000 303 482 0
2018-01-11 16:27:31 GMT 23.54590 86.99183 32,000 303 482 0
2018-01-11 16:27:28 GMT 23.54044 87.00104 32,000 303 482 0
2018-01-11 16:27:26 GMT 23.53619 87.00817 32,000 303 482 0
2018-01-11 16:27:21 GMT 23.53203 87.01507 32,000 303 482 0
2018-01-11 16:27:17 GMT 23.52708 87.02342 32,000 303 482 0
2018-01-11 16:27:15 GMT 23.52150 87.03278 32,000 303 482 0
2018-01-11 16:27:11 GMT 23.51967 87.03584 32,000 303 482 0
2018-01-11 16:27:06 GMT 23.51372 87.04583 32,000 303 482 0
2018-01-11 16:27:03 GMT 23.51189 87.04887 32,000 303 482 0
2018-01-11 16:27:01 GMT 23.50887 87.05397 32,000 303 482 0
2018-01-11 16:26:59 GMT 23.50690 87.05721 32,000 303 482 0
2018-01-11 16:26:53 GMT 23.49878 87.07087 32,000 303 482 0
2018-01-11 16:26:51 GMT 23.49571 87.07596 32,000 303 482 0
2018-01-11 16:26:48 GMT 23.49147 87.08308 32,000 303 482 0
2018-01-11 16:26:44 GMT 23.48708 87.09037 32,000 303 481 0
2018-01-11 16:26:42 GMT 23.48453 87.09468 32,000 303 481 0
2018-01-11 16:26:40 GMT 23.48211 87.09874 32,000 303 481 0
2018-01-11 16:26:38 GMT 23.47918 87.10358 32,000 303 481 0
2018-01-11 16:26:33 GMT 23.47359 87.11293 32,000 303 481 0
2018-01-11 16:26:29 GMT 23.46863 87.12128 32,000 303 481 0
2018-01-11 16:26:26 GMT 23.46498 87.12738 32,000 303 481 0
2018-01-11 16:26:22 GMT 23.45986 87.13587 32,000 303 481 0
2018-01-11 16:26:19 GMT 23.45320 87.14706 32,000 303 481 0
2018-01-11 16:26:16 GMT 23.45247 87.14825 32,000 303 481 0
2018-01-11 16:26:07 GMT 23.44357 87.16309 32,000 303 481 0
2018-01-11 16:26:05 GMT 23.43933 87.17021 32,000 303 481 0
2018-01-11 16:25:57 GMT 23.43095 87.18419 32,000 304 480 0
2018-01-11 16:25:54 GMT 23.42601 87.19249 32,000 304 480 0
2018-01-11 16:25:48 GMT 23.41969 87.20301 32,000 304 480 0
2018-01-11 16:25:46 GMT 23.41740 87.20688 32,000 304 480 0
2018-01-11 16:25:44 GMT 23.41374 87.21297 32,000 303 480 0
2018-01-11 16:25:42 GMT 23.41219 87.21556 32,000 303 480 0
2018-01-11 16:25:38 GMT 23.40670 87.22468 32,000 303 480 0
2018-01-11 16:25:34 GMT 23.40381 87.22956 32,000 303 480 0
2018-01-11 16:25:31 GMT 23.39874 87.23806 32,000 303 480 0
2018-01-11 16:25:27 GMT 23.39459 87.24492 32,000 303 480 0
2018-01-11 16:25:23 GMT 23.38527 87.26051 32,000 303 480 0
2018-01-11 16:25:20 GMT 23.38481 87.26131 32,000 303 480 0
2018-01-11 16:25:17 GMT 23.38238 87.26535 32,000 303 480 0
2018-01-11 16:25:12 GMT 23.37411 87.27910 32,000 303 479 0
2018-01-11 16:25:08 GMT 23.37048 87.28521 32,000 303 479 0
2018-01-11 16:25:06 GMT 23.36829 87.28882 32,000 303 479 0
2018-01-11 16:25:01 GMT 23.36178 87.29975 32,000 303 479 0
2018-01-11 16:24:55 GMT 23.35158 87.31669 32,000 303 479 0
2018-01-11 16:24:50 GMT 23.34990 87.31954 32,000 303 479 0
2018-01-11 16:24:45 GMT 23.34283 87.33122 32,000 303 479 0
2018-01-11 16:24:39 GMT 23.33569 87.34316 32,000 303 479 0
2018-01-11 16:24:34 GMT 23.32998 87.35260 32,000 303 479 0
2018-01-11 16:24:28 GMT 23.32237 87.36533 32,000 304 478 0
2018-01-11 16:24:28 GMT 23.32295 87.36430 32,000 304 478 0
2018-01-11 16:24:24 GMT 23.31656 87.37502 32,000 303 479 0
2018-01-11 16:24:18 GMT 23.30987 87.38607 32,000 303 479 0
2018-01-11 16:24:16 GMT 23.30866 87.38810 32,000 303 479 0
2018-01-11 16:24:13 GMT 23.30310 87.39739 32,000 303 479 0
2018-01-11 16:24:05 GMT 23.29511 87.41069 32,000 303 479 0
2018-01-11 16:24:01 GMT 23.29078 87.41791 32,000 304 478 0
2018-01-11 16:23:59 GMT 23.28374 87.42960 32,000 304 478 0
2018-01-11 16:23:53 GMT 23.28072 87.43464 32,000 304 478 0
2018-01-11 16:23:49 GMT 23.27646 87.44168 32,000 304 478 0
2018-01-11 16:23:43 GMT 23.26946 87.45336 32,000 304 478 0
2018-01-11 16:23:41 GMT 23.26488 87.46101 32,000 304 478 0
2018-01-11 16:23:39 GMT 23.26229 87.46521 32,000 304 478 0
2018-01-11 16:23:32 GMT 23.25540 87.47665 32,000 304 477 0
2018-01-11 16:23:30 GMT 23.25192 87.48248 32,000 304 477 0
2018-01-11 16:23:28 GMT 23.24600 87.49232 32,000 304 477 0
2018-01-11 16:23:23 GMT 23.24432 87.49517 32,000 304 477 0
2018-01-11 16:23:19 GMT 23.23874 87.50437 32,000 304 477 0
2018-01-11 16:23:16 GMT 23.23175 87.51602 32,000 304 477 0
2018-01-11 16:23:13 GMT 23.23101 87.51724 32,000 304 477 0
2018-01-11 16:23:10 GMT 23.22871 87.52103 32,000 304 477 0
2018-01-11 16:23:08 GMT 23.22510 87.52708 32,000 304 477 0
2018-01-11 16:23:02 GMT 23.21494 87.54391 32,000 304 477 0
2018-01-11 16:22:57 GMT 23.21192 87.54893 32,000 304 477 0
2018-01-11 16:22:50 GMT 23.20261 87.56434 32,000 304 477 0
2018-01-11 16:22:47 GMT 23.20150 87.56617 32,000 304 477 0
2018-01-11 16:22:45 GMT 23.19921 87.56994 32,000 304 477 0
2018-01-11 16:22:37 GMT 23.18930 87.58642 32,000 304 477 0
2018-01-11 16:22:35 GMT 23.18558 87.59262 32,000 304 476 0
2018-01-11 16:22:33 GMT 23.17950 87.60263 32,000 304 476 0
2018-01-11 16:22:29 GMT 23.17905 87.60343 32,000 304 476 0
2018-01-11 16:22:25 GMT 23.17287 87.61363 32,000 304 476 0
2018-01-11 16:22:19 GMT 23.16249 87.63087 32,000 304 476 0
2018-01-11 16:22:14 GMT 23.15922 87.63624 32,000 304 476 0
2018-01-11 16:22:08 GMT 23.15236 87.64768 32,000 304 476 0
2018-01-11 16:22:03 GMT 23.14619 87.65788 32,000 304 476 0
2018-01-11 16:21:59 GMT 23.14265 87.66366 32,000 304 476 0
2018-01-11 16:21:52 GMT 23.13386 87.67827 32,000 304 476 0
2018-01-11 16:21:50 GMT 23.13022 87.68427 32,000 304 476 0
2018-01-11 16:21:48 GMT 23.12780 87.68829 32,000 304 476 0
2018-01-11 16:21:42 GMT 23.12077 87.69986 32,000 304 476 0
2018-01-11 16:21:39 GMT 23.11633 87.70730 32,000 304 476 0
2018-01-11 16:21:37 GMT 23.11207 87.71428 32,000 304 476 0
2018-01-11 16:21:31 GMT 23.10759 87.72168 32,000 304 476 0
2018-01-11 16:21:29 GMT 23.10700 87.72268 32,000 304 476 0
2018-01-11 16:21:26 GMT 23.09573 87.74126 32,000 304 476 0
2018-01-11 16:21:20 GMT 23.09503 87.74246 32,000 304 476 0
2018-01-11 16:21:17 GMT 23.09029 87.75030 32,000 304 476 0
2018-01-11 16:21:07 GMT 23.08027 87.76688 32,000 304 476 0
2018-01-11 16:21:05 GMT 23.07664 87.77287 32,000 304 476 0
2018-01-11 16:20:58 GMT 23.06877 87.78590 32,000 304 476 0
2018-01-11 16:20:55 GMT 23.06126 87.79829 32,000 304 476 0
2018-01-11 16:20:53 GMT 23.05593 87.80706 32,000 304 476 0
2018-01-11 16:20:48 GMT 23.05522 87.80828 32,000 304 476 0
2018-01-11 16:20:48 GMT 23.05522 87.80828 32,000 304 476 0
2018-01-11 16:20:45 GMT 23.05327 87.81148 32,000 304 476 0
2018-01-11 16:20:43 GMT 23.04890 87.81865 32,000 304 476 0
2018-01-11 16:20:41 GMT 23.04396 87.82685 32,000 304 476 0
2018-01-11 16:20:36 GMT 23.04199 87.83005 32,000 304 476 0
2018-01-11 16:20:34 GMT 23.04021 87.83305 32,000 304 476 0
2018-01-11 16:20:30 GMT 23.03437 87.84266 32,000 304 476 0
2018-01-11 16:20:26 GMT 23.02881 87.85182 32,000 304 476 0
2018-01-11 16:20:23 GMT 23.02664 87.85543 32,000 304 476 0
2018-01-11 16:20:19 GMT 23.02080 87.86501 32,000 304 476 0
2018-01-11 16:20:15 GMT 23.01584 87.87323 32,000 304 476 0
2018-01-11 16:20:12 GMT 23.01329 87.87739 32,000 304 476 0
2018-01-11 16:20:08 GMT 23.00711 87.88758 32,000 304 477 0
2018-01-11 16:20:03 GMT 23.00226 87.89557 32,000 304 477 0
2018-01-11 16:19:59 GMT 22.99341 87.91016 32,000 304 477 0
2018-01-11 16:19:52 GMT 22.98953 87.91654 32,000 304 477 0
2018-01-11 16:19:48 GMT 22.98285 87.92758 32,000 304 477 0
2018-01-11 16:19:42 GMT 22.97618 87.93854 32,000 304 477 0
2018-01-11 16:19:40 GMT 22.97325 87.94337 32,000 304 477 0
2018-01-11 16:19:37 GMT 22.97046 87.94795 32,000 304 477 0
2018-01-11 16:19:32 GMT 22.96343 87.95954 32,000 304 477 0
2018-01-11 16:19:30 GMT 22.95845 87.96773 32,000 304 477 0
2018-01-11 16:19:26 GMT 22.95602 87.97172 32,000 304 477 0
2018-01-11 16:19:21 GMT 22.94993 87.98177 32,000 304 478 0
2018-01-11 16:19:16 GMT 22.94092 87.99654 32,000 304 478 0
2018-01-11 16:19:13 GMT 22.94041 87.99734 32,000 304 478 0
2018-01-11 16:19:10 GMT 22.93666 88.00358 32,000 304 478 0
2018-01-11 16:19:05 GMT 22.93191 88.01137 32,000 304 478 0
2018-01-11 16:19:01 GMT 22.92545 88.02196 32,000 304 478 0
2018-01-11 16:18:59 GMT 22.92353 88.02516 32,000 304 478 0
2018-01-11 16:18:55 GMT 22.91217 88.04378 32,000 304 478 0
2018-01-11 16:18:49 GMT 22.91096 88.04581 32,000 304 478 0
2018-01-11 16:18:47 GMT 22.91034 88.04678 32,000 304 478 0
2018-01-11 16:18:44 GMT 22.90561 88.05461 32,000 304 478 0
2018-01-11 16:18:42 GMT 22.90439 88.05662 32,000 304 478 0
2018-01-11 16:18:39 GMT 22.89914 88.06524 32,000 304 478 0
2018-01-11 16:18:37 GMT 22.89718 88.06844 32,000 304 478 0
2018-01-11 16:18:31 GMT 22.89048 88.07943 32,000 304 478 0
2018-01-11 16:18:27 GMT 22.88475 88.08884 32,000 304 478 0
2018-01-11 16:18:25 GMT 22.88356 88.09083 32,000 304 478 0
2018-01-11 16:18:23 GMT 22.88049 88.09582 32,000 304 478 0
2018-01-11 16:18:20 GMT 22.87267 88.10865 32,000 304 478 0
2018-01-11 16:18:17 GMT 22.87195 88.10984 32,000 304 478 0
2018-01-11 16:18:15 GMT 22.86413 88.12266 32,000 304 478 0
2018-01-11 16:18:09 GMT 22.86367 88.12347 32,000 304 478 0
2018-01-11 16:18:05 GMT 22.85794 88.13283 32,000 304 478 0
2018-01-11 16:18:02 GMT 22.85317 88.14066 32,000 304 478 0
2018-01-11 16:18:00 GMT 22.85147 88.14346 32,000 304 478 0
2018-01-11 16:17:58 GMT 22.85012 88.14565 32,000 304 478 0
2018-01-11 16:17:54 GMT 22.84451 88.15485 32,000 304 478 0
2018-01-11 16:17:51 GMT 22.84122 88.16024 32,000 304 479 0
2018-01-11 16:17:43 GMT 22.83131 88.17647 32,000 304 478 0
2018-01-11 16:17:40 GMT 22.82726 88.18303 32,000 304 478 0
2018-01-11 16:17:38 GMT 22.82057 88.19405 32,000 304 478 0
2018-01-11 16:17:32 GMT 22.81764 88.19884 32,000 304 478 0
2018-01-11 16:17:28 GMT 22.81297 88.20643 32,000 304 478 0
2018-01-11 16:17:25 GMT 22.81004 88.21123 32,000 304 478 0
2018-01-11 16:17:23 GMT 22.80322 88.22241 32,000 304 477 0
2018-01-11 16:17:21 GMT 22.80222 88.22403 32,000 304 477 0
2018-01-11 16:17:19 GMT 22.80052 88.22681 32,000 304 477 0
2018-01-11 16:17:17 GMT 22.79980 88.22800 32,000 304 477 0
2018-01-11 16:17:13 GMT 22.79562 88.23480 32,000 304 477 0
2018-01-11 16:17:11 GMT 22.79187 88.24099 32,000 304 477 0
2018-01-11 16:17:09 GMT 22.78880 88.24598 32,000 304 477 0
2018-01-11 16:17:07 GMT 22.78638 88.24998 32,000 304 478 0
2018-01-11 16:17:01 GMT 22.78001 88.26035 32,000 304 478 0
2018-01-11 16:16:59 GMT 22.77878 88.26236 32,000 304 478 0
2018-01-11 16:16:55 GMT 22.76875 88.27869 32,000 304 477 0
2018-01-11 16:16:51 GMT 22.76875 88.27869 32,000 304 477 0
2018-01-11 16:16:49 GMT 22.76595 88.28329 32,000 304 477 0
2018-01-11 16:16:44 GMT 22.75888 88.29483 32,000 304 477 0
2018-01-11 16:16:41 GMT 22.75218 88.30581 32,000 304 477 0
2018-01-11 16:16:38 GMT 22.75108 88.30761 32,000 304 477 0
2018-01-11 16:16:35 GMT 22.74788 88.31280 32,000 304 477 0
2018-01-11 16:16:31 GMT 22.74385 88.31934 32,000 304 477 0
2018-01-11 16:16:28 GMT 22.74129 88.32354 32,000 304 477 0
2018-01-11 16:16:26 GMT 22.73690 88.33069 32,000 304 477 0
2018-01-11 16:16:24 GMT 22.73433 88.33487 32,000 304 477 0
2018-01-11 16:16:21 GMT 22.73190 88.33887 32,000 304 477 0
2018-01-11 16:16:18 GMT 22.72652 88.34763 32,000 304 478 0
2018-01-11 16:16:16 GMT 22.72652 88.34763 32,000 304 478 0
2018-01-11 16:16:13 GMT 22.72089 88.35683 32,000 304 478 0
2018-01-11 16:16:11 GMT 22.71794 88.36159 32,000 304 478 0
2018-01-11 16:16:07 GMT 22.71304 88.36958 32,000 304 478 0
2018-01-11 16:16:05 GMT 22.71304 88.36958 32,000 304 478 0
2018-01-11 16:15:59 GMT 22.70488 88.38292 32,000 304 478 0
2018-01-11 16:15:57 GMT 22.70302 88.38591 32,000 304 478 0
2018-01-11 16:15:55 GMT 22.69934 88.39188 32,000 304 478 0
2018-01-11 16:15:49 GMT 22.69128 88.40505 32,000 304 478 0
2018-01-11 16:15:45 GMT 22.68700 88.41203 32,000 304 478 0
2018-01-11 16:15:42 GMT 22.68355 88.41761 32,000 304 478 0
2018-01-11 16:15:36 GMT 22.67685 88.42860 32,000 304 478 0
2018-01-11 16:15:34 GMT 22.67308 88.43475 32,000 304 478 0
2018-01-11 16:15:31 GMT 22.66647 88.44554 32,000 304 477 0
2018-01-11 16:15:27 GMT 22.66502 88.44793 32,000 304 477 0
2018-01-11 16:15:24 GMT 22.66072 88.45492 32,000 304 478 0
2018-01-11 16:15:21 GMT 22.65230 88.46871 32,000 304 478 0
2018-01-11 16:15:15 GMT 22.65033 88.47190 32,000 304 478 0
2018-01-11 16:15:13 GMT 22.64703 88.47729 32,000 304 478 0
2018-01-11 16:15:11 GMT 22.64645 88.47829 32,000 304 478 0
2018-01-11 16:15:05 GMT 22.63849 88.49126 32,000 304 478 0
2018-01-11 16:15:02 GMT 22.63325 88.49987 32,000 304 478 0
2018-01-11 16:14:59 GMT 22.62425 88.51466 32,000 304 478 0
2018-01-11 16:14:52 GMT 22.62190 88.51844 32,000 304 478 0
2018-01-11 16:14:49 GMT 22.61498 88.52987 32,000 304 479 0
2018-01-11 16:14:44 GMT 22.61192 88.53487 32,000 304 479 0
2018-01-11 16:14:42 GMT 22.61145 88.53566 32,000 304 479 0
2018-01-11 16:14:38 GMT 22.60643 88.54386 32,000 304 479 0
2018-01-11 16:14:36 GMT 22.60451 88.54706 32,000 304 479 0
2018-01-11 16:14:33 GMT 22.59915 88.55585 32,000 304 479 0
2018-01-11 16:14:31 GMT 22.59782 88.55804 32,000 304 479 0
2018-01-11 16:14:26 GMT 22.58588 88.57767 32,000 304 479 0
2018-01-11 16:14:21 GMT 22.58125 88.58531 32,000 304 479 0
2018-01-11 16:14:19 GMT 22.58079 88.58611 32,000 304 479 0
2018-01-11 16:14:16 GMT 22.57947 88.58831 32,000 304 479 0
2018-01-11 16:14:11 GMT 22.57230 88.60011 32,000 304 479 0
2018-01-11 16:14:09 GMT 22.57155 88.60134 32,000 304 479 0
2018-01-11 16:14:05 GMT 22.56583 88.61074 32,000 304 479 0
2018-01-11 16:14:00 GMT 22.55827 88.62316 32,000 304 479 0
2018-01-11 16:13:56 GMT 22.54807 88.63999 32,000 304 479 0
2018-01-11 16:13:53 GMT 22.54683 88.64202 32,000 304 479 0
2018-01-11 16:13:49 GMT 22.54513 88.64479 32,000 304 479 0
2018-01-11 16:13:45 GMT 22.54184 88.65023 32,000 304 479 0
2018-01-11 16:13:42 GMT 22.53817 88.65621 32,000 304 479 0
2018-01-11 16:13:39 GMT 22.53240 88.66562 32,000 304 479 0
2018-01-11 16:13:37 GMT 22.53128 88.66740 32,000 304 479 0
2018-01-11 16:13:27 GMT 22.51936 88.68649 32,000 305 479 0
2018-01-11 16:13:23 GMT 22.51355 88.69553 32,000 306 480 0
2018-01-11 16:13:17 GMT 22.50545 88.70786 32,000 306 480 0
2018-01-11 16:13:13 GMT 22.49576 88.72253 32,000 306 480 0
2018-01-11 16:13:11 GMT 22.49460 88.72426 32,000 306 480 0
2018-01-11 16:13:06 GMT 22.49153 88.72894 32,000 306 480 0
2018-01-11 16:13:03 GMT 22.48700 88.73577 32,000 306 480 0
2018-01-11 16:13:00 GMT 22.48496 88.73891 32,000 306 479 0
2018-01-11 16:12:56 GMT 22.47762 88.75006 32,000 306 479 0
2018-01-11 16:12:54 GMT 22.47579 88.75280 32,000 306 479 0
2018-01-11 16:12:52 GMT 22.47386 88.75570 32,000 306 479 0
2018-01-11 16:12:50 GMT 22.47179 88.75885 32,000 306 479 0
2018-01-11 16:12:47 GMT 22.46779 88.76490 32,000 306 479 0
2018-01-11 16:12:45 GMT 22.46329 88.77173 32,000 306 480 0
2018-01-11 16:12:43 GMT 22.45773 88.78011 32,000 306 480 0
2018-01-11 16:12:40 GMT 22.45720 88.78092 32,000 306 480 0
2018-01-11 16:12:37 GMT 22.45424 88.78540 32,000 306 480 0
2018-01-11 16:12:33 GMT 22.44942 88.79260 32,000 306 480 0
2018-01-11 16:12:31 GMT 22.44567 88.79827 32,000 306 480 0
2018-01-11 16:12:28 GMT 22.44182 88.80409 32,000 306 479 0
2018-01-11 16:12:25 GMT 22.43857 88.80898 32,000 306 479 0
2018-01-11 16:12:23 GMT 22.43520 88.81404 32,000 306 479 0
2018-01-11 16:12:20 GMT 22.43147 88.81967 32,000 306 479 0
2018-01-11 16:12:18 GMT 22.42937 88.82282 32,000 306 479 0
2018-01-11 16:12:13 GMT 22.42278 88.83270 32,000 306 480 0
2018-01-11 16:12:11 GMT 22.42213 88.83370 32,000 306 480 0
2018-01-11 16:12:08 GMT 22.41577 88.84319 32,000 306 480 0
2018-01-11 16:12:03 GMT 22.40522 88.85895 32,000 306 479 0
2018-01-11 16:12:01 GMT 22.40341 88.86167 32,000 306 479 0
2018-01-11 16:11:56 GMT 22.40135 88.86476 32,000 306 479 0
2018-01-11 16:11:54 GMT 22.39665 88.87176 32,000 306 479 0
2018-01-11 16:11:51 GMT 22.39394 88.87580 32,000 306 479 0
2018-01-11 16:11:48 GMT 22.38950 88.88239 32,000 306 479 0
2018-01-11 16:11:45 GMT 22.38818 88.88433 32,000 306 479 0
2018-01-11 16:11:40 GMT 22.37970 88.89692 32,000 306 479 0
2018-01-11 16:11:38 GMT 22.37920 88.89771 32,000 306 479 0
2018-01-11 16:11:36 GMT 22.37370 88.90584 32,000 306 479 0
2018-01-11 16:11:33 GMT 22.36720 88.91550 32,000 306 479 0
2018-01-11 16:11:30 GMT 22.36720 88.91550 32,000 306 479 0
2018-01-11 16:11:28 GMT 22.36523 88.91840 32,000 306 479 0
2018-01-11 16:11:26 GMT 22.36144 88.92404 32,000 306 479 0
2018-01-11 16:11:24 GMT 22.36002 88.92614 32,000 306 479 0
2018-01-11 16:11:18 GMT 22.35100 88.93952 32,000 306 479 0
2018-01-11 16:11:14 GMT 22.34775 88.94436 32,000 306 479 0
2018-01-11 16:11:12 GMT 22.34322 88.95110 32,000 306 478 0
2018-01-11 16:11:09 GMT 22.33878 88.95770 32,000 304 479 0
2018-01-11 16:11:06 GMT 22.33604 88.96179 32,000 306 479 0
2018-01-11 16:11:04 GMT 22.33204 88.96779 32,000 306 478 0
2018-01-11 16:10:59 GMT 22.32184 88.98316 32,000 306 479 0
2018-01-11 16:10:55 GMT 22.32124 88.98412 32,000 306 478 0
2018-01-11 16:10:53 GMT 22.31919 88.98727 32,000 305 478 0
2018-01-11 16:10:51 GMT 22.30942 89.00263 32,000 304 478 64
2018-01-11 16:10:45 GMT 22.30867 89.00380 32,000 304 478 64
2018-01-11 16:10:43 GMT 22.30609 89.00799 32,000 304 478 0
2018-01-11 16:10:37 GMT 22.29559 89.02512 32,000 304 478 0
2018-01-11 16:10:33 GMT 22.29373 89.02811 32,000 304 479 0
2018-01-11 16:10:31 GMT 22.28993 89.03430 32,000 304 478 0
2018-01-11 16:10:29 GMT 22.28883 89.03605 32,000 304 478 0
2018-01-11 16:10:23 GMT 22.28128 89.04838 32,000 304 478 0
2018-01-11 16:10:21 GMT 22.27721 89.05498 32,000 304 478 0
2018-01-11 16:10:18 GMT 22.27599 89.05696 32,000 304 478 0
2018-01-11 16:10:11 GMT 22.26668 89.07206 32,000 304 478 0
2018-01-11 16:10:08 GMT 22.26328 89.07761 32,000 304 478 0
2018-01-11 16:10:06 GMT 22.26072 89.08178 32,000 304 478 0
2018-01-11 16:10:00 GMT 22.25326 89.09393 32,000 304 478 0
2018-01-11 16:09:57 GMT 22.24960 89.09988 32,000 304 478 0
2018-01-11 16:09:55 GMT 22.24457 89.10801 32,000 304 478 0
2018-01-11 16:09:54 GMT 22.24736 89.10347 32,000 304 478 0
2018-01-11 16:09:50 GMT 22.24274 89.11101 32,000 304 478 0
2018-01-11 16:09:48 GMT 22.24089 89.11397 32,000 304 478 0
2018-01-11 16:09:45 GMT 22.23488 89.12369 32,000 304 477 0
2018-01-11 16:09:39 GMT 22.22781 89.13523 32,000 304 477 0
2018-01-11 16:09:37 GMT 22.22706 89.13640 32,000 304 477 0
2018-01-11 16:09:34 GMT 22.22171 89.14510 32,000 304 477 0
2018-01-11 16:09:28 GMT 22.21422 89.15720 32,000 304 477 0
2018-01-11 16:09:26 GMT 22.21375 89.15802 32,000 304 477 0
2018-01-11 16:09:24 GMT 22.21069 89.16299 32,000 304 477 0
2018-01-11 16:09:22 GMT 22.20751 89.16814 32,000 304 477 0
2018-01-11 16:09:19 GMT 22.20360 89.17448 32,000 304 477 0
2018-01-11 16:09:16 GMT 22.19881 89.18223 32,000 304 477 0
2018-01-11 16:09:12 GMT 22.19504 89.18833 32,000 304 477 0
2018-01-11 16:09:10 GMT 22.19280 89.19195 32,000 304 477 0
2018-01-11 16:09:06 GMT 22.18791 89.19983 32,000 304 477 0
2018-01-11 16:09:04 GMT 22.18656 89.20202 32,000 304 477 0
2018-01-11 16:09:01 GMT 22.18107 89.21097 32,000 304 477 0
2018-01-11 16:08:59 GMT 22.17544 89.22007 32,000 304 477 0
2018-01-11 16:08:55 GMT 22.17348 89.22323 32,000 304 477 0
2018-01-11 16:08:53 GMT 22.17167 89.22618 32,000 304 477 0
2018-01-11 16:08:51 GMT 22.16859 89.23116 32,000 304 477 0
2018-01-11 16:08:49 GMT 22.16418 89.23830 32,000 304 477 0
2018-01-11 16:08:44 GMT 22.16039 89.24444 32,000 304 477 0
2018-01-11 16:08:42 GMT 22.15854 89.24739 32,000 304 477 0
2018-01-11 16:08:38 GMT 22.15352 89.25553 32,000 304 477 0
2018-01-11 16:08:35 GMT 22.14718 89.26580 32,000 304 477 0
2018-01-11 16:08:32 GMT 22.14718 89.26580 32,000 304 477 0
2018-01-11 16:08:30 GMT 22.14057 89.27653 32,000 304 477 0
2018-01-11 16:08:27 GMT 22.14057 89.27653 32,000 304 477 0
2018-01-11 16:08:22 GMT 22.13359 89.28782 32,000 304 477 0
2018-01-11 16:08:20 GMT 22.13063 89.29258 32,000 304 477 0
2018-01-11 16:08:17 GMT 22.12721 89.29815 32,000 304 477 0
2018-01-11 16:08:11 GMT 22.12033 89.30921 32,000 304 477 0
2018-01-11 16:08:08 GMT 22.11776 89.31335 32,000 304 477 0
2018-01-11 16:08:06 GMT 22.11473 89.31834 32,000 304 477 0
2018-01-11 16:08:02 GMT 22.10910 89.32744 32,000 304 477 0
2018-01-11 16:08:00 GMT 22.10637 89.33178 32,000 304 477 0
2018-01-11 16:07:58 GMT 22.10481 89.33438 32,000 304 477 0
2018-01-11 16:07:56 GMT 22.10211 89.33872 32,000 304 477 0
2018-01-11 16:07:54 GMT 22.10114 89.34031 32,000 304 477 0
2018-01-11 16:07:50 GMT 22.09551 89.34942 32,000 304 477 0
2018-01-11 16:07:48 GMT 22.09267 89.35394 32,000 304 478 0
2018-01-11 16:07:46 GMT 22.08934 89.35930 32,000 304 478 0
2018-01-11 16:07:44 GMT 22.08810 89.36129 32,000 304 478 0
2018-01-11 16:07:40 GMT 22.08225 89.37078 32,000 304 477 -64
2018-01-11 16:07:37 GMT 22.07796 89.37775 32,000 304 477 0
2018-01-11 16:07:35 GMT 22.07735 89.37872 32,000 304 477 0
2018-01-11 16:07:33 GMT 22.07487 89.38267 32,000 304 477 0
2018-01-11 16:07:29 GMT 22.06837 89.39316 32,000 304 477 0
2018-01-11 16:07:26 GMT 22.06483 89.39890 32,000 304 477 0
2018-01-11 16:07:24 GMT 22.06224 89.40304 32,000 304 477 0
2018-01-11 16:07:21 GMT 22.06078 89.40542 32,000 304 477 0
2018-01-11 16:07:18 GMT 22.05574 89.41353 32,000 304 477 0
2018-01-11 16:07:13 GMT 22.05026 89.42245 32,000 304 477 0
2018-01-11 16:07:11 GMT 22.04826 89.42561 32,000 304 478 0
2018-01-11 16:07:07 GMT 22.03857 89.44124 32,000 304 478 0
2018-01-11 16:07:03 GMT 22.03784 89.44244 32,000 304 478 0
2018-01-11 16:07:01 GMT 22.03466 89.44758 32,000 304 478 0
2018-01-11 16:06:59 GMT 22.03406 89.44860 32,000 304 478 0
2018-01-11 16:06:57 GMT 22.02950 89.45592 32,000 304 478 0
2018-01-11 16:06:55 GMT 22.02815 89.45811 32,000 304 478 0
2018-01-11 16:06:53 GMT 22.02154 89.46879 32,000 304 478 0
2018-01-11 16:06:48 GMT 22.01967 89.47174 32,000 304 478 0
2018-01-11 16:06:46 GMT 22.01601 89.47770 32,000 304 478 0
2018-01-11 16:06:43 GMT 22.01157 89.48479 32,000 304 478 0
2018-01-11 16:06:41 GMT 22.00962 89.48797 32,000 304 478 0
2018-01-11 16:06:39 GMT 22.00431 89.49651 32,000 304 478 0
2018-01-11 16:06:35 GMT 22.00287 89.49887 32,000 304 478 0
2018-01-11 16:06:32 GMT 21.99843 89.50597 32,000 304 478 0
2018-01-11 16:06:30 GMT 21.99607 89.50974 32,000 304 478 0
2018-01-11 16:06:26 GMT 21.99353 89.51390 32,000 304 478 0
2018-01-11 16:06:23 GMT 21.98900 89.52125 32,000 304 478 0
2018-01-11 16:06:20 GMT 21.98467 89.52815 32,000 304 478 0
2018-01-11 16:06:18 GMT 21.98296 89.53093 32,000 304 478 0
2018-01-11 16:06:16 GMT 21.98085 89.53430 32,000 304 478 0
2018-01-11 16:06:12 GMT 21.97582 89.54242 32,000 304 478 0
2018-01-11 16:06:09 GMT 21.97079 89.55053 32,000 304 478 0
2018-01-11 16:06:06 GMT 21.96856 89.55409 32,000 304 478 0
2018-01-11 16:06:03 GMT 21.96304 89.56299 32,000 304 478 0
2018-01-11 16:05:58 GMT 21.95715 89.57250 32,000 304 478 0
2018-01-11 16:05:54 GMT 21.95404 89.57743 32,000 304 478 0
2018-01-11 16:05:52 GMT 21.94986 89.58417 32,000 304 478 0
2018-01-11 16:05:49 GMT 21.94505 89.59188 32,000 304 478 0
2018-01-11 16:05:47 GMT 21.94324 89.59488 32,000 304 478 0
2018-01-11 16:05:46 GMT 21.94382 89.59386 32,000 304 478 0
2018-01-11 16:05:43 GMT 21.93965 89.60058 32,000 304 478 0
2018-01-11 16:05:41 GMT 21.93668 89.60534 32,000 304 478 0
2018-01-11 16:05:36 GMT 21.92978 89.61644 32,000 304 478 0
2018-01-11 16:05:32 GMT 21.92624 89.62219 32,000 304 478 0
2018-01-11 16:05:30 GMT 21.92363 89.62632 32,000 304 478 0
2018-01-11 16:05:27 GMT 21.91996 89.63226 32,000 304 478 0
2018-01-11 16:05:25 GMT 21.91572 89.63903 32,000 304 478 0
2018-01-11 16:05:20 GMT 21.91022 89.64794 32,000 304 478 0
2018-01-11 16:05:15 GMT 21.90450 89.65703 32,000 304 479 0
2018-01-11 16:05:13 GMT 21.90069 89.66319 32,000 304 479 0
2018-01-11 16:05:09 GMT 21.89648 89.66991 32,000 304 479 -64
2018-01-11 16:05:04 GMT 21.89147 89.67804 32,000 304 479 0
2018-01-11 16:05:01 GMT 21.88723 89.68475 32,000 304 479 0
2018-01-11 16:04:57 GMT 21.88307 89.69148 32,000 304 479 0
2018-01-11 16:04:54 GMT 21.87764 89.70022 32,000 304 479 64
2018-01-11 16:04:50 GMT 21.87318 89.70736 32,000 304 479 64
2018-01-11 16:04:47 GMT 21.86591 89.71904 32,000 304 479 64
2018-01-11 16:04:43 GMT 21.86467 89.72100 32,000 304 479 0
2018-01-11 16:04:37 GMT 21.85739 89.73272 32,000 304 479 0
2018-01-11 16:04:31 GMT 21.85144 89.74222 32,000 304 479 0
2018-01-11 16:04:26 GMT 21.84357 89.75490 32,000 304 479 0
2018-01-11 16:04:23 GMT 21.83995 89.76065 32,000 304 480 0
2018-01-11 16:04:21 GMT 21.83789 89.76400 32,000 304 480 0
2018-01-11 16:04:19 GMT 21.83109 89.77488 32,000 304 480 0
2018-01-11 16:04:15 GMT 21.82997 89.77671 32,000 304 480 0
2018-01-11 16:04:11 GMT 21.82439 89.78561 32,000 304 480 0
2018-01-11 16:04:06 GMT 21.81810 89.79574 32,000 304 480 0
2018-01-11 16:04:04 GMT 21.81711 89.79730 32,000 304 480 0
2018-01-11 16:03:59 GMT 21.81177 89.80581 32,000 304 480 0
2018-01-11 16:03:54 GMT 21.80374 89.81873 32,000 304 480 0
2018-01-11 16:03:50 GMT 21.80074 89.82346 32,000 304 480 0
2018-01-11 16:03:48 GMT 21.79793 89.82801 32,000 304 480 0
2018-01-11 16:03:43 GMT 21.79059 89.83973 32,000 304 480 0
2018-01-11 16:03:41 GMT 21.78873 89.84270 32,000 304 480 0
2018-01-11 16:03:39 GMT 21.78493 89.84884 32,000 304 480 0
2018-01-11 16:03:36 GMT 21.77884 89.85858 32,000 304 480 0
2018-01-11 16:03:32 GMT 21.77724 89.86112 32,000 304 480 0
2018-01-11 16:03:32 GMT 21.77724 89.86112 32,000 304 480 0
2018-01-11 16:03:30 GMT 21.77411 89.86608 32,000 304 480 0
2018-01-11 16:03:28 GMT 21.77252 89.86866 32,000 304 480 0
2018-01-11 16:03:25 GMT 21.76369 89.88275 32,000 304 480 0
2018-01-11 16:03:20 GMT 21.76369 89.88275 32,000 304 480 0
2018-01-11 16:03:20 GMT 21.76369 89.88275 32,000 304 480 0
2018-01-11 16:03:16 GMT 21.75046 89.90397 32,000 304 480 0
2018-01-11 16:03:11 GMT 21.75046 89.90397 32,000 304 480 0
2018-01-11 16:03:09 GMT 21.74534 89.91211 32,000 304 481 0
2018-01-11 16:03:05 GMT 21.74410 89.91411 32,000 304 481 0
2018-01-11 16:03:00 GMT 21.73727 89.92499 32,000 304 481 0
2018-01-11 16:03:00 GMT 21.73682 89.92579 32,000 304 481 0
2018-01-11 16:02:57 GMT 21.73416 89.92994 32,000 304 481 0
2018-01-11 16:02:55 GMT 21.72514 89.94447 32,000 304 481 0
2018-01-11 16:02:49 GMT 21.72377 89.94662 32,000 304 481 0
2018-01-11 16:02:46 GMT 21.71965 89.95321 32,000 304 481 0
2018-01-11 16:02:44 GMT 21.71855 89.95496 32,000 304 481 0
2018-01-11 16:02:41 GMT 21.71061 89.96765 32,000 304 481 0
2018-01-11 16:02:39 GMT 21.71061 89.96765 32,000 304 481 0
2018-01-11 16:02:37 GMT 21.71061 89.96765 32,000 304 481 0
2018-01-11 16:02:37 GMT 21.70999 89.96869 32,000 304 481 0
2018-01-11 16:02:34 GMT 21.70452 89.97742 32,000 304 481 0
2018-01-11 16:02:28 GMT 21.69731 89.98891 32,000 304 481 0
2018-01-11 16:02:26 GMT 21.69656 89.99008 32,000 304 481 0
2018-01-11 16:02:24 GMT 21.69282 89.99605 32,000 304 481 0
2018-01-11 16:02:21 GMT 21.68848 90.00300 32,000 304 481 0
2018-01-11 16:02:17 GMT 21.68349 90.01094 32,000 304 481 0
2018-01-11 16:02:17 GMT 21.68349 90.01094 32,000 304 481 0
2018-01-11 16:02:11 GMT 21.67740 90.02067 32,000 304 481 0
2018-01-11 16:02:09 GMT 21.67416 90.02584 32,000 304 481 0
2018-01-11 16:02:06 GMT 21.67053 90.03164 32,000 304 481 0
2018-01-11 16:02:01 GMT 21.66397 90.04216 32,000 304 482 0
2018-01-11 16:01:57 GMT 21.65936 90.04949 32,000 304 482 0
2018-01-11 16:01:54 GMT 21.65685 90.05348 32,000 304 482 0
2018-01-11 16:01:51 GMT 21.65163 90.06182 32,000 304 482 0
2018-01-11 16:01:49 GMT 21.65048 90.06362 32,000 304 482 0
2018-01-11 16:01:47 GMT 21.64613 90.07056 32,000 304 482 0
2018-01-11 16:01:45 GMT 21.64065 90.07930 32,000 304 482 0
2018-01-11 16:01:43 GMT 21.64065 90.07930 32,000 304 482 0
2018-01-11 16:01:41 GMT 21.63863 90.08250 32,000 304 482 0
2018-01-11 16:01:38 GMT 21.63666 90.08569 32,000 304 482 0
2018-01-11 16:01:34 GMT 21.62994 90.09638 32,000 304 482 0
2018-01-11 16:01:32 GMT 21.62854 90.09857 32,000 304 482 0
2018-01-11 16:01:29 GMT 21.62342 90.10676 32,000 304 482 0
2018-01-11 16:01:25 GMT 21.61881 90.11409 32,000 304 482 0
2018-01-11 16:01:23 GMT 21.61642 90.11785 32,000 304 482 0
2018-01-11 16:01:19 GMT 21.61258 90.12405 32,000 304 482 0
2018-01-11 16:01:17 GMT 21.60535 90.13558 32,000 304 482 0
2018-01-11 16:01:12 GMT 21.60283 90.13953 32,000 304 482 0
2018-01-11 16:01:07 GMT 21.59734 90.14826 32,000 304 482 0
2018-01-11 16:01:02 GMT 21.58923 90.16120 32,000 304 482 0
2018-01-11 16:01:00 GMT 21.58923 90.16120 32,000 304 482 0
2018-01-11 16:00:56 GMT 21.58374 90.16994 32,000 304 482 0
2018-01-11 16:00:56 GMT 21.58310 90.17094 32,000 304 482 0
2018-01-11 16:00:51 GMT 21.57636 90.18168 32,000 304 482 0
2018-01-11 16:00:49 GMT 21.57060 90.19081 32,000 304 482 0
2018-01-11 16:00:46 GMT 21.57010 90.19161 32,000 304 482 0
2018-01-11 16:00:42 GMT 21.56584 90.19835 32,000 304 482 0
2018-01-11 16:00:40 GMT 21.56264 90.20350 32,000 304 482 -64
2018-01-11 16:00:38 GMT 21.55988 90.20788 32,000 304 482 -64
2018-01-11 16:00:35 GMT 21.55650 90.21323 32,000 304 482 -64
2018-01-11 16:00:29 GMT 21.54912 90.22496 32,000 304 482 0
2018-01-11 16:00:27 GMT 21.54510 90.23131 32,000 304 482 0
2018-01-11 16:00:24 GMT 21.54326 90.23427 32,000 304 482 0
2018-01-11 16:00:21 GMT 21.53548 90.24658 32,000 305 482 0
2018-01-11 16:00:17 GMT 21.53488 90.24760 32,000 305 482 0
2018-01-11 16:00:14 GMT 21.52999 90.25533 32,000 305 482 0
2018-01-11 16:00:08 GMT 21.52263 90.26702 32,000 304 482 0
2018-01-11 16:00:06 GMT 21.51727 90.27556 32,000 304 482 0
2018-01-11 16:00:03 GMT 21.51025 90.28666 32,000 304 482 0
2018-01-11 15:59:57 GMT 21.50862 90.28926 32,000 304 482 0
2018-01-11 15:59:52 GMT 21.50240 90.29918 32,000 304 482 0
2018-01-11 15:59:46 GMT 21.49539 90.31031 32,000 305 482 0
2018-01-11 15:59:41 GMT 21.48976 90.31920 32,000 305 482 0
2018-01-11 15:59:39 GMT 21.48251 90.33071 32,000 305 482 0
2018-01-11 15:59:34 GMT 21.48129 90.33269 32,000 305 482 0
2018-01-11 15:59:29 GMT 21.47589 90.34122 32,000 305 482 0
2018-01-11 15:59:24 GMT 21.46838 90.35316 32,000 305 482 0
2018-01-11 15:59:19 GMT 21.46175 90.36365 32,000 305 482 0
2018-01-11 15:59:14 GMT 21.45486 90.37455 32,000 305 482 0
2018-01-11 15:59:08 GMT 21.44801 90.38549 32,000 305 482 0
2018-01-11 15:59:05 GMT 21.44334 90.39281 32,000 305 482 0
2018-01-11 15:59:03 GMT 21.44136 90.39597 32,000 305 482 0
2018-01-11 15:58:57 GMT 21.43538 90.40550 32,000 305 482 0
2018-01-11 15:58:53 GMT 21.42823 90.41682 32,000 305 482 0
2018-01-11 15:58:51 GMT 21.42711 90.41860 32,000 305 482 0
2018-01-11 15:58:47 GMT 21.42233 90.42612 32,000 305 482 -64
2018-01-11 15:58:41 GMT 21.41354 90.44000 32,000 305 482 0
2018-01-11 15:58:37 GMT 21.40854 90.44795 32,000 305 482 0
2018-01-11 15:58:35 GMT 21.40104 90.45985 32,000 305 482 0
2018-01-11 15:58:30 GMT 21.39853 90.46382 32,000 305 482 0
2018-01-11 15:58:25 GMT 21.39551 90.46857 32,000 305 482 0
2018-01-11 15:58:20 GMT 21.38726 90.48167 32,000 304 483 0
2018-01-11 15:58:18 GMT 21.38438 90.48619 32,000 304 483 0
2018-01-11 15:58:14 GMT 21.37697 90.49795 32,000 304 483 0
2018-01-11 15:58:09 GMT 21.37372 90.50308 32,000 304 483 0
2018-01-11 15:58:07 GMT 21.37097 90.50746 32,000 304 483 0
2018-01-11 15:58:05 GMT 21.36855 90.51121 32,000 304 483 0
2018-01-11 15:57:59 GMT 21.36143 90.52251 32,000 305 483 0
2018-01-11 15:57:57 GMT 21.36017 90.52450 32,000 305 483 0
2018-01-11 15:57:54 GMT 21.35500 90.53263 32,000 305 483 0
2018-01-11 15:57:47 GMT 21.34709 90.54515 32,000 304 483 0
2018-01-11 15:57:43 GMT 21.34145 90.55406 32,000 304 483 0
2018-01-11 15:57:39 GMT 21.33783 90.55985 32,000 304 483 0
2018-01-11 15:57:35 GMT 21.33330 90.56699 32,000 304 483 0
2018-01-11 15:57:35 GMT 21.33256 90.56819 32,000 304 483 0
2018-01-11 15:57:31 GMT 21.32791 90.57551 32,000 305 483 0
2018-01-11 15:57:31 GMT 21.32679 90.57729 32,000 304 483 0
2018-01-11 15:57:29 GMT 21.32442 90.58108 32,000 304 483 0
2018-01-11 15:57:25 GMT 21.31878 90.59001 32,000 305 483 0
2018-01-11 15:57:21 GMT 21.31427 90.59713 32,000 305 483 0
2018-01-11 15:57:18 GMT 21.30634 90.60964 32,000 305 483 0
2018-01-11 15:57:14 GMT 21.30570 90.61066 32,000 305 483 0
2018-01-11 15:57:11 GMT 21.30095 90.61818 32,000 305 483 0
2018-01-11 15:57:07 GMT 21.29690 90.62454 32,000 305 483 0
2018-01-11 15:57:02 GMT 21.29113 90.63365 32,000 305 483 0
2018-01-11 15:57:02 GMT 21.29113 90.63365 32,000 305 483 0
2018-01-11 15:57:00 GMT 21.28750 90.63939 32,000 305 483 0
2018-01-11 15:56:56 GMT 21.28224 90.64774 32,000 305 483 0
2018-01-11 15:56:56 GMT 21.28299 90.64657 32,000 305 483 0
2018-01-11 15:56:51 GMT 21.27772 90.65486 32,000 305 483 0
2018-01-11 15:56:49 GMT 21.27330 90.66182 32,000 305 483 0
2018-01-11 15:56:44 GMT 21.26802 90.67017 32,000 305 483 0
2018-01-11 15:56:42 GMT 21.26427 90.67612 32,000 305 483 0
2018-01-11 15:56:42 GMT 21.26488 90.67510 32,000 305 483 0
2018-01-11 15:56:38 GMT 21.26036 90.68227 32,000 305 483 0
2018-01-11 15:56:35 GMT 21.25422 90.69199 32,000 305 483 0
2018-01-11 15:56:33 GMT 21.25422 90.69199 32,000 305 483 0
2018-01-11 15:56:31 GMT 21.25081 90.69733 32,000 305 483 0
2018-01-11 15:56:31 GMT 21.25081 90.69733 32,000 305 483 0
2018-01-11 15:56:28 GMT 21.24655 90.70407 32,000 305 483 0
2018-01-11 15:56:22 GMT 21.24042 90.71371 32,000 305 483 0
2018-01-11 15:56:19 GMT 21.23666 90.71966 32,000 305 483 0
2018-01-11 15:56:17 GMT 21.23314 90.72520 32,000 305 483 0
2018-01-11 15:56:12 GMT 21.22763 90.73395 32,000 305 483 0
2018-01-11 15:56:09 GMT 21.22421 90.73928 32,000 305 483 0
2018-01-11 15:56:05 GMT 21.21968 90.74642 32,000 305 483 0
2018-01-11 15:55:59 GMT 21.21030 90.76125 32,000 305 483 0
2018-01-11 15:55:56 GMT 21.20663 90.76700 32,000 305 483 0
2018-01-11 15:55:48 GMT 21.19672 90.78262 32,000 305 483 0
2018-01-11 15:55:45 GMT 21.19318 90.78817 32,000 305 483 0
2018-01-11 15:55:39 GMT 21.18644 90.79885 32,000 305 483 0
2018-01-11 15:55:36 GMT 21.18178 90.80615 32,000 305 483 0
2018-01-11 15:55:33 GMT 21.17913 90.81029 32,000 305 483 0
2018-01-11 15:55:29 GMT 21.17275 90.82041 32,000 305 483 0
2018-01-11 15:55:27 GMT 21.17033 90.82417 31,975 305 483 64
2018-01-11 15:55:24 GMT 21.16595 90.83110 31,975 305 483 0
2018-01-11 15:55:21 GMT 21.15642 90.84610 31,975 305 483 0
2018-01-11 15:55:16 GMT 21.15642 90.84610 31,975 305 483 0
2018-01-11 15:55:12 GMT 21.14761 90.85993 31,975 305 482 -64
2018-01-11 15:55:07 GMT 21.14575 90.86288 31,975 305 482 -64
2018-01-11 15:55:05 GMT 21.14249 90.86802 32,000 305 482 -64
2018-01-11 15:55:01 GMT 21.13923 90.87316 32,000 305 482 0
2018-01-11 15:54:54 GMT 21.12881 90.88959 32,000 305 482 0
2018-01-11 15:54:50 GMT 21.12554 90.89472 32,000 305 483 0
2018-01-11 15:54:45 GMT 21.11828 90.90617 32,000 305 482 64
2018-01-11 15:54:41 GMT 21.11298 90.91446 31,975 305 482 64
2018-01-11 15:54:36 GMT 21.10671 90.92435 31,975 305 482 -64
2018-01-11 15:54:34 GMT 21.10281 90.93044 31,975 305 482 -64
2018-01-11 15:54:31 GMT 21.10152 90.93241 32,000 305 482 -64
2018-01-11 15:54:29 GMT 21.09915 90.93618 31,975 305 482 -64
2018-01-11 15:54:23 GMT 21.09210 90.94722 31,975 305 482 -64
2018-01-11 15:54:21 GMT 21.08844 90.95296 31,975 305 483 0
2018-01-11 15:54:19 GMT 21.08569 90.95731 31,975 305 483 0
2018-01-11 15:54:15 GMT 21.08125 90.96425 31,975 305 483 0
2018-01-11 15:54:09 GMT 21.07192 90.97888 32,000 305 483 0
2018-01-11 15:54:02 GMT 21.06512 90.98953 32,000 305 483 0
2018-01-11 15:53:58 GMT 21.05870 90.99965 32,000 305 484 0
2018-01-11 15:53:54 GMT 21.05441 91.00637 32,000 305 484 0
2018-01-11 15:53:48 GMT 21.04580 91.01985 32,000 305 485 0
2018-01-11 15:53:48 GMT 21.04580 91.01985 32,000 305 485 0
2018-01-11 15:53:46 GMT 21.04454 91.02183 32,000 305 485 0
2018-01-11 15:53:42 GMT 21.04024 91.02857 32,000 305 485 0
2018-01-11 15:53:35 GMT 21.03127 91.04265 32,000 305 485 0
2018-01-11 15:53:32 GMT 21.02723 91.04900 32,000 305 485 64
2018-01-11 15:53:29 GMT 21.02142 91.05812 32,000 305 485 64
2018-01-11 15:53:26 GMT 21.01813 91.06327 31,975 305 485 64
2018-01-11 15:53:18 GMT 21.00915 91.07740 31,975 305 485 0
2018-01-11 15:53:14 GMT 21.00114 91.08990 32,000 305 485 0
2018-01-11 15:53:09 GMT 20.99799 91.09484 32,000 305 485 0
2018-01-11 15:53:03 GMT 20.99002 91.10736 32,000 305 485 0
2018-01-11 15:53:00 GMT 20.98621 91.11332 32,000 305 485 0
2018-01-11 15:52:54 GMT 20.97709 91.12760 32,000 305 485 0
2018-01-11 15:52:52 GMT 20.97518 91.13059 32,000 305 485 0
2018-01-11 15:52:49 GMT 20.97216 91.13534 32,000 305 485 0
2018-01-11 15:52:43 GMT 20.96402 91.14802 32,000 305 486 0
2018-01-11 15:52:40 GMT 20.96150 91.15199 32,000 305 485 0
2018-01-11 15:52:38 GMT 20.95884 91.15616 32,000 305 486 0
2018-01-11 15:52:31 GMT 20.94804 91.17304 32,000 305 486 0
2018-01-11 15:52:29 GMT 20.94637 91.17564 32,000 305 486 0
2018-01-11 15:52:27 GMT 20.94525 91.17739 32,000 305 486 0
2018-01-11 15:52:20 GMT 20.93381 91.19525 32,000 305 485 0
2018-01-11 15:52:16 GMT 20.93114 91.19946 32,000 305 485 0
2018-01-11 15:52:11 GMT 20.92276 91.21254 32,000 305 486 0
2018-01-11 15:52:08 GMT 20.91960 91.21748 32,000 305 486 0
2018-01-11 15:52:08 GMT 20.91960 91.21748 32,000 305 486 0
2018-01-11 15:51:59 GMT 20.90932 91.23361 32,000 305 486 0
2018-01-11 15:51:56 GMT 20.90401 91.24195 32,000 305 486 0
2018-01-11 15:51:52 GMT 20.89953 91.24890 32,000 305 486 0
2018-01-11 15:51:49 GMT 20.89572 91.25485 32,000 305 486 0
2018-01-11 15:51:47 GMT 20.89206 91.26058 32,000 305 486 0
2018-01-11 15:51:43 GMT 20.88927 91.26495 32,000 305 486 0
2018-01-11 15:51:39 GMT 20.88212 91.27606 32,000 305 486 0
2018-01-11 15:51:33 GMT 20.87565 91.28620 32,000 305 486 0
2018-01-11 15:51:28 GMT 20.86839 91.29752 32,000 305 486 0
2018-01-11 15:51:23 GMT 20.86346 91.30523 32,000 305 486 0
2018-01-11 15:51:20 GMT 20.85988 91.31081 32,000 305 486 0
2018-01-11 15:51:16 GMT 20.85494 91.31851 32,000 305 486 0
2018-01-11 15:51:14 GMT 20.85052 91.32545 32,000 305 486 0
2018-01-11 15:51:09 GMT 20.84618 91.33219 32,000 305 486 0
2018-01-11 15:51:06 GMT 20.84111 91.34013 32,000 305 486 0
2018-01-11 15:51:03 GMT 20.83664 91.34707 32,000 305 486 0
2018-01-11 15:50:59 GMT 20.83273 91.35322 32,000 305 486 0
2018-01-11 15:50:56 GMT 20.82766 91.36116 32,000 305 486 0
2018-01-11 15:50:52 GMT 20.82266 91.36888 32,000 305 486 0
2018-01-11 15:50:49 GMT 20.82002 91.37304 32,000 305 486 0
2018-01-11 15:50:45 GMT 20.81415 91.38212 32,000 305 486 0
2018-01-11 15:50:41 GMT 20.80934 91.38967 32,000 305 486 0
2018-01-11 15:50:37 GMT 20.80550 91.39561 32,000 305 486 0
2018-01-11 15:50:33 GMT 20.80032 91.40375 32,000 305 486 0
2018-01-11 15:50:31 GMT 20.79572 91.41089 32,000 305 486 0
2018-01-11 15:50:28 GMT 20.79367 91.41404 32,000 305 486 0
2018-01-11 15:50:24 GMT 20.78720 91.42413 32,000 305 486 0
2018-01-11 15:50:19 GMT 20.78097 91.43387 32,000 305 486 0
2018-01-11 15:50:17 GMT 20.77985 91.43561 32,000 305 486 0
2018-01-11 15:50:12 GMT 20.77310 91.44615 32,000 305 485 0
2018-01-11 15:50:09 GMT 20.76814 91.45387 32,000 305 485 0
2018-01-11 15:50:06 GMT 20.76585 91.45740 32,000 305 485 0
2018-01-11 15:50:02 GMT 20.75951 91.46732 32,000 305 485 0
2018-01-11 15:49:57 GMT 20.75415 91.47561 32,000 305 485 0
2018-01-11 15:49:55 GMT 20.75226 91.47859 32,000 305 485 0
2018-01-11 15:49:52 GMT 20.74612 91.48811 32,000 305 485 0
2018-01-11 15:49:47 GMT 20.74104 91.49600 32,000 305 485 0
2018-01-11 15:49:44 GMT 20.73711 91.50213 32,000 305 485 0
2018-01-11 15:49:40 GMT 20.73276 91.50885 32,000 305 485 0
2018-01-11 15:49:32 GMT 20.72232 91.52509 32,000 305 486 0
2018-01-11 15:49:27 GMT 20.71598 91.53499 32,000 305 486 0
2018-01-11 15:49:23 GMT 20.71114 91.54248 32,000 305 486 0
2018-01-11 15:49:20 GMT 20.70513 91.55177 32,000 305 486 0
2018-01-11 15:49:18 GMT 20.69852 91.56202 32,000 305 485 0
2018-01-11 15:49:11 GMT 20.69623 91.56560 32,000 305 486 0
2018-01-11 15:49:09 GMT 20.69191 91.57229 32,000 305 485 0
2018-01-11 15:49:06 GMT 20.68872 91.57727 32,000 305 485 0
2018-01-11 15:49:04 GMT 20.67916 91.59207 32,000 305 485 0
2018-01-11 15:48:56 GMT 20.67513 91.59841 32,000 305 485 0
2018-01-11 15:48:53 GMT 20.67129 91.60430 32,000 305 485 0
2018-01-11 15:48:47 GMT 20.66455 91.61479 32,000 305 486 0
2018-01-11 15:48:45 GMT 20.66109 91.62013 32,000 305 486 0
2018-01-11 15:48:43 GMT 20.65869 91.62387 32,000 305 486 0
2018-01-11 15:48:37 GMT 20.65054 91.63652 32,000 305 485 0
2018-01-11 15:48:34 GMT 20.64848 91.63966 32,000 305 485 0
2018-01-11 15:48:32 GMT 20.64406 91.64655 32,000 305 485 0
2018-01-11 15:48:25 GMT 20.63707 91.65744 32,000 305 484 0
2018-01-11 15:48:23 GMT 20.63374 91.66257 32,000 305 484 0
2018-01-11 15:48:21 GMT 20.63018 91.66807 32,000 305 484 0
2018-01-11 15:48:15 GMT 20.62331 91.67875 32,000 305 484 0
2018-01-11 15:48:12 GMT 20.61757 91.68760 32,000 305 484 0
2018-01-11 15:48:10 GMT 20.61630 91.68959 32,000 305 484 0
2018-01-11 15:48:10 GMT 20.61630 91.68959 32,000 305 484 0
2018-01-11 15:48:05 GMT 20.60993 91.69943 32,000 305 484 0
2018-01-11 15:48:00 GMT 20.60560 91.70613 32,000 305 484 0
2018-01-11 15:47:58 GMT 20.60193 91.71187 32,000 305 484 0
2018-01-11 15:47:58 GMT 20.60193 91.71187 32,000 305 484 0
2018-01-11 15:47:54 GMT 20.59606 91.72096 32,000 305 484 0
2018-01-11 15:47:50 GMT 20.59289 91.72585 32,000 305 484 0
2018-01-11 15:47:48 GMT 20.58782 91.73374 32,000 305 484 0
2018-01-11 15:47:43 GMT 20.58256 91.74182 32,000 305 484 0
2018-01-11 15:47:38 GMT 20.57763 91.74952 32,000 305 484 0
2018-01-11 15:47:36 GMT 20.57367 91.75562 32,000 305 484 0
2018-01-11 15:47:33 GMT 20.56938 91.76233 32,000 305 484 0
2018-01-11 15:47:28 GMT 20.56515 91.76880 32,000 305 484 0
2018-01-11 15:47:26 GMT 20.56073 91.77569 32,000 305 484 0
2018-01-11 15:47:22 GMT 20.55514 91.78438 32,000 305 484 0
2018-01-11 15:47:17 GMT 20.55104 91.79067 32,000 305 484 0
2018-01-11 15:47:14 GMT 20.54713 91.79676 32,000 305 484 0
2018-01-11 15:47:10 GMT 20.54178 91.80505 32,000 305 484 0
2018-01-11 15:47:07 GMT 20.53810 91.81075 32,000 305 484 0
2018-01-11 15:47:04 GMT 20.53290 91.81883 32,000 305 484 0
2018-01-11 15:47:01 GMT 20.52842 91.82568 32,000 305 484 0
2018-01-11 15:46:53 GMT 20.51903 91.84026 32,000 305 484 0
2018-01-11 15:46:50 GMT 20.51473 91.84695 32,000 305 484 0
2018-01-11 15:46:42 GMT 20.50458 91.86268 32,000 305 484 0
2018-01-11 15:46:40 GMT 20.50383 91.86385 32,000 305 484 0
2018-01-11 15:46:38 GMT 20.50127 91.86777 32,000 305 484 0
2018-01-11 15:46:31 GMT 20.49076 91.88411 32,000 305 484 0
2018-01-11 15:46:29 GMT 20.49023 91.88489 32,000 305 484 0
2018-01-11 15:46:27 GMT 20.47945 91.90163 32,000 305 484 0
2018-01-11 15:46:22 GMT 20.47884 91.90258 32,000 305 484 0
2018-01-11 15:46:20 GMT 20.47665 91.90593 32,000 305 484 0
2018-01-11 15:46:18 GMT 20.47403 91.91005 32,000 305 484 0
2018-01-11 15:46:11 GMT 20.46450 91.92481 32,000 305 483 0
2018-01-11 15:46:08 GMT 20.46272 91.92756 32,000 305 484 0
2018-01-11 15:46:06 GMT 20.46020 91.93148 32,000 305 484 0
2018-01-11 15:46:00 GMT 20.45105 91.94563 32,000 305 484 0
2018-01-11 15:45:56 GMT 20.44737 91.95137 32,000 305 484 0
2018-01-11 15:45:54 GMT 20.44048 91.96196 32,000 305 484 0
2018-01-11 15:45:48 GMT 20.43553 91.96959 32,000 305 483 0
2018-01-11 15:45:46 GMT 20.43361 91.97254 32,000 305 483 0
2018-01-11 15:45:37 GMT 20.42157 91.99088 32,000 305 484 0
2018-01-11 15:45:35 GMT 20.41912 91.99462 32,000 305 484 0
2018-01-11 15:45:26 GMT 20.40820 92.01118 32,000 305 483 0
2018-01-11 15:45:26 GMT 20.40743 92.01235 32,000 305 483 0
2018-01-11 15:45:23 GMT 20.39960 92.02423 32,000 305 483 -64
2018-01-11 15:45:14 GMT 20.39255 92.03497 32,000 305 483 0
2018-01-11 15:45:08 GMT 20.37904 92.05542 32,000 305 483 0
2018-01-11 15:45:02 GMT 20.37762 92.05758 32,000 305 483 0
2018-01-11 15:45:00 GMT 20.37545 92.06088 32,000 305 483 0
2018-01-11 15:44:54 GMT 20.36659 92.07431 32,000 305 483 0
2018-01-11 15:44:50 GMT 20.36302 92.07976 32,000 305 483 0
2018-01-11 15:44:41 GMT 20.35080 92.09829 32,000 305 483 0
2018-01-11 15:44:37 GMT 20.33923 92.11577 32,000 306 482 0
2018-01-11 15:44:31 GMT 20.33693 92.11928 32,000 306 482 0
2018-01-11 15:44:29 GMT 20.33579 92.12105 32,000 306 482 0
2018-01-11 15:44:20 GMT 20.32331 92.13989 32,000 305 481 0
2018-01-11 15:44:17 GMT 20.32091 92.14356 32,000 305 481 0
2018-01-11 15:44:12 GMT 20.31322 92.15523 32,000 305 481 0
2018-01-11 15:44:09 GMT 20.30935 92.16106 32,000 305 481 0
2018-01-11 15:44:07 GMT 20.30795 92.16321 32,000 305 481 0
2018-01-11 15:44:05 GMT 20.30292 92.17078 32,000 305 481 0
2018-01-11 15:44:03 GMT 20.30035 92.17466 32,000 305 481 0
2018-01-11 15:43:56 GMT 20.29408 92.18417 31,975 306 482 0
2018-01-11 15:43:47 GMT 20.28127 92.20359 31,975 306 481 0
2018-01-11 15:43:45 GMT 20.27946 92.20630 32,000 306 481 0
2018-01-11 15:43:37 GMT 20.26833 92.22313 32,000 306 481 0
2018-01-11 15:43:34 GMT 20.25884 92.23748 32,000 306 481 0
2018-01-11 15:43:24 GMT 20.25256 92.24700 32,000 306 481 0
2018-01-11 15:43:15 GMT 20.23970 92.26637 32,000 306 481 0
2018-01-11 15:43:13 GMT 20.23856 92.26809 32,000 306 481 0
2018-01-11 15:43:05 GMT 20.22704 92.28551 32,000 306 481 0
2018-01-11 15:43:03 GMT 20.21764 92.29967 32,000 306 481 0
2018-01-11 15:42:53 GMT 20.21059 92.31032 32,000 306 481 0
2018-01-11 15:42:51 GMT 20.21059 92.31032 32,000 306 481 0
2018-01-11 15:42:47 GMT 20.19841 92.32870 32,000 306 481 0
2018-01-11 15:42:41 GMT 20.19701 92.33080 32,000 306 481 0
2018-01-11 15:42:40 GMT 20.19701 92.33080 32,000 306 481 0
2018-01-11 15:42:31 GMT 20.18266 92.35245 32,000 306 480 0
2018-01-11 15:42:29 GMT 20.18266 92.35245 32,000 306 480 0
2018-01-11 15:42:20 GMT 20.16922 92.37275 32,000 306 480 0
2018-01-11 15:42:15 GMT 20.15730 92.39070 32,000 306 480 0
2018-01-11 15:42:09 GMT 20.15538 92.39360 32,000 306 480 0
2018-01-11 15:41:57 GMT 20.14157 92.41445 32,000 306 480 0
2018-01-11 15:41:46 GMT 20.12760 92.43547 32,000 306 480 0
2018-01-11 15:41:44 GMT 20.11736 92.45090 32,000 306 480 0
2018-01-11 15:41:36 GMT 20.11341 92.45689 32,000 306 480 0
2018-01-11 15:41:36 GMT 20.11392 92.45614 32,000 306 480 0
2018-01-11 15:41:24 GMT 20.09907 92.47850 32,000 306 480 0
2018-01-11 15:41:14 GMT 20.08488 92.49993 32,000 306 480 0
2018-01-11 15:41:12 GMT 20.07565 92.51382 32,000 306 480 0
2018-01-11 15:41:04 GMT 20.07138 92.52018 31,975 306 480 0
2018-01-11 15:40:52 GMT 20.05792 92.54044 32,000 306 480 0
2018-01-11 15:40:45 GMT 20.04753 92.55604 32,000 306 480 0
2018-01-11 15:40:40 GMT 20.03599 92.57340 32,000 306 480 0
2018-01-11 15:40:31 GMT 20.03073 92.58130 31,975 306 480 0
2018-01-11 15:40:29 GMT 20.02803 92.58537 31,975 306 480 0
2018-01-11 15:40:20 GMT 20.01681 92.60216 31,975 306 480 0
2018-01-11 15:40:17 GMT 20.01146 92.61025 32,000 306 480 0
2018-01-11 15:40:08 GMT 20.00130 92.62549 32,000 306 480 0
2018-01-11 15:40:05 GMT 19.99612 92.63324 31,975 306 481 0
2018-01-11 15:39:57 GMT 19.98724 92.64653 31,975 306 482 0
2018-01-11 15:39:54 GMT 19.97617 92.66319 32,000 306 482 0
2018-01-11 15:39:47 GMT 19.97473 92.66528 32,000 306 482 0
2018-01-11 15:39:36 GMT 19.96095 92.68596 32,000 306 482 0
2018-01-11 15:39:26 GMT 19.94694 92.70703 32,000 306 482 0
2018-01-11 15:39:15 GMT 19.93325 92.72756 32,000 306 482 0
2018-01-11 15:39:04 GMT 19.91881 92.74923 32,000 306 482 0
2018-01-11 15:38:53 GMT 19.90513 92.76975 32,000 306 483 0
2018-01-11 15:38:42 GMT 19.89103 92.79083 32,000 306 483 0
2018-01-11 15:38:31 GMT 19.87692 92.81195 32,000 306 483 0
2018-01-11 15:38:21 GMT 19.86295 92.83293 32,000 306 484 0
2018-01-11 15:38:09 GMT 19.84831 92.85483 32,000 306 484 0
2018-01-11 15:37:58 GMT 19.83417 92.87601 32,000 306 484 0
2018-01-11 15:37:47 GMT 19.82013 92.89700 32,000 306 485 0
2018-01-11 15:37:37 GMT 19.80686 92.91682 32,000 306 486 0
2018-01-11 15:37:26 GMT 19.79234 92.93839 32,000 306 487 0
2018-01-11 15:37:16 GMT 19.77864 92.95885 32,000 306 487 0
2018-01-11 15:37:05 GMT 19.76436 92.98014 32,000 306 487 0
2018-01-11 15:36:53 GMT 19.74881 93.00336 32,000 306 487 0
2018-01-11 15:36:43 GMT 19.73589 93.02266 32,000 306 487 0
2018-01-11 15:36:32 GMT 19.72199 93.04331 32,000 306 487 0
2018-01-11 15:36:22 GMT 19.70828 93.06381 31,975 306 487 0
2018-01-11 15:36:08 GMT 19.69020 93.09074 31,975 306 487 0
2018-01-11 15:35:58 GMT 19.67675 93.11078 31,975 306 487 0
2018-01-11 15:35:48 GMT 19.66418 93.12951 31,975 306 487 0
2018-01-11 15:35:37 GMT 19.64887 93.15234 31,975 306 487 0
2018-01-11 15:35:24 GMT 19.63275 93.17630 31,975 306 487 0
2018-01-11 15:35:16 GMT 19.62228 93.19188 31,975 306 487 0
2018-01-11 15:35:04 GMT 19.60655 93.21525 31,975 306 488 0
2018-01-11 15:34:52 GMT 19.59081 93.23867 32,000 306 488 0
2018-01-11 15:34:36 GMT 19.56982 93.26988 32,000 306 489 0
2018-01-11 15:34:25 GMT 19.55534 93.29134 32,000 306 488 64
2018-01-11 15:34:15 GMT 19.54248 93.31042 31,975 306 488 0
2018-01-11 15:33:54 GMT 19.51479 93.35157 32,000 306 489 -64
2018-01-11 15:33:52 GMT 19.51186 93.35588 32,000 306 489 0
2018-01-11 15:33:42 GMT 19.49872 93.37540 32,000 306 489 0
2018-01-11 15:33:32 GMT 19.48514 93.39548 31,975 306 489 64
2018-01-11 15:33:21 GMT 19.47066 93.41699 31,975 306 490 0
2018-01-11 15:33:09 GMT 19.45525 93.43987 31,975 306 490 0
2018-01-11 15:33:00 GMT 19.44273 93.45845 32,000 306 490 0
2018-01-11 15:32:48 GMT 19.42777 93.48051 32,000 306 490 0
2018-01-11 15:32:38 GMT 19.41458 93.50008 32,000 306 490 0
2018-01-11 15:32:27 GMT 19.39981 93.52192 32,000 306 490 0
2018-01-11 15:32:16 GMT 19.38528 93.54343 32,000 306 491 0
2018-01-11 15:32:05 GMT 19.37059 93.56511 32,000 306 490 0
2018-01-11 15:31:44 GMT 19.34334 93.60536 32,000 306 491 0
2018-01-11 15:31:33 GMT 19.32840 93.62744 31,975 306 491 0
2018-01-11 15:30:44 GMT 19.26364 93.72297 32,000 306 491 0
2018-01-11 15:30:32 GMT 19.24749 93.74679 32,000 306 490 0
2018-01-11 15:30:28 GMT 19.24195 93.75498 32,000 306 490 0
2018-01-11 15:29:51 GMT 19.19339 93.82644 31,975 306 490 0
We lost coverage of the aircraft here for a total of 11 minutes
2018-01-11 15:19:02 GMT 18.33884 95.09099 32,000 305 494 0
2018-01-11 15:18:53 GMT 18.32715 95.10879 32,000 305 493 0
2018-01-11 15:18:41 GMT 18.31224 95.13091 32,000 307 493 0
2018-01-11 15:18:31 GMT 18.29782 95.15136 32,000 307 493 0
2018-01-11 15:18:15 GMT 18.27669 95.18135 31,975 307 493 0
2018-01-11 15:18:02 GMT 18.25887 95.20634 32,000 307 493 0
2018-01-11 15:17:45 GMT 18.23570 95.23906 32,000 307 493 0
2018-01-11 15:17:33 GMT 18.22000 95.26118 31,975 307 493 0
2018-01-11 15:17:20 GMT 18.20187 95.28678 31,975 307 494 0
2018-01-11 15:17:08 GMT 18.18451 95.31125 32,000 307 494 0
2018-01-11 15:16:51 GMT 18.16152 95.34362 32,000 307 494 0
2018-01-11 15:16:15 GMT 18.11229 95.41284 32,000 307 496 0
2018-01-11 15:15:10 GMT 18.02265 95.53873 32,000 307 497 0
2018-01-11 15:14:58 GMT 18.00719 95.56043 32,000 307 498 0
2018-01-11 15:14:47 GMT 17.99202 95.58174 32,000 307 498 0
2018-01-11 15:14:35 GMT 17.97419 95.60676 32,000 307 498 0
2018-01-11 15:14:25 GMT 17.96036 95.62613 32,000 307 498 0
2018-01-11 15:14:05 GMT 17.93383 95.66330 32,000 307 498 0
2018-01-11 15:13:52 GMT 17.91512 95.68950 32,000 307 499 0
2018-01-11 15:13:36 GMT 17.89325 95.72017 32,000 307 499 0
2018-01-11 15:13:19 GMT 17.86959 95.75330 32,000 307 499 0
2018-01-11 15:13:08 GMT 17.85432 95.77464 32,000 307 499 0
2018-01-11 15:12:57 GMT 17.83905 95.79601 32,000 307 499 -64
2018-01-11 15:12:46 GMT 17.82353 95.81774 32,000 307 499 0
2018-01-11 15:12:12 GMT 17.77718 95.88244 32,000 307 499 0
2018-01-11 15:12:04 GMT 17.76581 95.89836 32,000 307 499 0
2018-01-11 15:11:05 GMT 17.68343 96.01325 31,975 307 497 0
2018-01-11 15:09:33 GMT 17.55685 96.18923 32,000 307 498 0
2018-01-11 15:09:20 GMT 17.53908 96.21393 32,000 307 498 0
2018-01-11 15:07:36 GMT 17.39354 96.41611 32,000 307 497 0
2018-01-11 15:07:24 GMT 17.37749 96.43847 32,000 307 497 0
2018-01-11 15:07:13 GMT 17.36226 96.45967 31,975 307 498 0
2018-01-11 15:06:51 GMT 17.33196 96.50160 31,975 308 499 0
2018-01-11 15:06:40 GMT 17.31619 96.52299 32,000 308 499 0
2018-01-11 15:06:29 GMT 17.30067 96.54403 32,000 308 499 0
2018-01-11 15:06:18 GMT 17.28531 96.56487 32,000 308 499 0
2018-01-11 15:06:06 GMT 17.26809 96.58822 32,000 308 499 0
2018-01-11 15:05:55 GMT 17.25256 96.60924 32,000 308 499 0
2018-01-11 15:05:41 GMT 17.23350 96.63506 31,975 308 499 0
2018-01-11 15:05:25 GMT 17.21104 96.66542 32,000 308 499 0
We lost coverage of the aircraft here for a total of 24 minutes
2018-01-11 14:41:20 GMT 15.21698 99.46092 28,750 304 508 1280
2018-01-11 14:41:18 GMT 15.21698 99.46092 28,750 304 508 1280
2018-01-11 14:41:07 GMT 15.20238 99.48360 28,500 304 509 1600
2018-01-11 14:40:41 GMT 15.16672 99.53927 27,800 304 515 1664
2018-01-11 14:40:35 GMT 15.15988 99.54996 27,675 304 515 1664
2018-01-11 14:40:32 GMT 15.15578 99.55629 27,575 304 515 1664
2018-01-11 14:40:28 GMT 15.14931 99.56639 27,450 304 516 1856
2018-01-11 14:40:24 GMT 15.14521 99.57277 27,350 304 516 1728
2018-01-11 14:40:22 GMT 15.14377 99.57503 27,325 304 517 1664
2018-01-11 14:40:14 GMT 15.13194 99.59342 27,125 304 518 1536
2018-01-11 14:40:09 GMT 15.12636 99.60210 27,025 304 518 1408
2018-01-11 14:40:03 GMT 15.11732 99.61617 26,900 304 519 1152
2018-01-11 14:39:59 GMT 15.11188 99.62466 26,825 304 519 1280
2018-01-11 14:39:53 GMT 15.10519 99.63501 26,725 304 519 1600
2018-01-11 14:39:49 GMT 15.09950 99.64389 26,600 304 519 1664
2018-01-11 14:39:42 GMT 15.09013 99.65838 26,425 304 520 1408
2018-01-11 14:39:39 GMT 15.08348 99.66875 26,325 304 520 1280
2018-01-11 14:39:30 GMT 15.07411 99.68329 26,175 304 521 1472
2018-01-11 14:39:25 GMT 15.06593 99.69597 26,050 304 521 1216
2018-01-11 14:39:22 GMT 15.06166 99.70261 26,000 304 521 960
2018-01-11 14:39:21 GMT 15.06166 99.70261 26,000 304 521 960
2018-01-11 14:39:07 GMT 15.04135 99.73418 25,825 304 519 832
2018-01-11 14:39:07 GMT 15.04135 99.73418 25,825 304 519 832
2018-01-11 14:39:04 GMT 15.03726 99.74058 25,775 304 518 768
2018-01-11 14:38:58 GMT 15.03044 99.75109 25,725 304 518 640
2018-01-11 14:38:57 GMT 15.03044 99.75109 25,725 304 518 704
2018-01-11 14:38:53 GMT 15.02306 99.76263 25,650 304 516 832
2018-01-11 14:38:49 GMT 15.01854 99.76964 25,600 304 515 960
2018-01-11 14:38:40 GMT 15.00755 99.78670 25,450 304 515 960
2018-01-11 14:38:38 GMT 15.00453 99.79142 25,425 304 515 960
2018-01-11 14:38:31 GMT 14.99373 99.80819 25,300 304 513 896
2018-01-11 14:38:26 GMT 14.98938 99.81494 25,250 304 512 960
2018-01-11 14:38:13 GMT 14.96741 99.84895 25,000 304 510 960
2018-01-11 14:38:06 GMT 14.96114 99.85874 24,925 304 510 896
2018-01-11 14:37:58 GMT 14.95058 99.87514 24,825 304 508 1088
2018-01-11 14:37:56 GMT 14.94910 99.87738 24,800 304 508 1088
2018-01-11 14:37:54 GMT 14.94611 99.88201 24,750 304 507 1088
2018-01-11 14:37:47 GMT 14.93633 99.89716 24,625 304 507 1024
2018-01-11 14:37:44 GMT 14.93243 99.90321 24,575 304 507 1024
2018-01-11 14:37:35 GMT 14.92074 99.92139 24,425 304 505 1088
2018-01-11 14:37:32 GMT 14.91737 99.92658 24,400 304 505 1088
2018-01-11 14:37:24 GMT 14.90598 99.94429 24,250 304 504 1024
2018-01-11 14:37:21 GMT 14.90273 99.94928 24,200 304 504 1024
2018-01-11 14:37:12 GMT 14.89160 99.96651 24,075 304 502 1088
2018-01-11 14:37:09 GMT 14.88776 99.97250 24,025 304 502 1152
2018-01-11 14:37:01 GMT 14.87870 99.98647 23,875 304 501 1216
2018-01-11 14:36:59 GMT 14.87407 99.99366 23,825 304 500 1152
2018-01-11 14:36:57 GMT 14.87214 99.99663 23,800 304 500 1152
2018-01-11 14:36:52 GMT 14.86511 100.00756 23,700 304 499 1024
2018-01-11 14:36:47 GMT 14.85855 100.01770 23,600 304 499 1024
2018-01-11 14:36:42 GMT 14.85407 100.02464 23,550 304 498 1024
2018-01-11 14:36:40 GMT 14.85008 100.03081 23,500 304 498 1088
2018-01-11 14:36:35 GMT 14.84509 100.03851 23,425 304 497 1152
2018-01-11 14:36:31 GMT 14.84033 100.04584 23,375 304 497 1216
2018-01-11 14:36:24 GMT 14.83054 100.06107 23,225 304 496 1216
2018-01-11 14:36:19 GMT 14.82477 100.06992 23,125 304 495 1152
2018-01-11 14:36:14 GMT 14.81625 100.08313 23,025 304 494 1152
2018-01-11 14:36:11 GMT 14.81329 100.08767 22,975 304 493 1472
2018-01-11 14:36:04 GMT 14.80440 100.10141 22,825 304 493 1472
2018-01-11 14:36:02 GMT 14.80110 100.10652 22,775 304 493 1536
2018-01-11 14:35:57 GMT 14.79680 100.11320 22,700 304 493 1472
2018-01-11 14:35:52 GMT 14.78955 100.12438 22,550 304 493 1472
2018-01-11 14:35:50 GMT 14.78588 100.13007 22,475 304 493 1472
2018-01-11 14:35:40 GMT 14.77368 100.14890 22,275 304 493 1344
2018-01-11 14:35:31 GMT 14.76251 100.16616 22,100 304 492 1216
2018-01-11 14:35:29 GMT 14.75963 100.17064 22,075 304 492 1152
2018-01-11 14:35:20 GMT 14.75001 100.18546 21,925 304 490 1216
2018-01-11 14:35:18 GMT 14.74547 100.19247 21,875 304 490 1344
2018-01-11 14:35:09 GMT 14.73463 100.20924 21,675 304 488 1344
2018-01-11 14:35:06 GMT 14.73212 100.21312 21,650 304 488 1344
2018-01-11 14:34:58 GMT 14.72118 100.22998 21,475 304 487 1216
2018-01-11 14:34:55 GMT 14.71564 100.23850 21,400 304 486 1280
2018-01-11 14:34:48 GMT 14.70749 100.25110 21,250 304 486 1344
2018-01-11 14:34:46 GMT 14.70561 100.25399 21,225 304 485 1280
2018-01-11 14:34:45 GMT 14.70622 100.25299 21,250 304 483 896
2018-01-11 14:34:43 GMT 14.70236 100.25897 21,175 304 485 1216
2018-01-11 14:34:37 GMT 14.69426 100.27151 21,050 304 484 1024
2018-01-11 14:34:35 GMT 14.69161 100.27554 21,025 304 483 960
2018-01-11 14:34:32 GMT 14.68863 100.28017 21,000 304 483 896
2018-01-11 14:34:24 GMT 14.68007 100.29338 20,900 304 481 896
2018-01-11 14:34:21 GMT 14.67512 100.30101 20,850 304 480 960
2018-01-11 14:34:21 GMT 14.67512 100.30101 20,850 304 480 960
2018-01-11 14:34:14 GMT 14.66670 100.31394 20,725 304 478 1088
2018-01-11 14:34:10 GMT 14.66130 100.32228 20,650 304 477 1152
2018-01-11 14:34:03 GMT 14.65283 100.33534 20,525 304 475 1280
2018-01-11 14:33:57 GMT 14.64560 100.34647 20,450 304 475 1152
2018-01-11 14:33:58 GMT 14.64560 100.34647 20,400 304 474 1088
2018-01-11 14:33:57 GMT 14.64560 100.34647 20,450 304 475 1152
2018-01-11 14:33:52 GMT 14.63960 100.35566 20,350 304 473 832
2018-01-11 14:33:49 GMT 14.63546 100.36204 20,300 304 471 832
2018-01-11 14:33:47 GMT 14.63365 100.36483 20,275 304 470 896
2018-01-11 14:33:42 GMT 14.62720 100.37469 20,200 304 468 1344
2018-01-11 14:33:37 GMT 14.62056 100.38492 20,075 304 467 1280
2018-01-11 14:33:32 GMT 14.61516 100.39330 20,000 304 466 960
2018-01-11 14:33:29 GMT 14.61284 100.39683 19,975 304 466 960
2018-01-11 14:33:25 GMT 14.60719 100.40547 19,900 304 464 1024
2018-01-11 14:33:20 GMT 14.60120 100.41470 19,825 304 462 1408
2018-01-11 14:33:16 GMT 14.59562 100.42333 19,700 304 462 1600
2018-01-11 14:33:14 GMT 14.59442 100.42513 19,675 304 462 1600
2018-01-11 14:33:10 GMT 14.58868 100.43393 19,550 304 461 1600
2018-01-11 14:33:03 GMT 14.58025 100.44694 19,375 304 460 1600
2018-01-11 14:32:59 GMT 14.57630 100.45296 19,300 304 460 1536
2018-01-11 14:32:54 GMT 14.56894 100.46429 19,150 304 459 1536
2018-01-11 14:32:52 GMT 14.56727 100.46684 19,125 304 459 1600
2018-01-11 14:32:49 GMT 14.56371 100.47229 19,050 304 459 1664
2018-01-11 14:32:46 GMT 14.56126 100.47614 18,975 304 459 1664
2018-01-11 14:32:43 GMT 14.55628 100.48375 18,875 304 457 1664
2018-01-11 14:32:41 GMT 14.55354 100.48797 18,825 304 457 1664
2018-01-11 14:32:37 GMT 14.55027 100.49305 18,750 304 457 1728
2018-01-11 14:32:35 GMT 14.54860 100.49556 18,700 304 457 1792
2018-01-11 14:32:32 GMT 14.54329 100.50374 18,575 304 457 1792
2018-01-11 14:32:30 GMT 14.54082 100.50756 18,525 304 457 1728
2018-01-11 14:32:25 GMT 14.53624 100.51467 18,425 304 457 1664
2018-01-11 14:32:20 GMT 14.53063 100.52336 18,300 304 456 1600
2018-01-11 14:32:18 GMT 14.52700 100.52900 18,225 304 455 1536
2018-01-11 14:32:15 GMT 14.52347 100.53442 18,150 304 455 1408
2018-01-11 14:32:08 GMT 14.51480 100.54779 18,000 304 453 1472
2018-01-11 14:32:04 GMT 14.51122 100.55333 17,925 304 452 1536
2018-01-11 14:31:59 GMT 14.50540 100.56234 17,800 304 451 1600
2018-01-11 14:31:54 GMT 14.49902 100.57222 17,650 304 450 1664
2018-01-11 14:31:49 GMT 14.49311 100.58133 17,525 304 449 1664
2018-01-11 14:31:42 GMT 14.48664 100.59135 17,375 304 449 1728
2018-01-11 14:31:38 GMT 14.48090 100.60029 17,250 304 448 1728
2018-01-11 14:31:33 GMT 14.47472 100.60990 17,100 304 447 1664
2018-01-11 14:31:23 GMT 14.46318 100.62785 16,875 304 445 1088
2018-01-11 14:31:21 GMT 14.46248 100.62893 16,875 304 444 1024
2018-01-11 14:31:12 GMT 14.45105 100.64670 16,675 304 440 1664
2018-01-11 14:31:10 GMT 14.44786 100.65163 16,600 304 440 1856
2018-01-11 14:31:08 GMT 14.44730 100.65248 16,575 304 439 1920
2018-01-11 14:31:06 GMT 14.44413 100.65741 16,500 304 440 2048
2018-01-11 14:31:00 GMT 14.43851 100.66612 16,350 304 439 1920
2018-01-11 14:30:55 GMT 14.43240 100.67553 16,200 304 438 960
2018-01-11 14:30:49 GMT 14.42583 100.68558 16,125 305 435 640
2018-01-11 14:30:47 GMT 14.42365 100.68883 16,125 305 434 640
2018-01-11 14:30:44 GMT 14.41993 100.69447 16,075 305 432 832
2018-01-11 14:30:40 GMT 14.41490 100.70213 16,000 305 429 1152
2018-01-11 14:30:34 GMT 14.40683 100.71432 15,850 305 426 1792
2018-01-11 14:30:29 GMT 14.40303 100.72000 15,750 305 425 2112
2018-01-11 14:30:24 GMT 14.39731 100.72858 15,600 305 426 2112
2018-01-11 14:30:19 GMT 14.39102 100.73793 15,400 305 425 1984
2018-01-11 14:30:12 GMT 14.38330 100.74941 15,200 305 424 1792
2018-01-11 14:30:07 GMT 14.37943 100.75528 15,100 304 422 1856
2018-01-11 14:30:02 GMT 14.37323 100.76485 14,950 304 422 1792
2018-01-11 14:30:00 GMT 14.37135 100.76769 14,900 304 422 1792
2018-01-11 14:29:57 GMT 14.36774 100.77340 14,800 304 421 1856
2018-01-11 14:29:57 GMT 14.36816 100.77272 14,825 304 421 1856
2018-01-11 14:29:53 GMT 14.36247 100.78161 14,675 304 420 1792
2018-01-11 14:29:53 GMT 14.36247 100.78161 14,675 304 420 1856
2018-01-11 14:29:49 GMT 14.35978 100.78583 14,600 304 419 1856
2018-01-11 14:29:47 GMT 14.35602 100.79165 14,500 304 418 1920
2018-01-11 14:29:42 GMT 14.35043 100.80032 14,325 304 417 1984
2018-01-11 14:29:39 GMT 14.34828 100.80363 14,275 304 416 2048
2018-01-11 14:29:36 GMT 14.34507 100.80857 14,175 304 416 1984
2018-01-11 14:29:31 GMT 14.33893 100.81797 14,000 305 415 2048
2018-01-11 14:29:29 GMT 14.33666 100.82139 13,925 305 415 2048
2018-01-11 14:29:26 GMT 14.33391 100.82551 13,850 305 414 2048
2018-01-11 14:29:18 GMT 14.32498 100.83906 13,575 305 413 2048
2018-01-11 14:29:13 GMT 14.31993 100.84649 13,450 307 411 1792
2018-01-11 14:29:09 GMT 14.31564 100.85227 13,350 310 410 1472
2018-01-11 14:29:07 GMT 14.31286 100.85574 13,275 312 408 1408
2018-01-11 14:29:05 GMT 14.30955 100.85945 13,225 314 407 1280
2018-01-11 14:29:02 GMT 14.30676 100.86240 13,175 316 406 1280
2018-01-11 14:28:59 GMT 14.30127 100.86765 13,100 319 403 1216
2018-01-11 14:28:56 GMT 14.29857 100.87002 13,075 321 401 1216
2018-01-11 14:28:54 GMT 14.29468 100.87329 13,025 323 400 1344
2018-01-11 14:28:52 GMT 14.29126 100.87593 12,975 325 399 1472
2018-01-11 14:28:49 GMT 14.28763 100.87860 12,925 327 397 1472
2018-01-11 14:28:46 GMT 14.28168 100.88238 12,825 331 396 1344
2018-01-11 14:28:41 GMT 14.27482 100.88605 12,750 337 393 832
2018-01-11 14:28:37 GMT 14.26977 100.88821 12,725 341 391 640
2018-01-11 14:28:35 GMT 14.26598 100.88952 12,700 342 391 576
2018-01-11 14:28:33 GMT 14.25549 100.89219 12,650 353 384 704
2018-01-11 14:28:30 GMT 14.25549 100.89219 12,650 351 384 640
2018-01-11 14:28:26 GMT 14.25018 100.89299 12,625 355 383 960
2018-01-11 14:28:24 GMT 14.24235 100.89347 12,550 0 380 1536
2018-01-11 14:28:19 GMT 14.23723 100.89337 12,475 3 379 1728
2018-01-11 14:28:17 GMT 14.23162 100.89294 12,375 6 379 1856
2018-01-11 14:28:14 GMT 14.22655 100.89222 12,300 9 378 1984
2018-01-11 14:28:12 GMT 14.22139 100.89124 12,200 12 378 1984
2018-01-11 14:28:08 GMT 14.21626 100.89005 12,100 13 377 1984
2018-01-11 14:28:06 GMT 14.21352 100.88935 12,075 14 376 1856
2018-01-11 14:28:04 GMT 14.20998 100.88841 12,000 14 376 1728
2018-01-11 14:27:59 GMT 14.20134 100.88613 11,875 14 372 1600
2018-01-11 14:27:57 GMT 14.20052 100.88589 11,850 14 372 1600
2018-01-11 14:27:54 GMT 14.19396 100.88417 11,775 14 370 1408
2018-01-11 14:27:52 GMT 14.19118 100.88347 11,725 13 368 1408
2018-01-11 14:27:49 GMT 14.18532 100.88196 11,650 14 366 1408
2018-01-11 14:27:46 GMT 14.18153 100.88099 11,600 14 365 1408
2018-01-11 14:27:44 GMT 14.17581 100.87950 11,525 14 363 1408
2018-01-11 14:27:42 GMT 14.17367 100.87897 11,475 14 361 1408
2018-01-11 14:27:39 GMT 14.16799 100.87748 11,400 14 359 1536
2018-01-11 14:27:36 GMT 14.16298 100.87618 11,325 14 356 1728
2018-01-11 14:27:33 GMT 14.15849 100.87497 11,250 14 355 1856
2018-01-11 14:27:31 GMT 14.15546 100.87415 11,200 14 354 1984
2018-01-11 14:27:26 GMT 14.14865 100.87230 11,050 14 352 2176
2018-01-11 14:27:24 GMT 14.14609 100.87159 11,000 14 352 2304
2018-01-11 14:27:21 GMT 14.14169 100.87044 10,900 14 351 2048
2018-01-11 14:27:19 GMT 14.13835 100.86955 10,825 14 350 1920
2018-01-11 14:27:16 GMT 14.13158 100.86779 10,700 13 348 1472
2018-01-11 14:27:14 GMT 14.12935 100.86721 10,675 13 347 1280
2018-01-11 14:27:09 GMT 14.12123 100.86515 10,575 14 342 960
2018-01-11 14:27:07 GMT 14.11569 100.86373 10,550 14 339 896
2018-01-11 14:27:04 GMT 14.11310 100.86302 10,500 14 337 1024
2018-01-11 14:26:59 GMT 14.10512 100.86093 10,425 14 332 1472
2018-01-11 14:26:57 GMT 14.10449 100.86080 10,400 14 332 1472
2018-01-11 14:26:55 GMT 14.09972 100.85956 10,325 14 330 1856
2018-01-11 14:26:53 GMT 14.09674 100.85880 10,275 14 328 2048
2018-01-11 14:26:47 GMT 14.08862 100.85671 10,075 14 326 2432
2018-01-11 14:26:43 GMT 14.08287 100.85520 9,900 14 326 2752
2018-01-11 14:26:41 GMT 14.07861 100.85407 9,775 14 325 2816
2018-01-11 14:26:36 GMT 14.07275 100.85250 9,600 14 325 2688
2018-01-11 14:26:32 GMT 14.06703 100.85103 9,450 14 325 2560
2018-01-11 14:26:30 GMT 14.06031 100.84929 9,250 13 324 2496
2018-01-11 14:26:26 GMT 14.05682 100.84837 9,150 13 323 2560
2018-01-11 14:26:23 GMT 14.05314 100.84746 9,050 13 323 2560
2018-01-11 14:26:21 GMT 14.05007 100.84669 8,975 13 323 2496
2018-01-11 14:26:18 GMT 14.04570 100.84563 8,850 13 321 2368
2018-01-11 14:26:16 GMT 14.04195 100.84469 8,750 13 321 2304
2018-01-11 14:26:14 GMT 14.03815 100.84379 8,675 13 319 2112
2018-01-11 14:26:11 GMT 14.03699 100.84351 8,650 13 319 2112
2018-01-11 14:26:08 GMT 14.03280 100.84245 8,550 13 318 1984
2018-01-11 14:26:05 GMT 14.02606 100.84081 8,400 13 315 1856
2018-01-11 14:26:02 GMT 14.02309 100.84010 8,350 13 314 1792
2018-01-11 14:26:00 GMT 14.02093 100.83957 8,300 13 314 1792
2018-01-11 14:25:57 GMT 14.01586 100.83835 8,200 13 310 1792
2018-01-11 14:25:54 GMT 14.01083 100.83710 8,100 14 308 1920
2018-01-11 14:25:52 GMT 14.00803 100.83633 8,025 14 307 2048
2018-01-11 14:25:50 GMT 14.00693 100.83602 8,000 14 306 2112
2018-01-11 14:25:42 GMT 13.99626 100.83305 7,700 15 304 2944
2018-01-11 14:25:39 GMT 13.99230 100.83189 7,550 15 303 3200
2018-01-11 14:25:37 GMT 13.98756 100.83053 7,375 15 304 3456
2018-01-11 14:25:32 GMT 13.98006 100.82840 7,075 14 305 3456
2018-01-11 14:25:28 GMT 13.97443 100.82688 6,850 14 306 3200
2018-01-11 14:25:24 GMT 13.97099 100.82599 6,725 13 306 3136
2018-01-11 14:25:19 GMT 13.96265 100.82394 6,425 13 307 2816
2018-01-11 14:25:19 GMT 13.96320 100.82409 6,450 13 307 2816
2018-01-11 14:25:17 GMT 13.96004 100.82332 6,350 13 305 2752
2018-01-11 14:25:14 GMT 13.95712 100.82262 6,250 12 305 2752
2018-01-11 14:25:10 GMT 13.95035 100.82101 6,050 12 304 2752
2018-01-11 14:25:06 GMT 13.94508 100.81983 5,875 12 303 2880
2018-01-11 14:25:04 GMT 13.94041 100.81874 5,725 12 303 2944
2018-01-11 14:24:58 GMT 13.93448 100.81739 5,525 12 302 2624
2018-01-11 14:24:56 GMT 13.93314 100.81708 5,475 12 302 2560
2018-01-11 14:24:54 GMT 13.92969 100.81633 5,375 12 301 2432
2018-01-11 14:24:50 GMT 13.92410 100.81512 5,225 12 299 2432
2018-01-11 14:24:47 GMT 13.91876 100.81396 5,075 11 298 2432
2018-01-11 14:24:43 GMT 13.91554 100.81324 4,975 12 296 2432
2018-01-11 14:24:41 GMT 13.91107 100.81223 4,850 12 295 2304
2018-01-11 14:24:36 GMT 13.90543 100.81103 4,700 11 293 1856
2018-01-11 14:24:29 GMT 13.89631 100.80905 4,500 11 288 1664
2018-01-11 14:24:26 GMT 13.89134 100.80799 4,400 11 285 1280
2018-01-11 14:24:19 GMT 13.88297 100.80619 4,300 11 279 768
2018-01-11 14:24:19 GMT 13.88297 100.80619 4,300 12 278 768
2018-01-11 14:24:16 GMT 13.87788 100.80505 4,250 12 275 640
2018-01-11 14:24:14 GMT 13.87738 100.80496 4,250 12 273 704
2018-01-11 14:24:09 GMT 13.86905 100.80311 4,175 12 266 1024
2018-01-11 14:24:09 GMT 13.86905 100.80311 4,175 12 266 1024
2018-01-11 14:24:04 GMT 13.86447 100.80207 4,100 12 263 1280
2018-01-11 14:23:58 GMT 13.85641 100.80028 3,950 11 257 1152
2018-01-11 14:23:57 GMT 13.85641 100.80028 3,950 11 257 1152
2018-01-11 14:23:54 GMT 13.85165 100.79928 3,900 11 253 960
2018-01-11 14:23:46 GMT 13.84383 100.79757 3,800 11 246 1088
2018-01-11 14:23:43 GMT 13.83989 100.79677 3,725 12 243 1280
2018-01-11 14:23:35 GMT 13.83165 100.79489 3,550 12 237 1152
2018-01-11 14:23:33 GMT 13.82863 100.79421 3,500 13 235 960
2018-01-11 14:23:32 GMT 13.82758 100.79393 3,500 12 233 896
2018-01-11 14:23:26 GMT 13.82159 100.79252 3,425 12 226 384
2018-01-11 14:23:22 GMT 13.81694 100.79147 3,425 12 220 448
2018-01-11 14:23:15 GMT 13.81073 100.79004 3,350 12 212 896
2018-01-11 14:23:11 GMT 13.80572 100.78896 3,300 11 208 448
2018-01-11 14:23:05 GMT 13.80020 100.78777 3,250 11 203 512
2018-01-11 14:23:00 GMT 13.79636 100.78694 3,225 11 197 512
2018-01-11 14:22:54 GMT 13.79059 100.78573 3,175 11 191 512
2018-01-11 14:22:51 GMT 13.78880 100.78535 3,150 11 188 704
2018-01-11 14:22:49 GMT 13.78649 100.78486 3,100 12 185 1344
2018-01-11 14:22:41 GMT 13.77951 100.78327 2,925 12 184 1472
2018-01-11 14:22:39 GMT 13.77783 100.78289 2,875 12 183 1472
2018-01-11 14:22:37 GMT 13.77704 100.78270 2,850 12 183 1408
2018-01-11 14:22:31 GMT 13.77150 100.78144 2,700 12 183 1344
2018-01-11 14:22:29 GMT 13.77063 100.78123 2,675 12 183 1344
2018-01-11 14:22:26 GMT 13.76811 100.78071 2,625 12 182 1344
2018-01-11 14:22:19 GMT 13.76177 100.77927 2,450 12 181 1600
2018-01-11 14:22:17 GMT 13.75963 100.77884 2,375 12 180 1792
2018-01-11 14:22:13 GMT 13.75768 100.77836 2,300 12 180 1920
2018-01-11 14:22:10 GMT 13.75388 100.77745 2,175 13 182 1728
2018-01-11 14:22:07 GMT 13.75259 100.77711 2,125 13 182 1664
2018-01-11 14:22:05 GMT 13.75018 100.77653 2,050 14 182 1280
2018-01-11 14:22:01 GMT 13.74651 100.77555 1,950 14 181 1088
2018-01-11 14:21:58 GMT 13.74446 100.77503 1,925 14 178 832
2018-01-11 14:21:55 GMT 13.74092 100.77412 1,875 14 177 896
2018-01-11 14:21:50 GMT 13.73831 100.77347 1,800 13 176 1408
2018-01-11 14:21:48 GMT 13.73663 100.77301 1,775 13 176 1600
2018-01-11 14:21:46 GMT 13.73561 100.77276 1,725 13 176 1664
2018-01-11 14:21:43 GMT 13.73199 100.77186 1,600 13 178 1856
2018-01-11 14:21:39 GMT 13.72919 100.77113 1,500 14 179 1920
2018-01-11 14:21:37 GMT 13.72765 100.77075 1,425 14 179 1920
2018-01-11 14:21:35 GMT 13.72686 100.77055 1,400 14 179 1856
2018-01-11 14:21:32 GMT 13.72302 100.76949 1,275 15 180 1600
2018-01-11 14:21:27 GMT 13.72034 100.76872 1,175 16 181 1408
2018-01-11 14:21:25 GMT 13.71881 100.76826 1,150 16 180 1280
2018-01-11 14:21:20 GMT 13.71483 100.76708 1,050 16 178 1088
2018-01-11 14:21:16 GMT 13.71071 100.76584 950 16 175 1344
2018-01-11 14:21:14 GMT 13.71025 100.76570 925 15 175 1408
2018-01-11 14:21:13 GMT 13.70915 100.76542 900 15 174 1664
2018-01-11 14:21:10 GMT 13.70596 100.76448 800 15 174 1728
2018-01-11 14:21:06 GMT 13.70265 100.76357 675 14 174 1728
We lost coverage of the aircraft here for a total of 205 minutes
2018-01-11 10:56:17 GMT 13.67253 100.73497 0 14 157 -448
2018-01-11 10:56:08 GMT 13.66576 100.73322 125 14 159 -768
2018-01-11 10:56:03 GMT 13.66262 100.73239 200 14 158 -960
2018-01-11 10:55:59 GMT 13.65847 100.73128 275 14 158 -1088
2018-01-11 10:55:55 GMT 13.65633 100.73075 325 14 158 -640
2018-01-11 10:55:51 GMT 13.65298 100.72988 375 14 157 -640
2018-01-11 10:55:48 GMT 13.65060 100.72924 425 14 157 -640
2018-01-11 10:55:41 GMT 13.64549 100.72796 500 14 156 -832
2018-01-11 10:55:36 GMT 13.64283 100.72719 575 15 156 -1088
2018-01-11 10:55:32 GMT 13.63944 100.72621 650 15 155 -960
2018-01-11 10:55:27 GMT 13.63705 100.72554 700 14 154 -704
2018-01-11 10:55:25 GMT 13.63576 100.72516 725 14 154 -512
2018-01-11 10:55:21 GMT 13.63180 100.72410 775 15 154 -704
2018-01-11 10:55:17 GMT 13.62891 100.72327 825 14 154 -896
2018-01-11 10:55:14 GMT 13.62821 100.72304 850 14 154 -896
2018-01-11 10:55:09 GMT 13.62402 100.72193 950 14 155 -960
2018-01-11 10:55:05 GMT 13.62108 100.72100 1,000 20 153 -1344
2018-01-11 10:54:59 GMT 13.61742 100.71948 1,050 22 154 -1344
2018-01-11 10:54:54 GMT 13.61378 100.71765 1,250 27 160 -1408
2018-01-11 10:54:52 GMT 13.61311 100.71730 1,275 45 166 -1088
2018-01-11 10:54:49 GMT 13.61023 100.71565 1,350 30 163 -1024
2018-01-11 10:54:44 GMT 13.60722 100.71379 1,425 33 163 -960
2018-01-11 10:54:39 GMT 13.60409 100.71157 1,450 45 166 -1088
2018-01-11 10:54:34 GMT 13.60098 100.70902 1,575 42 165 -1152
2018-01-11 10:54:32 GMT 13.59972 100.70786 1,600 45 166 -1088
2018-01-11 10:54:28 GMT 13.59777 100.70560 1,675 53 170 -1088
2018-01-11 10:54:26 GMT 13.59686 100.70438 1,725 81 178 -320
2018-01-11 10:54:23 GMT 13.59553 100.70232 1,775 59 172 -1216
2018-01-11 10:54:21 GMT 13.59470 100.70092 1,825 60 172 -1280
2018-01-11 10:54:15 GMT 13.59302 100.69713 1,900 68 176 -704
2018-01-11 10:54:12 GMT 13.59201 100.69396 1,925 77 178 -448
2018-01-11 10:54:09 GMT 13.59148 100.69143 1,950 80 178 -384
2018-01-11 10:54:00 GMT 13.59068 100.68482 1,975 87 177 0
2018-01-11 10:53:58 GMT 13.59055 100.68113 1,975 88 176 -128
2018-01-11 10:53:56 GMT 13.59051 100.68030 1,975 88 176 -128
2018-01-11 10:53:48 GMT 13.59050 100.67431 1,975 90 178 64
2018-01-11 10:53:45 GMT 13.59055 100.67104 1,975 92 178 -64
2018-01-11 10:53:38 GMT 13.59082 100.66630 2,000 96 178 -576
2018-01-11 10:53:34 GMT 13.59148 100.66175 2,025 100 179 -64
2018-01-11 10:53:28 GMT 13.59261 100.65664 2,025 107 179 0
2018-01-11 10:53:23 GMT 13.59409 100.65259 2,025 116 183 0
2018-01-11 10:53:16 GMT 13.59670 100.64821 2,025 128 186 0
2018-01-11 10:53:12 GMT 13.59975 100.64499 2,025 140 190 0
2018-01-11 10:53:06 GMT 13.60396 100.64225 2,025 158 194 64
2018-01-11 10:53:02 GMT 13.60731 100.64103 2,025 168 197 128
2018-01-11 10:53:00 GMT 13.60918 100.64059 2,025 171 198 128
2018-01-11 10:52:55 GMT 13.61425 100.64026 2,000 186 199 192
2018-01-11 10:52:52 GMT 13.61655 100.64050 2,000 190 200 192
2018-01-11 10:52:50 GMT 13.61783 100.64074 2,000 193 200 128
2018-01-11 10:52:44 GMT 13.62407 100.64238 2,025 197 202 -128
2018-01-11 10:52:40 GMT 13.62740 100.64338 2,025 196 203 0
2018-01-11 10:52:38 GMT 13.62840 100.64367 2,025 196 203 0
2018-01-11 10:52:33 GMT 13.63399 100.64537 2,025 200 208 -128
2018-01-11 10:52:29 GMT 13.63762 100.64667 2,050 204 209 -64
2018-01-11 10:52:23 GMT 13.64237 100.64903 2,050 212 211 320
2018-01-11 10:52:18 GMT 13.64676 100.65205 2,025 219 213 -64
2018-01-11 10:52:12 GMT 13.65144 100.65635 2,025 228 214 -640
2018-01-11 10:52:07 GMT 13.65470 100.66002 2,075 230 215 0
2018-01-11 10:52:01 GMT 13.65857 100.66460 2,025 229 216 704
2018-01-11 10:51:56 GMT 13.66187 100.66850 1,975 230 218 0
2018-01-11 10:51:50 GMT 13.66606 100.67336 2,000 230 223 -64
2018-01-11 10:51:45 GMT 13.66909 100.67702 2,000 230 225 64
2018-01-11 10:51:43 GMT 13.67011 100.67823 2,000 230 225 192
2018-01-11 10:51:39 GMT 13.67365 100.68237 1,975 230 227 128
2018-01-11 10:51:34 GMT 13.67691 100.68618 1,975 228 228 0
2018-01-11 10:51:28 GMT 13.68147 100.69110 1,975 223 229 -128
2018-01-11 10:51:23 GMT 13.68492 100.69423 1,975 218 230 128
2018-01-11 10:51:15 GMT 13.69283 100.69933 1,900 206 228 1024
2018-01-11 10:51:12 GMT 13.69455 100.70015 1,875 202 227 576
2018-01-11 10:51:11 GMT 13.69544 100.70054 1,875 202 227 576
2018-01-11 10:51:09 GMT 13.69739 100.70131 1,850 199 225 256
2018-01-11 10:51:03 GMT 13.70329 100.70291 1,850 192 216 128
2018-01-11 10:51:01 GMT 13.70613 100.70348 1,850 191 212 64
2018-01-11 10:50:59 GMT 13.70796 100.70386 1,850 192 211 128
2018-01-11 10:50:51 GMT 13.71487 100.70608 1,850 213 211 -256
2018-01-11 10:50:48 GMT 13.71773 100.70801 1,850 221 209 64
2018-01-11 10:50:42 GMT 13.72179 100.71214 1,825 232 209 640
2018-01-11 10:50:39 GMT 13.72366 100.71508 1,775 243 211 704
2018-01-11 10:50:37 GMT 13.72448 100.71678 1,750 249 212 832
2018-01-11 10:50:30 GMT 13.72595 100.72422 1,675 271 216 1088
2018-01-11 10:50:28 GMT 13.72583 100.72584 1,625 281 216 1024
2018-01-11 10:50:26 GMT 13.72565 100.72747 1,600 284 216 896
2018-01-11 10:50:20 GMT 13.72369 100.73297 1,550 300 214 64
2018-01-11 10:50:16 GMT 13.72109 100.73668 1,550 316 212 -128
2018-01-11 10:50:10 GMT 13.71620 100.74046 1,600 336 205 -320
2018-01-11 10:50:07 GMT 13.71387 100.74155 1,600 342 203 -256
2018-01-11 10:50:05 GMT 13.71185 100.74217 1,625 347 203 -128
2018-01-11 10:49:59 GMT 13.70604 100.74288 1,600 1 198 512
2018-01-11 10:49:57 GMT 13.70475 100.74280 1,600 7 197 1152
2018-01-11 10:49:54 GMT 13.70209 100.74246 1,550 11 197 1344
2018-01-11 10:49:48 GMT 13.69643 100.74112 1,400 13 198 1472
2018-01-11 10:49:43 GMT 13.69185 100.73999 1,275 13 199 1728
2018-01-11 10:49:36 GMT 13.68594 100.73846 1,100 13 196 1536
2018-01-11 10:49:32 GMT 13.68196 100.73748 975 13 196 1792
2018-01-11 10:49:25 GMT 13.67642 100.73606 800 14 192 1536
2018-01-11 10:49:21 GMT 13.67211 100.73494 675 14 187 1408
2018-01-11 10:49:13 GMT 13.66620 100.73335 525 14 179 896
2018-01-11 10:49:09 GMT 13.66292 100.73246 500 14 175 768
2018-01-11 10:49:02 GMT 13.65698 100.73090 375 14 165 512
2018-01-11 10:48:59 GMT 13.65508 100.73037 375 14 160 -64
2018-01-11 10:48:53 GMT 13.65070 100.72926 425 13 153 -896
2018-01-11 10:48:51 GMT 13.64930 100.72892 450 13 153 -896
2018-01-11 10:48:48 GMT 13.64735 100.72839 475 14 153 -832
2018-01-11 10:48:41 GMT 13.64269 100.72720 575 14 154 -768
2018-01-11 10:48:37 GMT 13.63953 100.72635 625 14 154 -896
2018-01-11 10:48:30 GMT 13.63492 100.72516 725 14 154 -832
2018-01-11 10:48:26 GMT 13.63185 100.72434 775 14 153 -832
2018-01-11 10:48:18 GMT 13.62752 100.72319 875 14 153 -960
2018-01-11 10:48:14 GMT 13.62398 100.72227 950 14 153 -896
2018-01-11 10:48:07 GMT 13.61970 100.72111 1,025 14 153 -832
2018-01-11 10:48:03 GMT 13.61579 100.72010 1,100 14 154 -832
2018-01-11 10:47:58 GMT 13.61252 100.71925 1,175 14 154 -832
2018-01-11 10:47:56 GMT 13.61151 100.71901 1,175 14 153 -832
2018-01-11 10:47:53 GMT 13.60880 100.71832 1,225 14 153 -896
2018-01-11 10:47:46 GMT 13.60424 100.71712 1,325 14 154 -832
2018-01-11 10:47:42 GMT 13.60149 100.71634 1,375 14 153 -896
2018-01-11 10:47:36 GMT 13.59730 100.71528 1,475 14 153 -832
2018-01-11 10:47:31 GMT 13.59381 100.71437 1,525 14 153 -896
2018-01-11 10:47:25 GMT 13.58976 100.71331 1,625 14 154 -640
2018-01-11 10:47:20 GMT 13.58615 100.71238 1,675 14 153 -832
2018-01-11 10:47:14 GMT 13.58208 100.71128 1,750 14 152 -768
2018-01-11 10:47:13 GMT 13.58148 100.71114 1,775 14 152 -768
2018-01-11 10:47:09 GMT 13.57859 100.71037 1,825 14 152 -832
2018-01-11 10:47:02 GMT 13.57402 100.70916 1,925 14 155 -832
2018-01-11 10:46:58 GMT 13.57104 100.70840 1,975 14 155 -640
2018-01-11 10:46:56 GMT 13.57027 100.70821 1,975 14 156 -64
2018-01-11 10:46:47 GMT 13.56332 100.70637 2,000 14 155 0
2018-01-11 10:46:39 GMT 13.55804 100.70499 2,000 14 156 64
2018-01-11 10:46:36 GMT 13.55562 100.70433 2,000 14 156 0
2018-01-11 10:46:32 GMT 13.55241 100.70348 2,000 14 155 0
2018-01-11 10:46:25 GMT 13.54793 100.70234 2,000 14 156 0
2018-01-11 10:46:21 GMT 13.54470 100.70150 2,000 14 156 0
2018-01-11 10:46:19 GMT 13.54391 100.70131 2,000 14 155 0
2018-01-11 10:46:13 GMT 13.53925 100.70010 2,000 14 155 0
2018-01-11 10:46:07 GMT 13.53603 100.69926 2,000 14 154 0
2018-01-11 10:46:03 GMT 13.53227 100.69823 2,000 14 156 -64
2018-01-11 10:45:59 GMT 13.52962 100.69750 2,000 14 156 0
2018-01-11 10:45:57 GMT 13.52864 100.69726 2,000 14 156 0
2018-01-11 10:45:51 GMT 13.52403 100.69604 2,000 14 155 64
2018-01-11 10:45:49 GMT 13.52238 100.69557 2,000 14 156 -64
2018-01-11 10:45:46 GMT 13.52060 100.69514 2,000 14 156 -128
2018-01-11 10:45:41 GMT 13.51677 100.69418 2,000 13 157 0
2018-01-11 10:45:38 GMT 13.51472 100.69370 2,000 13 157 64
2018-01-11 10:45:36 GMT 13.51314 100.69331 2,000 13 157 64
2018-01-11 10:45:30 GMT 13.50867 100.69215 2,000 14 155 0
2018-01-11 10:45:27 GMT 13.50667 100.69163 2,000 14 155 0
2018-01-11 10:45:24 GMT 13.50434 100.69105 2,000 14 155 0
2018-01-11 10:45:19 GMT 13.50155 100.69027 2,000 15 154 0
2018-01-11 10:45:16 GMT 13.49936 100.68965 2,000 15 154 0
2018-01-11 10:45:12 GMT 13.49675 100.68897 2,000 14 155 0
2018-01-11 10:45:08 GMT 13.49377 100.68814 2,000 14 154 -64
2018-01-11 10:45:05 GMT 13.49135 100.68748 2,000 14 154 -64
2018-01-11 10:44:57 GMT 13.48614 100.68613 2,000 14 154 0
2018-01-11 10:44:54 GMT 13.48393 100.68553 2,000 14 154 0
2018-01-11 10:44:50 GMT 13.48167 100.68493 2,000 14 154 0
2018-01-11 10:44:46 GMT 13.47869 100.68416 2,000 14 154 -64
2018-01-11 10:44:43 GMT 13.47647 100.68354 2,000 14 154 0
2018-01-11 10:44:40 GMT 13.47478 100.68312 2,000 14 154 0
2018-01-11 10:44:35 GMT 13.47075 100.68207 2,000 14 154 0
2018-01-11 10:44:32 GMT 13.46837 100.68146 2,000 14 154 0
2018-01-11 10:44:30 GMT 13.46686 100.68107 2,000 14 155 0
2018-01-11 10:44:23 GMT 13.46267 100.68001 2,000 13 154 0
2018-01-11 10:44:21 GMT 13.46053 100.67948 2,000 13 154 0
2018-01-11 10:44:19 GMT 13.45953 100.67923 2,000 13 155 0
2018-01-11 10:44:13 GMT 13.45537 100.67819 2,000 14 155 0
2018-01-11 10:44:10 GMT 13.45336 100.67770 2,000 14 155 0
2018-01-11 10:44:08 GMT 13.45207 100.67734 2,000 14 155 0
2018-01-11 10:44:02 GMT 13.44778 100.67620 2,000 14 155 0
2018-01-11 10:43:59 GMT 13.44566 100.67563 2,000 14 156 0
2018-01-11 10:43:55 GMT 13.44360 100.67511 2,000 14 156 0
2018-01-11 10:43:50 GMT 13.43953 100.67402 2,000 14 157 0
2018-01-11 10:43:48 GMT 13.43770 100.67350 2,000 14 158 0
2018-01-11 10:43:45 GMT 13.43651 100.67322 2,000 14 158 64
2018-01-11 10:43:40 GMT 13.43216 100.67203 2,000 14 156 0
2018-01-11 10:43:37 GMT 13.43001 100.67147 2,000 14 155 -64
2018-01-11 10:43:35 GMT 13.42892 100.67119 2,000 14 155 -64
2018-01-11 10:43:27 GMT 13.42315 100.66970 2,000 14 156 0
2018-01-11 10:43:24 GMT 13.42104 100.66915 2,000 13 157 0
2018-01-11 10:43:17 GMT 13.41580 100.66782 2,000 13 157 0
2018-01-11 10:43:14 GMT 13.41380 100.66730 2,000 14 157 0
2018-01-11 10:43:05 GMT 13.40746 100.66565 2,000 14 156 0
2018-01-11 10:43:03 GMT 13.40616 100.66532 2,000 14 155 0
2018-01-11 10:42:56 GMT 13.40099 100.66394 2,000 14 155 -64
2018-01-11 10:42:53 GMT 13.39885 100.66339 2,000 14 155 64
2018-01-11 10:42:51 GMT 13.39842 100.66327 2,000 14 155 64
2018-01-11 10:42:44 GMT 13.39279 100.66181 2,000 14 156 0
2018-01-11 10:42:41 GMT 13.39096 100.66128 2,000 14 158 0
2018-01-11 10:42:34 GMT 13.38542 100.65982 2,000 14 157 0
2018-01-11 10:42:31 GMT 13.38344 100.65929 2,000 14 157 -64
2018-01-11 10:42:23 GMT 13.37755 100.65773 2,000 14 158 64
2018-01-11 10:42:19 GMT 13.37478 100.65698 2,000 14 158 64
2018-01-11 10:42:12 GMT 13.36963 100.65560 2,000 14 157 -64
2018-01-11 10:42:08 GMT 13.36701 100.65491 2,000 14 157 -320
2018-01-11 10:41:58 GMT 13.35970 100.65303 2,050 14 159 -448
2018-01-11 10:41:49 GMT 13.35365 100.65139 2,125 14 162 -448
2018-01-11 10:41:47 GMT 13.35191 100.65091 2,125 15 164 -448
2018-01-11 10:41:39 GMT 13.34573 100.64917 2,200 15 167 -448
2018-01-11 10:41:36 GMT 13.34336 100.64850 2,225 15 167 -384
2018-01-11 10:41:27 GMT 13.33795 100.64698 2,275 15 166 -448
2018-01-11 10:41:23 GMT 13.33415 100.64589 2,300 15 166 -448
2018-01-11 10:41:17 GMT 13.32999 100.64466 2,325 16 165 -384
2018-01-11 10:41:13 GMT 13.32646 100.64357 2,375 15 164 -448
2018-01-11 10:41:11 GMT 13.32564 100.64338 2,375 14 166 -448
2018-01-11 10:41:06 GMT 13.32125 100.64223 2,425 11 166 -448
2018-01-11 10:41:03 GMT 13.31878 100.64175 2,450 10 166 -448
2018-01-11 10:40:56 GMT 13.31387 100.64092 2,475 8 166 -384
2018-01-11 10:40:52 GMT 13.31054 100.64045 2,500 6 169 -320
2018-01-11 10:40:45 GMT 13.30499 100.63998 2,550 1 172 -320
2018-01-11 10:40:40 GMT 13.30072 100.63997 2,575 356 174 -384
2018-01-11 10:40:34 GMT 13.29602 100.64054 2,600 350 179 -320
2018-01-11 10:40:29 GMT 13.29211 100.64151 2,650 344 181 -448
2018-01-11 10:40:23 GMT 13.28740 100.64339 2,700 336 183 -448
2018-01-11 10:40:19 GMT 13.28405 100.64498 2,725 334 184 -448
2018-01-11 10:40:11 GMT 13.27800 100.64811 2,775 334 185 -576
2018-01-11 10:40:07 GMT 13.27493 100.64970 2,800 333 186 -576
2018-01-11 10:40:01 GMT 13.27013 100.65216 2,875 334 192 -384
2018-01-11 10:39:57 GMT 13.26700 100.65376 2,875 334 194 -192
2018-01-11 10:39:50 GMT 13.26124 100.65664 2,900 335 203 -256
2018-01-11 10:39:46 GMT 13.25789 100.65825 2,925 335 206 -512
2018-01-11 10:39:39 GMT 13.25193 100.66112 2,975 336 211 -768
2018-01-11 10:39:34 GMT 13.24828 100.66285 3,025 336 213 -768
2018-01-11 10:39:28 GMT 13.24182 100.66588 3,100 336 215 -448
2018-01-11 10:39:25 GMT 13.23921 100.66711 3,125 336 217 -512
2018-01-11 10:39:18 GMT 13.23289 100.67014 3,175 334 218 -384
2018-01-11 10:39:14 GMT 13.22928 100.67203 3,200 332 218 -448
2018-01-11 10:39:14 GMT 13.22928 100.67203 3,200 332 218 -448
2018-01-11 10:39:07 GMT 13.22274 100.67620 3,250 321 223 -576
2018-01-11 10:39:03 GMT 13.21944 100.67923 3,300 312 225 -576
2018-01-11 10:38:56 GMT 13.21525 100.68517 3,375 294 228 -704
2018-01-11 10:38:52 GMT 13.21385 100.68832 3,400 288 229 -640
2018-01-11 10:38:43 GMT 13.21204 100.69668 3,500 275 229 -512
2018-01-11 10:38:41 GMT 13.21194 100.70073 3,525 269 230 -384
2018-01-11 10:38:33 GMT 13.21266 100.70812 3,575 255 228 -576
2018-01-11 10:38:30 GMT 13.21381 100.71239 3,600 248 227 -576
2018-01-11 10:38:23 GMT 13.21715 100.71910 3,675 235 224 -640
2018-01-11 10:38:18 GMT 13.21963 100.72213 3,700 223 223 -640
2018-01-11 10:38:12 GMT 13.22521 100.72661 3,800 204 218 -896
2018-01-11 10:38:08 GMT 13.22800 100.72810 3,825 204 218 -896
2018-01-11 10:38:01 GMT 13.23550 100.73056 3,925 194 214 -704
2018-01-11 10:37:58 GMT 13.23834 100.73123 3,950 193 215 -704
2018-01-11 10:37:50 GMT 13.24593 100.73297 4,050 193 215 -704
2018-01-11 10:37:48 GMT 13.24895 100.73364 4,075 193 215 -704
2018-01-11 10:37:41 GMT 13.25514 100.73502 4,150 192 214 -704
2018-01-11 10:37:38 GMT 13.25858 100.73573 4,200 192 214 -704
2018-01-11 10:37:35 GMT 13.26141 100.73634 4,225 192 214 -768
2018-01-11 10:37:29 GMT 13.26723 100.73757 4,300 192 213 -704
2018-01-11 10:37:26 GMT 13.27007 100.73819 4,325 193 213 -640
2018-01-11 10:37:19 GMT 13.27688 100.73967 4,400 193 215 -960
2018-01-11 10:37:15 GMT 13.28069 100.74051 4,475 193 216 -896
2018-01-11 10:37:06 GMT 13.28929 100.74240 4,600 192 218 -832
2018-01-11 10:37:04 GMT 13.29185 100.74292 4,625 192 219 -832
2018-01-11 10:36:57 GMT 13.29877 100.74444 4,750 193 219 -832
2018-01-11 10:36:55 GMT 13.30019 100.74472 4,750 193 219 -768
2018-01-11 10:36:53 GMT 13.30307 100.74534 4,800 193 220 -832
2018-01-11 10:36:44 GMT 13.31124 100.74714 4,900 193 222 -768
2018-01-11 10:36:42 GMT 13.31324 100.74762 4,925 193 221 -832
2018-01-11 10:36:34 GMT 13.32129 100.74935 5,050 193 219 -832
2018-01-11 10:36:32 GMT 13.32408 100.74998 5,075 193 219 -832
2018-01-11 10:36:24 GMT 13.33163 100.75162 5,175 192 217 -832
2018-01-11 10:36:21 GMT 13.33470 100.75229 5,225 192 217 -896
2018-01-11 10:36:12 GMT 13.34331 100.75407 5,325 192 218 -768
2018-01-11 10:36:09 GMT 13.34620 100.75470 5,375 192 218 -832
2018-01-11 10:36:01 GMT 13.35435 100.75634 5,475 192 219 -832
2018-01-11 10:35:59 GMT 13.35635 100.75677 5,500 192 220 -832
2018-01-11 10:35:51 GMT 13.36463 100.75851 5,600 193 224 -768
2018-01-11 10:35:49 GMT 13.36620 100.75888 5,625 193 224 -832
2018-01-11 10:35:47 GMT 13.36729 100.75912 5,650 194 225 -832
2018-01-11 10:35:37 GMT 13.37832 100.76207 5,800 196 228 -832
2018-01-11 10:35:33 GMT 13.38209 100.76313 5,850 196 229 -832
2018-01-11 10:35:29 GMT 13.38725 100.76457 5,900 196 229 -832
2018-01-11 10:35:27 GMT 13.38922 100.76511 5,925 196 229 -832
2018-01-11 10:35:20 GMT 13.39526 100.76684 6,025 196 230 -768
2018-01-11 10:35:18 GMT 13.39851 100.76769 6,050 196 230 -832
2018-01-11 10:35:16 GMT 13.40067 100.76829 6,075 196 230 -896
2018-01-11 10:35:06 GMT 13.41044 100.77094 6,200 195 231 -896
2018-01-11 10:35:05 GMT 13.41179 100.77132 6,225 195 231 -896
2018-01-11 10:35:04 GMT 13.41284 100.77162 6,225 195 231 -896
2018-01-11 10:34:56 GMT 13.42036 100.77364 6,350 196 234 -896
2018-01-11 10:34:54 GMT 13.42355 100.77451 6,400 196 234 -704
2018-01-11 10:34:49 GMT 13.42772 100.77569 6,425 196 234 -512
2018-01-11 10:34:44 GMT 13.43353 100.77725 6,475 196 234 -448
2018-01-11 10:34:42 GMT 13.43573 100.77787 6,475 196 234 -384
2018-01-11 10:34:36 GMT 13.44205 100.77958 6,525 195 233 -384
2018-01-11 10:34:32 GMT 13.44667 100.78086 6,550 195 234 -448
2018-01-11 10:34:29 GMT 13.44866 100.78140 6,575 195 234 -448
2018-01-11 10:34:24 GMT 13.45509 100.78313 6,600 195 234 -384
2018-01-11 10:34:21 GMT 13.45839 100.78403 6,625 195 236 -448
2018-01-11 10:34:19 GMT 13.45953 100.78431 6,625 195 236 -448
2018-01-11 10:34:13 GMT 13.46686 100.78630 6,675 195 236 -576
2018-01-11 10:34:11 GMT 13.46901 100.78687 6,700 195 236 -512
2018-01-11 10:34:02 GMT 13.47874 100.78939 6,775 195 237 -512
2018-01-11 10:34:00 GMT 13.48100 100.79000 6,800 195 238 -512
2018-01-11 10:33:51 GMT 13.49009 100.79238 6,875 195 237 -512
2018-01-11 10:33:49 GMT 13.49298 100.79315 6,875 195 237 -512
2018-01-11 10:33:46 GMT 13.49405 100.79345 6,900 195 236 -512
2018-01-11 10:33:40 GMT 13.50137 100.79544 6,950 195 237 -704
2018-01-11 10:33:38 GMT 13.50449 100.79629 7,000 195 236 -768
2018-01-11 10:33:29 GMT 13.51323 100.79866 7,075 196 238 -768
2018-01-11 10:33:26 GMT 13.51626 100.79946 7,125 196 239 -704
2018-01-11 10:33:18 GMT 13.52599 100.80216 7,225 196 239 -704
2018-01-11 10:33:16 GMT 13.52762 100.80260 7,225 196 239 -704
2018-01-11 10:33:07 GMT 13.53734 100.80530 7,325 196 238 -704
2018-01-11 10:33:05 GMT 13.53967 100.80592 7,350 196 238 -704
2018-01-11 10:33:02 GMT 13.54248 100.80671 7,400 195 236 -704
2018-01-11 10:32:56 GMT 13.54898 100.80848 7,450 196 238 -704
2018-01-11 10:32:54 GMT 13.55122 100.80908 7,475 196 239 -768
2018-01-11 10:32:46 GMT 13.56006 100.81149 7,575 196 241 -832
2018-01-11 10:32:44 GMT 13.56235 100.81211 7,600 196 242 -960
2018-01-11 10:32:42 GMT 13.56341 100.81243 7,625 196 242 -960
2018-01-11 10:32:35 GMT 13.57173 100.81467 7,750 196 246 -960
2018-01-11 10:32:33 GMT 13.57407 100.81532 7,775 196 247 -960
2018-01-11 10:32:24 GMT 13.58408 100.81806 7,925 195 253 -768
2018-01-11 10:32:21 GMT 13.58624 100.81865 7,950 195 254 -704
2018-01-11 10:32:21 GMT 13.58624 100.81865 7,950 195 254 -704
2018-01-11 10:32:13 GMT 13.59726 100.82163 8,050 195 260 -768
2018-01-11 10:32:11 GMT 13.59888 100.82205 8,075 195 261 -832
2018-01-11 10:32:00 GMT 13.61197 100.82556 8,225 195 261 -1024
2018-01-11 10:31:51 GMT 13.62264 100.82845 8,375 195 260 -1024
2018-01-11 10:31:49 GMT 13.62463 100.82900 8,400 195 260 -1024
2018-01-11 10:31:40 GMT 13.63548 100.83199 8,550 195 260 -1344
2018-01-11 10:31:38 GMT 13.63785 100.83262 8,600 195 260 -1408
2018-01-11 10:31:38 GMT 13.63785 100.83262 8,600 195 260 -1408
2018-01-11 10:31:29 GMT 13.64841 100.83555 8,775 196 262 -896
2018-01-11 10:31:27 GMT 13.65074 100.83617 8,800 196 261 -896
2018-01-11 10:31:19 GMT 13.65990 100.83877 8,925 196 261 -960
2018-01-11 10:31:16 GMT 13.66341 100.83975 8,975 196 261 -960
2018-01-11 10:31:05 GMT 13.67644 100.84336 9,125 196 263 -960
2018-01-11 10:30:56 GMT 13.68805 100.84654 9,275 196 268 -1024
2018-01-11 10:30:54 GMT 13.68994 100.84707 9,300 196 269 -1024
2018-01-11 10:30:47 GMT 13.69860 100.84948 9,425 196 274 -1024
2018-01-11 10:30:45 GMT 13.70060 100.85006 9,450 196 275 -1088
2018-01-11 10:30:43 GMT 13.70293 100.85070 9,475 196 276 -1088
2018-01-11 10:30:35 GMT 13.71331 100.85353 9,625 196 281 -1088
2018-01-11 10:30:32 GMT 13.71684 100.85454 9,675 196 281 -1024
2018-01-11 10:30:26 GMT 13.72458 100.85666 9,775 196 283 -960
2018-01-11 10:30:24 GMT 13.72728 100.85738 9,800 196 283 -960
2018-01-11 10:30:21 GMT 13.73133 100.85854 9,850 196 283 -960
2018-01-11 10:30:15 GMT 13.73822 100.86042 9,925 196 283 -960
2018-01-11 10:30:13 GMT 13.74385 100.86196 10,000 196 284 -1088
2018-01-11 10:30:10 GMT 13.74600 100.86259 10,025 196 284 -1152
2018-01-11 10:30:04 GMT 13.75163 100.86415 10,100 196 284 -1152
2018-01-11 10:30:02 GMT 13.75507 100.86510 10,150 196 284 -1152
2018-01-11 10:30:00 GMT 13.75749 100.86577 10,200 196 284 -1152
2018-01-11 10:29:58 GMT 13.76047 100.86657 10,250 196 284 -1152
2018-01-11 10:29:54 GMT 13.76555 100.86794 10,325 196 285 -1152
2018-01-11 10:29:49 GMT 13.77197 100.86967 10,400 195 285 -1152
2018-01-11 10:29:47 GMT 13.77530 100.87059 10,450 195 285 -1152
2018-01-11 10:29:41 GMT 13.78226 100.87247 10,550 195 285 -1152
2018-01-11 10:29:38 GMT 13.78621 100.87353 10,600 195 286 -1152
2018-01-11 10:29:35 GMT 13.78947 100.87439 10,650 195 286 -1152
2018-01-11 10:29:32 GMT 13.79226 100.87516 10,700 195 286 -1152
2018-01-11 10:29:30 GMT 13.79640 100.87628 10,750 195 287 -1216
2018-01-11 10:29:27 GMT 13.80050 100.87738 10,800 195 287 -1152
2018-01-11 10:29:24 GMT 13.80391 100.87831 10,850 195 288 -1152
2018-01-11 10:29:22 GMT 13.80624 100.87893 10,900 195 288 -1152
2018-01-11 10:29:19 GMT 13.81037 100.88008 10,950 195 289 -1216
2018-01-11 10:29:16 GMT 13.81438 100.88114 11,000 195 289 -1152
2018-01-11 10:29:13 GMT 13.81833 100.88224 11,050 195 290 -1024
2018-01-11 10:29:10 GMT 13.82039 100.88281 11,075 195 290 -1024
2018-01-11 10:29:08 GMT 13.82513 100.88408 11,150 195 292 -896
2018-01-11 10:29:05 GMT 13.82816 100.88490 11,175 195 293 -896
2018-01-11 10:29:00 GMT 13.83408 100.88650 11,225 195 294 -896
2018-01-11 10:28:57 GMT 13.83952 100.88798 11,300 195 296 -896
2018-01-11 10:28:53 GMT 13.84315 100.88899 11,325 195 298 -960
2018-01-11 10:28:50 GMT 13.84878 100.89053 11,400 196 299 -960
2018-01-11 10:28:46 GMT 13.85403 100.89195 11,450 196 301 -960
2018-01-11 10:28:43 GMT 13.85753 100.89294 11,500 196 301 -896
2018-01-11 10:28:38 GMT 13.86293 100.89444 11,550 196 302 -896
2018-01-11 10:28:35 GMT 13.86922 100.89622 11,625 196 305 -1024
2018-01-11 10:28:31 GMT 13.87345 100.89743 11,675 196 305 -1024
2018-01-11 10:28:31 GMT 13.87345 100.89743 11,675 196 305 -1024
2018-01-11 10:28:28 GMT 13.87866 100.89887 11,725 195 308 -1088
2018-01-11 10:28:21 GMT 13.88770 100.90123 11,850 195 309 -1216
2018-01-11 10:28:21 GMT 13.88770 100.90123 11,850 195 308 -1152
2018-01-11 10:28:17 GMT 13.89380 100.90282 11,950 195 309 -1664
2018-01-11 10:28:14 GMT 13.89812 100.90398 12,025 196 309 -1792
2018-01-11 10:28:10 GMT 13.90256 100.90526 12,100 197 309 -1728
2018-01-11 10:28:06 GMT 13.90920 100.90758 12,225 201 309 -1472
2018-01-11 10:28:03 GMT 13.91321 100.90918 12,300 204 308 -1216
2018-01-11 10:28:00 GMT 13.91730 100.91106 12,350 207 309 -1216
2018-01-11 10:27:57 GMT 13.92052 100.91265 12,400 208 309 -1216
2018-01-11 10:27:54 GMT 13.92430 100.91478 12,450 211 310 -1216
2018-01-11 10:27:52 GMT 13.92728 100.91657 12,500 213 310 -1152
2018-01-11 10:27:49 GMT 13.93094 100.91896 12,550 216 310 -1152
2018-01-11 10:27:45 GMT 13.93411 100.92128 12,600 218 310 -1152
2018-01-11 10:27:43 GMT 13.93765 100.92407 12,650 220 310 -1152
2018-01-11 10:27:41 GMT 13.93996 100.92609 12,700 222 310 -1152
2018-01-11 10:27:38 GMT 13.94357 100.92946 12,750 223 309 -1088
2018-01-11 10:27:35 GMT 13.94528 100.93106 12,800 224 309 -768
2018-01-11 10:27:30 GMT 13.95167 100.93722 12,850 224 309 -640
2018-01-11 10:27:27 GMT 13.95501 100.94050 12,900 224 310 -640
2018-01-11 10:27:25 GMT 13.95657 100.94200 12,900 224 310 -640
2018-01-11 10:27:21 GMT 13.96064 100.94600 12,950 224 310 -576
2018-01-11 10:27:19 GMT 13.96284 100.94811 12,975 224 310 -448
2018-01-11 10:27:15 GMT 13.96753 100.95270 13,000 224 309 -128
2018-01-11 10:27:13 GMT 13.96809 100.95318 13,000 224 309 -64
2018-01-11 10:27:10 GMT 13.97214 100.95716 13,000 224 309 0
2018-01-11 10:27:08 GMT 13.97414 100.95906 13,000 224 309 0
2018-01-11 10:27:05 GMT 13.97796 100.96281 13,000 224 309 0
2018-01-11 10:27:03 GMT 13.97894 100.96373 13,000 224 309 0
2018-01-11 10:26:59 GMT 13.98359 100.96826 13,000 224 309 0
2018-01-11 10:26:57 GMT 13.98560 100.97018 13,000 224 309 0
2018-01-11 10:26:53 GMT 13.99006 100.97457 13,000 224 309 0
2018-01-11 10:26:48 GMT 13.99514 100.97953 13,000 224 309 0
2018-01-11 10:26:46 GMT 13.99754 100.98188 13,000 224 309 0
2018-01-11 10:26:43 GMT 14.00068 100.98488 13,000 224 309 0
2018-01-11 10:26:39 GMT 14.00440 100.98855 13,000 224 309 0
2018-01-11 10:26:35 GMT 14.00867 100.99272 13,000 224 309 0
2018-01-11 10:26:32 GMT 14.01255 100.99645 13,000 224 309 0
2018-01-11 10:26:28 GMT 14.01464 100.99852 13,000 224 309 0
2018-01-11 10:26:26 GMT 14.01809 101.00184 13,000 224 309 0
2018-01-11 10:26:24 GMT 14.02018 101.00387 13,000 224 309 0
2018-01-11 10:26:21 GMT 14.02368 101.00735 13,000 224 309 0
2018-01-11 10:26:19 GMT 14.02483 101.00844 13,000 224 309 0
2018-01-11 10:26:13 GMT 14.03142 101.01484 13,000 224 309 0
2018-01-11 10:26:09 GMT 14.03610 101.01943 13,000 224 309 0
2018-01-11 10:26:02 GMT 14.04285 101.02599 13,000 224 309 0
2018-01-11 10:26:00 GMT 14.04556 101.02863 13,000 224 309 0
2018-01-11 10:25:58 GMT 14.04607 101.02917 13,000 224 309 0
2018-01-11 10:25:51 GMT 14.05472 101.03757 13,000 224 309 0
2018-01-11 10:25:49 GMT 14.05733 101.04008 13,000 224 309 0
2018-01-11 10:25:46 GMT 14.05847 101.04121 13,000 224 309 0
2018-01-11 10:25:46 GMT 14.05847 101.04121 13,000 224 309 0
2018-01-11 10:25:40 GMT 14.06846 101.05094 13,000 224 309 0
2018-01-11 10:25:37 GMT 14.06897 101.05147 13,000 224 309 0
2018-01-11 10:25:26 GMT 14.08033 101.06256 13,000 224 309 0
2018-01-11 10:25:16 GMT 14.09148 101.07341 13,000 224 309 0
2018-01-11 10:25:16 GMT 14.09148 101.07341 13,000 224 309 0
2018-01-11 10:25:04 GMT 14.10315 101.08478 13,000 224 310 0
2018-01-11 10:24:55 GMT 14.11315 101.09460 13,000 224 310 64
2018-01-11 10:24:53 GMT 14.11455 101.09591 13,000 224 310 64
2018-01-11 10:24:44 GMT 14.12462 101.10580 12,975 224 309 128
2018-01-11 10:24:41 GMT 14.12618 101.10732 12,975 224 307 64
2018-01-11 10:24:33 GMT 14.13605 101.11691 13,025 224 308 -768
2018-01-11 10:24:33 GMT 14.13605 101.11691 13,025 224 309 -768
2018-01-11 10:24:30 GMT 14.13750 101.11836 13,050 224 309 -768
2018-01-11 10:24:24 GMT 14.14490 101.12559 13,125 224 309 -704
2018-01-11 10:24:22 GMT 14.14728 101.12792 13,150 224 310 -704
2018-01-11 10:24:20 GMT 14.14946 101.13007 13,175 224 310 -768
2018-01-11 10:24:13 GMT 14.15607 101.13648 13,250 224 311 -768
2018-01-11 10:24:11 GMT 14.15909 101.13947 13,300 224 311 -768
2018-01-11 10:24:09 GMT 14.16068 101.14100 13,300 224 311 -768
2018-01-11 10:24:03 GMT 14.16765 101.14776 13,375 224 313 -768
2018-01-11 10:24:00 GMT 14.17035 101.15041 13,425 224 313 -832
2018-01-11 10:23:58 GMT 14.17245 101.15250 13,450 224 314 -832
2018-01-11 10:23:50 GMT 14.17955 101.15941 13,525 224 314 -832
2018-01-11 10:23:47 GMT 14.18465 101.16437 13,600 224 315 -832
2018-01-11 10:23:41 GMT 14.18985 101.16945 13,650 224 316 -832
2018-01-11 10:23:38 GMT 14.19369 101.17319 13,700 224 317 -832
2018-01-11 10:23:38 GMT 14.19369 101.17319 13,700 224 317 -832
2018-01-11 10:23:35 GMT 14.19671 101.17613 13,750 224 318 -832
2018-01-11 10:23:30 GMT 14.20216 101.18143 13,800 224 319 -832
2018-01-11 10:23:27 GMT 14.20528 101.18447 13,850 224 319 -832
2018-01-11 10:23:20 GMT 14.21278 101.19180 13,950 224 320 -832
2018-01-11 10:23:16 GMT 14.21732 101.19625 14,000 224 320 -832
2018-01-11 10:23:13 GMT 14.22036 101.19916 14,025 224 320 -832
2018-01-11 10:23:08 GMT 14.22432 101.20307 14,075 224 320 -832
2018-01-11 10:23:05 GMT 14.22874 101.20740 14,125 224 321 -832
2018-01-11 10:23:03 GMT 14.23146 101.21003 14,175 224 321 -832
2018-01-11 10:22:57 GMT 14.23642 101.21482 14,225 224 321 -832
2018-01-11 10:22:54 GMT 14.24075 101.21907 14,275 224 321 -896
2018-01-11 10:22:52 GMT 14.24377 101.22201 14,325 224 321 -960
2018-01-11 10:22:48 GMT 14.24727 101.22538 14,375 224 321 -960
2018-01-11 10:22:44 GMT 14.25192 101.22992 14,450 224 321 -960
2018-01-11 10:22:42 GMT 14.25257 101.23053 14,450 224 321 -960
2018-01-11 10:22:35 GMT 14.26012 101.23797 14,550 224 321 -960
2018-01-11 10:22:31 GMT 14.26454 101.24234 14,625 224 322 -960
2018-01-11 10:22:26 GMT 14.27055 101.24829 14,700 224 322 -960
2018-01-11 10:22:20 GMT 14.27771 101.25530 14,800 224 323 -960
2018-01-11 10:22:11 GMT 14.28712 101.26435 14,925 224 323 -896
2018-01-11 10:22:09 GMT 14.29015 101.26738 14,975 225 323 -896
2018-01-11 10:22:01 GMT 14.29801 101.27607 15,075 231 322 -896
2018-01-11 10:21:50 GMT 14.30772 101.28968 15,225 239 321 -896
2018-01-11 10:21:48 GMT 14.30942 101.29252 15,250 241 320 -960
2018-01-11 10:21:39 GMT 14.31555 101.30488 15,400 247 319 -1024
2018-01-11 10:21:35 GMT 14.31738 101.30938 15,450 249 319 -1024
2018-01-11 10:21:29 GMT 14.32063 101.31819 15,550 250 319 -896
2018-01-11 10:21:27 GMT 14.32170 101.32122 15,575 250 320 -832
2018-01-11 10:21:25 GMT 14.32288 101.32449 15,600 250 320 -704
2018-01-11 10:21:13 GMT 14.32887 101.34125 15,725 250 327 -704
2018-01-11 10:21:07 GMT 14.33276 101.35196 15,800 250 330 -704
2018-01-11 10:21:04 GMT 14.33327 101.35328 15,825 250 330 -704
2018-01-11 10:21:01 GMT 14.33488 101.35774 15,850 250 332 -704
2018-01-11 10:20:59 GMT 14.33586 101.36039 15,875 250 333 -704
2018-01-11 10:20:57 GMT 14.33744 101.36473 15,900 250 334 -640
2018-01-11 10:20:55 GMT 14.33883 101.36858 15,925 250 334 -640
2018-01-11 10:20:49 GMT 14.34132 101.37544 15,975 250 334 -704
2018-01-11 10:20:46 GMT 14.34338 101.38113 16,025 250 334 -640
2018-01-11 10:20:44 GMT 14.34475 101.38487 16,050 250 334 -704
2018-01-11 10:20:40 GMT 14.34680 101.39056 16,075 250 334 -640
2018-01-11 10:20:35 GMT 14.34970 101.39865 16,150 250 334 -704
2018-01-11 10:20:33 GMT 14.35043 101.40073 16,150 250 334 -704
2018-01-11 10:20:30 GMT 14.35229 101.40583 16,200 250 334 -704
2018-01-11 10:20:28 GMT 14.35252 101.40655 16,200 250 334 -640
2018-01-11 10:20:25 GMT 14.35496 101.41333 16,250 250 334 -640
2018-01-11 10:20:22 GMT 14.35634 101.41720 16,275 250 335 -640
2018-01-11 10:20:20 GMT 14.35748 101.42033 16,300 250 335 -576
2018-01-11 10:20:18 GMT 14.35808 101.42199 16,300 250 335 -512
2018-01-11 10:20:14 GMT 14.36118 101.43055 16,350 252 335 -576
2018-01-11 10:20:10 GMT 14.36225 101.43354 16,375 252 336 -512
2018-01-11 10:20:07 GMT 14.36398 101.43899 16,400 254 335 -640
2018-01-11 10:20:04 GMT 14.36556 101.44535 16,425 261 332 -640
2018-01-11 10:20:02 GMT 14.36602 101.44785 16,450 262 332 -640
2018-01-11 10:19:59 GMT 14.36641 101.45083 16,450 265 331 -640
2018-01-11 10:19:56 GMT 14.36678 101.45571 16,500 269 330 -640
2018-01-11 10:19:52 GMT 14.36663 101.46385 16,550 277 327 -640
2018-01-11 10:19:48 GMT 14.36616 101.46833 16,575 278 327 -640
2018-01-11 10:19:45 GMT 14.36537 101.47276 16,600 284 324 -640
2018-01-11 10:19:41 GMT 14.36311 101.48076 16,650 292 322 -640
2018-01-11 10:19:39 GMT 14.36211 101.48351 16,675 293 321 -640
2018-01-11 10:19:35 GMT 14.35844 101.49132 16,725 302 318 -640
2018-01-11 10:19:32 GMT 14.35731 101.49329 16,750 302 318 -640
2018-01-11 10:19:30 GMT 14.35610 101.49522 16,750 305 317 -640
2018-01-11 10:19:28 GMT 14.35406 101.49816 16,775 307 316 -640
2018-01-11 10:19:21 GMT 14.34755 101.50586 16,850 318 312 -704
2018-01-11 10:19:17 GMT 14.34358 101.50958 16,900 322 310 -640
2018-01-11 10:19:15 GMT 14.34065 101.51194 16,925 323 310 -640
2018-01-11 10:19:11 GMT 14.33565 101.51542 16,950 329 308 -640
2018-01-11 10:19:06 GMT 14.32999 101.51854 17,000 337 306 -640
2018-01-11 10:18:59 GMT 14.32072 101.52220 17,075 344 305 -640
2018-01-11 10:18:55 GMT 14.31578 101.52357 17,125 353 305 -640
2018-01-11 10:18:52 GMT 14.31299 101.52409 17,125 354 305 -704
2018-01-11 10:18:49 GMT 14.30708 101.52485 17,175 357 305 -704
2018-01-11 10:18:47 GMT 14.30513 101.52500 17,200 358 305 -704
2018-01-11 10:18:43 GMT 14.29927 101.52500 17,250 4 305 -832
2018-01-11 10:18:35 GMT 14.28832 101.52347 17,350 10 305 -832
2018-01-11 10:18:31 GMT 14.28214 101.52177 17,400 18 306 -832
2018-01-11 10:18:26 GMT 14.27586 101.51940 17,475 24 306 -896
2018-01-11 10:18:22 GMT 14.27046 101.51675 17,525 28 307 -832
2018-01-11 10:18:16 GMT 14.26305 101.51203 17,600 36 309 -768
2018-01-11 10:18:12 GMT 14.25779 101.50784 17,650 40 311 -704
2018-01-11 10:18:09 GMT 14.25490 101.50519 17,675 43 312 -768
2018-01-11 10:18:04 GMT 14.25055 101.50051 17,725 49 316 -832
2018-01-11 10:18:01 GMT 14.24699 101.49589 17,800 54 318 -896
2018-01-11 10:17:59 GMT 14.24578 101.49416 17,800 60 320 -960
2018-01-11 10:17:54 GMT 14.24176 101.48706 17,900 63 322 -832
2018-01-11 10:17:51 GMT 14.23975 101.48275 17,925 66 323 -768
2018-01-11 10:17:48 GMT 14.23814 101.47891 17,975 67 323 -640
2018-01-11 10:17:43 GMT 14.23489 101.47096 18,025 67 323 -576
2018-01-11 10:17:40 GMT 14.23329 101.46698 18,050 67 323 -576
2018-01-11 10:17:37 GMT 14.23246 101.46481 18,050 67 323 -512
2018-01-11 10:17:33 GMT 14.22922 101.45685 18,100 67 324 -512
2018-01-11 10:17:31 GMT 14.22846 101.45498 18,125 67 324 -512
2018-01-11 10:17:29 GMT 14.22702 101.45140 18,125 67 325 -512
2018-01-11 10:17:22 GMT 14.22297 101.44144 18,200 67 324 -512
2018-01-11 10:17:20 GMT 14.22208 101.43928 18,200 67 324 -512
2018-01-11 10:17:18 GMT 14.22070 101.43587 18,225 67 324 -576
2018-01-11 10:17:11 GMT 14.21635 101.42531 18,300 67 324 -576
2018-01-11 10:17:07 GMT 14.21429 101.42033 18,325 67 324 -576
2018-01-11 10:17:00 GMT 14.21013 101.41025 18,375 66 324 -576
2018-01-11 10:16:58 GMT 14.20928 101.40810 18,400 66 324 -576
2018-01-11 10:16:55 GMT 14.20725 101.40329 18,425 66 324 -576
2018-01-11 10:16:49 GMT 14.20349 101.39420 18,475 66 324 -576
2018-01-11 10:16:47 GMT 14.20253 101.39187 18,500 67 325 -640
2018-01-11 10:16:45 GMT 14.20166 101.38974 18,500 67 325 -576
2018-01-11 10:16:40 GMT 14.19885 101.38290 18,550 67 328 -576
2018-01-11 10:16:38 GMT 14.19704 101.37842 18,575 67 327 -576
2018-01-11 10:16:36 GMT 14.19606 101.37610 18,600 67 328 -576
2018-01-11 10:16:34 GMT 14.19484 101.37312 18,625 67 328 -576
2018-01-11 10:16:27 GMT 14.19075 101.36299 18,675 67 329 -576
2018-01-11 10:16:25 GMT 14.18962 101.36024 18,700 67 329 -512
2018-01-11 10:16:23 GMT 14.18852 101.35750 18,700 67 329 -448
2018-01-11 10:16:16 GMT 14.18428 101.34719 18,750 67 330 -384
2018-01-11 10:16:14 GMT 14.18294 101.34386 18,775 67 330 -384
2018-01-11 10:16:11 GMT 14.18179 101.34097 18,775 68 331 -448
2018-01-11 10:16:05 GMT 14.17851 101.33071 18,825 76 335 -512
2018-01-11 10:16:03 GMT 14.17781 101.32763 18,850 79 336 -512
2018-01-11 10:16:01 GMT 14.17716 101.32382 18,850 81 336 -512
2018-01-11 10:15:51 GMT 14.17657 101.30820 18,950 95 342 -512
2018-01-11 10:15:51 GMT 14.17662 101.30739 18,950 95 342 -512
2018-01-11 10:15:44 GMT 14.17845 101.29645 19,000 105 345 -192
2018-01-11 10:15:40 GMT 14.18000 101.29091 19,000 109 346 64
2018-01-11 10:15:40 GMT 14.18028 101.29011 19,000 109 346 64
2018-01-11 10:15:33 GMT 14.18493 101.27935 19,000 118 350 -64
2018-01-11 10:15:29 GMT 14.18787 101.27438 19,000 124 352 -64
2018-01-11 10:15:26 GMT 14.19035 101.27079 19,000 128 353 0
2018-01-11 10:15:22 GMT 14.19508 101.26499 19,000 133 353 128
2018-01-11 10:15:18 GMT 14.19937 101.26056 18,975 138 354 256
2018-01-11 10:15:15 GMT 14.20239 101.25791 18,975 141 354 128
2018-01-11 10:15:11 GMT 14.20894 101.25308 18,975 148 358 -512
2018-01-11 10:15:09 GMT 14.21198 101.25125 19,000 151 358 -640
2018-01-11 10:15:07 GMT 14.21431 101.24995 19,025 154 359 -640
2018-01-11 10:15:05 GMT 14.21673 101.24875 19,025 155 359 -640
2018-01-11 10:15:00 GMT 14.22594 101.24523 19,100 164 360 -640
2018-01-11 10:14:57 GMT 14.23082 101.24394 19,125 168 361 -576
2018-01-11 10:14:55 GMT 14.23412 101.24332 19,125 170 361 -640
2018-01-11 10:14:49 GMT 14.24419 101.24238 19,200 179 362 -640
2018-01-11 10:14:47 GMT 14.24736 101.24239 19,200 184 362 -640
2018-01-11 10:14:45 GMT 14.25006 101.24253 19,225 186 362 -640
2018-01-11 10:14:43 GMT 14.25243 101.24276 19,250 188 362 -640
2018-01-11 10:14:38 GMT 14.26204 101.24446 19,300 197 363 -640
2018-01-11 10:14:35 GMT 14.26735 101.24607 19,325 202 363 -576
2018-01-11 10:14:33 GMT 14.26975 101.24692 19,350 202 363 -576
2018-01-11 10:14:27 GMT 14.27981 101.25178 19,400 212 363 -512
2018-01-11 10:14:24 GMT 14.28383 101.25436 19,425 215 362 -512
2018-01-11 10:14:20 GMT 14.28712 101.25670 19,450 224 362 -640
2018-01-11 10:14:16 GMT 14.29391 101.26267 19,500 227 361 -704
2018-01-11 10:14:13 GMT 14.29745 101.26653 19,525 230 361 -704
2018-01-11 10:14:11 GMT 14.30001 101.26976 19,550 230 361 -704
2018-01-11 10:14:09 GMT 14.30052 101.27043 19,550 232 361 -768
2018-01-11 10:14:01 GMT 14.30827 101.28400 19,675 246 358 -704
2018-01-11 10:13:55 GMT 14.31235 101.29356 19,750 248 359 -640
2018-01-11 10:13:52 GMT 14.31441 101.29863 19,775 248 359 -640
2018-01-11 10:13:52 GMT 14.31441 101.29863 19,775 248 359 -640
2018-01-11 10:13:43 GMT 14.31967 101.31137 19,850 248 359 -704
2018-01-11 10:13:41 GMT 14.32137 101.31549 19,875 247 359 -704
2018-01-11 10:13:41 GMT 14.32137 101.31549 19,875 247 359 -704
2018-01-11 10:13:41 GMT 14.32169 101.31625 19,900 247 359 -704
2018-01-11 10:13:37 GMT 14.32417 101.32223 19,925 247 359 -704
2018-01-11 10:13:32 GMT 14.32687 101.32873 19,975 247 360 -640
2018-01-11 10:13:29 GMT 14.32948 101.33505 20,000 247 360 -640
2018-01-11 10:13:21 GMT 14.33367 101.34521 20,075 248 362 -640
2018-01-11 10:13:19 GMT 14.33592 101.35063 20,100 248 362 -640
2018-01-11 10:13:19 GMT 14.33592 101.35063 20,100 248 362 -640
2018-01-11 10:13:17 GMT 14.33725 101.35380 20,125 248 362 -640
2018-01-11 10:13:10 GMT 14.34112 101.36319 20,200 248 364 -640
2018-01-11 10:13:07 GMT 14.34338 101.36881 20,225 248 364 -704
2018-01-11 10:13:02 GMT 14.34672 101.37701 20,275 248 364 -704
2018-01-11 10:13:00 GMT 14.34796 101.38005 20,300 248 364 -704
2018-01-11 10:12:57 GMT 14.35024 101.38564 20,350 248 364 -704
2018-01-11 10:12:54 GMT 14.35201 101.38998 20,375 248 365 -704
2018-01-11 10:12:49 GMT 14.35510 101.39770 20,425 248 364 -640
2018-01-11 10:12:47 GMT 14.35643 101.40092 20,450 248 365 -576
2018-01-11 10:12:45 GMT 14.35771 101.40414 20,450 248 365 -512
2018-01-11 10:12:41 GMT 14.36067 101.41137 20,500 248 365 -512
2018-01-11 10:12:38 GMT 14.36211 101.41489 20,500 248 364 -448
2018-01-11 10:12:36 GMT 14.36284 101.41664 20,525 248 364 -448
2018-01-11 10:12:34 GMT 14.36514 101.42246 20,550 250 364 -512
2018-01-11 10:12:27 GMT 14.36861 101.43364 20,600 257 362 -640
2018-01-11 10:12:24 GMT 14.36956 101.43836 20,625 263 360 -640
2018-01-11 10:12:17 GMT 14.37035 101.45151 20,700 273 358 -640
2018-01-11 10:12:14 GMT 14.37003 101.45628 20,725 279 356 -640
2018-01-11 10:12:12 GMT 14.36988 101.45730 20,725 279 356 -640
2018-01-11 10:12:06 GMT 14.36732 101.46949 20,800 289 353 -640
2018-01-11 10:12:04 GMT 14.36710 101.47029 20,800 290 353 -640
2018-01-11 10:12:01 GMT 14.36523 101.47536 20,850 294 352 -640
2018-01-11 10:11:54 GMT 14.35839 101.48808 20,925 304 349 -640
2018-01-11 10:11:52 GMT 14.35744 101.48943 20,950 308 349 -640
2018-01-11 10:11:50 GMT 14.35638 101.49089 20,950 310 348 -640
2018-01-11 10:11:44 GMT 14.34842 101.49960 21,025 320 346 -640
2018-01-11 10:11:41 GMT 14.34484 101.50264 21,050 324 346 -640
2018-01-11 10:11:39 GMT 14.34368 101.50355 21,050 327 345 -640
2018-01-11 10:11:33 GMT 14.33371 101.50982 21,150 335 344 -640
2018-01-11 10:11:30 GMT 14.32948 101.51174 21,175 339 343 -640
2018-01-11 10:11:28 GMT 14.32635 101.51296 21,200 348 342 -640
2018-01-11 10:11:21 GMT 14.31761 101.51541 21,250 350 342 -640
2018-01-11 10:11:19 GMT 14.31180 101.51637 21,275 356 342 -640
2018-01-11 10:11:08 GMT 14.29427 101.51585 21,400 9 340 -640
2018-01-11 10:11:04 GMT 14.29037 101.51507 21,425 13 340 -576
2018-01-11 10:11:00 GMT 14.28415 101.51329 21,450 19 339 -640
2018-01-11 10:10:56 GMT 14.27683 101.51025 21,500 27 339 -576
2018-01-11 10:10:54 GMT 14.27385 101.50875 21,525 27 339 -576
2018-01-11 10:10:49 GMT 14.26882 101.50572 21,550 33 340 -512
2018-01-11 10:10:45 GMT 14.26195 101.50051 21,600 40 341 -576
2018-01-11 10:10:38 GMT 14.25532 101.49372 21,650 49 343 -768
2018-01-11 10:10:35 GMT 14.25136 101.48857 21,700 60 345 -832
2018-01-11 10:10:31 GMT 14.24903 101.48486 21,750 60 345 -832
2018-01-11 10:10:27 GMT 14.24606 101.47903 21,800 65 346 -704
2018-01-11 10:10:23 GMT 14.24323 101.47252 21,850 67 347 -640
2018-01-11 10:10:16 GMT 14.23883 101.46149 21,925 67 348 -640
2018-01-11 10:10:12 GMT 14.23642 101.45537 21,950 67 348 -640
2018-01-11 10:10:05 GMT 14.23210 101.44463 22,025 67 348 -640
2018-01-11 10:10:03 GMT 14.23051 101.44067 22,050 67 348 -640
2018-01-11 10:10:01 GMT 14.22990 101.43913 22,075 67 348 -640
2018-01-11 10:09:54 GMT 14.22557 101.42838 22,125 67 348 -640
2018-01-11 10:09:52 GMT 14.22345 101.42318 22,175 67 348 -640
2018-01-11 10:09:50 GMT 14.22320 101.42255 22,175 67 348 -640
2018-01-11 10:09:40 GMT 14.21598 101.40472 22,300 67 350 -640
2018-01-11 10:09:34 GMT 14.21219 101.39538 22,350 67 350 -640
2018-01-11 10:09:30 GMT 14.21002 101.39012 22,375 67 351 -640
2018-01-11 10:09:28 GMT 14.20839 101.38610 22,425 67 351 -640
2018-01-11 10:09:23 GMT 14.20564 101.37933 22,450 67 351 -704
2018-01-11 10:09:19 GMT 14.20295 101.37273 22,500 67 351 -704
2018-01-11 10:09:17 GMT 14.20267 101.37208 22,500 67 351 -704
2018-01-11 10:09:17 GMT 14.20267 101.37208 22,500 67 351 -704
2018-01-11 10:09:12 GMT 14.19832 101.36143 22,575 67 351 -640
2018-01-11 10:09:08 GMT 14.19592 101.35558 22,625 67 350 -576
2018-01-11 10:09:08 GMT 14.19592 101.35558 22,625 66 351 -576
2018-01-11 10:09:06 GMT 14.19452 101.35219 22,650 66 351 -576
2018-01-11 10:09:01 GMT 14.19150 101.34497 22,675 67 351 -512
2018-01-11 10:08:55 GMT 14.18782 101.33567 22,725 69 351 -576
2018-01-11 10:08:50 GMT 14.18521 101.32700 22,775 78 354 -640
2018-01-11 10:08:45 GMT 14.18400 101.32001 22,800 85 357 -640
2018-01-11 10:08:39 GMT 14.18349 101.30879 22,875 92 360 -640
2018-01-11 10:08:34 GMT 14.18419 101.30074 22,925 99 362 -640
2018-01-11 10:08:32 GMT 14.18491 101.29664 22,950 106 366 -640
2018-01-11 10:08:28 GMT 14.18661 101.29009 22,975 109 366 -576
2018-01-11 10:08:24 GMT 14.18880 101.28402 23,025 113 368 -576
2018-01-11 10:08:24 GMT 14.18880 101.28402 23,025 113 368 -576
2018-01-11 10:08:21 GMT 14.19043 101.28036 23,050 115 368 -576
2018-01-11 10:08:16 GMT 14.19461 101.27287 23,075 125 372 -576
2018-01-11 10:08:12 GMT 14.20001 101.26548 23,125 130 374 -576
2018-01-11 10:08:05 GMT 14.20747 101.25791 23,175 140 377 -640
2018-01-11 10:08:02 GMT 14.21237 101.25412 23,225 146 379 -640
2018-01-11 10:07:58 GMT 14.21687 101.25130 23,250 151 381 -640
2018-01-11 10:07:54 GMT 14.22469 101.24745 23,300 157 382 -640
2018-01-11 10:07:51 GMT 14.23041 101.24545 23,325 165 383 -576
2018-01-11 10:07:47 GMT 14.23705 101.24384 23,350 170 385 -576
2018-01-11 10:07:44 GMT 14.24233 101.24311 23,400 175 386 -576
2018-01-11 10:07:41 GMT 14.24843 101.24277 23,425 181 387 -576
2018-01-11 10:07:40 GMT 14.24931 101.24280 23,425 181 387 -576
2018-01-11 10:07:38 GMT 14.25276 101.24292 23,450 187 387 -576
2018-01-11 10:07:33 GMT 14.26167 101.24417 23,500 193 388 -576
2018-01-11 10:07:30 GMT 14.26761 101.24571 23,525 200 389 -576
2018-01-11 10:07:29 GMT 14.26863 101.24607 23,525 200 389 -576
2018-01-11 10:07:22 GMT 14.28083 101.25159 23,600 211 389 -576
2018-01-11 10:07:19 GMT 14.28561 101.25459 23,625 215 389 -640
2018-01-11 10:07:17 GMT 14.28703 101.25573 23,625 219 389 -704
2018-01-11 10:07:13 GMT 14.29330 101.26108 23,675 220 389 -704
2018-01-11 10:07:11 GMT 14.29587 101.26369 23,700 230 388 -832
2018-01-11 10:07:08 GMT 14.29894 101.26730 23,750 232 388 -832
2018-01-11 10:07:06 GMT 14.30192 101.27149 23,775 237 387 -832
2018-01-11 10:07:00 GMT 14.30713 101.28069 23,850 245 385 -640
2018-01-11 10:06:55 GMT 14.30974 101.28656 23,875 248 383 -576
2018-01-11 10:06:49 GMT 14.31477 101.29882 23,950 248 382 -512
2018-01-11 10:06:47 GMT 14.31621 101.30238 23,975 248 382 -448
2018-01-11 10:06:45 GMT 14.31696 101.30421 23,975 248 382 -448
2018-01-11 10:06:38 GMT 14.32242 101.31781 24,000 248 382 0
2018-01-11 10:06:35 GMT 14.32417 101.32218 24,000 248 382 0
2018-01-11 10:06:27 GMT 14.32948 101.33529 24,000 248 382 0
2018-01-11 10:06:25 GMT 14.33102 101.33917 24,000 248 382 0
2018-01-11 10:06:24 GMT 14.33176 101.34102 24,000 248 382 0
2018-01-11 10:06:16 GMT 14.33683 101.35360 24,000 248 382 0
2018-01-11 10:06:14 GMT 14.33846 101.35765 24,000 248 382 0
2018-01-11 10:06:13 GMT 14.33913 101.35934 24,000 248 382 0
2018-01-11 10:06:05 GMT 14.34433 101.37229 23,975 248 382 64
2018-01-11 10:06:03 GMT 14.34610 101.37668 23,975 248 382 64
2018-01-11 10:06:03 GMT 14.34610 101.37668 23,975 248 382 64
2018-01-11 10:06:00 GMT 14.34833 101.38226 23,975 248 382 128
2018-01-11 10:05:54 GMT 14.35176 101.39079 23,975 248 381 -192
2018-01-11 10:05:52 GMT 14.35336 101.39481 23,975 248 382 -512
2018-01-11 10:05:43 GMT 14.35927 101.40944 24,075 248 382 -896
2018-01-11 10:05:41 GMT 14.36085 101.41330 24,125 248 382 -896
2018-01-11 10:05:37 GMT 14.36271 101.41788 24,150 248 383 -896
2018-01-11 10:05:33 GMT 14.36650 101.42730 24,225 248 383 -896
2018-01-11 10:05:30 GMT 14.36824 101.43151 24,275 248 383 -896
2018-01-11 10:05:27 GMT 14.37048 101.43710 24,300 248 384 -896
2018-01-11 10:05:22 GMT 14.37421 101.44640 24,375 248 384 -896
2018-01-11 10:05:20 GMT 14.37552 101.44960 24,400 248 385 -896
2018-01-11 10:05:18 GMT 14.37639 101.45183 24,425 248 385 -896
2018-01-11 10:05:15 GMT 14.37771 101.45503 24,450 248 385 -896
2018-01-11 10:05:11 GMT 14.38134 101.46404 24,525 248 386 -896
2018-01-11 10:05:08 GMT 14.38353 101.46949 24,575 248 387 -896
2018-01-11 10:05:04 GMT 14.38529 101.47392 24,600 248 388 -960
2018-01-11 10:05:00 GMT 14.38889 101.48280 24,700 248 389 -1088
2018-01-11 10:04:58 GMT 14.39018 101.48606 24,725 248 390 -1088
2018-01-11 10:04:56 GMT 14.39150 101.48933 24,750 248 390 -1088
2018-01-11 10:04:54 GMT 14.39328 101.49383 24,800 248 390 -1088
2018-01-11 10:04:49 GMT 14.39651 101.50177 24,875 248 392 -1088
2018-01-11 10:04:47 GMT 14.39795 101.50539 24,900 248 392 -1088
2018-01-11 10:04:44 GMT 14.39909 101.50813 24,950 248 393 -1088
2018-01-11 10:04:40 GMT 14.40182 101.51488 25,000 248 393 -1088
2018-01-11 10:04:36 GMT 14.40569 101.52466 25,100 248 395 -1088
2018-01-11 10:04:34 GMT 14.40683 101.52741 25,125 248 395 -1088
2018-01-11 10:04:28 GMT 14.41132 101.53858 25,225 248 396 -1088
2018-01-11 10:04:23 GMT 14.41471 101.54702 25,325 248 399 -1088
2018-01-11 10:04:18 GMT 14.41881 101.55723 25,425 248 400 -1088
2018-01-11 10:04:14 GMT 14.42134 101.56358 25,475 248 401 -1088
2018-01-11 10:04:12 GMT 14.42239 101.56624 25,500 248 401 -1088
2018-01-11 10:04:07 GMT 14.42575 101.57453 25,575 248 402 -1024
2018-01-11 10:04:04 GMT 14.42830 101.58092 25,625 248 403 -960
2018-01-11 10:04:01 GMT 14.43050 101.58641 25,675 248 402 -960
2018-01-11 10:03:55 GMT 14.43411 101.59545 25,750 248 402 -1024
2018-01-11 10:03:53 GMT 14.43604 101.60024 25,800 248 400 -1024
2018-01-11 10:03:50 GMT 14.43823 101.60573 25,850 248 400 -1024
2018-01-11 10:03:42 GMT 14.44386 101.61979 25,975 248 396 -448
2018-01-11 10:03:38 GMT 14.44632 101.62590 26,000 248 395 -128
2018-01-11 10:03:33 GMT 14.44959 101.63410 26,000 248 395 0
2018-01-11 10:03:30 GMT 14.45191 101.63987 26,000 248 395 0
2018-01-11 10:03:27 GMT 14.45412 101.64546 26,000 248 395 0
2018-01-11 10:03:25 GMT 14.45590 101.64982 26,000 248 395 0
2018-01-11 10:03:20 GMT 14.45903 101.65765 26,000 248 396 0
2018-01-11 10:03:18 GMT 14.46034 101.66099 26,000 248 396 0
2018-01-11 10:03:14 GMT 14.46364 101.66918 26,000 248 396 0
2018-01-11 10:03:11 GMT 14.46469 101.67184 26,000 248 396 0
2018-01-11 10:03:09 GMT 14.46681 101.67707 26,000 248 396 0
2018-01-11 10:03:06 GMT 14.46909 101.68285 26,000 248 396 0
2018-01-11 10:03:02 GMT 14.47174 101.68950 26,000 248 396 0
2018-01-11 10:02:58 GMT 14.47449 101.69632 26,000 248 397 0
2018-01-11 10:02:54 GMT 14.47709 101.70280 26,000 248 397 0
2018-01-11 10:02:51 GMT 14.47948 101.70873 26,000 248 397 0
2018-01-11 10:02:47 GMT 14.48241 101.71611 26,000 248 397 0
2018-01-11 10:02:44 GMT 14.48447 101.72118 26,000 248 398 0
2018-01-11 10:02:40 GMT 14.48720 101.72805 26,000 248 398 0
2018-01-11 10:02:35 GMT 14.49004 101.73508 26,000 248 399 0
2018-01-11 10:02:32 GMT 14.49283 101.74212 26,000 248 400 0
2018-01-11 10:02:29 GMT 14.49513 101.74775 26,000 248 400 0
2018-01-11 10:02:24 GMT 14.49786 101.75465 25,975 248 401 64
2018-01-11 10:02:24 GMT 14.49851 101.75624 25,975 248 401 64
2018-01-11 10:02:21 GMT 14.50067 101.76153 25,975 248 403 0
2018-01-11 10:02:18 GMT 14.50279 101.76689 25,975 248 404 0
2018-01-11 10:02:13 GMT 14.50586 101.77455 25,975 248 405 0
2018-01-11 10:02:09 GMT 14.50942 101.78331 25,975 248 408 0
2018-01-11 10:02:07 GMT 14.51052 101.78602 25,975 248 411 -64
2018-01-11 10:02:02 GMT 14.51381 101.79420 26,000 248 413 -128
2018-01-11 10:01:58 GMT 14.51732 101.80298 26,000 248 417 -512
2018-01-11 10:01:55 GMT 14.51964 101.80866 26,050 248 419 -832
2018-01-11 10:01:52 GMT 14.52178 101.81406 26,075 248 421 -1280
2018-01-11 10:01:47 GMT 14.52553 101.82332 26,200 248 422 -1600
2018-01-11 10:01:44 GMT 14.52672 101.82631 26,250 248 423 -1600
2018-01-11 10:01:41 GMT 14.52961 101.83362 26,325 248 424 -1536
2018-01-11 10:01:37 GMT 14.53272 101.84148 26,425 248 425 -1536
2018-01-11 10:01:34 GMT 14.53482 101.84677 26,500 248 426 -1600
2018-01-11 10:01:31 GMT 14.53766 101.85392 26,600 248 427 -2112
2018-01-11 10:01:28 GMT 14.53989 101.85955 26,700 248 426 -1856
2018-01-11 10:01:26 GMT 14.54134 101.86311 26,750 248 427 -2112
2018-01-11 10:01:24 GMT 14.54178 101.86424 26,775 248 426 -2112
2018-01-11 10:01:22 GMT 14.54361 101.86874 26,850 248 426 -2112
2018-01-11 10:01:19 GMT 14.54604 101.87475 26,975 248 426 -2048
2018-01-11 10:01:14 GMT 14.54961 101.88380 27,100 249 425 -1856
2018-01-11 10:01:09 GMT 14.55318 101.89303 27,250 249 425 -1856
2018-01-11 10:01:06 GMT 14.55542 101.89890 27,325 249 425 -1792
2018-01-11 10:01:03 GMT 14.55763 101.90475 27,425 250 425 -1728
2018-01-11 10:01:03 GMT 14.55763 101.90475 27,425 250 425 -1728
2018-01-11 10:00:59 GMT 14.56014 101.91160 27,525 250 425 -1664
2018-01-11 10:00:56 GMT 14.56191 101.91655 27,575 250 426 -1728
2018-01-11 10:00:51 GMT 14.56531 101.92609 27,725 251 425 -1728
2018-01-11 10:00:49 GMT 14.56673 101.93030 27,775 251 426 -1792
2018-01-11 10:00:45 GMT 14.57001 101.93987 27,925 251 425 -1792
2018-01-11 10:00:39 GMT 14.57378 101.95134 28,075 252 424 -1216
2018-01-11 10:00:32 GMT 14.57811 101.96498 28,200 253 424 -1088
2018-01-11 10:00:30 GMT 14.57960 101.96980 28,250 253 424 -1088
2018-01-11 10:00:28 GMT 14.58055 101.97287 28,275 253 425 -1088
2018-01-11 10:00:21 GMT 14.58495 101.98698 28,400 253 425 -1088
2018-01-11 10:00:19 GMT 14.58584 101.98984 28,425 253 426 -1088
2018-01-11 10:00:17 GMT 14.58751 101.99527 28,450 253 426 -1088
2018-01-11 10:00:15 GMT 14.58849 101.99837 28,500 253 426 -1088
2018-01-11 10:00:09 GMT 14.59198 102.00960 28,600 253 427 -1088
2018-01-11 10:00:07 GMT 14.59320 102.01350 28,625 253 428 -1088
2018-01-11 10:00:05 GMT 14.59417 102.01663 28,650 253 428 -1088
2018-01-11 10:00:03 GMT 14.59529 102.02032 28,675 253 428 -1024
2018-01-11 09:59:59 GMT 14.59790 102.02868 28,750 253 429 -1088
2018-01-11 09:59:56 GMT 14.60014 102.03590 28,800 253 429 -1088
2018-01-11 09:59:54 GMT 14.60193 102.04154 28,850 253 429 -1088
2018-01-11 09:59:47 GMT 14.60513 102.05191 28,950 253 430 -1088
2018-01-11 09:59:43 GMT 14.60791 102.06068 29,025 253 431 -1088
2018-01-11 09:59:43 GMT 14.60791 102.06068 29,025 253 431 -1088
2018-01-11 09:59:37 GMT 14.61130 102.07166 29,125 253 432 -1088
2018-01-11 09:59:34 GMT 14.61269 102.07620 29,150 253 432 -1088
2018-01-11 09:59:31 GMT 14.61516 102.08406 29,225 253 432 -1088
2018-01-11 09:59:31 GMT 14.61516 102.08406 29,225 253 432 -1088
2018-01-11 09:59:26 GMT 14.61819 102.09387 29,300 253 432 -960
2018-01-11 09:59:24 GMT 14.62060 102.10153 29,375 253 433 -768
2018-01-11 09:59:21 GMT 14.62115 102.10329 29,375 253 433 -768
2018-01-11 09:59:21 GMT 14.62115 102.10329 29,375 253 433 -768
2018-01-11 09:59:15 GMT 14.62514 102.11612 29,450 253 434 -768
2018-01-11 09:59:10 GMT 14.62788 102.12500 29,500 253 435 -704
2018-01-11 09:59:10 GMT 14.62788 102.12500 29,500 253 435 -704
2018-01-11 09:59:03 GMT 14.63416 102.14519 29,625 253 436 -768
2018-01-11 09:59:00 GMT 14.63438 102.14600 29,625 253 436 -768
2018-01-11 09:58:58 GMT 14.63507 102.14818 29,650 253 436 -768
2018-01-11 09:58:58 GMT 14.63507 102.14818 29,650 253 436 -768
2018-01-11 09:58:49 GMT 14.64093 102.16703 29,750 253 437 -576
2018-01-11 09:58:40 GMT 14.64629 102.18431 29,800 253 437 -448
2018-01-11 09:58:38 GMT 14.64789 102.18952 29,825 253 437 -512
2018-01-11 09:58:27 GMT 14.65443 102.21073 29,925 253 436 -512
2018-01-11 09:58:16 GMT 14.66121 102.23266 30,000 253 434 -192
2018-01-11 09:57:55 GMT 14.67430 102.27523 29,975 253 434 -512
2018-01-11 09:57:33 GMT 14.68737 102.31750 30,225 253 434 -704
2018-01-11 09:57:21 GMT 14.69421 102.33983 30,350 253 435 -704
2018-01-11 09:57:00 GMT 14.70744 102.38256 30,600 253 436 -768
2018-01-11 09:56:49 GMT 14.71702 102.41354 30,775 253 438 -768
2018-01-11 09:56:33 GMT 14.72392 102.43586 30,925 253 440 -832
2018-01-11 09:56:22 GMT 14.73104 102.45879 31,075 253 444 -832
2018-01-11 09:56:14 GMT 14.73601 102.47479 31,175 253 474 -640
2018-01-11 09:56:14 GMT 14.73601 102.47479 31,175 253 474 -640
2018-01-11 09:56:10 GMT 14.73802 102.48129 31,200 253 449 -832
2018-01-11 09:56:00 GMT 14.74482 102.50321 31,350 253 454 -832
2018-01-11 09:55:49 GMT 14.75198 102.52625 31,475 253 460 -832
2018-01-11 09:55:38 GMT 14.75906 102.54923 31,625 253 466 -768
2018-01-11 09:55:15 GMT 14.77410 102.59794 31,875 253 473 -704
2018-01-11 09:55:03 GMT 14.78192 102.62348 32,000 253 470 -64
2018-01-11 09:54:51 GMT 14.78918 102.64705 32,000 253 470 0
2018-01-11 09:54:41 GMT 14.79672 102.67167 31,975 253 470 128
2018-01-11 09:54:19 GMT 14.81062 102.71738 32,150 253 472 -768
2018-01-11 09:54:07 GMT 14.81795 102.74154 32,275 253 474 -704
2018-01-11 09:53:56 GMT 14.82518 102.76531 32,400 253 475 -768
2018-01-11 09:53:45 GMT 14.83241 102.78939 32,550 253 476 -704
2018-01-11 09:53:35 GMT 14.83937 102.81237 32,650 253 477 -768
2018-01-11 09:53:13 GMT 14.85411 102.86089 32,925 253 479 -768
2018-01-11 09:53:02 GMT 14.86166 102.88508 33,075 252 481 -768
2018-01-11 09:52:40 GMT 14.87730 102.93297 33,350 252 486 -832
2018-01-11 09:52:30 GMT 14.88501 102.95654 33,475 252 488 -832
2018-01-11 09:52:08 GMT 14.90091 103.00516 33,775 252 487 -768
2018-01-11 09:51:55 GMT 14.90891 103.02959 33,925 252 484 -832
2018-01-11 09:51:45 GMT 14.91659 103.05318 34,000 252 482 0
2018-01-11 09:51:34 GMT 14.92493 103.07869 34,000 252 482 0
2018-01-11 09:51:23 GMT 14.93289 103.10311 34,000 252 480 64
2018-01-11 09:51:12 GMT 14.94085 103.12748 33,975 252 480 0
2018-01-11 09:50:51 GMT 14.95551 103.17251 34,000 252 480 0
2018-01-11 09:50:40 GMT 14.96320 103.19617 33,975 252 479 0
2018-01-11 09:50:29 GMT 14.97101 103.22008 34,000 252 480 0
2018-01-11 09:50:18 GMT 14.97894 103.24440 34,000 252 479 0
2018-01-11 09:50:07 GMT 14.98642 103.26741 34,000 252 479 0
2018-01-11 09:49:56 GMT 14.99452 103.29243 34,000 252 479 0
2018-01-11 09:49:44 GMT 15.00339 103.31972 33,975 252 476 0
2018-01-11 09:49:31 GMT 15.01190 103.34598 33,975 252 473 0
2018-01-11 09:49:20 GMT 15.01966 103.37002 33,975 252 473 -64
2018-01-11 09:49:08 GMT 15.02765 103.39465 33,975 252 474 0
2018-01-11 09:48:56 GMT 15.03521 103.41789 33,975 252 476 -64
2018-01-11 09:48:46 GMT 15.04312 103.44231 33,975 252 478 0
2018-01-11 09:48:35 GMT 15.05090 103.46639 34,000 252 480 0
2018-01-11 09:48:23 GMT 15.06161 103.49950 33,975 252 480 0
2018-01-11 09:48:10 GMT 15.06853 103.52084 33,975 252 480 0
2018-01-11 09:47:58 GMT 15.07672 103.54609 34,000 252 480 0
2018-01-11 09:47:47 GMT 15.08432 103.56939 33,975 252 480 64
2018-01-11 09:47:36 GMT 15.09256 103.59486 34,000 252 480 0
2018-01-11 09:47:24 GMT 15.10010 103.61795 34,000 252 480 0
2018-01-11 09:47:04 GMT 15.11522 103.66463 34,000 252 481 0
2018-01-11 09:46:53 GMT 15.12273 103.68800 34,000 252 481 0
2018-01-11 09:46:41 GMT 15.13037 103.71180 34,000 252 481 0
2018-01-11 09:46:30 GMT 15.13809 103.73585 34,000 253 481 0
2018-01-11 09:46:19 GMT 15.14493 103.75984 34,000 256 480 0
2018-01-11 09:46:09 GMT 15.15056 103.78365 34,000 258 478 0
2018-01-11 09:45:59 GMT 15.15514 103.80808 33,975 261 478 0
2018-01-11 09:45:48 GMT 15.15853 103.83291 34,000 264 476 0
2018-01-11 09:45:37 GMT 15.16072 103.85742 34,000 265 476 0
2018-01-11 09:45:26 GMT 15.16292 103.88306 33,975 265 475 0
2018-01-11 09:45:04 GMT 15.16714 103.93199 33,975 265 476 0
2018-01-11 09:44:54 GMT 15.16919 103.95582 33,975 265 476 0
2018-01-11 09:44:43 GMT 15.17133 103.98079 34,000 266 476 0
2018-01-11 09:44:32 GMT 15.17336 104.00458 33,975 265 476 0
2018-01-11 09:44:21 GMT 15.17569 104.03253 33,975 265 477 0
2018-01-11 09:44:09 GMT 15.17779 104.05730 33,975 265 477 0
2018-01-11 09:43:58 GMT 15.17990 104.08187 34,000 265 477 -64
2018-01-11 09:43:46 GMT 15.18205 104.10693 33,975 266 478 0
2018-01-11 09:43:36 GMT 15.18420 104.13266 33,975 265 478 0
2018-01-11 09:43:25 GMT 15.18627 104.15686 33,975 265 479 0
2018-01-11 09:43:13 GMT 15.18851 104.18335 33,975 265 480 0
2018-01-11 09:43:03 GMT 15.19046 104.20645 33,975 266 480 0
2018-01-11 09:42:52 GMT 15.19267 104.23303 33,975 265 481 0
2018-01-11 09:42:41 GMT 15.19492 104.25924 33,975 266 484 0
2018-01-11 09:42:29 GMT 15.19707 104.28517 33,975 266 487 0
2018-01-11 09:42:19 GMT 15.19913 104.30935 33,975 266 489 64
2018-01-11 09:42:08 GMT 15.20135 104.33598 34,000 265 489 0
2018-01-11 09:41:56 GMT 15.20359 104.36207 34,000 266 489 0
2018-01-11 09:41:44 GMT 15.20573 104.38773 34,000 266 489 0
2018-01-11 09:41:34 GMT 15.20796 104.41455 33,975 266 489 0
2018-01-11 09:41:23 GMT 15.21002 104.43926 33,975 266 489 0
2018-01-11 09:41:11 GMT 15.21220 104.46492 33,975 266 489 -64
2018-01-11 09:40:50 GMT 15.21657 104.51694 34,000 266 489 0
2018-01-11 09:40:39 GMT 15.21854 104.54050 33,975 266 489 0
2018-01-11 09:40:28 GMT 15.22064 104.56589 34,000 266 489 -64
2018-01-11 09:40:18 GMT 15.22282 104.59249 34,000 266 489 0
2018-01-11 09:40:07 GMT 15.22485 104.61765 34,000 266 488 0
2018-01-11 09:39:56 GMT 15.22696 104.64304 34,000 266 488 0
2018-01-11 09:39:45 GMT 15.22910 104.66886 34,000 266 488 0
2018-01-11 09:39:13 GMT 15.23501 104.74115 34,000 266 487 0
2018-01-11 09:39:02 GMT 15.23729 104.76901 34,000 266 486 0
2018-01-11 09:38:51 GMT 15.23939 104.79378 34,000 266 486 0
2018-01-11 09:38:40 GMT 15.24143 104.81786 33,975 264 486 0
2018-01-11 09:38:29 GMT 15.24435 104.84349 34,000 263 486 0
2018-01-11 09:37:57 GMT 15.25690 104.91457 34,000 257 486 -64
2018-01-11 09:37:47 GMT 15.26290 104.94008 33,975 257 486 0
2018-01-11 09:37:36 GMT 15.26886 104.96510 34,000 257 486 0
2018-01-11 09:37:24 GMT 15.27486 104.99035 34,000 257 485 0
2018-01-11 09:37:14 GMT 15.28065 105.01470 33,975 257 484 0
2018-01-11 09:37:02 GMT 15.28641 105.03876 34,000 257 485 0
2018-01-11 09:36:51 GMT 15.29222 105.06333 33,975 257 484 0
2018-01-11 09:36:42 GMT 15.29781 105.08697 34,000 257 484 0
2018-01-11 09:36:31 GMT 15.30359 105.11126 33,975 257 484 0
2018-01-11 09:36:10 GMT 15.31508 105.15961 34,000 257 483 0
2018-01-11 09:35:49 GMT 15.32597 105.20575 33,975 257 483 0
2018-01-11 09:35:38 GMT 15.33183 105.23047 33,975 257 483 0
2018-01-11 09:35:27 GMT 15.33756 105.25476 33,975 257 484 0
2018-01-11 09:35:14 GMT 15.34427 105.28316 33,975 257 484 0
2018-01-11 09:35:04 GMT 15.34946 105.30501 33,975 257 485 0
2018-01-11 09:34:43 GMT 15.36058 105.35195 34,000 257 487 0
2018-01-11 09:34:33 GMT 15.36667 105.37753 33,975 257 487 0
2018-01-11 09:34:22 GMT 15.37257 105.40244 33,975 257 487 0
2018-01-11 09:34:10 GMT 15.37839 105.42691 33,975 257 487 0
2018-01-11 09:33:58 GMT 15.38528 105.45575 33,975 257 489 0
2018-01-11 09:33:49 GMT 15.39020 105.47622 33,975 257 490 0
2018-01-11 09:33:37 GMT 15.39629 105.50176 33,975 257 491 0
2018-01-11 09:33:07 GMT 15.41249 105.57037 33,975 257 498 0
2018-01-11 09:33:03 GMT 15.41519 105.58223 33,975 257 498 0
2018-01-11 09:32:54 GMT 15.41954 105.60155 33,975 258 499 0
2018-01-11 09:32:42 GMT 15.42620 105.63134 33,975 258 499 0
2018-01-11 09:32:33 GMT 15.43076 105.65203 34,000 258 498 -64
We lost coverage of the aircraft here for a total of 69 minutes
2018-01-11 08:23:42 GMT 19.57461 114.06410 34,000 243 460 0
We lost coverage of the aircraft here for a total of 18 minutes
2018-01-11 08:05:16 GMT 20.64010 116.26362 34,000 243 449 0
2018-01-11 08:05:07 GMT 20.64912 116.28234 34,000 243 449 0
2018-01-11 08:04:53 GMT 20.66147 116.30791 34,000 243 449 0
2018-01-11 08:01:52 GMT 20.82198 116.67186 34,000 246 444 0
2018-01-11 08:01:47 GMT 20.82617 116.68185 34,000 246 444 0
2018-01-11 08:01:38 GMT 20.83369 116.69987 34,000 246 444 0
2018-01-11 08:01:29 GMT 20.84134 116.71811 34,000 246 444 0
2018-01-11 08:00:51 GMT 20.87233 116.79202 34,000 246 444 0
2018-01-11 08:00:44 GMT 20.87910 116.80824 34,000 246 444 0
2018-01-11 08:00:33 GMT 20.88817 116.82984 34,000 246 444 0
2018-01-11 08:00:22 GMT 20.89764 116.85250 34,000 246 444 0
2018-01-11 08:00:07 GMT 20.90996 116.88193 34,000 246 444 0
2018-01-11 07:59:55 GMT 20.92017 116.90635 34,000 246 444 0
2018-01-11 07:59:49 GMT 20.92509 116.91815 34,000 247 443 0
2018-01-11 07:59:14 GMT 20.95326 116.98561 34,000 247 443 0
2018-01-11 07:59:04 GMT 20.96269 117.00822 34,000 247 443 0
2018-01-11 07:58:53 GMT 20.97216 117.03081 34,000 247 443 0
2018-01-11 07:58:38 GMT 20.98389 117.05903 34,000 247 443 0
2018-01-11 07:58:31 GMT 20.99050 117.07481 34,000 247 443 0
2018-01-11 07:58:16 GMT 21.00218 117.10277 34,000 247 443 0
2018-01-11 07:58:07 GMT 21.00991 117.12140 34,000 247 441 0
2018-01-11 07:57:57 GMT 21.01845 117.14197 34,000 247 441 0
2018-01-11 07:57:45 GMT 21.02779 117.16434 34,000 247 441 0
2018-01-11 07:57:35 GMT 21.03663 117.18572 34,000 247 441 0
2018-01-11 07:57:23 GMT 21.04651 117.20949 34,000 247 441 0
2018-01-11 07:57:13 GMT 21.05521 117.23048 34,000 247 442 0
2018-01-11 07:57:01 GMT 21.06468 117.25343 34,000 247 441 0
2018-01-11 07:56:50 GMT 21.07352 117.27486 34,000 247 441 0
2018-01-11 07:56:32 GMT 21.08868 117.31181 34,000 247 441 0
2018-01-11 07:56:28 GMT 21.09187 117.31960 34,000 247 441 0
2018-01-11 07:56:17 GMT 21.10098 117.34172 34,000 247 441 0
2018-01-11 07:56:03 GMT 21.11209 117.36867 34,000 247 440 0
2018-01-11 07:55:54 GMT 21.12010 117.38795 34,000 246 440 0
2018-01-11 07:55:50 GMT 21.12351 117.39611 34,000 247 439 128
2018-01-11 07:55:44 GMT 21.12843 117.40784 34,000 246 439 0
2018-01-11 07:55:32 GMT 21.13793 117.43047 34,000 247 439 128
2018-01-11 07:55:24 GMT 21.14470 117.44694 33,975 247 439 128
2018-01-11 07:55:20 GMT 21.14726 117.45264 33,975 243 440 0
2018-01-11 07:55:09 GMT 21.15834 117.47336 33,975 237 446 0
2018-01-11 07:54:59 GMT 21.17216 117.49304 33,975 230 451 64
2018-01-11 07:54:47 GMT 21.18969 117.51226 33,975 221 460 -64
2018-01-11 07:54:44 GMT 21.19691 117.51867 33,975 218 464 -192
2018-01-11 07:54:37 GMT 21.20760 117.52689 34,000 214 468 0
2018-01-11 07:54:26 GMT 21.22769 117.54043 34,000 212 470 0
2018-01-11 07:54:15 GMT 21.24844 117.55422 34,000 212 469 0
2018-01-11 07:54:03 GMT 21.27008 117.56854 34,000 212 469 0
2018-01-11 07:53:58 GMT 21.27987 117.57502 34,000 212 468 0
2018-01-11 07:53:53 GMT 21.28908 117.58118 34,000 212 468 0
2018-01-11 07:53:50 GMT 21.29500 117.58509 34,000 212 468 0
2018-01-11 07:53:40 GMT 21.31050 117.59537 34,000 212 467 0
2018-01-11 07:53:29 GMT 21.33170 117.60944 34,000 212 467 0
2018-01-11 07:53:18 GMT 21.35211 117.62302 34,000 212 467 0
2018-01-11 07:53:08 GMT 21.37143 117.63585 34,000 212 467 0
2018-01-11 07:52:57 GMT 21.39182 117.64938 34,000 212 466 64
2018-01-11 07:52:46 GMT 21.41221 117.66296 33,975 212 466 0
2018-01-11 07:52:38 GMT 21.42874 117.67396 33,975 212 466 64
2018-01-11 07:52:38 GMT 21.42874 117.67396 33,975 212 466 64
2018-01-11 07:52:34 GMT 21.43300 117.67676 33,975 212 466 0
2018-01-11 07:52:25 GMT 21.44971 117.68789 34,000 212 466 0
2018-01-11 07:52:22 GMT 21.45538 117.69169 34,000 212 466 0
2018-01-11 07:52:19 GMT 21.46123 117.69557 34,000 212 466 0
2018-01-11 07:52:19 GMT 21.46123 117.69557 34,000 212 466 0
2018-01-11 07:52:11 GMT 21.47447 117.70437 34,000 212 465 0
2018-01-11 07:51:59 GMT 21.49535 117.71831 33,975 212 465 0
2018-01-11 07:51:54 GMT 21.50711 117.72610 34,000 212 465 0
2018-01-11 07:51:48 GMT 21.51700 117.73270 34,000 212 465 0
2018-01-11 07:51:46 GMT 21.52249 117.73638 34,000 212 465 0
2018-01-11 07:51:39 GMT 21.53493 117.74465 34,000 212 465 0
2018-01-11 07:51:28 GMT 21.55490 117.75798 33,975 212 464 64
2018-01-11 07:51:17 GMT 21.57519 117.77151 33,975 212 464 0
2018-01-11 07:51:07 GMT 21.59386 117.78391 33,975 212 464 0
2018-01-11 07:51:07 GMT 21.59386 117.78391 33,975 212 464 0
2018-01-11 07:51:05 GMT 21.59768 117.78651 33,975 212 464 0
2018-01-11 07:51:02 GMT 21.60315 117.79017 33,975 212 464 0
2018-01-11 07:50:53 GMT 21.61630 117.79892 33,975 212 464 0
2018-01-11 07:50:42 GMT 21.63697 117.81270 34,000 212 464 0
2018-01-11 07:50:31 GMT 21.65904 117.82742 34,000 213 463 0
2018-01-11 07:50:20 GMT 21.67818 117.84020 33,975 213 463 64
2018-01-11 07:50:16 GMT 21.68673 117.84592 33,975 213 463 0
2018-01-11 07:50:10 GMT 21.69713 117.85289 33,975 213 463 0
2018-01-11 07:49:59 GMT 21.71773 117.86667 33,975 213 463 0
2018-01-11 07:49:49 GMT 21.73543 117.87847 34,000 213 463 0
2018-01-11 07:49:49 GMT 21.73543 117.87847 34,000 213 463 0
2018-01-11 07:49:47 GMT 21.73836 117.88040 34,000 213 463 0
2018-01-11 07:49:43 GMT 21.74474 117.88467 34,000 213 463 0
2018-01-11 07:49:43 GMT 21.74474 117.88467 34,000 213 463 0
2018-01-11 07:49:34 GMT 21.76261 117.89663 34,000 212 463 0
2018-01-11 07:49:34 GMT 21.76261 117.89663 34,000 212 463 0
2018-01-11 07:49:24 GMT 21.77956 117.90797 34,000 213 463 0
2018-01-11 07:49:22 GMT 21.78300 117.91027 34,000 213 463 64
2018-01-11 07:49:22 GMT 21.78300 117.91027 34,000 213 463 64
2018-01-11 07:49:13 GMT 21.79852 117.92065 34,000 213 463 0
2018-01-11 07:49:03 GMT 21.81889 117.93432 33,975 213 463 0
2018-01-11 07:48:59 GMT 21.82657 117.93945 34,000 213 463 0
2018-01-11 07:48:52 GMT 21.84004 117.94847 34,000 213 463 0
2018-01-11 07:48:42 GMT 21.85826 117.96070 34,000 213 463 0
2018-01-11 07:48:40 GMT 21.86082 117.96240 34,000 212 463 0
2018-01-11 07:48:36 GMT 21.86903 117.96788 34,000 212 463 0
2018-01-11 07:48:29 GMT 21.88032 117.97544 34,000 213 462 0
2018-01-11 07:48:21 GMT 21.89612 117.98604 34,000 213 461 64
2018-01-11 07:48:17 GMT 21.90069 117.98910 34,000 213 462 0
2018-01-11 07:48:13 GMT 21.91177 117.99651 34,000 213 461 64
2018-01-11 07:48:06 GMT 21.92065 118.00250 34,000 213 461 64
2018-01-11 07:47:56 GMT 21.94080 118.01599 34,000 213 461 64
2018-01-11 07:47:50 GMT 21.95242 118.02378 34,000 213 461 0
2018-01-11 07:47:45 GMT 21.96111 118.02963 33,975 213 461 64
2018-01-11 07:47:41 GMT 21.96674 118.03340 33,975 213 461 0
2018-01-11 07:47:34 GMT 21.98122 118.04311 33,975 213 461 0
2018-01-11 07:47:22 GMT 22.00351 118.05808 33,975 213 461 0
2018-01-11 07:47:12 GMT 22.02177 118.07037 34,000 213 460 0
2018-01-11 07:47:12 GMT 22.02177 118.07037 34,000 213 460 0
2018-01-11 07:47:01 GMT 22.04006 118.08263 34,000 213 460 0
2018-01-11 07:46:58 GMT 22.04421 118.08545 33,975 213 460 0
2018-01-11 07:46:54 GMT 22.05473 118.09249 34,000 213 460 0
2018-01-11 07:46:51 GMT 22.05940 118.09564 34,000 213 460 0
2018-01-11 07:46:48 GMT 22.06413 118.09881 34,000 213 460 0
2018-01-11 07:46:38 GMT 22.08219 118.11096 34,000 213 460 0
2018-01-11 07:46:30 GMT 22.09776 118.12140 34,000 213 459 0
2018-01-11 07:46:27 GMT 22.10226 118.12444 34,000 213 459 0
2018-01-11 07:46:21 GMT 22.11273 118.13151 34,000 213 459 0
2018-01-11 07:46:17 GMT 22.11995 118.13634 34,000 213 459 0
2018-01-11 07:46:15 GMT 22.12428 118.13929 34,000 213 459 0
2018-01-11 07:46:06 GMT 22.14029 118.15008 34,000 213 458 0
2018-01-11 07:46:04 GMT 22.14318 118.15201 34,000 213 458 0
2018-01-11 07:45:53 GMT 22.16282 118.16523 34,000 213 458 0
2018-01-11 07:45:46 GMT 22.17665 118.17459 34,000 213 458 64
2018-01-11 07:45:44 GMT 22.18007 118.17688 34,000 213 458 64
2018-01-11 07:45:42 GMT 22.18369 118.17933 34,000 213 458 0
2018-01-11 07:45:33 GMT 22.20003 118.19037 33,975 213 458 64
2018-01-11 07:45:30 GMT 22.20435 118.19326 33,975 213 458 64
2018-01-11 07:45:23 GMT 22.21477 118.20033 33,975 213 458 64
2018-01-11 07:45:18 GMT 22.22607 118.20795 33,975 213 457 0
2018-01-11 07:45:11 GMT 22.23958 118.21703 33,975 213 458 0
2018-01-11 07:45:07 GMT 22.24567 118.22118 33,975 213 456 0
2018-01-11 07:45:02 GMT 22.25593 118.22810 33,975 213 457 0
2018-01-11 07:44:55 GMT 22.26526 118.23436 33,975 213 456 0
2018-01-11 07:44:53 GMT 22.27390 118.24020 33,975 213 457 0
2018-01-11 07:44:45 GMT 22.28646 118.24870 34,000 213 457 0
2018-01-11 07:44:40 GMT 22.29494 118.25440 34,000 213 457 0
2018-01-11 07:44:38 GMT 22.29852 118.25678 34,000 213 456 0
2018-01-11 07:44:37 GMT 22.30032 118.25799 34,000 213 456 0
2018-01-11 07:44:26 GMT 22.31987 118.27117 34,000 213 456 0
2018-01-11 07:44:23 GMT 22.32529 118.27479 34,000 213 456 0
2018-01-11 07:44:17 GMT 22.33674 118.28252 34,000 213 456 0
2018-01-11 07:44:06 GMT 22.35685 118.29605 34,000 213 455 0
2018-01-11 07:44:04 GMT 22.35864 118.29729 34,000 213 455 0
2018-01-11 07:44:00 GMT 22.36743 118.30318 34,000 213 455 0
2018-01-11 07:43:55 GMT 22.37402 118.30762 34,000 213 455 0
2018-01-11 07:43:50 GMT 22.38497 118.31497 34,000 213 455 0
2018-01-11 07:43:48 GMT 22.38655 118.31604 34,000 213 455 0
2018-01-11 07:43:44 GMT 22.39568 118.32219 34,000 213 455 0
2018-01-11 07:43:29 GMT 22.42140 118.33958 34,000 213 453 0
2018-01-11 07:43:25 GMT 22.42873 118.34452 34,000 213 453 0
2018-01-11 07:43:19 GMT 22.44154 118.35322 34,000 213 453 0
2018-01-11 07:43:19 GMT 22.44154 118.35322 34,000 213 453 0
2018-01-11 07:43:10 GMT 22.45647 118.36335 34,000 213 453 64
2018-01-11 07:42:59 GMT 22.47528 118.37616 34,000 213 452 64
2018-01-11 07:42:56 GMT 22.48171 118.38048 34,000 213 452 64
2018-01-11 07:42:53 GMT 22.48668 118.38388 34,000 219 444 64
2018-01-11 07:42:46 GMT 22.49849 118.39237 34,000 214 450 64
2018-01-11 07:42:37 GMT 22.51318 118.40365 34,000 218 445 0
2018-01-11 07:42:27 GMT 22.52998 118.41766 33,975 220 442 64
2018-01-11 07:42:24 GMT 22.53616 118.42313 33,975 220 441 64
2018-01-11 07:42:18 GMT 22.54207 118.42852 34,000 222 440 0
2018-01-11 07:42:16 GMT 22.54715 118.43332 34,000 223 438 0
2018-01-11 07:42:05 GMT 22.56358 118.44985 34,000 225 435 64
2018-01-11 07:41:56 GMT 22.57690 118.46383 34,000 225 435 64
2018-01-11 07:41:53 GMT 22.58049 118.46761 34,000 225 435 0
2018-01-11 07:41:47 GMT 22.58943 118.47702 34,000 225 434 0
2018-01-11 07:41:43 GMT 22.59520 118.48307 34,000 225 434 0
2018-01-11 07:41:36 GMT 22.60516 118.49355 34,000 225 434 0
2018-01-11 07:41:30 GMT 22.61366 118.50248 34,000 225 434 64
2018-01-11 07:41:24 GMT 22.62259 118.51187 34,000 225 434 0
2018-01-11 07:41:21 GMT 22.62690 118.51639 34,000 225 434 0
2018-01-11 07:41:13 GMT 22.63742 118.52745 34,000 225 433 0
2018-01-11 07:41:09 GMT 22.64417 118.53455 34,000 225 433 0
2018-01-11 07:41:01 GMT 22.65495 118.54588 34,000 225 433 0
2018-01-11 07:40:59 GMT 22.65856 118.54965 34,000 225 433 0
2018-01-11 07:40:57 GMT 22.66116 118.55240 34,000 225 433 0
2018-01-11 07:40:51 GMT 22.66978 118.56145 34,000 225 433 0
2018-01-11 07:40:48 GMT 22.67466 118.56659 34,000 225 433 0
2018-01-11 07:40:39 GMT 22.68617 118.57868 34,000 225 433 0
2018-01-11 07:40:36 GMT 22.69075 118.58353 34,000 225 433 0
2018-01-11 07:40:29 GMT 22.70183 118.59516 33,975 225 433 64
2018-01-11 07:40:25 GMT 22.70727 118.60091 33,975 225 433 0
2018-01-11 07:40:22 GMT 22.71102 118.60484 33,975 225 433 0
2018-01-11 07:40:17 GMT 22.71805 118.61226 34,000 225 433 0
2018-01-11 07:40:14 GMT 22.72308 118.61755 34,000 225 433 0
2018-01-11 07:40:10 GMT 22.72880 118.62361 34,000 225 433 0
2018-01-11 07:40:04 GMT 22.73730 118.63252 34,000 225 433 0
2018-01-11 07:39:57 GMT 22.74751 118.64325 34,000 225 433 0
2018-01-11 07:39:55 GMT 22.74980 118.64570 34,000 225 433 0
2018-01-11 07:39:53 GMT 22.75338 118.64945 34,000 225 433 0
2018-01-11 07:39:50 GMT 22.75785 118.65417 34,000 225 432 0
2018-01-11 07:39:44 GMT 22.76633 118.66308 34,000 225 432 0
2018-01-11 07:39:42 GMT 22.76935 118.66623 34,000 225 432 0
2018-01-11 07:39:33 GMT 22.78226 118.67986 34,000 225 432 0
2018-01-11 07:39:30 GMT 22.78670 118.68455 34,000 225 432 64
2018-01-11 07:39:22 GMT 22.79803 118.69649 34,000 225 432 0
2018-01-11 07:39:19 GMT 22.80264 118.70132 34,000 225 432 0
2018-01-11 07:39:13 GMT 22.81050 118.70961 34,000 225 432 0
2018-01-11 07:39:11 GMT 22.81352 118.71282 34,000 225 432 64
2018-01-11 07:39:07 GMT 22.81993 118.71961 34,000 225 432 0
2018-01-11 07:39:00 GMT 22.82954 118.72971 33,975 225 432 0
2018-01-11 07:38:57 GMT 22.83385 118.73424 34,000 225 432 0
2018-01-11 07:38:52 GMT 22.84099 118.74181 34,000 225 431 0
2018-01-11 07:38:48 GMT 22.84570 118.74678 34,000 225 431 0
2018-01-11 07:38:46 GMT 22.85315 118.75463 34,000 225 431 0
2018-01-11 07:38:42 GMT 22.85614 118.75781 34,000 225 431 0
2018-01-11 07:38:35 GMT 22.86483 118.76699 34,000 225 430 0
2018-01-11 07:38:32 GMT 22.86897 118.77136 34,000 225 430 0
2018-01-11 07:38:30 GMT 22.87299 118.77559 34,000 225 430 0
2018-01-11 07:38:24 GMT 22.88140 118.78449 34,000 225 430 0
2018-01-11 07:38:21 GMT 22.88599 118.78932 34,000 225 430 0
2018-01-11 07:38:19 GMT 22.88882 118.79232 34,000 225 429 0
2018-01-11 07:38:14 GMT 22.89551 118.79941 34,000 225 429 0
2018-01-11 07:38:12 GMT 22.89853 118.80254 34,000 225 429 0
2018-01-11 07:38:09 GMT 22.90323 118.80753 34,000 225 429 0
2018-01-11 07:38:04 GMT 22.90846 118.81309 34,000 225 429 0
2018-01-11 07:38:01 GMT 22.91404 118.81897 34,000 225 429 0
2018-01-11 07:37:59 GMT 22.91675 118.82178 34,000 225 429 0
2018-01-11 07:37:53 GMT 22.92425 118.82977 34,000 225 429 64
2018-01-11 07:37:50 GMT 22.92966 118.83547 34,000 225 429 0
2018-01-11 07:37:48 GMT 22.93181 118.83776 34,000 225 429 0
2018-01-11 07:37:41 GMT 22.94146 118.84796 34,000 225 428 64
2018-01-11 07:37:39 GMT 22.94472 118.85140 34,000 225 428 64
2018-01-11 07:37:37 GMT 22.94844 118.85534 34,000 225 428 0
2018-01-11 07:37:30 GMT 22.95767 118.86508 34,000 225 428 0
2018-01-11 07:37:28 GMT 22.96035 118.86795 34,000 225 428 0
2018-01-11 07:37:26 GMT 22.96303 118.87082 34,000 225 428 0
2018-01-11 07:37:24 GMT 22.96587 118.87382 34,000 225 428 0
2018-01-11 07:37:19 GMT 22.97282 118.88116 34,000 225 428 0
2018-01-11 07:37:10 GMT 22.98646 118.89554 34,000 225 428 0
2018-01-11 07:37:07 GMT 22.98985 118.89919 34,000 225 428 0
2018-01-11 07:37:05 GMT 22.99329 118.90278 34,000 225 428 0
2018-01-11 07:36:57 GMT 23.00416 118.91434 34,000 225 428 0
2018-01-11 07:36:50 GMT 23.01411 118.92481 34,000 225 427 0
2018-01-11 07:36:45 GMT 23.02162 118.93279 34,000 225 427 0
2018-01-11 07:36:42 GMT 23.02515 118.93654 34,000 225 427 0
2018-01-11 07:36:33 GMT 23.03861 118.95077 34,000 225 427 0
2018-01-11 07:36:31 GMT 23.04085 118.95317 34,000 225 427 64
2018-01-11 07:36:22 GMT 23.05215 118.96520 34,000 225 427 0
2018-01-11 07:36:18 GMT 23.05911 118.97254 34,000 225 427 0
2018-01-11 07:36:12 GMT 23.06831 118.98229 34,000 225 427 64
2018-01-11 07:36:10 GMT 23.07042 118.98453 34,000 225 427 64
2018-01-11 07:36:04 GMT 23.07930 118.99399 34,000 225 427 64
2018-01-11 07:36:01 GMT 23.08283 118.99775 33,975 225 427 0
2018-01-11 07:36:00 GMT 23.08498 118.99999 33,975 225 427 0
2018-01-11 07:35:53 GMT 23.09399 119.00960 33,975 225 427 0
2018-01-11 07:35:50 GMT 23.09824 119.01408 34,000 225 426 0
2018-01-11 07:35:40 GMT 23.11360 119.03041 34,000 225 426 0
2018-01-11 07:35:30 GMT 23.12757 119.04521 34,000 225 426 0
2018-01-11 07:35:28 GMT 23.12970 119.04745 34,000 225 426 64
2018-01-11 07:35:24 GMT 23.13614 119.05436 34,000 225 425 0
2018-01-11 07:35:18 GMT 23.14192 119.06049 34,000 225 425 0
2018-01-11 07:35:16 GMT 23.14517 119.06392 34,000 225 425 0
2018-01-11 07:35:10 GMT 23.15587 119.07527 34,000 225 425 0
2018-01-11 07:35:08 GMT 23.15657 119.07602 34,000 225 424 0
2018-01-11 07:35:06 GMT 23.16064 119.08036 34,000 225 424 0
2018-01-11 07:35:00 GMT 23.16907 119.08930 34,000 225 424 0
2018-01-11 07:34:55 GMT 23.17636 119.09709 34,000 225 424 0
2018-01-11 07:34:52 GMT 23.18056 119.10159 34,000 225 424 0
2018-01-11 07:34:48 GMT 23.18532 119.10663 34,000 225 424 0
2018-01-11 07:34:43 GMT 23.19246 119.11427 34,000 225 424 0
2018-01-11 07:34:39 GMT 23.19864 119.12081 34,000 225 423 0
2018-01-11 07:34:36 GMT 23.20187 119.12425 34,000 225 423 0
2018-01-11 07:34:33 GMT 23.20734 119.13005 34,000 225 423 64
2018-01-11 07:34:29 GMT 23.21361 119.13679 34,000 225 422 0
2018-01-11 07:34:22 GMT 23.22142 119.14510 34,000 225 422 0
2018-01-11 07:34:19 GMT 23.22478 119.14868 34,000 225 422 0
2018-01-11 07:34:17 GMT 23.23008 119.15436 34,000 225 422 0
2018-01-11 07:34:15 GMT 23.23219 119.15657 34,000 225 422 0
2018-01-11 07:34:12 GMT 23.23444 119.15896 34,000 225 422 0
2018-01-11 07:34:10 GMT 23.23846 119.16326 34,000 225 422 0
2018-01-11 07:34:06 GMT 23.24364 119.16875 34,000 225 422 0
2018-01-11 07:34:00 GMT 23.25382 119.17959 34,000 225 422 0
2018-01-11 07:33:49 GMT 23.26817 119.19487 34,000 225 421 64
2018-01-11 07:33:44 GMT 23.27403 119.20111 33,975 225 421 64
2018-01-11 07:33:40 GMT 23.27975 119.20720 34,000 225 421 0
2018-01-11 07:33:37 GMT 23.28488 119.21270 33,975 225 420 64
2018-01-11 07:33:33 GMT 23.29088 119.21905 33,975 225 420 64
2018-01-11 07:33:27 GMT 23.30008 119.22883 33,975 225 421 0
2018-01-11 07:33:25 GMT 23.30200 119.23091 33,975 225 421 64
2018-01-11 07:33:22 GMT 23.30577 119.23492 33,975 225 420 0
2018-01-11 07:33:16 GMT 23.31509 119.24486 33,975 225 421 0
2018-01-11 07:33:12 GMT 23.32013 119.25015 33,975 225 420 0
2018-01-11 07:33:04 GMT 23.33114 119.26188 33,975 225 421 0
2018-01-11 07:33:01 GMT 23.33588 119.26688 33,975 225 421 0
2018-01-11 07:32:53 GMT 23.34660 119.27831 34,000 225 420 0
2018-01-11 07:32:51 GMT 23.34979 119.28171 33,975 225 420 0
2018-01-11 07:32:48 GMT 23.35387 119.28601 33,975 225 420 0
2018-01-11 07:32:46 GMT 23.35455 119.28675 33,975 225 420 0
2018-01-11 07:32:42 GMT 23.36261 119.29534 34,000 225 420 0
2018-01-11 07:32:40 GMT 23.36417 119.29694 33,975 225 420 0
2018-01-11 07:32:38 GMT 23.36834 119.30140 34,000 225 420 0
2018-01-11 07:32:33 GMT 23.37250 119.30583 33,975 225 420 0
2018-01-11 07:32:30 GMT 23.37919 119.31295 33,975 225 420 0
2018-01-11 07:32:26 GMT 23.38266 119.31667 33,975 225 420 -64
2018-01-11 07:32:23 GMT 23.38719 119.32156 34,000 225 420 0
2018-01-11 07:32:20 GMT 23.39246 119.32720 34,000 225 420 0
2018-01-11 07:32:17 GMT 23.39676 119.33180 34,000 225 420 0
2018-01-11 07:32:14 GMT 23.39951 119.33479 34,000 225 420 0
2018-01-11 07:32:10 GMT 23.40684 119.34265 34,000 225 420 0
2018-01-11 07:32:08 GMT 23.40768 119.34357 34,000 225 420 0
2018-01-11 07:32:06 GMT 23.41238 119.34860 34,000 225 420 0
2018-01-11 07:32:03 GMT 23.41545 119.35186 34,000 225 420 0
2018-01-11 07:32:00 GMT 23.41891 119.35557 34,000 225 420 64
2018-01-11 07:31:58 GMT 23.42317 119.36016 34,000 225 419 0
2018-01-11 07:31:55 GMT 23.42704 119.36437 33,975 226 417 64
2018-01-11 07:31:47 GMT 23.43765 119.37653 34,000 229 415 0
2018-01-11 07:31:44 GMT 23.44263 119.38263 33,975 230 414 0
2018-01-11 07:31:37 GMT 23.45032 119.39247 34,000 231 411 0
2018-01-11 07:31:35 GMT 23.45137 119.39387 33,975 232 411 0
2018-01-11 07:31:33 GMT 23.45520 119.39906 34,000 233 411 0
2018-01-11 07:31:27 GMT 23.46231 119.40925 34,000 234 409 0
2018-01-11 07:31:25 GMT 23.46456 119.41254 34,000 235 408 0
2018-01-11 07:31:22 GMT 23.46782 119.41757 34,000 236 406 0
2018-01-11 07:31:19 GMT 23.46996 119.42093 34,000 237 406 0
2018-01-11 07:31:14 GMT 23.47591 119.43082 34,000 238 404 0
2018-01-11 07:31:11 GMT 23.47941 119.43685 34,000 238 404 0
2018-01-11 07:31:09 GMT 23.48090 119.43944 34,000 238 404 0
2018-01-11 07:31:06 GMT 23.48241 119.44201 34,000 238 404 0
2018-01-11 07:31:03 GMT 23.48680 119.44960</